<?xml version="1.0" encoding="UTF-8" standalone="no" ?>
<gpx xmlns="http://www.topografix.com/GPX/1/1" xmlns:xsi="http://www.w3.org/2001/XMLSchema-instance" xsi:schemaLocation="http://www.topografix.com/GPX/1/1 http://www.topografix.com/GPX/1/1/gpx.xsd" version="1.1" creator="VisuGPX - https://www.visugpx.com">
  <metadata>
    <name>Rando vtt Fontaine le comte 2018</name>
    <desc><![CDATA[Superbe rando,pleins de singles avec quelques passages techniques....]]></desc>
  </metadata>
  <trk>
    <name><![CDATA[Rando vtt Fontaine le comte 2018]]></name>
    <trkseg>
      <trkpt lat="46.52688" lon="0.26529">
        <ele>179.37</ele>
        <time>2018-09-16T06:31:26.780Z</time>
      </trkpt>
      <trkpt lat="46.52681" lon="0.26541">
        <ele>175.9</ele>
        <time>2018-09-16T06:31:27.780Z</time>
      </trkpt>
      <trkpt lat="46.52675" lon="0.26552">
        <ele>171.86</ele>
        <time>2018-09-16T06:33:31.000Z</time>
      </trkpt>
      <trkpt lat="46.52666" lon="0.26557">
        <ele>171.52</ele>
        <time>2018-09-16T06:34:05.000Z</time>
      </trkpt>
      <trkpt lat="46.5266" lon="0.26567">
        <ele>171.83</ele>
        <time>2018-09-16T06:34:10.000Z</time>
      </trkpt>
      <trkpt lat="46.52655" lon="0.2658">
        <ele>172.18</ele>
        <time>2018-09-16T06:34:15.000Z</time>
      </trkpt>
      <trkpt lat="46.52652" lon="0.26594">
        <ele>172.5</ele>
        <time>2018-09-16T06:34:20.000Z</time>
      </trkpt>
      <trkpt lat="46.52651" lon="0.26609">
        <ele>172.87</ele>
        <time>2018-09-16T06:34:25.000Z</time>
      </trkpt>
      <trkpt lat="46.52651" lon="0.26622">
        <ele>173.22</ele>
        <time>2018-09-16T06:34:29.000Z</time>
      </trkpt>
      <trkpt lat="46.52652" lon="0.26636">
        <ele>173.61</ele>
        <time>2018-09-16T06:34:33.000Z</time>
      </trkpt>
      <trkpt lat="46.52652" lon="0.26651">
        <ele>174.05</ele>
        <time>2018-09-16T06:34:37.000Z</time>
      </trkpt>
      <trkpt lat="46.52654" lon="0.26666">
        <ele>174.54</ele>
        <time>2018-09-16T06:34:41.000Z</time>
      </trkpt>
      <trkpt lat="46.52654" lon="0.2668">
        <ele>174.94</ele>
        <time>2018-09-16T06:34:44.000Z</time>
      </trkpt>
      <trkpt lat="46.52662" lon="0.26689">
        <ele>175.85</ele>
        <time>2018-09-16T06:34:50.000Z</time>
      </trkpt>
      <trkpt lat="46.52667" lon="0.26701">
        <ele>176.72</ele>
        <time>2018-09-16T06:34:56.000Z</time>
      </trkpt>
      <trkpt lat="46.52667" lon="0.26716">
        <ele>177.24</ele>
        <time>2018-09-16T06:35:06.000Z</time>
      </trkpt>
      <trkpt lat="46.52669" lon="0.26731">
        <ele>177.58</ele>
        <time>2018-09-16T06:35:11.000Z</time>
      </trkpt>
      <trkpt lat="46.5267" lon="0.26746">
        <ele>178.03</ele>
        <time>2018-09-16T06:35:15.000Z</time>
      </trkpt>
      <trkpt lat="46.52675" lon="0.2676">
        <ele>178.74</ele>
        <time>2018-09-16T06:35:20.000Z</time>
      </trkpt>
      <trkpt lat="46.52679" lon="0.26772">
        <ele>179.35</ele>
        <time>2018-09-16T06:35:24.000Z</time>
      </trkpt>
      <trkpt lat="46.52686" lon="0.26785">
        <ele>180.02</ele>
        <time>2018-09-16T06:35:29.000Z</time>
      </trkpt>
      <trkpt lat="46.52691" lon="0.26796">
        <ele>180.44</ele>
        <time>2018-09-16T06:35:33.000Z</time>
      </trkpt>
      <trkpt lat="46.52697" lon="0.26808">
        <ele>180.84</ele>
        <time>2018-09-16T06:35:38.000Z</time>
      </trkpt>
      <trkpt lat="46.52704" lon="0.26817">
        <ele>181.18</ele>
        <time>2018-09-16T06:35:43.000Z</time>
      </trkpt>
      <trkpt lat="46.52712" lon="0.26826">
        <ele>181.36</ele>
        <time>2018-09-16T06:35:47.000Z</time>
      </trkpt>
      <trkpt lat="46.52721" lon="0.26837">
        <ele>181.48</ele>
        <time>2018-09-16T06:35:51.000Z</time>
      </trkpt>
      <trkpt lat="46.52729" lon="0.26845">
        <ele>181.56</ele>
        <time>2018-09-16T06:35:55.000Z</time>
      </trkpt>
      <trkpt lat="46.52738" lon="0.26853">
        <ele>181.74</ele>
        <time>2018-09-16T06:36:00.000Z</time>
      </trkpt>
      <trkpt lat="46.52747" lon="0.26858">
        <ele>182.18</ele>
        <time>2018-09-16T06:36:05.000Z</time>
      </trkpt>
      <trkpt lat="46.52756" lon="0.26863">
        <ele>185.27</ele>
        <time>2018-09-16T06:36:37.000Z</time>
      </trkpt>
      <trkpt lat="46.52766" lon="0.26869">
        <ele>186.58</ele>
        <time>2018-09-16T06:36:42.000Z</time>
      </trkpt>
      <trkpt lat="46.52774" lon="0.26875">
        <ele>187.4</ele>
        <time>2018-09-16T06:36:46.000Z</time>
      </trkpt>
      <trkpt lat="46.52783" lon="0.26882">
        <ele>187.94</ele>
        <time>2018-09-16T06:36:49.000Z</time>
      </trkpt>
      <trkpt lat="46.52797" lon="0.26895">
        <ele>190.48</ele>
        <time>2018-09-16T06:36:52.000Z</time>
      </trkpt>
      <trkpt lat="46.52807" lon="0.26906">
        <ele>191.33</ele>
        <time>2018-09-16T06:36:54.000Z</time>
      </trkpt>
      <trkpt lat="46.52817" lon="0.26918">
        <ele>191.61</ele>
        <time>2018-09-16T06:36:56.000Z</time>
      </trkpt>
      <trkpt lat="46.52825" lon="0.2693">
        <ele>191.62</ele>
        <time>2018-09-16T06:36:58.000Z</time>
      </trkpt>
      <trkpt lat="46.52834" lon="0.26946">
        <ele>190.15</ele>
        <time>2018-09-16T06:37:01.000Z</time>
      </trkpt>
      <trkpt lat="46.52842" lon="0.26958">
        <ele>189.66</ele>
        <time>2018-09-16T06:37:03.000Z</time>
      </trkpt>
      <trkpt lat="46.5285" lon="0.26965">
        <ele>189.66</ele>
        <time>2018-09-16T06:37:05.000Z</time>
      </trkpt>
      <trkpt lat="46.52859" lon="0.26973">
        <ele>189.77</ele>
        <time>2018-09-16T06:37:08.000Z</time>
      </trkpt>
      <trkpt lat="46.52871" lon="0.26982">
        <ele>190.18</ele>
        <time>2018-09-16T06:37:12.000Z</time>
      </trkpt>
      <trkpt lat="46.5288" lon="0.26995">
        <ele>190.54</ele>
        <time>2018-09-16T06:37:14.000Z</time>
      </trkpt>
      <trkpt lat="46.52888" lon="0.27007">
        <ele>191.1</ele>
        <time>2018-09-16T06:37:17.000Z</time>
      </trkpt>
      <trkpt lat="46.52895" lon="0.27017">
        <ele>191.47</ele>
        <time>2018-09-16T06:37:19.000Z</time>
      </trkpt>
      <trkpt lat="46.52902" lon="0.27028">
        <ele>191.79</ele>
        <time>2018-09-16T06:37:21.000Z</time>
      </trkpt>
      <trkpt lat="46.5291" lon="0.27043">
        <ele>192.28</ele>
        <time>2018-09-16T06:37:24.000Z</time>
      </trkpt>
      <trkpt lat="46.52918" lon="0.27054">
        <ele>192.56</ele>
        <time>2018-09-16T06:37:26.000Z</time>
      </trkpt>
      <trkpt lat="46.52925" lon="0.27066">
        <ele>192.93</ele>
        <time>2018-09-16T06:37:29.000Z</time>
      </trkpt>
      <trkpt lat="46.52932" lon="0.2708">
        <ele>193.21</ele>
        <time>2018-09-16T06:37:32.000Z</time>
      </trkpt>
      <trkpt lat="46.52936" lon="0.27093">
        <ele>193.39</ele>
        <time>2018-09-16T06:37:36.000Z</time>
      </trkpt>
      <trkpt lat="46.52943" lon="0.27107">
        <ele>193.79</ele>
        <time>2018-09-16T06:37:40.000Z</time>
      </trkpt>
      <trkpt lat="46.52946" lon="0.2712">
        <ele>194.11</ele>
        <time>2018-09-16T06:37:43.000Z</time>
      </trkpt>
      <trkpt lat="46.5295" lon="0.27136">
        <ele>194.64</ele>
        <time>2018-09-16T06:37:47.000Z</time>
      </trkpt>
      <trkpt lat="46.52953" lon="0.27149">
        <ele>194.95</ele>
        <time>2018-09-16T06:37:50.000Z</time>
      </trkpt>
      <trkpt lat="46.52957" lon="0.27161">
        <ele>195.18</ele>
        <time>2018-09-16T06:37:53.000Z</time>
      </trkpt>
      <trkpt lat="46.52962" lon="0.27174">
        <ele>195.36</ele>
        <time>2018-09-16T06:37:56.000Z</time>
      </trkpt>
      <trkpt lat="46.52966" lon="0.27185">
        <ele>195.4</ele>
        <time>2018-09-16T06:37:59.000Z</time>
      </trkpt>
      <trkpt lat="46.52973" lon="0.27196">
        <ele>195.37</ele>
        <time>2018-09-16T06:38:03.000Z</time>
      </trkpt>
      <trkpt lat="46.52981" lon="0.27206">
        <ele>195.55</ele>
        <time>2018-09-16T06:38:08.000Z</time>
      </trkpt>
      <trkpt lat="46.52989" lon="0.27216">
        <ele>195.7</ele>
        <time>2018-09-16T06:38:11.000Z</time>
      </trkpt>
      <trkpt lat="46.52999" lon="0.27227">
        <ele>195.94</ele>
        <time>2018-09-16T06:38:15.000Z</time>
      </trkpt>
      <trkpt lat="46.53009" lon="0.27241">
        <ele>196.36</ele>
        <time>2018-09-16T06:38:19.000Z</time>
      </trkpt>
      <trkpt lat="46.53016" lon="0.27253">
        <ele>196.56</ele>
        <time>2018-09-16T06:38:22.000Z</time>
      </trkpt>
      <trkpt lat="46.53024" lon="0.27263">
        <ele>196.82</ele>
        <time>2018-09-16T06:38:25.000Z</time>
      </trkpt>
      <trkpt lat="46.53032" lon="0.27271">
        <ele>197.3</ele>
        <time>2018-09-16T06:38:29.000Z</time>
      </trkpt>
      <trkpt lat="46.53041" lon="0.27279">
        <ele>197.93</ele>
        <time>2018-09-16T06:38:33.000Z</time>
      </trkpt>
      <trkpt lat="46.53049" lon="0.2729">
        <ele>198.28</ele>
        <time>2018-09-16T06:38:36.000Z</time>
      </trkpt>
      <trkpt lat="46.53056" lon="0.273">
        <ele>198.65</ele>
        <time>2018-09-16T06:38:39.000Z</time>
      </trkpt>
      <trkpt lat="46.53064" lon="0.27312">
        <ele>198.93</ele>
        <time>2018-09-16T06:38:42.000Z</time>
      </trkpt>
      <trkpt lat="46.53072" lon="0.27321">
        <ele>199.17</ele>
        <time>2018-09-16T06:38:45.000Z</time>
      </trkpt>
      <trkpt lat="46.53079" lon="0.2733">
        <ele>199.33</ele>
        <time>2018-09-16T06:38:48.000Z</time>
      </trkpt>
      <trkpt lat="46.53088" lon="0.2734">
        <ele>199.4</ele>
        <time>2018-09-16T06:38:52.000Z</time>
      </trkpt>
      <trkpt lat="46.53096" lon="0.27348">
        <ele>199.39</ele>
        <time>2018-09-16T06:38:55.000Z</time>
      </trkpt>
      <trkpt lat="46.53104" lon="0.27357">
        <ele>199.3</ele>
        <time>2018-09-16T06:38:58.000Z</time>
      </trkpt>
      <trkpt lat="46.53114" lon="0.27366">
        <ele>199.3</ele>
        <time>2018-09-16T06:39:02.000Z</time>
      </trkpt>
      <trkpt lat="46.53123" lon="0.27376">
        <ele>199.36</ele>
        <time>2018-09-16T06:39:05.000Z</time>
      </trkpt>
      <trkpt lat="46.53131" lon="0.27384">
        <ele>199.56</ele>
        <time>2018-09-16T06:39:08.000Z</time>
      </trkpt>
      <trkpt lat="46.5314" lon="0.27395">
        <ele>199.74</ele>
        <time>2018-09-16T06:39:10.000Z</time>
      </trkpt>
      <trkpt lat="46.53149" lon="0.27404">
        <ele>200.02</ele>
        <time>2018-09-16T06:39:12.000Z</time>
      </trkpt>
      <trkpt lat="46.53156" lon="0.27414">
        <ele>200.36</ele>
        <time>2018-09-16T06:39:14.000Z</time>
      </trkpt>
      <trkpt lat="46.53162" lon="0.27427">
        <ele>200.89</ele>
        <time>2018-09-16T06:39:17.000Z</time>
      </trkpt>
      <trkpt lat="46.5317" lon="0.27438">
        <ele>201.5</ele>
        <time>2018-09-16T06:39:21.000Z</time>
      </trkpt>
      <trkpt lat="46.53178" lon="0.27448">
        <ele>202.02</ele>
        <time>2018-09-16T06:39:24.000Z</time>
      </trkpt>
      <trkpt lat="46.53185" lon="0.27458">
        <ele>202.39</ele>
        <time>2018-09-16T06:39:26.000Z</time>
      </trkpt>
      <trkpt lat="46.53193" lon="0.27468">
        <ele>202.92</ele>
        <time>2018-09-16T06:39:29.000Z</time>
      </trkpt>
      <trkpt lat="46.53202" lon="0.27481">
        <ele>203.39</ele>
        <time>2018-09-16T06:39:32.000Z</time>
      </trkpt>
      <trkpt lat="46.53209" lon="0.27493">
        <ele>204.01</ele>
        <time>2018-09-16T06:39:36.000Z</time>
      </trkpt>
      <trkpt lat="46.53217" lon="0.27504">
        <ele>204.56</ele>
        <time>2018-09-16T06:39:40.000Z</time>
      </trkpt>
      <trkpt lat="46.53223" lon="0.27515">
        <ele>204.74</ele>
        <time>2018-09-16T06:39:42.000Z</time>
      </trkpt>
      <trkpt lat="46.53232" lon="0.27528">
        <ele>204.98</ele>
        <time>2018-09-16T06:39:45.000Z</time>
      </trkpt>
      <trkpt lat="46.53239" lon="0.27539">
        <ele>205.21</ele>
        <time>2018-09-16T06:39:48.000Z</time>
      </trkpt>
      <trkpt lat="46.53246" lon="0.27555">
        <ele>205.46</ele>
        <time>2018-09-16T06:39:52.000Z</time>
      </trkpt>
      <trkpt lat="46.53254" lon="0.27568">
        <ele>205.51</ele>
        <time>2018-09-16T06:39:55.000Z</time>
      </trkpt>
      <trkpt lat="46.53265" lon="0.27581">
        <ele>205.55</ele>
        <time>2018-09-16T06:39:58.000Z</time>
      </trkpt>
      <trkpt lat="46.53273" lon="0.27595">
        <ele>205.59</ele>
        <time>2018-09-16T06:40:01.000Z</time>
      </trkpt>
      <trkpt lat="46.5328" lon="0.27609">
        <ele>205.67</ele>
        <time>2018-09-16T06:40:03.000Z</time>
      </trkpt>
      <trkpt lat="46.53287" lon="0.27626">
        <ele>205.81</ele>
        <time>2018-09-16T06:40:06.000Z</time>
      </trkpt>
      <trkpt lat="46.53291" lon="0.27643">
        <ele>205.86</ele>
        <time>2018-09-16T06:40:08.000Z</time>
      </trkpt>
      <trkpt lat="46.5329" lon="0.27658">
        <ele>205.68</ele>
        <time>2018-09-16T06:40:11.000Z</time>
      </trkpt>
      <trkpt lat="46.5328" lon="0.27659">
        <ele>205.22</ele>
        <time>2018-09-16T06:40:15.000Z</time>
      </trkpt>
      <trkpt lat="46.53267" lon="0.27658">
        <ele>203.62</ele>
        <time>2018-09-16T06:40:18.000Z</time>
      </trkpt>
      <trkpt lat="46.53254" lon="0.2766">
        <ele>202.11</ele>
        <time>2018-09-16T06:40:20.000Z</time>
      </trkpt>
      <trkpt lat="46.53241" lon="0.27664">
        <ele>200.08</ele>
        <time>2018-09-16T06:40:22.000Z</time>
      </trkpt>
      <trkpt lat="46.53231" lon="0.2767">
        <ele>197.81</ele>
        <time>2018-09-16T06:40:24.000Z</time>
      </trkpt>
      <trkpt lat="46.53221" lon="0.27678">
        <ele>196.51</ele>
        <time>2018-09-16T06:40:26.000Z</time>
      </trkpt>
      <trkpt lat="46.53212" lon="0.27686">
        <ele>195.97</ele>
        <time>2018-09-16T06:40:28.000Z</time>
      </trkpt>
      <trkpt lat="46.53202" lon="0.27694">
        <ele>196.15</ele>
        <time>2018-09-16T06:40:30.000Z</time>
      </trkpt>
      <trkpt lat="46.53194" lon="0.27702">
        <ele>196.63</ele>
        <time>2018-09-16T06:40:32.000Z</time>
      </trkpt>
      <trkpt lat="46.53185" lon="0.27709">
        <ele>197.09</ele>
        <time>2018-09-16T06:40:34.000Z</time>
      </trkpt>
      <trkpt lat="46.53176" lon="0.27715">
        <ele>197.38</ele>
        <time>2018-09-16T06:40:36.000Z</time>
      </trkpt>
      <trkpt lat="46.53168" lon="0.27723">
        <ele>197.54</ele>
        <time>2018-09-16T06:40:38.000Z</time>
      </trkpt>
      <trkpt lat="46.53159" lon="0.27731">
        <ele>197.34</ele>
        <time>2018-09-16T06:40:40.000Z</time>
      </trkpt>
      <trkpt lat="46.53151" lon="0.27739">
        <ele>197.19</ele>
        <time>2018-09-16T06:40:42.000Z</time>
      </trkpt>
      <trkpt lat="46.53142" lon="0.27746">
        <ele>197.4</ele>
        <time>2018-09-16T06:40:44.000Z</time>
      </trkpt>
      <trkpt lat="46.53133" lon="0.27754">
        <ele>197.86</ele>
        <time>2018-09-16T06:40:46.000Z</time>
      </trkpt>
      <trkpt lat="46.53124" lon="0.27761">
        <ele>198.49</ele>
        <time>2018-09-16T06:40:48.000Z</time>
      </trkpt>
      <trkpt lat="46.53116" lon="0.27769">
        <ele>198.9</ele>
        <time>2018-09-16T06:40:50.000Z</time>
      </trkpt>
      <trkpt lat="46.53107" lon="0.27776">
        <ele>199.43</ele>
        <time>2018-09-16T06:40:52.000Z</time>
      </trkpt>
      <trkpt lat="46.53098" lon="0.27782">
        <ele>200.03</ele>
        <time>2018-09-16T06:40:54.000Z</time>
      </trkpt>
      <trkpt lat="46.53089" lon="0.2779">
        <ele>200.59</ele>
        <time>2018-09-16T06:40:56.000Z</time>
      </trkpt>
      <trkpt lat="46.5308" lon="0.27797">
        <ele>201.03</ele>
        <time>2018-09-16T06:40:58.000Z</time>
      </trkpt>
      <trkpt lat="46.53072" lon="0.27804">
        <ele>201.33</ele>
        <time>2018-09-16T06:41:00.000Z</time>
      </trkpt>
      <trkpt lat="46.53064" lon="0.27811">
        <ele>201.57</ele>
        <time>2018-09-16T06:41:02.000Z</time>
      </trkpt>
      <trkpt lat="46.53053" lon="0.27821">
        <ele>202.03</ele>
        <time>2018-09-16T06:41:05.000Z</time>
      </trkpt>
      <trkpt lat="46.53042" lon="0.27829">
        <ele>202.33</ele>
        <time>2018-09-16T06:41:08.000Z</time>
      </trkpt>
      <trkpt lat="46.53031" lon="0.27822">
        <ele>202.8</ele>
        <time>2018-09-16T06:41:11.000Z</time>
      </trkpt>
      <trkpt lat="46.53025" lon="0.27812">
        <ele>203.52</ele>
        <time>2018-09-16T06:41:13.000Z</time>
      </trkpt>
      <trkpt lat="46.53015" lon="0.278">
        <ele>204.43</ele>
        <time>2018-09-16T06:41:16.000Z</time>
      </trkpt>
      <trkpt lat="46.53005" lon="0.27788">
        <ele>204.55</ele>
        <time>2018-09-16T06:41:19.000Z</time>
      </trkpt>
      <trkpt lat="46.52996" lon="0.27776">
        <ele>204.5</ele>
        <time>2018-09-16T06:41:22.000Z</time>
      </trkpt>
      <trkpt lat="46.52988" lon="0.27768">
        <ele>204.4</ele>
        <time>2018-09-16T06:41:24.000Z</time>
      </trkpt>
      <trkpt lat="46.52978" lon="0.27756">
        <ele>204.14</ele>
        <time>2018-09-16T06:41:27.000Z</time>
      </trkpt>
      <trkpt lat="46.52969" lon="0.27746">
        <ele>204.17</ele>
        <time>2018-09-16T06:41:30.000Z</time>
      </trkpt>
      <trkpt lat="46.52959" lon="0.27734">
        <ele>204.34</ele>
        <time>2018-09-16T06:41:33.000Z</time>
      </trkpt>
      <trkpt lat="46.5295" lon="0.27722">
        <ele>204.6</ele>
        <time>2018-09-16T06:41:36.000Z</time>
      </trkpt>
      <trkpt lat="46.52939" lon="0.2771">
        <ele>204.92</ele>
        <time>2018-09-16T06:41:39.000Z</time>
      </trkpt>
      <trkpt lat="46.5293" lon="0.27698">
        <ele>205.36</ele>
        <time>2018-09-16T06:41:42.000Z</time>
      </trkpt>
      <trkpt lat="46.52921" lon="0.27686">
        <ele>205.44</ele>
        <time>2018-09-16T06:41:45.000Z</time>
      </trkpt>
      <trkpt lat="46.52913" lon="0.27675">
        <ele>206.27</ele>
        <time>2018-09-16T06:41:48.000Z</time>
      </trkpt>
      <trkpt lat="46.52902" lon="0.27662">
        <ele>207.21</ele>
        <time>2018-09-16T06:41:51.000Z</time>
      </trkpt>
      <trkpt lat="46.52892" lon="0.27649">
        <ele>208.17</ele>
        <time>2018-09-16T06:41:54.000Z</time>
      </trkpt>
      <trkpt lat="46.52882" lon="0.27638">
        <ele>209.1</ele>
        <time>2018-09-16T06:41:57.000Z</time>
      </trkpt>
      <trkpt lat="46.52875" lon="0.2763">
        <ele>209.37</ele>
        <time>2018-09-16T06:41:59.000Z</time>
      </trkpt>
      <trkpt lat="46.52863" lon="0.2762">
        <ele>209.15</ele>
        <time>2018-09-16T06:42:02.000Z</time>
      </trkpt>
      <trkpt lat="46.52854" lon="0.27625">
        <ele>208.25</ele>
        <time>2018-09-16T06:42:04.000Z</time>
      </trkpt>
      <trkpt lat="46.52848" lon="0.27637">
        <ele>207.31</ele>
        <time>2018-09-16T06:42:06.000Z</time>
      </trkpt>
      <trkpt lat="46.5284" lon="0.27648">
        <ele>206.86</ele>
        <time>2018-09-16T06:42:08.000Z</time>
      </trkpt>
      <trkpt lat="46.52832" lon="0.27658">
        <ele>206.47</ele>
        <time>2018-09-16T06:42:10.000Z</time>
      </trkpt>
      <trkpt lat="46.52824" lon="0.27668">
        <ele>206.34</ele>
        <time>2018-09-16T06:42:12.000Z</time>
      </trkpt>
      <trkpt lat="46.52815" lon="0.27677">
        <ele>206.42</ele>
        <time>2018-09-16T06:42:14.000Z</time>
      </trkpt>
      <trkpt lat="46.52807" lon="0.27687">
        <ele>206.62</ele>
        <time>2018-09-16T06:42:16.000Z</time>
      </trkpt>
      <trkpt lat="46.52798" lon="0.27696">
        <ele>206.84</ele>
        <time>2018-09-16T06:42:18.000Z</time>
      </trkpt>
      <trkpt lat="46.5279" lon="0.27706">
        <ele>207</ele>
        <time>2018-09-16T06:42:20.000Z</time>
      </trkpt>
      <trkpt lat="46.52782" lon="0.27714">
        <ele>207.05</ele>
        <time>2018-09-16T06:42:22.000Z</time>
      </trkpt>
      <trkpt lat="46.52775" lon="0.27722">
        <ele>206.95</ele>
        <time>2018-09-16T06:42:24.000Z</time>
      </trkpt>
      <trkpt lat="46.52766" lon="0.27725">
        <ele>207.05</ele>
        <time>2018-09-16T06:42:26.000Z</time>
      </trkpt>
      <trkpt lat="46.52756" lon="0.27724">
        <ele>207.46</ele>
        <time>2018-09-16T06:42:28.000Z</time>
      </trkpt>
      <trkpt lat="46.52747" lon="0.27721">
        <ele>208.01</ele>
        <time>2018-09-16T06:42:30.000Z</time>
      </trkpt>
      <trkpt lat="46.52736" lon="0.27723">
        <ele>208.62</ele>
        <time>2018-09-16T06:42:32.000Z</time>
      </trkpt>
      <trkpt lat="46.52726" lon="0.2773">
        <ele>209.04</ele>
        <time>2018-09-16T06:42:34.000Z</time>
      </trkpt>
      <trkpt lat="46.52718" lon="0.27743">
        <ele>209.07</ele>
        <time>2018-09-16T06:42:36.000Z</time>
      </trkpt>
      <trkpt lat="46.52715" lon="0.27758">
        <ele>208.82</ele>
        <time>2018-09-16T06:42:38.000Z</time>
      </trkpt>
      <trkpt lat="46.52713" lon="0.27775">
        <ele>208.14</ele>
        <time>2018-09-16T06:42:40.000Z</time>
      </trkpt>
      <trkpt lat="46.52712" lon="0.2779">
        <ele>207.46</ele>
        <time>2018-09-16T06:42:42.000Z</time>
      </trkpt>
      <trkpt lat="46.52707" lon="0.27807">
        <ele>207.05</ele>
        <time>2018-09-16T06:42:45.000Z</time>
      </trkpt>
      <trkpt lat="46.5271" lon="0.27822">
        <ele>207.12</ele>
        <time>2018-09-16T06:42:50.000Z</time>
      </trkpt>
      <trkpt lat="46.52715" lon="0.27834">
        <ele>207.2</ele>
        <time>2018-09-16T06:42:52.000Z</time>
      </trkpt>
      <trkpt lat="46.52719" lon="0.27847">
        <ele>208.29</ele>
        <time>2018-09-16T06:42:54.000Z</time>
      </trkpt>
      <trkpt lat="46.52723" lon="0.27862">
        <ele>208.76</ele>
        <time>2018-09-16T06:42:56.000Z</time>
      </trkpt>
      <trkpt lat="46.52727" lon="0.27874">
        <ele>208.93</ele>
        <time>2018-09-16T06:42:58.000Z</time>
      </trkpt>
      <trkpt lat="46.52731" lon="0.27887">
        <ele>208.78</ele>
        <time>2018-09-16T06:43:00.000Z</time>
      </trkpt>
      <trkpt lat="46.52733" lon="0.27903">
        <ele>208.7</ele>
        <time>2018-09-16T06:43:02.000Z</time>
      </trkpt>
      <trkpt lat="46.52732" lon="0.27917">
        <ele>207.69</ele>
        <time>2018-09-16T06:43:04.000Z</time>
      </trkpt>
      <trkpt lat="46.52731" lon="0.27934">
        <ele>207.39</ele>
        <time>2018-09-16T06:43:07.000Z</time>
      </trkpt>
      <trkpt lat="46.52729" lon="0.27953">
        <ele>207.12</ele>
        <time>2018-09-16T06:43:10.000Z</time>
      </trkpt>
      <trkpt lat="46.52728" lon="0.27968">
        <ele>206.87</ele>
        <time>2018-09-16T06:43:13.000Z</time>
      </trkpt>
      <trkpt lat="46.52733" lon="0.27982">
        <ele>206.71</ele>
        <time>2018-09-16T06:43:16.000Z</time>
      </trkpt>
      <trkpt lat="46.52738" lon="0.27995">
        <ele>206.64</ele>
        <time>2018-09-16T06:43:19.000Z</time>
      </trkpt>
      <trkpt lat="46.52744" lon="0.28011">
        <ele>206.47</ele>
        <time>2018-09-16T06:43:22.000Z</time>
      </trkpt>
      <trkpt lat="46.52744" lon="0.28026">
        <ele>206.32</ele>
        <time>2018-09-16T06:43:25.000Z</time>
      </trkpt>
      <trkpt lat="46.52734" lon="0.28022">
        <ele>206.31</ele>
        <time>2018-09-16T06:43:30.000Z</time>
      </trkpt>
      <trkpt lat="46.52721" lon="0.28011">
        <ele>206.5</ele>
        <time>2018-09-16T06:43:34.000Z</time>
      </trkpt>
      <trkpt lat="46.52712" lon="0.28003">
        <ele>206.71</ele>
        <time>2018-09-16T06:43:37.000Z</time>
      </trkpt>
      <trkpt lat="46.52704" lon="0.27995">
        <ele>206.86</ele>
        <time>2018-09-16T06:43:39.000Z</time>
      </trkpt>
      <trkpt lat="46.52696" lon="0.27988">
        <ele>206.97</ele>
        <time>2018-09-16T06:43:41.000Z</time>
      </trkpt>
      <trkpt lat="46.52686" lon="0.27983">
        <ele>207.35</ele>
        <time>2018-09-16T06:43:44.000Z</time>
      </trkpt>
      <trkpt lat="46.52675" lon="0.27986">
        <ele>206.84</ele>
        <time>2018-09-16T06:43:46.000Z</time>
      </trkpt>
      <trkpt lat="46.52667" lon="0.27995">
        <ele>204.98</ele>
        <time>2018-09-16T06:43:48.000Z</time>
      </trkpt>
      <trkpt lat="46.52657" lon="0.28001">
        <ele>203.17</ele>
        <time>2018-09-16T06:43:50.000Z</time>
      </trkpt>
      <trkpt lat="46.52646" lon="0.28004">
        <ele>202.27</ele>
        <time>2018-09-16T06:43:52.000Z</time>
      </trkpt>
      <trkpt lat="46.52636" lon="0.28007">
        <ele>201.97</ele>
        <time>2018-09-16T06:43:54.000Z</time>
      </trkpt>
      <trkpt lat="46.52625" lon="0.28013">
        <ele>201.94</ele>
        <time>2018-09-16T06:43:56.000Z</time>
      </trkpt>
      <trkpt lat="46.52616" lon="0.2802">
        <ele>201.92</ele>
        <time>2018-09-16T06:43:58.000Z</time>
      </trkpt>
      <trkpt lat="46.52607" lon="0.28031">
        <ele>201.77</ele>
        <time>2018-09-16T06:44:00.000Z</time>
      </trkpt>
      <trkpt lat="46.526" lon="0.28043">
        <ele>201.57</ele>
        <time>2018-09-16T06:44:02.000Z</time>
      </trkpt>
      <trkpt lat="46.52593" lon="0.28053">
        <ele>201.53</ele>
        <time>2018-09-16T06:44:05.000Z</time>
      </trkpt>
      <trkpt lat="46.52587" lon="0.28038">
        <ele>201.74</ele>
        <time>2018-09-16T06:44:09.000Z</time>
      </trkpt>
      <trkpt lat="46.52583" lon="0.28025">
        <ele>201.71</ele>
        <time>2018-09-16T06:44:11.000Z</time>
      </trkpt>
      <trkpt lat="46.52577" lon="0.2801">
        <ele>200.82</ele>
        <time>2018-09-16T06:44:14.000Z</time>
      </trkpt>
      <trkpt lat="46.52572" lon="0.27993">
        <ele>199.66</ele>
        <time>2018-09-16T06:44:17.000Z</time>
      </trkpt>
      <trkpt lat="46.52563" lon="0.27978">
        <ele>199.85</ele>
        <time>2018-09-16T06:44:20.000Z</time>
      </trkpt>
      <trkpt lat="46.52554" lon="0.2797">
        <ele>200.06</ele>
        <time>2018-09-16T06:44:22.000Z</time>
      </trkpt>
      <trkpt lat="46.52547" lon="0.27961">
        <ele>200.87</ele>
        <time>2018-09-16T06:44:24.000Z</time>
      </trkpt>
      <trkpt lat="46.52536" lon="0.27948">
        <ele>201.71</ele>
        <time>2018-09-16T06:44:27.000Z</time>
      </trkpt>
      <trkpt lat="46.52527" lon="0.27936">
        <ele>202.27</ele>
        <time>2018-09-16T06:44:29.000Z</time>
      </trkpt>
      <trkpt lat="46.5252" lon="0.27927">
        <ele>202.17</ele>
        <time>2018-09-16T06:44:31.000Z</time>
      </trkpt>
      <trkpt lat="46.52511" lon="0.27915">
        <ele>201.57</ele>
        <time>2018-09-16T06:44:33.000Z</time>
      </trkpt>
      <trkpt lat="46.525" lon="0.27902">
        <ele>200.92</ele>
        <time>2018-09-16T06:44:35.000Z</time>
      </trkpt>
      <trkpt lat="46.52491" lon="0.27888">
        <ele>200.62</ele>
        <time>2018-09-16T06:44:37.000Z</time>
      </trkpt>
      <trkpt lat="46.52482" lon="0.27876">
        <ele>200.75</ele>
        <time>2018-09-16T06:44:39.000Z</time>
      </trkpt>
      <trkpt lat="46.52475" lon="0.27865">
        <ele>201.94</ele>
        <time>2018-09-16T06:44:41.000Z</time>
      </trkpt>
      <trkpt lat="46.52465" lon="0.27852">
        <ele>202.78</ele>
        <time>2018-09-16T06:44:43.000Z</time>
      </trkpt>
      <trkpt lat="46.52459" lon="0.27843">
        <ele>202.94</ele>
        <time>2018-09-16T06:44:44.000Z</time>
      </trkpt>
      <trkpt lat="46.52447" lon="0.27827">
        <ele>202.6</ele>
        <time>2018-09-16T06:44:46.000Z</time>
      </trkpt>
      <trkpt lat="46.52436" lon="0.27812">
        <ele>202.08</ele>
        <time>2018-09-16T06:44:48.000Z</time>
      </trkpt>
      <trkpt lat="46.52428" lon="0.278">
        <ele>201.32</ele>
        <time>2018-09-16T06:44:50.000Z</time>
      </trkpt>
      <trkpt lat="46.52418" lon="0.27786">
        <ele>200.83</ele>
        <time>2018-09-16T06:44:52.000Z</time>
      </trkpt>
      <trkpt lat="46.52407" lon="0.27772">
        <ele>200.92</ele>
        <time>2018-09-16T06:44:54.000Z</time>
      </trkpt>
      <trkpt lat="46.52397" lon="0.27758">
        <ele>201.13</ele>
        <time>2018-09-16T06:44:56.000Z</time>
      </trkpt>
      <trkpt lat="46.52389" lon="0.27744">
        <ele>201.48</ele>
        <time>2018-09-16T06:44:58.000Z</time>
      </trkpt>
      <trkpt lat="46.5238" lon="0.27734">
        <ele>201.82</ele>
        <time>2018-09-16T06:45:00.000Z</time>
      </trkpt>
      <trkpt lat="46.52366" lon="0.27721">
        <ele>201.95</ele>
        <time>2018-09-16T06:45:02.000Z</time>
      </trkpt>
      <trkpt lat="46.52356" lon="0.2771">
        <ele>201.77</ele>
        <time>2018-09-16T06:45:04.000Z</time>
      </trkpt>
      <trkpt lat="46.52346" lon="0.27705">
        <ele>201.44</ele>
        <time>2018-09-16T06:45:06.000Z</time>
      </trkpt>
      <trkpt lat="46.52333" lon="0.27704">
        <ele>200.51</ele>
        <time>2018-09-16T06:45:08.000Z</time>
      </trkpt>
      <trkpt lat="46.52318" lon="0.27702">
        <ele>199.16</ele>
        <time>2018-09-16T06:45:10.000Z</time>
      </trkpt>
      <trkpt lat="46.52303" lon="0.27695">
        <ele>198.01</ele>
        <time>2018-09-16T06:45:12.000Z</time>
      </trkpt>
      <trkpt lat="46.5229" lon="0.27689">
        <ele>197.33</ele>
        <time>2018-09-16T06:45:14.000Z</time>
      </trkpt>
      <trkpt lat="46.52278" lon="0.27678">
        <ele>196.78</ele>
        <time>2018-09-16T06:45:16.000Z</time>
      </trkpt>
      <trkpt lat="46.52266" lon="0.27668">
        <ele>196.21</ele>
        <time>2018-09-16T06:45:18.000Z</time>
      </trkpt>
      <trkpt lat="46.52252" lon="0.27659">
        <ele>195.47</ele>
        <time>2018-09-16T06:45:20.000Z</time>
      </trkpt>
      <trkpt lat="46.52236" lon="0.27649">
        <ele>194.7</ele>
        <time>2018-09-16T06:45:22.000Z</time>
      </trkpt>
      <trkpt lat="46.52221" lon="0.27641">
        <ele>193.76</ele>
        <time>2018-09-16T06:45:24.000Z</time>
      </trkpt>
      <trkpt lat="46.52208" lon="0.27632">
        <ele>192.79</ele>
        <time>2018-09-16T06:45:26.000Z</time>
      </trkpt>
      <trkpt lat="46.52196" lon="0.27624">
        <ele>191.85</ele>
        <time>2018-09-16T06:45:28.000Z</time>
      </trkpt>
      <trkpt lat="46.52185" lon="0.27617">
        <ele>191.12</ele>
        <time>2018-09-16T06:45:30.000Z</time>
      </trkpt>
      <trkpt lat="46.52174" lon="0.27608">
        <ele>190.75</ele>
        <time>2018-09-16T06:45:32.000Z</time>
      </trkpt>
      <trkpt lat="46.52165" lon="0.27598">
        <ele>190.63</ele>
        <time>2018-09-16T06:45:34.000Z</time>
      </trkpt>
      <trkpt lat="46.52155" lon="0.27594">
        <ele>190.61</ele>
        <time>2018-09-16T06:45:36.000Z</time>
      </trkpt>
      <trkpt lat="46.52142" lon="0.27587">
        <ele>190.45</ele>
        <time>2018-09-16T06:45:38.000Z</time>
      </trkpt>
      <trkpt lat="46.5213" lon="0.27579">
        <ele>190.13</ele>
        <time>2018-09-16T06:45:40.000Z</time>
      </trkpt>
      <trkpt lat="46.52118" lon="0.27572">
        <ele>189.7</ele>
        <time>2018-09-16T06:45:42.000Z</time>
      </trkpt>
      <trkpt lat="46.52106" lon="0.27565">
        <ele>189.34</ele>
        <time>2018-09-16T06:45:44.000Z</time>
      </trkpt>
      <trkpt lat="46.52094" lon="0.27561">
        <ele>188.95</ele>
        <time>2018-09-16T06:45:46.000Z</time>
      </trkpt>
      <trkpt lat="46.52084" lon="0.27556">
        <ele>188.41</ele>
        <time>2018-09-16T06:45:48.000Z</time>
      </trkpt>
      <trkpt lat="46.52074" lon="0.27551">
        <ele>187.87</ele>
        <time>2018-09-16T06:45:50.000Z</time>
      </trkpt>
      <trkpt lat="46.52063" lon="0.27547">
        <ele>187.22</ele>
        <time>2018-09-16T06:45:52.000Z</time>
      </trkpt>
      <trkpt lat="46.52052" lon="0.27544">
        <ele>186.58</ele>
        <time>2018-09-16T06:45:54.000Z</time>
      </trkpt>
      <trkpt lat="46.5204" lon="0.27541">
        <ele>185.99</ele>
        <time>2018-09-16T06:45:56.000Z</time>
      </trkpt>
      <trkpt lat="46.52031" lon="0.27538">
        <ele>185.41</ele>
        <time>2018-09-16T06:45:58.000Z</time>
      </trkpt>
      <trkpt lat="46.52021" lon="0.27535">
        <ele>184.72</ele>
        <time>2018-09-16T06:46:00.000Z</time>
      </trkpt>
      <trkpt lat="46.52009" lon="0.27531">
        <ele>184.58</ele>
        <time>2018-09-16T06:46:02.000Z</time>
      </trkpt>
      <trkpt lat="46.51998" lon="0.27529">
        <ele>184.58</ele>
        <time>2018-09-16T06:46:04.000Z</time>
      </trkpt>
      <trkpt lat="46.51987" lon="0.27526">
        <ele>184.64</ele>
        <time>2018-09-16T06:46:06.000Z</time>
      </trkpt>
      <trkpt lat="46.51975" lon="0.27522">
        <ele>184.94</ele>
        <time>2018-09-16T06:46:08.000Z</time>
      </trkpt>
      <trkpt lat="46.51964" lon="0.27519">
        <ele>185.11</ele>
        <time>2018-09-16T06:46:10.000Z</time>
      </trkpt>
      <trkpt lat="46.51955" lon="0.27522">
        <ele>185.08</ele>
        <time>2018-09-16T06:46:12.000Z</time>
      </trkpt>
      <trkpt lat="46.51956" lon="0.27538">
        <ele>184.42</ele>
        <time>2018-09-16T06:46:16.000Z</time>
      </trkpt>
      <trkpt lat="46.51963" lon="0.27549">
        <ele>183.65</ele>
        <time>2018-09-16T06:46:18.000Z</time>
      </trkpt>
      <trkpt lat="46.51969" lon="0.2756">
        <ele>183.46</ele>
        <time>2018-09-16T06:46:20.000Z</time>
      </trkpt>
      <trkpt lat="46.51973" lon="0.27573">
        <ele>183.6</ele>
        <time>2018-09-16T06:46:22.000Z</time>
      </trkpt>
      <trkpt lat="46.51977" lon="0.27595">
        <ele>183.28</ele>
        <time>2018-09-16T06:46:24.000Z</time>
      </trkpt>
      <trkpt lat="46.51978" lon="0.27614">
        <ele>182.2</ele>
        <time>2018-09-16T06:46:26.000Z</time>
      </trkpt>
      <trkpt lat="46.51978" lon="0.27634">
        <ele>181.53</ele>
        <time>2018-09-16T06:46:28.000Z</time>
      </trkpt>
      <trkpt lat="46.51976" lon="0.27654">
        <ele>181.06</ele>
        <time>2018-09-16T06:46:30.000Z</time>
      </trkpt>
      <trkpt lat="46.51975" lon="0.27673">
        <ele>180.62</ele>
        <time>2018-09-16T06:46:32.000Z</time>
      </trkpt>
      <trkpt lat="46.51975" lon="0.27691">
        <ele>180.32</ele>
        <time>2018-09-16T06:46:34.000Z</time>
      </trkpt>
      <trkpt lat="46.51974" lon="0.2771">
        <ele>180.22</ele>
        <time>2018-09-16T06:46:36.000Z</time>
      </trkpt>
      <trkpt lat="46.51976" lon="0.27727">
        <ele>180.3</ele>
        <time>2018-09-16T06:46:38.000Z</time>
      </trkpt>
      <trkpt lat="46.51978" lon="0.27744">
        <ele>180.49</ele>
        <time>2018-09-16T06:46:40.000Z</time>
      </trkpt>
      <trkpt lat="46.51979" lon="0.27761">
        <ele>180.82</ele>
        <time>2018-09-16T06:46:42.000Z</time>
      </trkpt>
      <trkpt lat="46.51983" lon="0.27777">
        <ele>181.31</ele>
        <time>2018-09-16T06:46:44.000Z</time>
      </trkpt>
      <trkpt lat="46.51985" lon="0.27793">
        <ele>181.88</ele>
        <time>2018-09-16T06:46:46.000Z</time>
      </trkpt>
      <trkpt lat="46.51986" lon="0.27808">
        <ele>182.51</ele>
        <time>2018-09-16T06:46:48.000Z</time>
      </trkpt>
      <trkpt lat="46.51988" lon="0.27823">
        <ele>183.11</ele>
        <time>2018-09-16T06:46:50.000Z</time>
      </trkpt>
      <trkpt lat="46.51989" lon="0.27837">
        <ele>183.67</ele>
        <time>2018-09-16T06:46:52.000Z</time>
      </trkpt>
      <trkpt lat="46.51991" lon="0.27852">
        <ele>184.17</ele>
        <time>2018-09-16T06:46:54.000Z</time>
      </trkpt>
      <trkpt lat="46.51991" lon="0.27865">
        <ele>184.6</ele>
        <time>2018-09-16T06:46:56.000Z</time>
      </trkpt>
      <trkpt lat="46.51992" lon="0.27879">
        <ele>184.99</ele>
        <time>2018-09-16T06:46:58.000Z</time>
      </trkpt>
      <trkpt lat="46.51992" lon="0.27893">
        <ele>185.31</ele>
        <time>2018-09-16T06:47:00.000Z</time>
      </trkpt>
      <trkpt lat="46.51992" lon="0.27908">
        <ele>185.65</ele>
        <time>2018-09-16T06:47:02.000Z</time>
      </trkpt>
      <trkpt lat="46.51992" lon="0.27922">
        <ele>185.96</ele>
        <time>2018-09-16T06:47:04.000Z</time>
      </trkpt>
      <trkpt lat="46.51992" lon="0.27937">
        <ele>186.27</ele>
        <time>2018-09-16T06:47:06.000Z</time>
      </trkpt>
      <trkpt lat="46.51992" lon="0.27951">
        <ele>186.59</ele>
        <time>2018-09-16T06:47:08.000Z</time>
      </trkpt>
      <trkpt lat="46.51993" lon="0.27965">
        <ele>186.89</ele>
        <time>2018-09-16T06:47:10.000Z</time>
      </trkpt>
      <trkpt lat="46.51993" lon="0.27979">
        <ele>187.32</ele>
        <time>2018-09-16T06:47:12.000Z</time>
      </trkpt>
      <trkpt lat="46.51994" lon="0.27993">
        <ele>188.08</ele>
        <time>2018-09-16T06:47:14.000Z</time>
      </trkpt>
      <trkpt lat="46.51994" lon="0.28006">
        <ele>189.01</ele>
        <time>2018-09-16T06:47:16.000Z</time>
      </trkpt>
      <trkpt lat="46.51993" lon="0.2802">
        <ele>189.95</ele>
        <time>2018-09-16T06:47:18.000Z</time>
      </trkpt>
      <trkpt lat="46.51991" lon="0.28036">
        <ele>190.09</ele>
        <time>2018-09-16T06:47:20.000Z</time>
      </trkpt>
      <trkpt lat="46.51988" lon="0.2805">
        <ele>189.84</ele>
        <time>2018-09-16T06:47:22.000Z</time>
      </trkpt>
      <trkpt lat="46.51986" lon="0.28063">
        <ele>189.44</ele>
        <time>2018-09-16T06:47:24.000Z</time>
      </trkpt>
      <trkpt lat="46.51979" lon="0.28072">
        <ele>189.28</ele>
        <time>2018-09-16T06:47:26.000Z</time>
      </trkpt>
      <trkpt lat="46.51968" lon="0.2807">
        <ele>189.62</ele>
        <time>2018-09-16T06:47:29.000Z</time>
      </trkpt>
      <trkpt lat="46.51959" lon="0.28068">
        <ele>189.94</ele>
        <time>2018-09-16T06:47:31.000Z</time>
      </trkpt>
      <trkpt lat="46.51949" lon="0.28066">
        <ele>190.01</ele>
        <time>2018-09-16T06:47:33.000Z</time>
      </trkpt>
      <trkpt lat="46.51939" lon="0.28064">
        <ele>190.04</ele>
        <time>2018-09-16T06:47:35.000Z</time>
      </trkpt>
      <trkpt lat="46.51927" lon="0.28061">
        <ele>190.16</ele>
        <time>2018-09-16T06:47:37.000Z</time>
      </trkpt>
      <trkpt lat="46.51916" lon="0.28058">
        <ele>190.07</ele>
        <time>2018-09-16T06:47:39.000Z</time>
      </trkpt>
      <trkpt lat="46.51904" lon="0.28056">
        <ele>189.77</ele>
        <time>2018-09-16T06:47:41.000Z</time>
      </trkpt>
      <trkpt lat="46.51891" lon="0.28053">
        <ele>189.76</ele>
        <time>2018-09-16T06:47:43.000Z</time>
      </trkpt>
      <trkpt lat="46.51879" lon="0.28051">
        <ele>189.77</ele>
        <time>2018-09-16T06:47:45.000Z</time>
      </trkpt>
      <trkpt lat="46.51867" lon="0.28049">
        <ele>189.77</ele>
        <time>2018-09-16T06:47:47.000Z</time>
      </trkpt>
      <trkpt lat="46.51854" lon="0.28046">
        <ele>189.56</ele>
        <time>2018-09-16T06:47:49.000Z</time>
      </trkpt>
      <trkpt lat="46.51841" lon="0.28044">
        <ele>188.87</ele>
        <time>2018-09-16T06:47:51.000Z</time>
      </trkpt>
      <trkpt lat="46.51828" lon="0.28049">
        <ele>187.24</ele>
        <time>2018-09-16T06:47:53.000Z</time>
      </trkpt>
      <trkpt lat="46.51825" lon="0.28066">
        <ele>185.96</ele>
        <time>2018-09-16T06:47:55.000Z</time>
      </trkpt>
      <trkpt lat="46.51828" lon="0.28082">
        <ele>184.91</ele>
        <time>2018-09-16T06:47:57.000Z</time>
      </trkpt>
      <trkpt lat="46.5183" lon="0.28098">
        <ele>184.49</ele>
        <time>2018-09-16T06:47:59.000Z</time>
      </trkpt>
      <trkpt lat="46.51832" lon="0.28114">
        <ele>184.04</ele>
        <time>2018-09-16T06:48:01.000Z</time>
      </trkpt>
      <trkpt lat="46.51833" lon="0.28128">
        <ele>184.26</ele>
        <time>2018-09-16T06:48:03.000Z</time>
      </trkpt>
      <trkpt lat="46.51833" lon="0.28143">
        <ele>185</ele>
        <time>2018-09-16T06:48:05.000Z</time>
      </trkpt>
      <trkpt lat="46.51835" lon="0.28157">
        <ele>186.07</ele>
        <time>2018-09-16T06:48:07.000Z</time>
      </trkpt>
      <trkpt lat="46.51838" lon="0.28174">
        <ele>186.57</ele>
        <time>2018-09-16T06:48:09.000Z</time>
      </trkpt>
      <trkpt lat="46.51839" lon="0.2819">
        <ele>186.43</ele>
        <time>2018-09-16T06:48:11.000Z</time>
      </trkpt>
      <trkpt lat="46.51842" lon="0.28206">
        <ele>186.11</ele>
        <time>2018-09-16T06:48:13.000Z</time>
      </trkpt>
      <trkpt lat="46.51844" lon="0.28222">
        <ele>185.5</ele>
        <time>2018-09-16T06:48:15.000Z</time>
      </trkpt>
      <trkpt lat="46.51847" lon="0.28239">
        <ele>184.88</ele>
        <time>2018-09-16T06:48:17.000Z</time>
      </trkpt>
      <trkpt lat="46.51846" lon="0.28257">
        <ele>183.84</ele>
        <time>2018-09-16T06:48:19.000Z</time>
      </trkpt>
      <trkpt lat="46.51842" lon="0.28278">
        <ele>182.27</ele>
        <time>2018-09-16T06:48:21.000Z</time>
      </trkpt>
      <trkpt lat="46.51834" lon="0.28296">
        <ele>180.6</ele>
        <time>2018-09-16T06:48:23.000Z</time>
      </trkpt>
      <trkpt lat="46.51826" lon="0.28314">
        <ele>179.47</ele>
        <time>2018-09-16T06:48:25.000Z</time>
      </trkpt>
      <trkpt lat="46.51817" lon="0.28334">
        <ele>178.65</ele>
        <time>2018-09-16T06:48:27.000Z</time>
      </trkpt>
      <trkpt lat="46.51806" lon="0.28354">
        <ele>177.91</ele>
        <time>2018-09-16T06:48:29.000Z</time>
      </trkpt>
      <trkpt lat="46.51796" lon="0.28375">
        <ele>177.27</ele>
        <time>2018-09-16T06:48:31.000Z</time>
      </trkpt>
      <trkpt lat="46.51791" lon="0.28386">
        <ele>177.02</ele>
        <time>2018-09-16T06:48:32.000Z</time>
      </trkpt>
      <trkpt lat="46.51787" lon="0.28398">
        <ele>176.82</ele>
        <time>2018-09-16T06:48:33.000Z</time>
      </trkpt>
      <trkpt lat="46.51785" lon="0.28411">
        <ele>176.66</ele>
        <time>2018-09-16T06:48:34.000Z</time>
      </trkpt>
      <trkpt lat="46.51784" lon="0.28424">
        <ele>176.47</ele>
        <time>2018-09-16T06:48:35.000Z</time>
      </trkpt>
      <trkpt lat="46.51785" lon="0.28438">
        <ele>176.24</ele>
        <time>2018-09-16T06:48:36.000Z</time>
      </trkpt>
      <trkpt lat="46.51785" lon="0.28451">
        <ele>176.04</ele>
        <time>2018-09-16T06:48:37.000Z</time>
      </trkpt>
      <trkpt lat="46.51786" lon="0.28464">
        <ele>175.72</ele>
        <time>2018-09-16T06:48:38.000Z</time>
      </trkpt>
      <trkpt lat="46.51786" lon="0.28478">
        <ele>175.44</ele>
        <time>2018-09-16T06:48:39.000Z</time>
      </trkpt>
      <trkpt lat="46.51787" lon="0.28491">
        <ele>175.19</ele>
        <time>2018-09-16T06:48:40.000Z</time>
      </trkpt>
      <trkpt lat="46.51788" lon="0.28517">
        <ele>174.79</ele>
        <time>2018-09-16T06:48:42.000Z</time>
      </trkpt>
      <trkpt lat="46.5179" lon="0.2853">
        <ele>174.57</ele>
        <time>2018-09-16T06:48:43.000Z</time>
      </trkpt>
      <trkpt lat="46.51794" lon="0.28555">
        <ele>174.09</ele>
        <time>2018-09-16T06:48:45.000Z</time>
      </trkpt>
      <trkpt lat="46.51799" lon="0.28579">
        <ele>173.49</ele>
        <time>2018-09-16T06:48:47.000Z</time>
      </trkpt>
      <trkpt lat="46.51804" lon="0.28604">
        <ele>172.81</ele>
        <time>2018-09-16T06:48:49.000Z</time>
      </trkpt>
      <trkpt lat="46.51808" lon="0.28627">
        <ele>172.29</ele>
        <time>2018-09-16T06:48:51.000Z</time>
      </trkpt>
      <trkpt lat="46.51807" lon="0.28645">
        <ele>171.53</ele>
        <time>2018-09-16T06:48:53.000Z</time>
      </trkpt>
      <trkpt lat="46.51796" lon="0.28656">
        <ele>170.67</ele>
        <time>2018-09-16T06:48:55.000Z</time>
      </trkpt>
      <trkpt lat="46.51786" lon="0.28659">
        <ele>170.2</ele>
        <time>2018-09-16T06:48:57.000Z</time>
      </trkpt>
      <trkpt lat="46.51775" lon="0.28666">
        <ele>170</ele>
        <time>2018-09-16T06:49:00.000Z</time>
      </trkpt>
      <trkpt lat="46.51774" lon="0.28683">
        <ele>169.83</ele>
        <time>2018-09-16T06:49:03.000Z</time>
      </trkpt>
      <trkpt lat="46.51777" lon="0.287">
        <ele>169.28</ele>
        <time>2018-09-16T06:49:06.000Z</time>
      </trkpt>
      <trkpt lat="46.51778" lon="0.28713">
        <ele>169.17</ele>
        <time>2018-09-16T06:49:08.000Z</time>
      </trkpt>
      <trkpt lat="46.5178" lon="0.28727">
        <ele>169.24</ele>
        <time>2018-09-16T06:49:10.000Z</time>
      </trkpt>
      <trkpt lat="46.51781" lon="0.28742">
        <ele>169.13</ele>
        <time>2018-09-16T06:49:12.000Z</time>
      </trkpt>
      <trkpt lat="46.51784" lon="0.28758">
        <ele>169.11</ele>
        <time>2018-09-16T06:49:14.000Z</time>
      </trkpt>
      <trkpt lat="46.51786" lon="0.28774">
        <ele>169.06</ele>
        <time>2018-09-16T06:49:16.000Z</time>
      </trkpt>
      <trkpt lat="46.5179" lon="0.2879">
        <ele>169.03</ele>
        <time>2018-09-16T06:49:18.000Z</time>
      </trkpt>
      <trkpt lat="46.51791" lon="0.28805">
        <ele>169.16</ele>
        <time>2018-09-16T06:49:20.000Z</time>
      </trkpt>
      <trkpt lat="46.51794" lon="0.28819">
        <ele>169.4</ele>
        <time>2018-09-16T06:49:22.000Z</time>
      </trkpt>
      <trkpt lat="46.51797" lon="0.28836">
        <ele>169.59</ele>
        <time>2018-09-16T06:49:24.000Z</time>
      </trkpt>
      <trkpt lat="46.518" lon="0.28854">
        <ele>169.69</ele>
        <time>2018-09-16T06:49:26.000Z</time>
      </trkpt>
      <trkpt lat="46.51803" lon="0.28871">
        <ele>169.53</ele>
        <time>2018-09-16T06:49:28.000Z</time>
      </trkpt>
      <trkpt lat="46.51806" lon="0.28887">
        <ele>169.04</ele>
        <time>2018-09-16T06:49:30.000Z</time>
      </trkpt>
      <trkpt lat="46.5181" lon="0.28902">
        <ele>168.65</ele>
        <time>2018-09-16T06:49:32.000Z</time>
      </trkpt>
      <trkpt lat="46.51813" lon="0.28918">
        <ele>167.85</ele>
        <time>2018-09-16T06:49:34.000Z</time>
      </trkpt>
      <trkpt lat="46.51815" lon="0.28936">
        <ele>166.35</ele>
        <time>2018-09-16T06:49:36.000Z</time>
      </trkpt>
      <trkpt lat="46.51819" lon="0.28952">
        <ele>165.32</ele>
        <time>2018-09-16T06:49:38.000Z</time>
      </trkpt>
      <trkpt lat="46.51822" lon="0.28967">
        <ele>164.48</ele>
        <time>2018-09-16T06:49:40.000Z</time>
      </trkpt>
      <trkpt lat="46.51823" lon="0.28983">
        <ele>163.79</ele>
        <time>2018-09-16T06:49:42.000Z</time>
      </trkpt>
      <trkpt lat="46.51825" lon="0.28999">
        <ele>163.29</ele>
        <time>2018-09-16T06:49:44.000Z</time>
      </trkpt>
      <trkpt lat="46.51826" lon="0.29013">
        <ele>163.25</ele>
        <time>2018-09-16T06:49:46.000Z</time>
      </trkpt>
      <trkpt lat="46.51828" lon="0.29027">
        <ele>163.44</ele>
        <time>2018-09-16T06:49:48.000Z</time>
      </trkpt>
      <trkpt lat="46.51833" lon="0.29041">
        <ele>164.05</ele>
        <time>2018-09-16T06:49:50.000Z</time>
      </trkpt>
      <trkpt lat="46.5184" lon="0.29055">
        <ele>164.73</ele>
        <time>2018-09-16T06:49:52.000Z</time>
      </trkpt>
      <trkpt lat="46.51848" lon="0.29073">
        <ele>164.58</ele>
        <time>2018-09-16T06:49:54.000Z</time>
      </trkpt>
      <trkpt lat="46.51855" lon="0.2909">
        <ele>163.81</ele>
        <time>2018-09-16T06:49:56.000Z</time>
      </trkpt>
      <trkpt lat="46.51862" lon="0.29108">
        <ele>163.43</ele>
        <time>2018-09-16T06:49:58.000Z</time>
      </trkpt>
      <trkpt lat="46.51868" lon="0.29126">
        <ele>162.7</ele>
        <time>2018-09-16T06:50:00.000Z</time>
      </trkpt>
      <trkpt lat="46.51876" lon="0.29143">
        <ele>162.14</ele>
        <time>2018-09-16T06:50:02.000Z</time>
      </trkpt>
      <trkpt lat="46.51883" lon="0.29159">
        <ele>161.35</ele>
        <time>2018-09-16T06:50:04.000Z</time>
      </trkpt>
      <trkpt lat="46.5189" lon="0.29175">
        <ele>160.68</ele>
        <time>2018-09-16T06:50:06.000Z</time>
      </trkpt>
      <trkpt lat="46.51897" lon="0.29189">
        <ele>159.96</ele>
        <time>2018-09-16T06:50:08.000Z</time>
      </trkpt>
      <trkpt lat="46.51903" lon="0.29206">
        <ele>159.07</ele>
        <time>2018-09-16T06:50:10.000Z</time>
      </trkpt>
      <trkpt lat="46.5191" lon="0.29224">
        <ele>158.13</ele>
        <time>2018-09-16T06:50:12.000Z</time>
      </trkpt>
      <trkpt lat="46.51918" lon="0.29241">
        <ele>157.41</ele>
        <time>2018-09-16T06:50:14.000Z</time>
      </trkpt>
      <trkpt lat="46.51924" lon="0.2925">
        <ele>156.95</ele>
        <time>2018-09-16T06:50:15.000Z</time>
      </trkpt>
      <trkpt lat="46.51934" lon="0.29265">
        <ele>155.82</ele>
        <time>2018-09-16T06:50:17.000Z</time>
      </trkpt>
      <trkpt lat="46.51941" lon="0.2928">
        <ele>154.32</ele>
        <time>2018-09-16T06:50:19.000Z</time>
      </trkpt>
      <trkpt lat="46.51949" lon="0.29298">
        <ele>153.42</ele>
        <time>2018-09-16T06:50:21.000Z</time>
      </trkpt>
      <trkpt lat="46.51957" lon="0.29313">
        <ele>152.65</ele>
        <time>2018-09-16T06:50:23.000Z</time>
      </trkpt>
      <trkpt lat="46.51965" lon="0.29326">
        <ele>152.08</ele>
        <time>2018-09-16T06:50:25.000Z</time>
      </trkpt>
      <trkpt lat="46.51973" lon="0.29339">
        <ele>151.7</ele>
        <time>2018-09-16T06:50:27.000Z</time>
      </trkpt>
      <trkpt lat="46.5198" lon="0.29351">
        <ele>151.7</ele>
        <time>2018-09-16T06:50:29.000Z</time>
      </trkpt>
      <trkpt lat="46.51989" lon="0.29362">
        <ele>152.06</ele>
        <time>2018-09-16T06:50:31.000Z</time>
      </trkpt>
      <trkpt lat="46.51997" lon="0.29375">
        <ele>152.45</ele>
        <time>2018-09-16T06:50:33.000Z</time>
      </trkpt>
      <trkpt lat="46.52005" lon="0.29387">
        <ele>152.98</ele>
        <time>2018-09-16T06:50:35.000Z</time>
      </trkpt>
      <trkpt lat="46.52015" lon="0.29401">
        <ele>153.33</ele>
        <time>2018-09-16T06:50:37.000Z</time>
      </trkpt>
      <trkpt lat="46.52023" lon="0.29414">
        <ele>153.41</ele>
        <time>2018-09-16T06:50:39.000Z</time>
      </trkpt>
      <trkpt lat="46.52031" lon="0.29427">
        <ele>153.67</ele>
        <time>2018-09-16T06:50:41.000Z</time>
      </trkpt>
      <trkpt lat="46.52041" lon="0.29438">
        <ele>153.93</ele>
        <time>2018-09-16T06:50:43.000Z</time>
      </trkpt>
      <trkpt lat="46.52051" lon="0.29448">
        <ele>154.26</ele>
        <time>2018-09-16T06:50:45.000Z</time>
      </trkpt>
      <trkpt lat="46.52061" lon="0.29458">
        <ele>154.39</ele>
        <time>2018-09-16T06:50:47.000Z</time>
      </trkpt>
      <trkpt lat="46.52071" lon="0.29467">
        <ele>154.6</ele>
        <time>2018-09-16T06:50:49.000Z</time>
      </trkpt>
      <trkpt lat="46.5208" lon="0.29476">
        <ele>154.86</ele>
        <time>2018-09-16T06:50:51.000Z</time>
      </trkpt>
      <trkpt lat="46.5209" lon="0.29486">
        <ele>155.03</ele>
        <time>2018-09-16T06:50:53.000Z</time>
      </trkpt>
      <trkpt lat="46.521" lon="0.29496">
        <ele>155.11</ele>
        <time>2018-09-16T06:50:55.000Z</time>
      </trkpt>
      <trkpt lat="46.52109" lon="0.29505">
        <ele>155.34</ele>
        <time>2018-09-16T06:50:57.000Z</time>
      </trkpt>
      <trkpt lat="46.52119" lon="0.29517">
        <ele>155.51</ele>
        <time>2018-09-16T06:50:59.000Z</time>
      </trkpt>
      <trkpt lat="46.52127" lon="0.29527">
        <ele>155.48</ele>
        <time>2018-09-16T06:51:01.000Z</time>
      </trkpt>
      <trkpt lat="46.52136" lon="0.29538">
        <ele>155.46</ele>
        <time>2018-09-16T06:51:03.000Z</time>
      </trkpt>
      <trkpt lat="46.52146" lon="0.29549">
        <ele>155.08</ele>
        <time>2018-09-16T06:51:05.000Z</time>
      </trkpt>
      <trkpt lat="46.52155" lon="0.2956">
        <ele>154.76</ele>
        <time>2018-09-16T06:51:07.000Z</time>
      </trkpt>
      <trkpt lat="46.52166" lon="0.29572">
        <ele>154.19</ele>
        <time>2018-09-16T06:51:09.000Z</time>
      </trkpt>
      <trkpt lat="46.52177" lon="0.29584">
        <ele>154.11</ele>
        <time>2018-09-16T06:51:11.000Z</time>
      </trkpt>
      <trkpt lat="46.52187" lon="0.29595">
        <ele>154.39</ele>
        <time>2018-09-16T06:51:13.000Z</time>
      </trkpt>
      <trkpt lat="46.52198" lon="0.29605">
        <ele>155.36</ele>
        <time>2018-09-16T06:51:15.000Z</time>
      </trkpt>
      <trkpt lat="46.52208" lon="0.29616">
        <ele>155.95</ele>
        <time>2018-09-16T06:51:17.000Z</time>
      </trkpt>
      <trkpt lat="46.52217" lon="0.29626">
        <ele>156.42</ele>
        <time>2018-09-16T06:51:19.000Z</time>
      </trkpt>
      <trkpt lat="46.52227" lon="0.29637">
        <ele>156.84</ele>
        <time>2018-09-16T06:51:21.000Z</time>
      </trkpt>
      <trkpt lat="46.52237" lon="0.29647">
        <ele>157.42</ele>
        <time>2018-09-16T06:51:23.000Z</time>
      </trkpt>
      <trkpt lat="46.52247" lon="0.29658">
        <ele>158.04</ele>
        <time>2018-09-16T06:51:25.000Z</time>
      </trkpt>
      <trkpt lat="46.52255" lon="0.29669">
        <ele>158.16</ele>
        <time>2018-09-16T06:51:27.000Z</time>
      </trkpt>
      <trkpt lat="46.5226" lon="0.2968">
        <ele>158.14</ele>
        <time>2018-09-16T06:51:30.000Z</time>
      </trkpt>
      <trkpt lat="46.52259" lon="0.29693">
        <ele>158.15</ele>
        <time>2018-09-16T06:51:34.000Z</time>
      </trkpt>
      <trkpt lat="46.52254" lon="0.29706">
        <ele>158.28</ele>
        <time>2018-09-16T06:51:38.000Z</time>
      </trkpt>
      <trkpt lat="46.52242" lon="0.29712">
        <ele>158.47</ele>
        <time>2018-09-16T06:51:43.000Z</time>
      </trkpt>
      <trkpt lat="46.52233" lon="0.29712">
        <ele>158.71</ele>
        <time>2018-09-16T06:51:47.000Z</time>
      </trkpt>
      <trkpt lat="46.52225" lon="0.29708">
        <ele>158.95</ele>
        <time>2018-09-16T06:51:50.000Z</time>
      </trkpt>
      <trkpt lat="46.52215" lon="0.29706">
        <ele>159.2</ele>
        <time>2018-09-16T06:51:53.000Z</time>
      </trkpt>
      <trkpt lat="46.52206" lon="0.29706">
        <ele>159.79</ele>
        <time>2018-09-16T06:51:59.000Z</time>
      </trkpt>
      <trkpt lat="46.52197" lon="0.29703">
        <ele>160.36</ele>
        <time>2018-09-16T06:52:04.000Z</time>
      </trkpt>
      <trkpt lat="46.52187" lon="0.297">
        <ele>161</ele>
        <time>2018-09-16T06:52:09.000Z</time>
      </trkpt>
      <trkpt lat="46.52175" lon="0.29695">
        <ele>161.58</ele>
        <time>2018-09-16T06:52:13.000Z</time>
      </trkpt>
      <trkpt lat="46.52165" lon="0.29692">
        <ele>162.61</ele>
        <time>2018-09-16T06:52:20.000Z</time>
      </trkpt>
      <trkpt lat="46.52157" lon="0.29685">
        <ele>163.3</ele>
        <time>2018-09-16T06:52:25.000Z</time>
      </trkpt>
      <trkpt lat="46.52148" lon="0.29671">
        <ele>163.57</ele>
        <time>2018-09-16T06:52:28.000Z</time>
      </trkpt>
      <trkpt lat="46.52137" lon="0.29659">
        <ele>163.81</ele>
        <time>2018-09-16T06:52:31.000Z</time>
      </trkpt>
      <trkpt lat="46.52129" lon="0.2965">
        <ele>163.94</ele>
        <time>2018-09-16T06:52:34.000Z</time>
      </trkpt>
      <trkpt lat="46.5212" lon="0.2964">
        <ele>163.9</ele>
        <time>2018-09-16T06:52:37.000Z</time>
      </trkpt>
      <trkpt lat="46.52111" lon="0.2963">
        <ele>163.99</ele>
        <time>2018-09-16T06:52:40.000Z</time>
      </trkpt>
      <trkpt lat="46.521" lon="0.29619">
        <ele>164.09</ele>
        <time>2018-09-16T06:52:43.000Z</time>
      </trkpt>
      <trkpt lat="46.52091" lon="0.29609">
        <ele>164.11</ele>
        <time>2018-09-16T06:52:46.000Z</time>
      </trkpt>
      <trkpt lat="46.52081" lon="0.29598">
        <ele>164.15</ele>
        <time>2018-09-16T06:52:49.000Z</time>
      </trkpt>
      <trkpt lat="46.52072" lon="0.29589">
        <ele>164.25</ele>
        <time>2018-09-16T06:52:52.000Z</time>
      </trkpt>
      <trkpt lat="46.52062" lon="0.2958">
        <ele>164.38</ele>
        <time>2018-09-16T06:52:55.000Z</time>
      </trkpt>
      <trkpt lat="46.52052" lon="0.2957">
        <ele>164.58</ele>
        <time>2018-09-16T06:52:58.000Z</time>
      </trkpt>
      <trkpt lat="46.52043" lon="0.29563">
        <ele>164.68</ele>
        <time>2018-09-16T06:53:01.000Z</time>
      </trkpt>
      <trkpt lat="46.52034" lon="0.29557">
        <ele>164.73</ele>
        <time>2018-09-16T06:53:04.000Z</time>
      </trkpt>
      <trkpt lat="46.52024" lon="0.29553">
        <ele>164.78</ele>
        <time>2018-09-16T06:53:07.000Z</time>
      </trkpt>
      <trkpt lat="46.52014" lon="0.29553">
        <ele>164.79</ele>
        <time>2018-09-16T06:53:10.000Z</time>
      </trkpt>
      <trkpt lat="46.52004" lon="0.29553">
        <ele>164.8</ele>
        <time>2018-09-16T06:53:14.000Z</time>
      </trkpt>
      <trkpt lat="46.51995" lon="0.29557">
        <ele>164.9</ele>
        <time>2018-09-16T06:53:18.000Z</time>
      </trkpt>
      <trkpt lat="46.51999" lon="0.2957">
        <ele>165.72</ele>
        <time>2018-09-16T06:53:28.000Z</time>
      </trkpt>
      <trkpt lat="46.52008" lon="0.29579">
        <ele>166.13</ele>
        <time>2018-09-16T06:53:32.000Z</time>
      </trkpt>
      <trkpt lat="46.52016" lon="0.29589">
        <ele>166.49</ele>
        <time>2018-09-16T06:53:35.000Z</time>
      </trkpt>
      <trkpt lat="46.52022" lon="0.29598">
        <ele>166.79</ele>
        <time>2018-09-16T06:53:38.000Z</time>
      </trkpt>
      <trkpt lat="46.5203" lon="0.2961">
        <ele>167.38</ele>
        <time>2018-09-16T06:53:43.000Z</time>
      </trkpt>
      <trkpt lat="46.52037" lon="0.2962">
        <ele>167.9</ele>
        <time>2018-09-16T06:53:47.000Z</time>
      </trkpt>
      <trkpt lat="46.52045" lon="0.29628">
        <ele>168.25</ele>
        <time>2018-09-16T06:53:50.000Z</time>
      </trkpt>
      <trkpt lat="46.52056" lon="0.29637">
        <ele>168.71</ele>
        <time>2018-09-16T06:53:54.000Z</time>
      </trkpt>
      <trkpt lat="46.52064" lon="0.29645">
        <ele>169.01</ele>
        <time>2018-09-16T06:53:57.000Z</time>
      </trkpt>
      <trkpt lat="46.52071" lon="0.29654">
        <ele>169.37</ele>
        <time>2018-09-16T06:54:00.000Z</time>
      </trkpt>
      <trkpt lat="46.5208" lon="0.29663">
        <ele>169.88</ele>
        <time>2018-09-16T06:54:04.000Z</time>
      </trkpt>
      <trkpt lat="46.52088" lon="0.29673">
        <ele>170.26</ele>
        <time>2018-09-16T06:54:07.000Z</time>
      </trkpt>
      <trkpt lat="46.52097" lon="0.29684">
        <ele>170.77</ele>
        <time>2018-09-16T06:54:11.000Z</time>
      </trkpt>
      <trkpt lat="46.52106" lon="0.29694">
        <ele>170.98</ele>
        <time>2018-09-16T06:54:14.000Z</time>
      </trkpt>
      <trkpt lat="46.52113" lon="0.29703">
        <ele>171.47</ele>
        <time>2018-09-16T06:54:16.000Z</time>
      </trkpt>
      <trkpt lat="46.52122" lon="0.29715">
        <ele>171.91</ele>
        <time>2018-09-16T06:54:19.000Z</time>
      </trkpt>
      <trkpt lat="46.52129" lon="0.29727">
        <ele>172.02</ele>
        <time>2018-09-16T06:54:22.000Z</time>
      </trkpt>
      <trkpt lat="46.52136" lon="0.29741">
        <ele>173.66</ele>
        <time>2018-09-16T06:54:25.000Z</time>
      </trkpt>
      <trkpt lat="46.52143" lon="0.29756">
        <ele>174.23</ele>
        <time>2018-09-16T06:54:28.000Z</time>
      </trkpt>
      <trkpt lat="46.52148" lon="0.29769">
        <ele>174.41</ele>
        <time>2018-09-16T06:54:31.000Z</time>
      </trkpt>
      <trkpt lat="46.52154" lon="0.29783">
        <ele>174.75</ele>
        <time>2018-09-16T06:54:34.000Z</time>
      </trkpt>
      <trkpt lat="46.52161" lon="0.29797">
        <ele>175.27</ele>
        <time>2018-09-16T06:54:38.000Z</time>
      </trkpt>
      <trkpt lat="46.52167" lon="0.2981">
        <ele>175.63</ele>
        <time>2018-09-16T06:54:42.000Z</time>
      </trkpt>
      <trkpt lat="46.52173" lon="0.29823">
        <ele>175.93</ele>
        <time>2018-09-16T06:54:46.000Z</time>
      </trkpt>
      <trkpt lat="46.52179" lon="0.29837">
        <ele>176.22</ele>
        <time>2018-09-16T06:54:50.000Z</time>
      </trkpt>
      <trkpt lat="46.52182" lon="0.29851">
        <ele>176.74</ele>
        <time>2018-09-16T06:54:55.000Z</time>
      </trkpt>
      <trkpt lat="46.52182" lon="0.29866">
        <ele>177.69</ele>
        <time>2018-09-16T06:55:00.000Z</time>
      </trkpt>
      <trkpt lat="46.52181" lon="0.2988">
        <ele>178.55</ele>
        <time>2018-09-16T06:55:04.000Z</time>
      </trkpt>
      <trkpt lat="46.52183" lon="0.29893">
        <ele>179.35</ele>
        <time>2018-09-16T06:55:08.000Z</time>
      </trkpt>
      <trkpt lat="46.52187" lon="0.29906">
        <ele>179.99</ele>
        <time>2018-09-16T06:55:12.000Z</time>
      </trkpt>
      <trkpt lat="46.5219" lon="0.29922">
        <ele>180.62</ele>
        <time>2018-09-16T06:55:17.000Z</time>
      </trkpt>
      <trkpt lat="46.52187" lon="0.29936">
        <ele>181.06</ele>
        <time>2018-09-16T06:55:21.000Z</time>
      </trkpt>
      <trkpt lat="46.52181" lon="0.2995">
        <ele>181.45</ele>
        <time>2018-09-16T06:55:25.000Z</time>
      </trkpt>
      <trkpt lat="46.52174" lon="0.2996">
        <ele>181.82</ele>
        <time>2018-09-16T06:55:28.000Z</time>
      </trkpt>
      <trkpt lat="46.52168" lon="0.29973">
        <ele>182.42</ele>
        <time>2018-09-16T06:55:32.000Z</time>
      </trkpt>
      <trkpt lat="46.52161" lon="0.29983">
        <ele>182.98</ele>
        <time>2018-09-16T06:55:35.000Z</time>
      </trkpt>
      <trkpt lat="46.52153" lon="0.29993">
        <ele>183.51</ele>
        <time>2018-09-16T06:55:38.000Z</time>
      </trkpt>
      <trkpt lat="46.52145" lon="0.30006">
        <ele>184.09</ele>
        <time>2018-09-16T06:55:41.000Z</time>
      </trkpt>
      <trkpt lat="46.52142" lon="0.30018">
        <ele>184.55</ele>
        <time>2018-09-16T06:55:44.000Z</time>
      </trkpt>
      <trkpt lat="46.52153" lon="0.30025">
        <ele>185.73</ele>
        <time>2018-09-16T06:55:47.000Z</time>
      </trkpt>
      <trkpt lat="46.52165" lon="0.3003">
        <ele>186.64</ele>
        <time>2018-09-16T06:55:50.000Z</time>
      </trkpt>
      <trkpt lat="46.52176" lon="0.30037">
        <ele>186.93</ele>
        <time>2018-09-16T06:55:53.000Z</time>
      </trkpt>
      <trkpt lat="46.52187" lon="0.30044">
        <ele>188.18</ele>
        <time>2018-09-16T06:55:56.000Z</time>
      </trkpt>
      <trkpt lat="46.52198" lon="0.30054">
        <ele>188.7</ele>
        <time>2018-09-16T06:55:59.000Z</time>
      </trkpt>
      <trkpt lat="46.52205" lon="0.30062">
        <ele>188.66</ele>
        <time>2018-09-16T06:56:01.000Z</time>
      </trkpt>
      <trkpt lat="46.52214" lon="0.30072">
        <ele>188.97</ele>
        <time>2018-09-16T06:56:04.000Z</time>
      </trkpt>
      <trkpt lat="46.52224" lon="0.30086">
        <ele>189.46</ele>
        <time>2018-09-16T06:56:07.000Z</time>
      </trkpt>
      <trkpt lat="46.52229" lon="0.30097">
        <ele>189.65</ele>
        <time>2018-09-16T06:56:09.000Z</time>
      </trkpt>
      <trkpt lat="46.52236" lon="0.3011">
        <ele>190.29</ele>
        <time>2018-09-16T06:56:12.000Z</time>
      </trkpt>
      <trkpt lat="46.52244" lon="0.30115">
        <ele>190.33</ele>
        <time>2018-09-16T06:56:15.000Z</time>
      </trkpt>
      <trkpt lat="46.52249" lon="0.30099">
        <ele>190.3</ele>
        <time>2018-09-16T06:56:19.000Z</time>
      </trkpt>
      <trkpt lat="46.52253" lon="0.30087">
        <ele>190.35</ele>
        <time>2018-09-16T06:56:22.000Z</time>
      </trkpt>
      <trkpt lat="46.52258" lon="0.30071">
        <ele>190.47</ele>
        <time>2018-09-16T06:56:25.000Z</time>
      </trkpt>
      <trkpt lat="46.52264" lon="0.30058">
        <ele>190.5</ele>
        <time>2018-09-16T06:56:28.000Z</time>
      </trkpt>
      <trkpt lat="46.52266" lon="0.30039">
        <ele>190.33</ele>
        <time>2018-09-16T06:56:31.000Z</time>
      </trkpt>
      <trkpt lat="46.52268" lon="0.30025">
        <ele>190.05</ele>
        <time>2018-09-16T06:56:33.000Z</time>
      </trkpt>
      <trkpt lat="46.52268" lon="0.30008">
        <ele>189.47</ele>
        <time>2018-09-16T06:56:36.000Z</time>
      </trkpt>
      <trkpt lat="46.52268" lon="0.29989">
        <ele>188.57</ele>
        <time>2018-09-16T06:56:39.000Z</time>
      </trkpt>
      <trkpt lat="46.52268" lon="0.29975">
        <ele>187.64</ele>
        <time>2018-09-16T06:56:41.000Z</time>
      </trkpt>
      <trkpt lat="46.5227" lon="0.29957">
        <ele>187.18</ele>
        <time>2018-09-16T06:56:43.000Z</time>
      </trkpt>
      <trkpt lat="46.52272" lon="0.29941">
        <ele>187.41</ele>
        <time>2018-09-16T06:56:45.000Z</time>
      </trkpt>
      <trkpt lat="46.52274" lon="0.29925">
        <ele>187.6</ele>
        <time>2018-09-16T06:56:48.000Z</time>
      </trkpt>
      <trkpt lat="46.52272" lon="0.2991">
        <ele>187.58</ele>
        <time>2018-09-16T06:56:51.000Z</time>
      </trkpt>
      <trkpt lat="46.52272" lon="0.29892">
        <ele>186.93</ele>
        <time>2018-09-16T06:56:53.000Z</time>
      </trkpt>
      <trkpt lat="46.52269" lon="0.29873">
        <ele>186.45</ele>
        <time>2018-09-16T06:56:55.000Z</time>
      </trkpt>
      <trkpt lat="46.52273" lon="0.29861">
        <ele>186.37</ele>
        <time>2018-09-16T06:56:58.000Z</time>
      </trkpt>
      <trkpt lat="46.5228" lon="0.29851">
        <ele>184.99</ele>
        <time>2018-09-16T06:57:00.000Z</time>
      </trkpt>
      <trkpt lat="46.52288" lon="0.29837">
        <ele>183.34</ele>
        <time>2018-09-16T06:57:02.000Z</time>
      </trkpt>
      <trkpt lat="46.52296" lon="0.29827">
        <ele>182.22</ele>
        <time>2018-09-16T06:57:04.000Z</time>
      </trkpt>
      <trkpt lat="46.52302" lon="0.29818">
        <ele>181.16</ele>
        <time>2018-09-16T06:57:06.000Z</time>
      </trkpt>
      <trkpt lat="46.5231" lon="0.29807">
        <ele>180.8</ele>
        <time>2018-09-16T06:57:09.000Z</time>
      </trkpt>
      <trkpt lat="46.52318" lon="0.29799">
        <ele>179.94</ele>
        <time>2018-09-16T06:57:14.000Z</time>
      </trkpt>
      <trkpt lat="46.52327" lon="0.29806">
        <ele>176.49</ele>
        <time>2018-09-16T06:57:16.000Z</time>
      </trkpt>
      <trkpt lat="46.52337" lon="0.29815">
        <ele>173.11</ele>
        <time>2018-09-16T06:57:18.000Z</time>
      </trkpt>
      <trkpt lat="46.52344" lon="0.29824">
        <ele>172.76</ele>
        <time>2018-09-16T06:57:20.000Z</time>
      </trkpt>
      <trkpt lat="46.52353" lon="0.29832">
        <ele>168.88</ele>
        <time>2018-09-16T06:57:22.000Z</time>
      </trkpt>
      <trkpt lat="46.52362" lon="0.2984">
        <ele>168.57</ele>
        <time>2018-09-16T06:57:24.000Z</time>
      </trkpt>
      <trkpt lat="46.52371" lon="0.29853">
        <ele>166.09</ele>
        <time>2018-09-16T06:57:27.000Z</time>
      </trkpt>
      <trkpt lat="46.52377" lon="0.29865">
        <ele>164.55</ele>
        <time>2018-09-16T06:57:29.000Z</time>
      </trkpt>
      <trkpt lat="46.52382" lon="0.29878">
        <ele>161.98</ele>
        <time>2018-09-16T06:57:31.000Z</time>
      </trkpt>
      <trkpt lat="46.52388" lon="0.29892">
        <ele>159.78</ele>
        <time>2018-09-16T06:57:33.000Z</time>
      </trkpt>
      <trkpt lat="46.52395" lon="0.29902">
        <ele>159</ele>
        <time>2018-09-16T06:57:35.000Z</time>
      </trkpt>
      <trkpt lat="46.52401" lon="0.2992">
        <ele>158.13</ele>
        <time>2018-09-16T06:57:38.000Z</time>
      </trkpt>
      <trkpt lat="46.52408" lon="0.29935">
        <ele>157.59</ele>
        <time>2018-09-16T06:57:40.000Z</time>
      </trkpt>
      <trkpt lat="46.52414" lon="0.29947">
        <ele>157.41</ele>
        <time>2018-09-16T06:57:42.000Z</time>
      </trkpt>
      <trkpt lat="46.5242" lon="0.29961">
        <ele>157.7</ele>
        <time>2018-09-16T06:57:44.000Z</time>
      </trkpt>
      <trkpt lat="46.52428" lon="0.29975">
        <ele>157.11</ele>
        <time>2018-09-16T06:57:46.000Z</time>
      </trkpt>
      <trkpt lat="46.52434" lon="0.29987">
        <ele>156.76</ele>
        <time>2018-09-16T06:57:48.000Z</time>
      </trkpt>
      <trkpt lat="46.52443" lon="0.29998">
        <ele>157.29</ele>
        <time>2018-09-16T06:57:50.000Z</time>
      </trkpt>
      <trkpt lat="46.52454" lon="0.30011">
        <ele>157.41</ele>
        <time>2018-09-16T06:57:52.000Z</time>
      </trkpt>
      <trkpt lat="46.52461" lon="0.30024">
        <ele>156.9</ele>
        <time>2018-09-16T06:57:54.000Z</time>
      </trkpt>
      <trkpt lat="46.52469" lon="0.30033">
        <ele>156.35</ele>
        <time>2018-09-16T06:57:56.000Z</time>
      </trkpt>
      <trkpt lat="46.52479" lon="0.30044">
        <ele>156.69</ele>
        <time>2018-09-16T06:57:58.000Z</time>
      </trkpt>
      <trkpt lat="46.52491" lon="0.30053">
        <ele>157.98</ele>
        <time>2018-09-16T06:58:00.000Z</time>
      </trkpt>
      <trkpt lat="46.525" lon="0.30061">
        <ele>158.42</ele>
        <time>2018-09-16T06:58:02.000Z</time>
      </trkpt>
      <trkpt lat="46.52509" lon="0.30072">
        <ele>158.82</ele>
        <time>2018-09-16T06:58:04.000Z</time>
      </trkpt>
      <trkpt lat="46.52519" lon="0.30084">
        <ele>159.51</ele>
        <time>2018-09-16T06:58:06.000Z</time>
      </trkpt>
      <trkpt lat="46.52527" lon="0.30093">
        <ele>160.34</ele>
        <time>2018-09-16T06:58:08.000Z</time>
      </trkpt>
      <trkpt lat="46.52536" lon="0.30105">
        <ele>160.51</ele>
        <time>2018-09-16T06:58:11.000Z</time>
      </trkpt>
      <trkpt lat="46.52544" lon="0.30118">
        <ele>161.18</ele>
        <time>2018-09-16T06:58:14.000Z</time>
      </trkpt>
      <trkpt lat="46.52553" lon="0.3013">
        <ele>161.34</ele>
        <time>2018-09-16T06:58:17.000Z</time>
      </trkpt>
      <trkpt lat="46.52559" lon="0.30142">
        <ele>161.63</ele>
        <time>2018-09-16T06:58:21.000Z</time>
      </trkpt>
      <trkpt lat="46.52553" lon="0.30154">
        <ele>162.13</ele>
        <time>2018-09-16T06:58:26.000Z</time>
      </trkpt>
      <trkpt lat="46.52543" lon="0.3016">
        <ele>163.93</ele>
        <time>2018-09-16T06:58:29.000Z</time>
      </trkpt>
      <trkpt lat="46.52532" lon="0.3017">
        <ele>164.45</ele>
        <time>2018-09-16T06:58:32.000Z</time>
      </trkpt>
      <trkpt lat="46.52523" lon="0.3018">
        <ele>164.9</ele>
        <time>2018-09-16T06:58:35.000Z</time>
      </trkpt>
      <trkpt lat="46.52514" lon="0.30191">
        <ele>165.67</ele>
        <time>2018-09-16T06:58:39.000Z</time>
      </trkpt>
      <trkpt lat="46.52505" lon="0.30199">
        <ele>166.63</ele>
        <time>2018-09-16T06:58:43.000Z</time>
      </trkpt>
      <trkpt lat="46.52496" lon="0.30207">
        <ele>167.62</ele>
        <time>2018-09-16T06:58:47.000Z</time>
      </trkpt>
      <trkpt lat="46.52487" lon="0.30217">
        <ele>168.8</ele>
        <time>2018-09-16T06:58:52.000Z</time>
      </trkpt>
      <trkpt lat="46.52479" lon="0.30223">
        <ele>170.15</ele>
        <time>2018-09-16T06:58:57.000Z</time>
      </trkpt>
      <trkpt lat="46.52489" lon="0.30228">
        <ele>173.66</ele>
        <time>2018-09-16T06:59:10.000Z</time>
      </trkpt>
      <trkpt lat="46.52499" lon="0.3023">
        <ele>175.11</ele>
        <time>2018-09-16T06:59:17.000Z</time>
      </trkpt>
      <trkpt lat="46.52508" lon="0.30231">
        <ele>175.72</ele>
        <time>2018-09-16T06:59:23.000Z</time>
      </trkpt>
      <trkpt lat="46.52518" lon="0.30229">
        <ele>176.03</ele>
        <time>2018-09-16T06:59:28.000Z</time>
      </trkpt>
      <trkpt lat="46.52527" lon="0.30226">
        <ele>176.31</ele>
        <time>2018-09-16T06:59:32.000Z</time>
      </trkpt>
      <trkpt lat="46.52536" lon="0.30223">
        <ele>176.64</ele>
        <time>2018-09-16T06:59:36.000Z</time>
      </trkpt>
      <trkpt lat="46.52548" lon="0.30222">
        <ele>176.99</ele>
        <time>2018-09-16T06:59:40.000Z</time>
      </trkpt>
      <trkpt lat="46.52558" lon="0.3023">
        <ele>177.65</ele>
        <time>2018-09-16T06:59:46.000Z</time>
      </trkpt>
      <trkpt lat="46.52567" lon="0.30236">
        <ele>178.11</ele>
        <time>2018-09-16T06:59:50.000Z</time>
      </trkpt>
      <trkpt lat="46.52576" lon="0.30242">
        <ele>178.52</ele>
        <time>2018-09-16T06:59:54.000Z</time>
      </trkpt>
      <trkpt lat="46.52585" lon="0.30251">
        <ele>178.84</ele>
        <time>2018-09-16T06:59:58.000Z</time>
      </trkpt>
      <trkpt lat="46.52594" lon="0.30261">
        <ele>179.02</ele>
        <time>2018-09-16T07:00:02.000Z</time>
      </trkpt>
      <trkpt lat="46.52602" lon="0.30268">
        <ele>179.06</ele>
        <time>2018-09-16T07:00:05.000Z</time>
      </trkpt>
      <trkpt lat="46.52612" lon="0.30275">
        <ele>179.11</ele>
        <time>2018-09-16T07:00:08.000Z</time>
      </trkpt>
      <trkpt lat="46.52618" lon="0.30288">
        <ele>179.12</ele>
        <time>2018-09-16T07:00:11.000Z</time>
      </trkpt>
      <trkpt lat="46.52623" lon="0.303">
        <ele>179.05</ele>
        <time>2018-09-16T07:00:14.000Z</time>
      </trkpt>
      <trkpt lat="46.52627" lon="0.30312">
        <ele>178.88</ele>
        <time>2018-09-16T07:00:17.000Z</time>
      </trkpt>
      <trkpt lat="46.5263" lon="0.30325">
        <ele>178.71</ele>
        <time>2018-09-16T07:00:20.000Z</time>
      </trkpt>
      <trkpt lat="46.52633" lon="0.3034">
        <ele>178.48</ele>
        <time>2018-09-16T07:00:23.000Z</time>
      </trkpt>
      <trkpt lat="46.52634" lon="0.30356">
        <ele>178.29</ele>
        <time>2018-09-16T07:00:26.000Z</time>
      </trkpt>
      <trkpt lat="46.52634" lon="0.30372">
        <ele>178.09</ele>
        <time>2018-09-16T07:00:29.000Z</time>
      </trkpt>
      <trkpt lat="46.52636" lon="0.30385">
        <ele>177.94</ele>
        <time>2018-09-16T07:00:32.000Z</time>
      </trkpt>
      <trkpt lat="46.52636" lon="0.30399">
        <ele>177.81</ele>
        <time>2018-09-16T07:00:36.000Z</time>
      </trkpt>
      <trkpt lat="46.52639" lon="0.30415">
        <ele>177.81</ele>
        <time>2018-09-16T07:00:40.000Z</time>
      </trkpt>
      <trkpt lat="46.5264" lon="0.3043">
        <ele>177.84</ele>
        <time>2018-09-16T07:00:43.000Z</time>
      </trkpt>
      <trkpt lat="46.5264" lon="0.30446">
        <ele>177.9</ele>
        <time>2018-09-16T07:00:46.000Z</time>
      </trkpt>
      <trkpt lat="46.5264" lon="0.30461">
        <ele>177.93</ele>
        <time>2018-09-16T07:00:49.000Z</time>
      </trkpt>
      <trkpt lat="46.52641" lon="0.30477">
        <ele>178.01</ele>
        <time>2018-09-16T07:00:53.000Z</time>
      </trkpt>
      <trkpt lat="46.52642" lon="0.3049">
        <ele>178.1</ele>
        <time>2018-09-16T07:00:56.000Z</time>
      </trkpt>
      <trkpt lat="46.52644" lon="0.30504">
        <ele>178.26</ele>
        <time>2018-09-16T07:00:59.000Z</time>
      </trkpt>
      <trkpt lat="46.52647" lon="0.30518">
        <ele>178.65</ele>
        <time>2018-09-16T07:01:05.000Z</time>
      </trkpt>
      <trkpt lat="46.52651" lon="0.30532">
        <ele>178.98</ele>
        <time>2018-09-16T07:01:09.000Z</time>
      </trkpt>
      <trkpt lat="46.52657" lon="0.30547">
        <ele>179.81</ele>
        <time>2018-09-16T07:01:12.000Z</time>
      </trkpt>
      <trkpt lat="46.52658" lon="0.30563">
        <ele>180.12</ele>
        <time>2018-09-16T07:01:15.000Z</time>
      </trkpt>
      <trkpt lat="46.52659" lon="0.30576">
        <ele>180.56</ele>
        <time>2018-09-16T07:01:18.000Z</time>
      </trkpt>
      <trkpt lat="46.5266" lon="0.3059">
        <ele>181.05</ele>
        <time>2018-09-16T07:01:21.000Z</time>
      </trkpt>
      <trkpt lat="46.52661" lon="0.30603">
        <ele>181.57</ele>
        <time>2018-09-16T07:01:24.000Z</time>
      </trkpt>
      <trkpt lat="46.52663" lon="0.30619">
        <ele>182.55</ele>
        <time>2018-09-16T07:01:29.000Z</time>
      </trkpt>
      <trkpt lat="46.5267" lon="0.30635">
        <ele>183</ele>
        <time>2018-09-16T07:01:32.000Z</time>
      </trkpt>
      <trkpt lat="46.52675" lon="0.30647">
        <ele>183.34</ele>
        <time>2018-09-16T07:01:35.000Z</time>
      </trkpt>
      <trkpt lat="46.52679" lon="0.30661">
        <ele>183.51</ele>
        <time>2018-09-16T07:01:38.000Z</time>
      </trkpt>
      <trkpt lat="46.52681" lon="0.30676">
        <ele>183.57</ele>
        <time>2018-09-16T07:01:41.000Z</time>
      </trkpt>
      <trkpt lat="46.52683" lon="0.30689">
        <ele>183.66</ele>
        <time>2018-09-16T07:01:44.000Z</time>
      </trkpt>
      <trkpt lat="46.52688" lon="0.30706">
        <ele>183.86</ele>
        <time>2018-09-16T07:01:47.000Z</time>
      </trkpt>
      <trkpt lat="46.52694" lon="0.30718">
        <ele>184.12</ele>
        <time>2018-09-16T07:01:50.000Z</time>
      </trkpt>
      <trkpt lat="46.52703" lon="0.30732">
        <ele>184.39</ele>
        <time>2018-09-16T07:01:53.000Z</time>
      </trkpt>
      <trkpt lat="46.52707" lon="0.30748">
        <ele>184.64</ele>
        <time>2018-09-16T07:01:56.000Z</time>
      </trkpt>
      <trkpt lat="46.5271" lon="0.30766">
        <ele>184.8</ele>
        <time>2018-09-16T07:01:58.000Z</time>
      </trkpt>
      <trkpt lat="46.52712" lon="0.30779">
        <ele>185.06</ele>
        <time>2018-09-16T07:02:01.000Z</time>
      </trkpt>
      <trkpt lat="46.52712" lon="0.30793">
        <ele>185.28</ele>
        <time>2018-09-16T07:02:05.000Z</time>
      </trkpt>
      <trkpt lat="46.52718" lon="0.30806">
        <ele>185.35</ele>
        <time>2018-09-16T07:02:09.000Z</time>
      </trkpt>
      <trkpt lat="46.52725" lon="0.30822">
        <ele>185.16</ele>
        <time>2018-09-16T07:02:12.000Z</time>
      </trkpt>
      <trkpt lat="46.52732" lon="0.30834">
        <ele>184.8</ele>
        <time>2018-09-16T07:02:15.000Z</time>
      </trkpt>
      <trkpt lat="46.52737" lon="0.30846">
        <ele>184.18</ele>
        <time>2018-09-16T07:02:20.000Z</time>
      </trkpt>
      <trkpt lat="46.52744" lon="0.3086">
        <ele>182.69</ele>
        <time>2018-09-16T07:02:23.000Z</time>
      </trkpt>
      <trkpt lat="46.52746" lon="0.30875">
        <ele>182.25</ele>
        <time>2018-09-16T07:02:27.000Z</time>
      </trkpt>
      <trkpt lat="46.52747" lon="0.30888">
        <ele>180.81</ele>
        <time>2018-09-16T07:02:36.000Z</time>
      </trkpt>
      <trkpt lat="46.5275" lon="0.30902">
        <ele>179.87</ele>
        <time>2018-09-16T07:02:41.000Z</time>
      </trkpt>
      <trkpt lat="46.52756" lon="0.30914">
        <ele>179.29</ele>
        <time>2018-09-16T07:02:45.000Z</time>
      </trkpt>
      <trkpt lat="46.5276" lon="0.3093">
        <ele>178.82</ele>
        <time>2018-09-16T07:02:48.000Z</time>
      </trkpt>
      <trkpt lat="46.52762" lon="0.30945">
        <ele>178.11</ele>
        <time>2018-09-16T07:02:52.000Z</time>
      </trkpt>
      <trkpt lat="46.52768" lon="0.30958">
        <ele>177.49</ele>
        <time>2018-09-16T07:02:56.000Z</time>
      </trkpt>
      <trkpt lat="46.52772" lon="0.30971">
        <ele>176.96</ele>
        <time>2018-09-16T07:02:59.000Z</time>
      </trkpt>
      <trkpt lat="46.52778" lon="0.30987">
        <ele>176.39</ele>
        <time>2018-09-16T07:03:02.000Z</time>
      </trkpt>
      <trkpt lat="46.52784" lon="0.30998">
        <ele>175.83</ele>
        <time>2018-09-16T07:03:05.000Z</time>
      </trkpt>
      <trkpt lat="46.52793" lon="0.31007">
        <ele>174.88</ele>
        <time>2018-09-16T07:03:10.000Z</time>
      </trkpt>
      <trkpt lat="46.528" lon="0.3102">
        <ele>174.12</ele>
        <time>2018-09-16T07:03:14.000Z</time>
      </trkpt>
      <trkpt lat="46.52805" lon="0.31034">
        <ele>173.63</ele>
        <time>2018-09-16T07:03:17.000Z</time>
      </trkpt>
      <trkpt lat="46.52811" lon="0.31046">
        <ele>173.27</ele>
        <time>2018-09-16T07:03:20.000Z</time>
      </trkpt>
      <trkpt lat="46.52818" lon="0.31058">
        <ele>172.84</ele>
        <time>2018-09-16T07:03:23.000Z</time>
      </trkpt>
      <trkpt lat="46.52826" lon="0.31073">
        <ele>172.16</ele>
        <time>2018-09-16T07:03:26.000Z</time>
      </trkpt>
      <trkpt lat="46.52835" lon="0.31087">
        <ele>171.37</ele>
        <time>2018-09-16T07:03:29.000Z</time>
      </trkpt>
      <trkpt lat="46.52843" lon="0.31102">
        <ele>170.61</ele>
        <time>2018-09-16T07:03:32.000Z</time>
      </trkpt>
      <trkpt lat="46.52847" lon="0.31115">
        <ele>170.05</ele>
        <time>2018-09-16T07:03:35.000Z</time>
      </trkpt>
      <trkpt lat="46.52851" lon="0.31127">
        <ele>169.37</ele>
        <time>2018-09-16T07:03:39.000Z</time>
      </trkpt>
      <trkpt lat="46.52858" lon="0.31141">
        <ele>168.83</ele>
        <time>2018-09-16T07:03:43.000Z</time>
      </trkpt>
      <trkpt lat="46.52863" lon="0.31153">
        <ele>168.54</ele>
        <time>2018-09-16T07:03:46.000Z</time>
      </trkpt>
      <trkpt lat="46.52869" lon="0.31165">
        <ele>167.15</ele>
        <time>2018-09-16T07:03:48.000Z</time>
      </trkpt>
      <trkpt lat="46.52875" lon="0.31177">
        <ele>164.99</ele>
        <time>2018-09-16T07:03:50.000Z</time>
      </trkpt>
      <trkpt lat="46.52882" lon="0.31191">
        <ele>164.73</ele>
        <time>2018-09-16T07:03:52.000Z</time>
      </trkpt>
      <trkpt lat="46.52889" lon="0.31204">
        <ele>164.21</ele>
        <time>2018-09-16T07:03:56.000Z</time>
      </trkpt>
      <trkpt lat="46.52892" lon="0.31218">
        <ele>163.56</ele>
        <time>2018-09-16T07:04:01.000Z</time>
      </trkpt>
      <trkpt lat="46.52893" lon="0.31232">
        <ele>163.04</ele>
        <time>2018-09-16T07:04:10.000Z</time>
      </trkpt>
      <trkpt lat="46.529" lon="0.31242">
        <ele>163.27</ele>
        <time>2018-09-16T07:04:21.000Z</time>
      </trkpt>
      <trkpt lat="46.52906" lon="0.31253">
        <ele>163.66</ele>
        <time>2018-09-16T07:04:30.000Z</time>
      </trkpt>
      <trkpt lat="46.5291" lon="0.31269">
        <ele>163.97</ele>
        <time>2018-09-16T07:04:41.000Z</time>
      </trkpt>
      <trkpt lat="46.52913" lon="0.31282">
        <ele>163.77</ele>
        <time>2018-09-16T07:05:07.000Z</time>
      </trkpt>
      <trkpt lat="46.52918" lon="0.31294">
        <ele>164.18</ele>
        <time>2018-09-16T07:05:13.000Z</time>
      </trkpt>
      <trkpt lat="46.52923" lon="0.31308">
        <ele>164.61</ele>
        <time>2018-09-16T07:05:19.000Z</time>
      </trkpt>
      <trkpt lat="46.52926" lon="0.31322">
        <ele>165.07</ele>
        <time>2018-09-16T07:05:25.000Z</time>
      </trkpt>
      <trkpt lat="46.52928" lon="0.31336">
        <ele>165.99</ele>
        <time>2018-09-16T07:05:33.000Z</time>
      </trkpt>
      <trkpt lat="46.52932" lon="0.31354">
        <ele>166.82</ele>
        <time>2018-09-16T07:05:40.000Z</time>
      </trkpt>
      <trkpt lat="46.52938" lon="0.31366">
        <ele>167.3</ele>
        <time>2018-09-16T07:05:44.000Z</time>
      </trkpt>
      <trkpt lat="46.5294" lon="0.3138">
        <ele>167.86</ele>
        <time>2018-09-16T07:05:49.000Z</time>
      </trkpt>
      <trkpt lat="46.52943" lon="0.31393">
        <ele>168.69</ele>
        <time>2018-09-16T07:05:55.000Z</time>
      </trkpt>
      <trkpt lat="46.52942" lon="0.31407">
        <ele>169.68</ele>
        <time>2018-09-16T07:06:03.000Z</time>
      </trkpt>
      <trkpt lat="46.52944" lon="0.3142">
        <ele>170.32</ele>
        <time>2018-09-16T07:06:09.000Z</time>
      </trkpt>
      <trkpt lat="46.52947" lon="0.31434">
        <ele>171.18</ele>
        <time>2018-09-16T07:06:14.000Z</time>
      </trkpt>
      <trkpt lat="46.52951" lon="0.31446">
        <ele>172.69</ele>
        <time>2018-09-16T07:06:22.000Z</time>
      </trkpt>
      <trkpt lat="46.52956" lon="0.31459">
        <ele>173.75</ele>
        <time>2018-09-16T07:06:28.000Z</time>
      </trkpt>
      <trkpt lat="46.52959" lon="0.31473">
        <ele>174.44</ele>
        <time>2018-09-16T07:06:32.000Z</time>
      </trkpt>
      <trkpt lat="46.52962" lon="0.31485">
        <ele>174.98</ele>
        <time>2018-09-16T07:06:35.000Z</time>
      </trkpt>
      <trkpt lat="46.52968" lon="0.31498">
        <ele>175.54</ele>
        <time>2018-09-16T07:06:38.000Z</time>
      </trkpt>
      <trkpt lat="46.52971" lon="0.31511">
        <ele>175.95</ele>
        <time>2018-09-16T07:06:41.000Z</time>
      </trkpt>
      <trkpt lat="46.52974" lon="0.31523">
        <ele>176.22</ele>
        <time>2018-09-16T07:06:44.000Z</time>
      </trkpt>
      <trkpt lat="46.52977" lon="0.31536">
        <ele>176.47</ele>
        <time>2018-09-16T07:06:47.000Z</time>
      </trkpt>
      <trkpt lat="46.52984" lon="0.3155">
        <ele>176.76</ele>
        <time>2018-09-16T07:06:51.000Z</time>
      </trkpt>
      <trkpt lat="46.5299" lon="0.31567">
        <ele>177.03</ele>
        <time>2018-09-16T07:06:54.000Z</time>
      </trkpt>
      <trkpt lat="46.52991" lon="0.31582">
        <ele>177.32</ele>
        <time>2018-09-16T07:06:57.000Z</time>
      </trkpt>
      <trkpt lat="46.52993" lon="0.31595">
        <ele>177.62</ele>
        <time>2018-09-16T07:07:00.000Z</time>
      </trkpt>
      <trkpt lat="46.52992" lon="0.3161">
        <ele>177.94</ele>
        <time>2018-09-16T07:07:03.000Z</time>
      </trkpt>
      <trkpt lat="46.52996" lon="0.31624">
        <ele>178.09</ele>
        <time>2018-09-16T07:07:06.000Z</time>
      </trkpt>
      <trkpt lat="46.53001" lon="0.31639">
        <ele>178.22</ele>
        <time>2018-09-16T07:07:09.000Z</time>
      </trkpt>
      <trkpt lat="46.53008" lon="0.31649">
        <ele>178.31</ele>
        <time>2018-09-16T07:07:14.000Z</time>
      </trkpt>
      <trkpt lat="46.53018" lon="0.31658">
        <ele>177.97</ele>
        <time>2018-09-16T07:07:19.000Z</time>
      </trkpt>
      <trkpt lat="46.53025" lon="0.3167">
        <ele>177.71</ele>
        <time>2018-09-16T07:07:22.000Z</time>
      </trkpt>
      <trkpt lat="46.53025" lon="0.31688">
        <ele>177.33</ele>
        <time>2018-09-16T07:07:26.000Z</time>
      </trkpt>
      <trkpt lat="46.53027" lon="0.31702">
        <ele>176.89</ele>
        <time>2018-09-16T07:07:28.000Z</time>
      </trkpt>
      <trkpt lat="46.53029" lon="0.31718">
        <ele>176.17</ele>
        <time>2018-09-16T07:07:31.000Z</time>
      </trkpt>
      <trkpt lat="46.5303" lon="0.31733">
        <ele>175.46</ele>
        <time>2018-09-16T07:07:34.000Z</time>
      </trkpt>
      <trkpt lat="46.53035" lon="0.31746">
        <ele>174.66</ele>
        <time>2018-09-16T07:07:37.000Z</time>
      </trkpt>
      <trkpt lat="46.53034" lon="0.31763">
        <ele>173.9</ele>
        <time>2018-09-16T07:07:40.000Z</time>
      </trkpt>
      <trkpt lat="46.53044" lon="0.3178">
        <ele>171.22</ele>
        <time>2018-09-16T07:07:43.000Z</time>
      </trkpt>
      <trkpt lat="46.53047" lon="0.31798">
        <ele>167.46</ele>
        <time>2018-09-16T07:07:45.000Z</time>
      </trkpt>
      <trkpt lat="46.53049" lon="0.31811">
        <ele>167.05</ele>
        <time>2018-09-16T07:07:48.000Z</time>
      </trkpt>
      <trkpt lat="46.53051" lon="0.31825">
        <ele>166.34</ele>
        <time>2018-09-16T07:07:52.000Z</time>
      </trkpt>
      <trkpt lat="46.53053" lon="0.31838">
        <ele>165.08</ele>
        <time>2018-09-16T07:08:00.000Z</time>
      </trkpt>
      <trkpt lat="46.53053" lon="0.31851">
        <ele>161.42</ele>
        <time>2018-09-16T07:08:20.000Z</time>
      </trkpt>
      <trkpt lat="46.53052" lon="0.31865">
        <ele>159.86</ele>
        <time>2018-09-16T07:08:27.000Z</time>
      </trkpt>
      <trkpt lat="46.53042" lon="0.3187">
        <ele>158.04</ele>
        <time>2018-09-16T07:08:45.000Z</time>
      </trkpt>
      <trkpt lat="46.53035" lon="0.3188">
        <ele>157.64</ele>
        <time>2018-09-16T07:09:01.000Z</time>
      </trkpt>
      <trkpt lat="46.53028" lon="0.3189">
        <ele>157.71</ele>
        <time>2018-09-16T07:09:13.000Z</time>
      </trkpt>
      <trkpt lat="46.53019" lon="0.31899">
        <ele>158.47</ele>
        <time>2018-09-16T07:09:23.000Z</time>
      </trkpt>
      <trkpt lat="46.53014" lon="0.31909">
        <ele>159.54</ele>
        <time>2018-09-16T07:09:37.000Z</time>
      </trkpt>
      <trkpt lat="46.53008" lon="0.31921">
        <ele>160.63</ele>
        <time>2018-09-16T07:09:47.000Z</time>
      </trkpt>
      <trkpt lat="46.53" lon="0.31929">
        <ele>162.51</ele>
        <time>2018-09-16T07:10:00.000Z</time>
      </trkpt>
      <trkpt lat="46.52993" lon="0.31937">
        <ele>163.55</ele>
        <time>2018-09-16T07:10:10.000Z</time>
      </trkpt>
      <trkpt lat="46.52987" lon="0.31947">
        <ele>164.63</ele>
        <time>2018-09-16T07:10:19.000Z</time>
      </trkpt>
      <trkpt lat="46.5298" lon="0.31958">
        <ele>165.94</ele>
        <time>2018-09-16T07:10:31.000Z</time>
      </trkpt>
      <trkpt lat="46.52974" lon="0.31971">
        <ele>167.24</ele>
        <time>2018-09-16T07:10:58.000Z</time>
      </trkpt>
      <trkpt lat="46.52967" lon="0.31982">
        <ele>168.28</ele>
        <time>2018-09-16T07:11:03.000Z</time>
      </trkpt>
      <trkpt lat="46.52959" lon="0.31989">
        <ele>169.37</ele>
        <time>2018-09-16T07:11:08.000Z</time>
      </trkpt>
      <trkpt lat="46.52949" lon="0.31998">
        <ele>170.8</ele>
        <time>2018-09-16T07:11:15.000Z</time>
      </trkpt>
      <trkpt lat="46.5294" lon="0.32004">
        <ele>172.04</ele>
        <time>2018-09-16T07:11:21.000Z</time>
      </trkpt>
      <trkpt lat="46.52931" lon="0.32011">
        <ele>173.34</ele>
        <time>2018-09-16T07:11:28.000Z</time>
      </trkpt>
      <trkpt lat="46.52922" lon="0.32016">
        <ele>174.32</ele>
        <time>2018-09-16T07:11:34.000Z</time>
      </trkpt>
      <trkpt lat="46.52912" lon="0.32014">
        <ele>174.94</ele>
        <time>2018-09-16T07:11:38.000Z</time>
      </trkpt>
      <trkpt lat="46.52903" lon="0.32013">
        <ele>175.74</ele>
        <time>2018-09-16T07:11:43.000Z</time>
      </trkpt>
      <trkpt lat="46.52893" lon="0.3201">
        <ele>176.82</ele>
        <time>2018-09-16T07:11:49.000Z</time>
      </trkpt>
      <trkpt lat="46.52885" lon="0.32004">
        <ele>177.49</ele>
        <time>2018-09-16T07:11:53.000Z</time>
      </trkpt>
      <trkpt lat="46.52877" lon="0.31996">
        <ele>178.57</ele>
        <time>2018-09-16T07:11:59.000Z</time>
      </trkpt>
      <trkpt lat="46.52869" lon="0.31983">
        <ele>179.19</ele>
        <time>2018-09-16T07:12:03.000Z</time>
      </trkpt>
      <trkpt lat="46.52862" lon="0.31974">
        <ele>179.41</ele>
        <time>2018-09-16T07:12:05.000Z</time>
      </trkpt>
      <trkpt lat="46.52854" lon="0.31962">
        <ele>179.6</ele>
        <time>2018-09-16T07:12:08.000Z</time>
      </trkpt>
      <trkpt lat="46.52848" lon="0.3195">
        <ele>179.64</ele>
        <time>2018-09-16T07:12:11.000Z</time>
      </trkpt>
      <trkpt lat="46.52842" lon="0.31939">
        <ele>179.66</ele>
        <time>2018-09-16T07:12:13.000Z</time>
      </trkpt>
      <trkpt lat="46.52834" lon="0.31927">
        <ele>179.76</ele>
        <time>2018-09-16T07:12:15.000Z</time>
      </trkpt>
      <trkpt lat="46.52827" lon="0.31915">
        <ele>179.61</ele>
        <time>2018-09-16T07:12:17.000Z</time>
      </trkpt>
      <trkpt lat="46.5282" lon="0.31896">
        <ele>178.55</ele>
        <time>2018-09-16T07:12:19.000Z</time>
      </trkpt>
      <trkpt lat="46.52811" lon="0.3188">
        <ele>176.54</ele>
        <time>2018-09-16T07:12:21.000Z</time>
      </trkpt>
      <trkpt lat="46.52802" lon="0.31871">
        <ele>175.03</ele>
        <time>2018-09-16T07:12:23.000Z</time>
      </trkpt>
      <trkpt lat="46.52795" lon="0.31864">
        <ele>173.51</ele>
        <time>2018-09-16T07:12:25.000Z</time>
      </trkpt>
      <trkpt lat="46.52786" lon="0.31853">
        <ele>171.93</ele>
        <time>2018-09-16T07:12:27.000Z</time>
      </trkpt>
      <trkpt lat="46.52781" lon="0.31836">
        <ele>169.86</ele>
        <time>2018-09-16T07:12:29.000Z</time>
      </trkpt>
      <trkpt lat="46.5278" lon="0.31815">
        <ele>168.24</ele>
        <time>2018-09-16T07:12:31.000Z</time>
      </trkpt>
      <trkpt lat="46.52778" lon="0.31792">
        <ele>166.69</ele>
        <time>2018-09-16T07:12:33.000Z</time>
      </trkpt>
      <trkpt lat="46.52775" lon="0.31776">
        <ele>166.7</ele>
        <time>2018-09-16T07:12:36.000Z</time>
      </trkpt>
      <trkpt lat="46.52768" lon="0.31767">
        <ele>166.83</ele>
        <time>2018-09-16T07:12:39.000Z</time>
      </trkpt>
      <trkpt lat="46.52762" lon="0.31752">
        <ele>168.23</ele>
        <time>2018-09-16T07:12:50.000Z</time>
      </trkpt>
      <trkpt lat="46.52758" lon="0.31737">
        <ele>170.27</ele>
        <time>2018-09-16T07:13:06.000Z</time>
      </trkpt>
      <trkpt lat="46.52755" lon="0.31722">
        <ele>171.09</ele>
        <time>2018-09-16T07:13:10.000Z</time>
      </trkpt>
      <trkpt lat="46.52752" lon="0.31709">
        <ele>171.6</ele>
        <time>2018-09-16T07:13:13.000Z</time>
      </trkpt>
      <trkpt lat="46.52751" lon="0.31693">
        <ele>172.16</ele>
        <time>2018-09-16T07:13:17.000Z</time>
      </trkpt>
      <trkpt lat="46.52754" lon="0.3168">
        <ele>172.84</ele>
        <time>2018-09-16T07:13:22.000Z</time>
      </trkpt>
      <trkpt lat="46.5276" lon="0.31669">
        <ele>173.28</ele>
        <time>2018-09-16T07:13:26.000Z</time>
      </trkpt>
      <trkpt lat="46.52768" lon="0.31658">
        <ele>173.77</ele>
        <time>2018-09-16T07:13:32.000Z</time>
      </trkpt>
      <trkpt lat="46.52774" lon="0.31648">
        <ele>174.68</ele>
        <time>2018-09-16T07:13:39.000Z</time>
      </trkpt>
      <trkpt lat="46.52776" lon="0.31633">
        <ele>175.62</ele>
        <time>2018-09-16T07:13:45.000Z</time>
      </trkpt>
      <trkpt lat="46.52778" lon="0.3162">
        <ele>176.48</ele>
        <time>2018-09-16T07:13:50.000Z</time>
      </trkpt>
      <trkpt lat="46.52783" lon="0.31606">
        <ele>177.44</ele>
        <time>2018-09-16T07:13:55.000Z</time>
      </trkpt>
      <trkpt lat="46.52788" lon="0.3159">
        <ele>178.04</ele>
        <time>2018-09-16T07:13:59.000Z</time>
      </trkpt>
      <trkpt lat="46.52794" lon="0.31576">
        <ele>178.34</ele>
        <time>2018-09-16T07:14:02.000Z</time>
      </trkpt>
      <trkpt lat="46.52801" lon="0.31565">
        <ele>178.43</ele>
        <time>2018-09-16T07:14:05.000Z</time>
      </trkpt>
      <trkpt lat="46.52811" lon="0.31557">
        <ele>178.49</ele>
        <time>2018-09-16T07:14:10.000Z</time>
      </trkpt>
      <trkpt lat="46.52823" lon="0.31557">
        <ele>178.8</ele>
        <time>2018-09-16T07:14:14.000Z</time>
      </trkpt>
      <trkpt lat="46.52834" lon="0.31558">
        <ele>179.14</ele>
        <time>2018-09-16T07:14:17.000Z</time>
      </trkpt>
      <trkpt lat="46.52846" lon="0.31561">
        <ele>179.51</ele>
        <time>2018-09-16T07:14:20.000Z</time>
      </trkpt>
      <trkpt lat="46.52858" lon="0.3156">
        <ele>179.85</ele>
        <time>2018-09-16T07:14:23.000Z</time>
      </trkpt>
      <trkpt lat="46.52868" lon="0.31552">
        <ele>180.12</ele>
        <time>2018-09-16T07:14:26.000Z</time>
      </trkpt>
      <trkpt lat="46.52878" lon="0.31545">
        <ele>180.47</ele>
        <time>2018-09-16T07:14:29.000Z</time>
      </trkpt>
      <trkpt lat="46.52889" lon="0.31538">
        <ele>181.98</ele>
        <time>2018-09-16T07:14:32.000Z</time>
      </trkpt>
      <trkpt lat="46.529" lon="0.3153">
        <ele>182.24</ele>
        <time>2018-09-16T07:14:35.000Z</time>
      </trkpt>
      <trkpt lat="46.52907" lon="0.31522">
        <ele>183.68</ele>
        <time>2018-09-16T07:14:37.000Z</time>
      </trkpt>
      <trkpt lat="46.52918" lon="0.31514">
        <ele>184.18</ele>
        <time>2018-09-16T07:14:39.000Z</time>
      </trkpt>
      <trkpt lat="46.52926" lon="0.31503">
        <ele>184.11</ele>
        <time>2018-09-16T07:14:41.000Z</time>
      </trkpt>
      <trkpt lat="46.52932" lon="0.31489">
        <ele>184.07</ele>
        <time>2018-09-16T07:14:44.000Z</time>
      </trkpt>
      <trkpt lat="46.52937" lon="0.31476">
        <ele>184.05</ele>
        <time>2018-09-16T07:14:48.000Z</time>
      </trkpt>
      <trkpt lat="46.52943" lon="0.31466">
        <ele>183.78</ele>
        <time>2018-09-16T07:15:00.000Z</time>
      </trkpt>
      <trkpt lat="46.5294" lon="0.31453">
        <ele>184.04</ele>
        <time>2018-09-16T07:15:08.000Z</time>
      </trkpt>
      <trkpt lat="46.52934" lon="0.31443">
        <ele>184.44</ele>
        <time>2018-09-16T07:15:14.000Z</time>
      </trkpt>
      <trkpt lat="46.52929" lon="0.3143">
        <ele>184.82</ele>
        <time>2018-09-16T07:15:19.000Z</time>
      </trkpt>
      <trkpt lat="46.52922" lon="0.31418">
        <ele>185.26</ele>
        <time>2018-09-16T07:15:23.000Z</time>
      </trkpt>
      <trkpt lat="46.52918" lon="0.31406">
        <ele>185.91</ele>
        <time>2018-09-16T07:15:27.000Z</time>
      </trkpt>
      <trkpt lat="46.52914" lon="0.31394">
        <ele>186.48</ele>
        <time>2018-09-16T07:15:31.000Z</time>
      </trkpt>
      <trkpt lat="46.52906" lon="0.31381">
        <ele>186.84</ele>
        <time>2018-09-16T07:15:35.000Z</time>
      </trkpt>
      <trkpt lat="46.52898" lon="0.31371">
        <ele>187.01</ele>
        <time>2018-09-16T07:15:38.000Z</time>
      </trkpt>
      <trkpt lat="46.52892" lon="0.31362">
        <ele>187.1</ele>
        <time>2018-09-16T07:15:42.000Z</time>
      </trkpt>
      <trkpt lat="46.52882" lon="0.31351">
        <ele>187.11</ele>
        <time>2018-09-16T07:15:46.000Z</time>
      </trkpt>
      <trkpt lat="46.52876" lon="0.31336">
        <ele>187.08</ele>
        <time>2018-09-16T07:15:50.000Z</time>
      </trkpt>
      <trkpt lat="46.5287" lon="0.3132">
        <ele>186.93</ele>
        <time>2018-09-16T07:15:53.000Z</time>
      </trkpt>
      <trkpt lat="46.52867" lon="0.31306">
        <ele>186.67</ele>
        <time>2018-09-16T07:15:55.000Z</time>
      </trkpt>
      <trkpt lat="46.52862" lon="0.31291">
        <ele>186.12</ele>
        <time>2018-09-16T07:15:58.000Z</time>
      </trkpt>
      <trkpt lat="46.52859" lon="0.31278">
        <ele>185.58</ele>
        <time>2018-09-16T07:16:01.000Z</time>
      </trkpt>
      <trkpt lat="46.52852" lon="0.31267">
        <ele>184.98</ele>
        <time>2018-09-16T07:16:05.000Z</time>
      </trkpt>
      <trkpt lat="46.52845" lon="0.31258">
        <ele>184.64</ele>
        <time>2018-09-16T07:16:08.000Z</time>
      </trkpt>
      <trkpt lat="46.52834" lon="0.31247">
        <ele>184.25</ele>
        <time>2018-09-16T07:16:11.000Z</time>
      </trkpt>
      <trkpt lat="46.52825" lon="0.31241">
        <ele>183.91</ele>
        <time>2018-09-16T07:16:14.000Z</time>
      </trkpt>
      <trkpt lat="46.52815" lon="0.31243">
        <ele>183.56</ele>
        <time>2018-09-16T07:16:18.000Z</time>
      </trkpt>
      <trkpt lat="46.52807" lon="0.31249">
        <ele>183.3</ele>
        <time>2018-09-16T07:16:22.000Z</time>
      </trkpt>
      <trkpt lat="46.52796" lon="0.3125">
        <ele>183.29</ele>
        <time>2018-09-16T07:16:28.000Z</time>
      </trkpt>
      <trkpt lat="46.52791" lon="0.31262">
        <ele>183.5</ele>
        <time>2018-09-16T07:16:33.000Z</time>
      </trkpt>
      <trkpt lat="46.52794" lon="0.31278">
        <ele>183.78</ele>
        <time>2018-09-16T07:16:37.000Z</time>
      </trkpt>
      <trkpt lat="46.52795" lon="0.31293">
        <ele>184.14</ele>
        <time>2018-09-16T07:16:41.000Z</time>
      </trkpt>
      <trkpt lat="46.52796" lon="0.3131">
        <ele>184.47</ele>
        <time>2018-09-16T07:16:44.000Z</time>
      </trkpt>
      <trkpt lat="46.52795" lon="0.31328">
        <ele>184.77</ele>
        <time>2018-09-16T07:16:47.000Z</time>
      </trkpt>
      <trkpt lat="46.52793" lon="0.31341">
        <ele>185.15</ele>
        <time>2018-09-16T07:16:51.000Z</time>
      </trkpt>
      <trkpt lat="46.52794" lon="0.31357">
        <ele>185.45</ele>
        <time>2018-09-16T07:16:54.000Z</time>
      </trkpt>
      <trkpt lat="46.52794" lon="0.31375">
        <ele>185.86</ele>
        <time>2018-09-16T07:16:57.000Z</time>
      </trkpt>
      <trkpt lat="46.52789" lon="0.3139">
        <ele>186.26</ele>
        <time>2018-09-16T07:17:00.000Z</time>
      </trkpt>
      <trkpt lat="46.52779" lon="0.31397">
        <ele>186.63</ele>
        <time>2018-09-16T07:17:04.000Z</time>
      </trkpt>
      <trkpt lat="46.5277" lon="0.31402">
        <ele>186.94</ele>
        <time>2018-09-16T07:17:07.000Z</time>
      </trkpt>
      <trkpt lat="46.52758" lon="0.31408">
        <ele>187.26</ele>
        <time>2018-09-16T07:17:10.000Z</time>
      </trkpt>
      <trkpt lat="46.5275" lon="0.31413">
        <ele>189.47</ele>
        <time>2018-09-16T07:17:12.000Z</time>
      </trkpt>
      <trkpt lat="46.52739" lon="0.31422">
        <ele>190.55</ele>
        <time>2018-09-16T07:17:15.000Z</time>
      </trkpt>
      <trkpt lat="46.52729" lon="0.31429">
        <ele>190.55</ele>
        <time>2018-09-16T07:17:17.000Z</time>
      </trkpt>
      <trkpt lat="46.5272" lon="0.31438">
        <ele>190.55</ele>
        <time>2018-09-16T07:17:20.000Z</time>
      </trkpt>
      <trkpt lat="46.52709" lon="0.31431">
        <ele>191.49</ele>
        <time>2018-09-16T07:17:23.000Z</time>
      </trkpt>
      <trkpt lat="46.52699" lon="0.31427">
        <ele>191.87</ele>
        <time>2018-09-16T07:17:25.000Z</time>
      </trkpt>
      <trkpt lat="46.52686" lon="0.31427">
        <ele>192.49</ele>
        <time>2018-09-16T07:17:27.000Z</time>
      </trkpt>
      <trkpt lat="46.52675" lon="0.31428">
        <ele>192.54</ele>
        <time>2018-09-16T07:17:29.000Z</time>
      </trkpt>
      <trkpt lat="46.52663" lon="0.31427">
        <ele>192.59</ele>
        <time>2018-09-16T07:17:31.000Z</time>
      </trkpt>
      <trkpt lat="46.52654" lon="0.31427">
        <ele>192.31</ele>
        <time>2018-09-16T07:17:33.000Z</time>
      </trkpt>
      <trkpt lat="46.52641" lon="0.31425">
        <ele>191.7</ele>
        <time>2018-09-16T07:17:35.000Z</time>
      </trkpt>
      <trkpt lat="46.5263" lon="0.31424">
        <ele>190.66</ele>
        <time>2018-09-16T07:17:37.000Z</time>
      </trkpt>
      <trkpt lat="46.52617" lon="0.3142">
        <ele>189.45</ele>
        <time>2018-09-16T07:17:39.000Z</time>
      </trkpt>
      <trkpt lat="46.52604" lon="0.31417">
        <ele>188.24</ele>
        <time>2018-09-16T07:17:41.000Z</time>
      </trkpt>
      <trkpt lat="46.52591" lon="0.31411">
        <ele>187.39</ele>
        <time>2018-09-16T07:17:43.000Z</time>
      </trkpt>
      <trkpt lat="46.52576" lon="0.31405">
        <ele>187.31</ele>
        <time>2018-09-16T07:17:45.000Z</time>
      </trkpt>
      <trkpt lat="46.52565" lon="0.31397">
        <ele>186.62</ele>
        <time>2018-09-16T07:17:47.000Z</time>
      </trkpt>
      <trkpt lat="46.52552" lon="0.31387">
        <ele>186.21</ele>
        <time>2018-09-16T07:17:49.000Z</time>
      </trkpt>
      <trkpt lat="46.52536" lon="0.31378">
        <ele>186.45</ele>
        <time>2018-09-16T07:17:51.000Z</time>
      </trkpt>
      <trkpt lat="46.52522" lon="0.31367">
        <ele>186.34</ele>
        <time>2018-09-16T07:17:53.000Z</time>
      </trkpt>
      <trkpt lat="46.5251" lon="0.31356">
        <ele>185.6</ele>
        <time>2018-09-16T07:17:55.000Z</time>
      </trkpt>
      <trkpt lat="46.52498" lon="0.31347">
        <ele>185.13</ele>
        <time>2018-09-16T07:17:57.000Z</time>
      </trkpt>
      <trkpt lat="46.52487" lon="0.31338">
        <ele>184.91</ele>
        <time>2018-09-16T07:17:59.000Z</time>
      </trkpt>
      <trkpt lat="46.52476" lon="0.31326">
        <ele>185.34</ele>
        <time>2018-09-16T07:18:01.000Z</time>
      </trkpt>
      <trkpt lat="46.5247" lon="0.31311">
        <ele>185.88</ele>
        <time>2018-09-16T07:18:03.000Z</time>
      </trkpt>
      <trkpt lat="46.52463" lon="0.31298">
        <ele>185.74</ele>
        <time>2018-09-16T07:18:05.000Z</time>
      </trkpt>
      <trkpt lat="46.52455" lon="0.31285">
        <ele>185.68</ele>
        <time>2018-09-16T07:18:07.000Z</time>
      </trkpt>
      <trkpt lat="46.5245" lon="0.31273">
        <ele>185.69</ele>
        <time>2018-09-16T07:18:09.000Z</time>
      </trkpt>
      <trkpt lat="46.52444" lon="0.3126">
        <ele>185.64</ele>
        <time>2018-09-16T07:18:13.000Z</time>
      </trkpt>
      <trkpt lat="46.52436" lon="0.31272">
        <ele>184.98</ele>
        <time>2018-09-16T07:18:17.000Z</time>
      </trkpt>
      <trkpt lat="46.5243" lon="0.31284">
        <ele>184.15</ele>
        <time>2018-09-16T07:18:19.000Z</time>
      </trkpt>
      <trkpt lat="46.52426" lon="0.313">
        <ele>183.51</ele>
        <time>2018-09-16T07:18:21.000Z</time>
      </trkpt>
      <trkpt lat="46.52424" lon="0.31318">
        <ele>182.65</ele>
        <time>2018-09-16T07:18:23.000Z</time>
      </trkpt>
      <trkpt lat="46.52425" lon="0.31334">
        <ele>182.12</ele>
        <time>2018-09-16T07:18:25.000Z</time>
      </trkpt>
      <trkpt lat="46.52427" lon="0.3135">
        <ele>181.71</ele>
        <time>2018-09-16T07:18:27.000Z</time>
      </trkpt>
      <trkpt lat="46.52429" lon="0.31368">
        <ele>181.56</ele>
        <time>2018-09-16T07:18:29.000Z</time>
      </trkpt>
      <trkpt lat="46.52432" lon="0.31383">
        <ele>181.69</ele>
        <time>2018-09-16T07:18:31.000Z</time>
      </trkpt>
      <trkpt lat="46.5244" lon="0.31399">
        <ele>181.67</ele>
        <time>2018-09-16T07:18:33.000Z</time>
      </trkpt>
      <trkpt lat="46.52446" lon="0.31416">
        <ele>181.6</ele>
        <time>2018-09-16T07:18:35.000Z</time>
      </trkpt>
      <trkpt lat="46.52452" lon="0.31433">
        <ele>181.22</ele>
        <time>2018-09-16T07:18:37.000Z</time>
      </trkpt>
      <trkpt lat="46.5246" lon="0.31451">
        <ele>181.02</ele>
        <time>2018-09-16T07:18:39.000Z</time>
      </trkpt>
      <trkpt lat="46.52466" lon="0.3147">
        <ele>180.7</ele>
        <time>2018-09-16T07:18:41.000Z</time>
      </trkpt>
      <trkpt lat="46.52473" lon="0.31488">
        <ele>180.67</ele>
        <time>2018-09-16T07:18:43.000Z</time>
      </trkpt>
      <trkpt lat="46.52479" lon="0.31505">
        <ele>180.9</ele>
        <time>2018-09-16T07:18:45.000Z</time>
      </trkpt>
      <trkpt lat="46.52483" lon="0.31519">
        <ele>181.45</ele>
        <time>2018-09-16T07:18:47.000Z</time>
      </trkpt>
      <trkpt lat="46.52491" lon="0.31534">
        <ele>181.95</ele>
        <time>2018-09-16T07:18:49.000Z</time>
      </trkpt>
      <trkpt lat="46.52499" lon="0.31545">
        <ele>181.89</ele>
        <time>2018-09-16T07:18:51.000Z</time>
      </trkpt>
      <trkpt lat="46.52507" lon="0.31552">
        <ele>181.93</ele>
        <time>2018-09-16T07:18:53.000Z</time>
      </trkpt>
      <trkpt lat="46.52511" lon="0.31566">
        <ele>182.08</ele>
        <time>2018-09-16T07:18:57.000Z</time>
      </trkpt>
      <trkpt lat="46.52514" lon="0.31581">
        <ele>182.24</ele>
        <time>2018-09-16T07:19:00.000Z</time>
      </trkpt>
      <trkpt lat="46.52515" lon="0.31598">
        <ele>184.09</ele>
        <time>2018-09-16T07:19:15.000Z</time>
      </trkpt>
      <trkpt lat="46.52517" lon="0.31612">
        <ele>185.05</ele>
        <time>2018-09-16T07:19:20.000Z</time>
      </trkpt>
      <trkpt lat="46.52516" lon="0.31626">
        <ele>185.85</ele>
        <time>2018-09-16T07:19:25.000Z</time>
      </trkpt>
      <trkpt lat="46.52521" lon="0.31638">
        <ele>186.59</ele>
        <time>2018-09-16T07:19:33.000Z</time>
      </trkpt>
      <trkpt lat="46.52522" lon="0.31652">
        <ele>187.29</ele>
        <time>2018-09-16T07:19:40.000Z</time>
      </trkpt>
      <trkpt lat="46.52525" lon="0.31664">
        <ele>187.52</ele>
        <time>2018-09-16T07:19:43.000Z</time>
      </trkpt>
      <trkpt lat="46.52528" lon="0.31682">
        <ele>187.64</ele>
        <time>2018-09-16T07:19:47.000Z</time>
      </trkpt>
      <trkpt lat="46.52536" lon="0.31693">
        <ele>187.55</ele>
        <time>2018-09-16T07:19:51.000Z</time>
      </trkpt>
      <trkpt lat="46.52544" lon="0.31704">
        <ele>186.99</ele>
        <time>2018-09-16T07:19:54.000Z</time>
      </trkpt>
      <trkpt lat="46.52551" lon="0.31715">
        <ele>186.71</ele>
        <time>2018-09-16T07:19:56.000Z</time>
      </trkpt>
      <trkpt lat="46.5256" lon="0.3173">
        <ele>186.56</ele>
        <time>2018-09-16T07:19:59.000Z</time>
      </trkpt>
      <trkpt lat="46.52568" lon="0.31743">
        <ele>186.45</ele>
        <time>2018-09-16T07:20:02.000Z</time>
      </trkpt>
      <trkpt lat="46.52575" lon="0.31753">
        <ele>186.33</ele>
        <time>2018-09-16T07:20:05.000Z</time>
      </trkpt>
      <trkpt lat="46.52579" lon="0.31767">
        <ele>186.26</ele>
        <time>2018-09-16T07:20:07.000Z</time>
      </trkpt>
      <trkpt lat="46.52585" lon="0.31782">
        <ele>185.62</ele>
        <time>2018-09-16T07:20:09.000Z</time>
      </trkpt>
      <trkpt lat="46.52594" lon="0.31799">
        <ele>184.87</ele>
        <time>2018-09-16T07:20:11.000Z</time>
      </trkpt>
      <trkpt lat="46.52601" lon="0.31817">
        <ele>184.44</ele>
        <time>2018-09-16T07:20:13.000Z</time>
      </trkpt>
      <trkpt lat="46.52608" lon="0.31828">
        <ele>184.31</ele>
        <time>2018-09-16T07:20:15.000Z</time>
      </trkpt>
      <trkpt lat="46.52613" lon="0.3184">
        <ele>184.38</ele>
        <time>2018-09-16T07:20:17.000Z</time>
      </trkpt>
      <trkpt lat="46.5262" lon="0.31856">
        <ele>185.13</ele>
        <time>2018-09-16T07:20:20.000Z</time>
      </trkpt>
      <trkpt lat="46.52627" lon="0.31871">
        <ele>185.2</ele>
        <time>2018-09-16T07:20:23.000Z</time>
      </trkpt>
      <trkpt lat="46.52633" lon="0.31882">
        <ele>185.29</ele>
        <time>2018-09-16T07:20:25.000Z</time>
      </trkpt>
      <trkpt lat="46.52639" lon="0.31894">
        <ele>185.58</ele>
        <time>2018-09-16T07:20:28.000Z</time>
      </trkpt>
      <trkpt lat="46.52645" lon="0.31905">
        <ele>186.87</ele>
        <time>2018-09-16T07:20:30.000Z</time>
      </trkpt>
      <trkpt lat="46.52653" lon="0.31919">
        <ele>187.1</ele>
        <time>2018-09-16T07:20:33.000Z</time>
      </trkpt>
      <trkpt lat="46.5266" lon="0.31932">
        <ele>187.2</ele>
        <time>2018-09-16T07:20:36.000Z</time>
      </trkpt>
      <trkpt lat="46.52668" lon="0.31948">
        <ele>187.33</ele>
        <time>2018-09-16T07:20:39.000Z</time>
      </trkpt>
      <trkpt lat="46.52674" lon="0.31957">
        <ele>187.32</ele>
        <time>2018-09-16T07:20:41.000Z</time>
      </trkpt>
      <trkpt lat="46.52681" lon="0.31972">
        <ele>187.33</ele>
        <time>2018-09-16T07:20:44.000Z</time>
      </trkpt>
      <trkpt lat="46.52686" lon="0.31984">
        <ele>187.36</ele>
        <time>2018-09-16T07:20:46.000Z</time>
      </trkpt>
      <trkpt lat="46.52689" lon="0.31998">
        <ele>187.56</ele>
        <time>2018-09-16T07:20:49.000Z</time>
      </trkpt>
      <trkpt lat="46.52687" lon="0.32012">
        <ele>187.78</ele>
        <time>2018-09-16T07:20:52.000Z</time>
      </trkpt>
      <trkpt lat="46.52685" lon="0.32028">
        <ele>187.94</ele>
        <time>2018-09-16T07:20:55.000Z</time>
      </trkpt>
      <trkpt lat="46.5268" lon="0.3204">
        <ele>187.94</ele>
        <time>2018-09-16T07:20:58.000Z</time>
      </trkpt>
      <trkpt lat="46.52673" lon="0.32054">
        <ele>187.86</ele>
        <time>2018-09-16T07:21:02.000Z</time>
      </trkpt>
      <trkpt lat="46.52666" lon="0.32065">
        <ele>187.81</ele>
        <time>2018-09-16T07:21:06.000Z</time>
      </trkpt>
      <trkpt lat="46.52658" lon="0.32074">
        <ele>187.78</ele>
        <time>2018-09-16T07:21:10.000Z</time>
      </trkpt>
      <trkpt lat="46.52649" lon="0.32083">
        <ele>187.78</ele>
        <time>2018-09-16T07:21:14.000Z</time>
      </trkpt>
      <trkpt lat="46.52637" lon="0.32084">
        <ele>187.74</ele>
        <time>2018-09-16T07:21:17.000Z</time>
      </trkpt>
      <trkpt lat="46.52627" lon="0.32092">
        <ele>187.69</ele>
        <time>2018-09-16T07:21:21.000Z</time>
      </trkpt>
      <trkpt lat="46.52619" lon="0.32098">
        <ele>187.68</ele>
        <time>2018-09-16T07:21:25.000Z</time>
      </trkpt>
      <trkpt lat="46.52608" lon="0.32101">
        <ele>187.76</ele>
        <time>2018-09-16T07:21:28.000Z</time>
      </trkpt>
      <trkpt lat="46.52597" lon="0.32107">
        <ele>187.67</ele>
        <time>2018-09-16T07:21:33.000Z</time>
      </trkpt>
      <trkpt lat="46.52588" lon="0.32108">
        <ele>187.58</ele>
        <time>2018-09-16T07:21:35.000Z</time>
      </trkpt>
      <trkpt lat="46.52579" lon="0.32107">
        <ele>187.47</ele>
        <time>2018-09-16T07:21:37.000Z</time>
      </trkpt>
      <trkpt lat="46.52569" lon="0.32106">
        <ele>187.38</ele>
        <time>2018-09-16T07:21:39.000Z</time>
      </trkpt>
      <trkpt lat="46.52557" lon="0.32107">
        <ele>187.36</ele>
        <time>2018-09-16T07:21:43.000Z</time>
      </trkpt>
      <trkpt lat="46.52546" lon="0.32108">
        <ele>187.42</ele>
        <time>2018-09-16T07:21:46.000Z</time>
      </trkpt>
      <trkpt lat="46.52539" lon="0.32116">
        <ele>187.89</ele>
        <time>2018-09-16T07:21:50.000Z</time>
      </trkpt>
      <trkpt lat="46.52538" lon="0.32135">
        <ele>188.32</ele>
        <time>2018-09-16T07:21:53.000Z</time>
      </trkpt>
      <trkpt lat="46.52531" lon="0.3215">
        <ele>188.28</ele>
        <time>2018-09-16T07:21:56.000Z</time>
      </trkpt>
      <trkpt lat="46.52526" lon="0.3216">
        <ele>188.26</ele>
        <time>2018-09-16T07:21:58.000Z</time>
      </trkpt>
      <trkpt lat="46.5252" lon="0.32172">
        <ele>188.28</ele>
        <time>2018-09-16T07:22:00.000Z</time>
      </trkpt>
      <trkpt lat="46.52516" lon="0.3219">
        <ele>188.48</ele>
        <time>2018-09-16T07:22:03.000Z</time>
      </trkpt>
      <trkpt lat="46.5252" lon="0.32203">
        <ele>188.54</ele>
        <time>2018-09-16T07:22:07.000Z</time>
      </trkpt>
      <trkpt lat="46.52528" lon="0.32208">
        <ele>188.56</ele>
        <time>2018-09-16T07:22:12.000Z</time>
      </trkpt>
      <trkpt lat="46.52537" lon="0.32213">
        <ele>188.57</ele>
        <time>2018-09-16T07:22:15.000Z</time>
      </trkpt>
      <trkpt lat="46.52544" lon="0.32224">
        <ele>188.48</ele>
        <time>2018-09-16T07:22:18.000Z</time>
      </trkpt>
      <trkpt lat="46.52541" lon="0.32241">
        <ele>188.48</ele>
        <time>2018-09-16T07:22:23.000Z</time>
      </trkpt>
      <trkpt lat="46.52543" lon="0.32254">
        <ele>188.7</ele>
        <time>2018-09-16T07:22:27.000Z</time>
      </trkpt>
      <trkpt lat="46.52556" lon="0.32252">
        <ele>190.6</ele>
        <time>2018-09-16T07:22:30.000Z</time>
      </trkpt>
      <trkpt lat="46.52568" lon="0.32252">
        <ele>190.76</ele>
        <time>2018-09-16T07:22:32.000Z</time>
      </trkpt>
      <trkpt lat="46.52581" lon="0.32252">
        <ele>190.66</ele>
        <time>2018-09-16T07:22:35.000Z</time>
      </trkpt>
      <trkpt lat="46.52594" lon="0.32255">
        <ele>190.53</ele>
        <time>2018-09-16T07:22:38.000Z</time>
      </trkpt>
      <trkpt lat="46.52604" lon="0.32255">
        <ele>189.88</ele>
        <time>2018-09-16T07:22:40.000Z</time>
      </trkpt>
      <trkpt lat="46.52614" lon="0.32253">
        <ele>189.62</ele>
        <time>2018-09-16T07:22:42.000Z</time>
      </trkpt>
      <trkpt lat="46.52625" lon="0.32252">
        <ele>189.43</ele>
        <time>2018-09-16T07:22:45.000Z</time>
      </trkpt>
      <trkpt lat="46.52633" lon="0.32267">
        <ele>189.84</ele>
        <time>2018-09-16T07:22:48.000Z</time>
      </trkpt>
      <trkpt lat="46.52633" lon="0.32285">
        <ele>190.17</ele>
        <time>2018-09-16T07:22:50.000Z</time>
      </trkpt>
      <trkpt lat="46.52634" lon="0.32304">
        <ele>190.09</ele>
        <time>2018-09-16T07:22:52.000Z</time>
      </trkpt>
      <trkpt lat="46.52634" lon="0.3232">
        <ele>190.21</ele>
        <time>2018-09-16T07:22:54.000Z</time>
      </trkpt>
      <trkpt lat="46.52634" lon="0.32335">
        <ele>190.52</ele>
        <time>2018-09-16T07:22:56.000Z</time>
      </trkpt>
      <trkpt lat="46.52635" lon="0.32351">
        <ele>191.43</ele>
        <time>2018-09-16T07:22:58.000Z</time>
      </trkpt>
      <trkpt lat="46.52634" lon="0.32369">
        <ele>191.94</ele>
        <time>2018-09-16T07:23:00.000Z</time>
      </trkpt>
      <trkpt lat="46.52633" lon="0.3239">
        <ele>192.63</ele>
        <time>2018-09-16T07:23:03.000Z</time>
      </trkpt>
      <trkpt lat="46.52634" lon="0.32407">
        <ele>193.03</ele>
        <time>2018-09-16T07:23:05.000Z</time>
      </trkpt>
      <trkpt lat="46.52633" lon="0.32429">
        <ele>192.81</ele>
        <time>2018-09-16T07:23:07.000Z</time>
      </trkpt>
      <trkpt lat="46.52634" lon="0.32447">
        <ele>192.39</ele>
        <time>2018-09-16T07:23:09.000Z</time>
      </trkpt>
      <trkpt lat="46.52633" lon="0.3247">
        <ele>191.62</ele>
        <time>2018-09-16T07:23:11.000Z</time>
      </trkpt>
      <trkpt lat="46.52633" lon="0.32489">
        <ele>190.73</ele>
        <time>2018-09-16T07:23:13.000Z</time>
      </trkpt>
      <trkpt lat="46.52626" lon="0.32502">
        <ele>190.71</ele>
        <time>2018-09-16T07:23:16.000Z</time>
      </trkpt>
      <trkpt lat="46.52614" lon="0.32507">
        <ele>189.9</ele>
        <time>2018-09-16T07:23:19.000Z</time>
      </trkpt>
      <trkpt lat="46.52607" lon="0.32517">
        <ele>189.68</ele>
        <time>2018-09-16T07:23:22.000Z</time>
      </trkpt>
      <trkpt lat="46.52615" lon="0.32523">
        <ele>189.3</ele>
        <time>2018-09-16T07:23:27.000Z</time>
      </trkpt>
      <trkpt lat="46.52624" lon="0.32533">
        <ele>189.09</ele>
        <time>2018-09-16T07:23:30.000Z</time>
      </trkpt>
      <trkpt lat="46.52632" lon="0.32543">
        <ele>188.79</ele>
        <time>2018-09-16T07:23:33.000Z</time>
      </trkpt>
      <trkpt lat="46.52643" lon="0.32548">
        <ele>188.59</ele>
        <time>2018-09-16T07:23:36.000Z</time>
      </trkpt>
      <trkpt lat="46.52654" lon="0.32551">
        <ele>188.46</ele>
        <time>2018-09-16T07:23:39.000Z</time>
      </trkpt>
      <trkpt lat="46.52666" lon="0.32556">
        <ele>188.34</ele>
        <time>2018-09-16T07:23:42.000Z</time>
      </trkpt>
      <trkpt lat="46.52678" lon="0.32564">
        <ele>188.24</ele>
        <time>2018-09-16T07:23:45.000Z</time>
      </trkpt>
      <trkpt lat="46.52686" lon="0.32574">
        <ele>187.38</ele>
        <time>2018-09-16T07:23:47.000Z</time>
      </trkpt>
      <trkpt lat="46.52696" lon="0.32582">
        <ele>187.29</ele>
        <time>2018-09-16T07:23:49.000Z</time>
      </trkpt>
      <trkpt lat="46.52707" lon="0.32584">
        <ele>187.18</ele>
        <time>2018-09-16T07:23:51.000Z</time>
      </trkpt>
      <trkpt lat="46.52718" lon="0.32579">
        <ele>187.02</ele>
        <time>2018-09-16T07:23:54.000Z</time>
      </trkpt>
      <trkpt lat="46.52726" lon="0.32591">
        <ele>187.03</ele>
        <time>2018-09-16T07:23:59.000Z</time>
      </trkpt>
      <trkpt lat="46.52729" lon="0.32606">
        <ele>188.03</ele>
        <time>2018-09-16T07:24:01.000Z</time>
      </trkpt>
      <trkpt lat="46.52732" lon="0.32623">
        <ele>189.03</ele>
        <time>2018-09-16T07:24:03.000Z</time>
      </trkpt>
      <trkpt lat="46.52736" lon="0.32643">
        <ele>189.36</ele>
        <time>2018-09-16T07:24:05.000Z</time>
      </trkpt>
      <trkpt lat="46.52736" lon="0.32658">
        <ele>189.22</ele>
        <time>2018-09-16T07:24:07.000Z</time>
      </trkpt>
      <trkpt lat="46.52738" lon="0.32672">
        <ele>189.51</ele>
        <time>2018-09-16T07:24:09.000Z</time>
      </trkpt>
      <trkpt lat="46.52739" lon="0.32687">
        <ele>189.53</ele>
        <time>2018-09-16T07:24:11.000Z</time>
      </trkpt>
      <trkpt lat="46.52743" lon="0.32705">
        <ele>189.74</ele>
        <time>2018-09-16T07:24:14.000Z</time>
      </trkpt>
      <trkpt lat="46.52754" lon="0.32716">
        <ele>189.54</ele>
        <time>2018-09-16T07:24:17.000Z</time>
      </trkpt>
      <trkpt lat="46.52765" lon="0.32723">
        <ele>189.5</ele>
        <time>2018-09-16T07:24:20.000Z</time>
      </trkpt>
      <trkpt lat="46.52775" lon="0.32729">
        <ele>189.42</ele>
        <time>2018-09-16T07:24:22.000Z</time>
      </trkpt>
      <trkpt lat="46.52784" lon="0.32733">
        <ele>189.15</ele>
        <time>2018-09-16T07:24:24.000Z</time>
      </trkpt>
      <trkpt lat="46.52794" lon="0.32736">
        <ele>189.16</ele>
        <time>2018-09-16T07:24:26.000Z</time>
      </trkpt>
      <trkpt lat="46.52805" lon="0.3274">
        <ele>189.11</ele>
        <time>2018-09-16T07:24:29.000Z</time>
      </trkpt>
      <trkpt lat="46.52816" lon="0.32746">
        <ele>189.13</ele>
        <time>2018-09-16T07:24:33.000Z</time>
      </trkpt>
      <trkpt lat="46.52822" lon="0.32756">
        <ele>189.04</ele>
        <time>2018-09-16T07:24:36.000Z</time>
      </trkpt>
      <trkpt lat="46.52825" lon="0.32773">
        <ele>189.12</ele>
        <time>2018-09-16T07:24:39.000Z</time>
      </trkpt>
      <trkpt lat="46.52827" lon="0.32793">
        <ele>189.31</ele>
        <time>2018-09-16T07:24:42.000Z</time>
      </trkpt>
      <trkpt lat="46.52829" lon="0.32808">
        <ele>189.54</ele>
        <time>2018-09-16T07:24:44.000Z</time>
      </trkpt>
      <trkpt lat="46.52832" lon="0.32822">
        <ele>190.67</ele>
        <time>2018-09-16T07:24:46.000Z</time>
      </trkpt>
      <trkpt lat="46.52834" lon="0.32837">
        <ele>191.4</ele>
        <time>2018-09-16T07:24:48.000Z</time>
      </trkpt>
      <trkpt lat="46.52839" lon="0.32853">
        <ele>192.8</ele>
        <time>2018-09-16T07:24:50.000Z</time>
      </trkpt>
      <trkpt lat="46.52844" lon="0.32868">
        <ele>193.95</ele>
        <time>2018-09-16T07:24:52.000Z</time>
      </trkpt>
      <trkpt lat="46.5285" lon="0.32886">
        <ele>193.98</ele>
        <time>2018-09-16T07:24:54.000Z</time>
      </trkpt>
      <trkpt lat="46.52853" lon="0.32905">
        <ele>192.72</ele>
        <time>2018-09-16T07:24:56.000Z</time>
      </trkpt>
      <trkpt lat="46.52856" lon="0.32921">
        <ele>191.26</ele>
        <time>2018-09-16T07:24:58.000Z</time>
      </trkpt>
      <trkpt lat="46.52859" lon="0.32936">
        <ele>190.01</ele>
        <time>2018-09-16T07:25:00.000Z</time>
      </trkpt>
      <trkpt lat="46.52864" lon="0.3296">
        <ele>189.03</ele>
        <time>2018-09-16T07:25:02.000Z</time>
      </trkpt>
      <trkpt lat="46.52867" lon="0.3298">
        <ele>187.66</ele>
        <time>2018-09-16T07:25:04.000Z</time>
      </trkpt>
      <trkpt lat="46.52871" lon="0.33002">
        <ele>186.47</ele>
        <time>2018-09-16T07:25:06.000Z</time>
      </trkpt>
      <trkpt lat="46.52874" lon="0.33024">
        <ele>185.66</ele>
        <time>2018-09-16T07:25:08.000Z</time>
      </trkpt>
      <trkpt lat="46.52878" lon="0.33044">
        <ele>185.16</ele>
        <time>2018-09-16T07:25:10.000Z</time>
      </trkpt>
      <trkpt lat="46.52881" lon="0.33061">
        <ele>184.34</ele>
        <time>2018-09-16T07:25:12.000Z</time>
      </trkpt>
      <trkpt lat="46.52884" lon="0.33079">
        <ele>183.6</ele>
        <time>2018-09-16T07:25:14.000Z</time>
      </trkpt>
      <trkpt lat="46.52886" lon="0.33093">
        <ele>182.95</ele>
        <time>2018-09-16T07:25:16.000Z</time>
      </trkpt>
      <trkpt lat="46.5289" lon="0.33108">
        <ele>182.92</ele>
        <time>2018-09-16T07:25:18.000Z</time>
      </trkpt>
      <trkpt lat="46.52892" lon="0.33122">
        <ele>182.96</ele>
        <time>2018-09-16T07:25:20.000Z</time>
      </trkpt>
      <trkpt lat="46.52894" lon="0.33137">
        <ele>182.98</ele>
        <time>2018-09-16T07:25:23.000Z</time>
      </trkpt>
      <trkpt lat="46.52884" lon="0.33142">
        <ele>183.58</ele>
        <time>2018-09-16T07:25:26.000Z</time>
      </trkpt>
      <trkpt lat="46.52871" lon="0.33148">
        <ele>183.84</ele>
        <time>2018-09-16T07:25:28.000Z</time>
      </trkpt>
      <trkpt lat="46.52859" lon="0.33152">
        <ele>183.61</ele>
        <time>2018-09-16T07:25:30.000Z</time>
      </trkpt>
      <trkpt lat="46.5285" lon="0.33158">
        <ele>183.33</ele>
        <time>2018-09-16T07:25:32.000Z</time>
      </trkpt>
      <trkpt lat="46.52837" lon="0.33167">
        <ele>182.52</ele>
        <time>2018-09-16T07:25:35.000Z</time>
      </trkpt>
      <trkpt lat="46.52824" lon="0.33169">
        <ele>182.01</ele>
        <time>2018-09-16T07:25:37.000Z</time>
      </trkpt>
      <trkpt lat="46.52811" lon="0.33175">
        <ele>181.56</ele>
        <time>2018-09-16T07:25:39.000Z</time>
      </trkpt>
      <trkpt lat="46.52801" lon="0.33182">
        <ele>181.27</ele>
        <time>2018-09-16T07:25:41.000Z</time>
      </trkpt>
      <trkpt lat="46.52794" lon="0.33194">
        <ele>181.22</ele>
        <time>2018-09-16T07:25:44.000Z</time>
      </trkpt>
      <trkpt lat="46.52794" lon="0.33215">
        <ele>181.13</ele>
        <time>2018-09-16T07:25:47.000Z</time>
      </trkpt>
      <trkpt lat="46.52796" lon="0.33236">
        <ele>180.7</ele>
        <time>2018-09-16T07:25:49.000Z</time>
      </trkpt>
      <trkpt lat="46.528" lon="0.33258">
        <ele>180.14</ele>
        <time>2018-09-16T07:25:51.000Z</time>
      </trkpt>
      <trkpt lat="46.52799" lon="0.3328">
        <ele>179.28</ele>
        <time>2018-09-16T07:25:53.000Z</time>
      </trkpt>
      <trkpt lat="46.52795" lon="0.33301">
        <ele>178.83</ele>
        <time>2018-09-16T07:25:55.000Z</time>
      </trkpt>
      <trkpt lat="46.52792" lon="0.3332">
        <ele>178.37</ele>
        <time>2018-09-16T07:25:57.000Z</time>
      </trkpt>
      <trkpt lat="46.52793" lon="0.33339">
        <ele>177.8</ele>
        <time>2018-09-16T07:25:59.000Z</time>
      </trkpt>
      <trkpt lat="46.52794" lon="0.3336">
        <ele>177.49</ele>
        <time>2018-09-16T07:26:01.000Z</time>
      </trkpt>
      <trkpt lat="46.52797" lon="0.33379">
        <ele>177.64</ele>
        <time>2018-09-16T07:26:03.000Z</time>
      </trkpt>
      <trkpt lat="46.528" lon="0.33398">
        <ele>177.45</ele>
        <time>2018-09-16T07:26:05.000Z</time>
      </trkpt>
      <trkpt lat="46.52798" lon="0.33414">
        <ele>177.22</ele>
        <time>2018-09-16T07:26:07.000Z</time>
      </trkpt>
      <trkpt lat="46.52791" lon="0.33427">
        <ele>176.77</ele>
        <time>2018-09-16T07:26:09.000Z</time>
      </trkpt>
      <trkpt lat="46.52783" lon="0.33434">
        <ele>175.96</ele>
        <time>2018-09-16T07:26:11.000Z</time>
      </trkpt>
      <trkpt lat="46.52771" lon="0.33435">
        <ele>174.64</ele>
        <time>2018-09-16T07:26:13.000Z</time>
      </trkpt>
      <trkpt lat="46.52759" lon="0.3343">
        <ele>172.71</ele>
        <time>2018-09-16T07:26:15.000Z</time>
      </trkpt>
      <trkpt lat="46.52747" lon="0.33427">
        <ele>170.83</ele>
        <time>2018-09-16T07:26:17.000Z</time>
      </trkpt>
      <trkpt lat="46.52735" lon="0.33428">
        <ele>169.31</ele>
        <time>2018-09-16T07:26:19.000Z</time>
      </trkpt>
      <trkpt lat="46.52722" lon="0.33431">
        <ele>168.26</ele>
        <time>2018-09-16T07:26:21.000Z</time>
      </trkpt>
      <trkpt lat="46.52707" lon="0.33431">
        <ele>167.04</ele>
        <time>2018-09-16T07:26:23.000Z</time>
      </trkpt>
      <trkpt lat="46.52691" lon="0.33428">
        <ele>165.95</ele>
        <time>2018-09-16T07:26:25.000Z</time>
      </trkpt>
      <trkpt lat="46.52676" lon="0.33427">
        <ele>165.13</ele>
        <time>2018-09-16T07:26:27.000Z</time>
      </trkpt>
      <trkpt lat="46.5266" lon="0.33426">
        <ele>164.56</ele>
        <time>2018-09-16T07:26:29.000Z</time>
      </trkpt>
      <trkpt lat="46.52646" lon="0.33421">
        <ele>163.82</ele>
        <time>2018-09-16T07:26:31.000Z</time>
      </trkpt>
      <trkpt lat="46.52633" lon="0.33411">
        <ele>163.42</ele>
        <time>2018-09-16T07:26:33.000Z</time>
      </trkpt>
      <trkpt lat="46.52623" lon="0.334">
        <ele>163.05</ele>
        <time>2018-09-16T07:26:35.000Z</time>
      </trkpt>
      <trkpt lat="46.52613" lon="0.33393">
        <ele>162.56</ele>
        <time>2018-09-16T07:26:37.000Z</time>
      </trkpt>
      <trkpt lat="46.52603" lon="0.33382">
        <ele>161.92</ele>
        <time>2018-09-16T07:26:39.000Z</time>
      </trkpt>
      <trkpt lat="46.52593" lon="0.33374">
        <ele>161.01</ele>
        <time>2018-09-16T07:26:41.000Z</time>
      </trkpt>
      <trkpt lat="46.52583" lon="0.33369">
        <ele>160.2</ele>
        <time>2018-09-16T07:26:43.000Z</time>
      </trkpt>
      <trkpt lat="46.52573" lon="0.33369">
        <ele>159.53</ele>
        <time>2018-09-16T07:26:45.000Z</time>
      </trkpt>
      <trkpt lat="46.52562" lon="0.33377">
        <ele>159.02</ele>
        <time>2018-09-16T07:26:48.000Z</time>
      </trkpt>
      <trkpt lat="46.52553" lon="0.33388">
        <ele>158.38</ele>
        <time>2018-09-16T07:26:51.000Z</time>
      </trkpt>
      <trkpt lat="46.52544" lon="0.33399">
        <ele>157.89</ele>
        <time>2018-09-16T07:26:54.000Z</time>
      </trkpt>
      <trkpt lat="46.52538" lon="0.33415">
        <ele>157.37</ele>
        <time>2018-09-16T07:26:57.000Z</time>
      </trkpt>
      <trkpt lat="46.52535" lon="0.3343">
        <ele>156.63</ele>
        <time>2018-09-16T07:27:01.000Z</time>
      </trkpt>
      <trkpt lat="46.52533" lon="0.3345">
        <ele>154.93</ele>
        <time>2018-09-16T07:27:04.000Z</time>
      </trkpt>
      <trkpt lat="46.52531" lon="0.33464">
        <ele>153.64</ele>
        <time>2018-09-16T07:27:06.000Z</time>
      </trkpt>
      <trkpt lat="46.52527" lon="0.33482">
        <ele>153.08</ele>
        <time>2018-09-16T07:27:09.000Z</time>
      </trkpt>
      <trkpt lat="46.52525" lon="0.33499">
        <ele>153.71</ele>
        <time>2018-09-16T07:27:11.000Z</time>
      </trkpt>
      <trkpt lat="46.52523" lon="0.33518">
        <ele>154.52</ele>
        <time>2018-09-16T07:27:13.000Z</time>
      </trkpt>
      <trkpt lat="46.52523" lon="0.33535">
        <ele>154.93</ele>
        <time>2018-09-16T07:27:15.000Z</time>
      </trkpt>
      <trkpt lat="46.52523" lon="0.33552">
        <ele>155.11</ele>
        <time>2018-09-16T07:27:17.000Z</time>
      </trkpt>
      <trkpt lat="46.52524" lon="0.33575">
        <ele>154.95</ele>
        <time>2018-09-16T07:27:19.000Z</time>
      </trkpt>
      <trkpt lat="46.52525" lon="0.33593">
        <ele>154.63</ele>
        <time>2018-09-16T07:27:21.000Z</time>
      </trkpt>
      <trkpt lat="46.52526" lon="0.33606">
        <ele>154.19</ele>
        <time>2018-09-16T07:27:23.000Z</time>
      </trkpt>
      <trkpt lat="46.52533" lon="0.3362">
        <ele>153.56</ele>
        <time>2018-09-16T07:27:26.000Z</time>
      </trkpt>
      <trkpt lat="46.52542" lon="0.33624">
        <ele>152.67</ele>
        <time>2018-09-16T07:27:28.000Z</time>
      </trkpt>
      <trkpt lat="46.52553" lon="0.33624">
        <ele>151.77</ele>
        <time>2018-09-16T07:27:30.000Z</time>
      </trkpt>
      <trkpt lat="46.52567" lon="0.33622">
        <ele>151.06</ele>
        <time>2018-09-16T07:27:32.000Z</time>
      </trkpt>
      <trkpt lat="46.52583" lon="0.3362">
        <ele>150.24</ele>
        <time>2018-09-16T07:27:34.000Z</time>
      </trkpt>
      <trkpt lat="46.52599" lon="0.33616">
        <ele>149.2</ele>
        <time>2018-09-16T07:27:36.000Z</time>
      </trkpt>
      <trkpt lat="46.52614" lon="0.33613">
        <ele>148.41</ele>
        <time>2018-09-16T07:27:38.000Z</time>
      </trkpt>
      <trkpt lat="46.52627" lon="0.33616">
        <ele>147.49</ele>
        <time>2018-09-16T07:27:40.000Z</time>
      </trkpt>
      <trkpt lat="46.52639" lon="0.33624">
        <ele>146.61</ele>
        <time>2018-09-16T07:27:42.000Z</time>
      </trkpt>
      <trkpt lat="46.52654" lon="0.33626">
        <ele>145.42</ele>
        <time>2018-09-16T07:27:44.000Z</time>
      </trkpt>
      <trkpt lat="46.52668" lon="0.33621">
        <ele>144.75</ele>
        <time>2018-09-16T07:27:46.000Z</time>
      </trkpt>
      <trkpt lat="46.52683" lon="0.33616">
        <ele>144.07</ele>
        <time>2018-09-16T07:27:48.000Z</time>
      </trkpt>
      <trkpt lat="46.52696" lon="0.33612">
        <ele>143.35</ele>
        <time>2018-09-16T07:27:50.000Z</time>
      </trkpt>
      <trkpt lat="46.52711" lon="0.33613">
        <ele>142.72</ele>
        <time>2018-09-16T07:27:52.000Z</time>
      </trkpt>
      <trkpt lat="46.52725" lon="0.33616">
        <ele>142.04</ele>
        <time>2018-09-16T07:27:54.000Z</time>
      </trkpt>
      <trkpt lat="46.52737" lon="0.3362">
        <ele>141.55</ele>
        <time>2018-09-16T07:27:56.000Z</time>
      </trkpt>
      <trkpt lat="46.52749" lon="0.33624">
        <ele>141</ele>
        <time>2018-09-16T07:27:58.000Z</time>
      </trkpt>
      <trkpt lat="46.52763" lon="0.3363">
        <ele>140.17</ele>
        <time>2018-09-16T07:28:00.000Z</time>
      </trkpt>
      <trkpt lat="46.52775" lon="0.33633">
        <ele>139.54</ele>
        <time>2018-09-16T07:28:02.000Z</time>
      </trkpt>
      <trkpt lat="46.52788" lon="0.3363">
        <ele>138.94</ele>
        <time>2018-09-16T07:28:04.000Z</time>
      </trkpt>
      <trkpt lat="46.52799" lon="0.33629">
        <ele>138.64</ele>
        <time>2018-09-16T07:28:06.000Z</time>
      </trkpt>
      <trkpt lat="46.52811" lon="0.33628">
        <ele>138.3</ele>
        <time>2018-09-16T07:28:08.000Z</time>
      </trkpt>
      <trkpt lat="46.52823" lon="0.33632">
        <ele>138.37</ele>
        <time>2018-09-16T07:28:10.000Z</time>
      </trkpt>
      <trkpt lat="46.52834" lon="0.33637">
        <ele>138.18</ele>
        <time>2018-09-16T07:28:12.000Z</time>
      </trkpt>
      <trkpt lat="46.52846" lon="0.33639">
        <ele>138.19</ele>
        <time>2018-09-16T07:28:14.000Z</time>
      </trkpt>
      <trkpt lat="46.52857" lon="0.33644">
        <ele>137.75</ele>
        <time>2018-09-16T07:28:16.000Z</time>
      </trkpt>
      <trkpt lat="46.52868" lon="0.33648">
        <ele>137.27</ele>
        <time>2018-09-16T07:28:18.000Z</time>
      </trkpt>
      <trkpt lat="46.52879" lon="0.33651">
        <ele>136.99</ele>
        <time>2018-09-16T07:28:20.000Z</time>
      </trkpt>
      <trkpt lat="46.52889" lon="0.33652">
        <ele>137.05</ele>
        <time>2018-09-16T07:28:22.000Z</time>
      </trkpt>
      <trkpt lat="46.529" lon="0.33655">
        <ele>137.05</ele>
        <time>2018-09-16T07:28:24.000Z</time>
      </trkpt>
      <trkpt lat="46.52911" lon="0.33659">
        <ele>136.93</ele>
        <time>2018-09-16T07:28:26.000Z</time>
      </trkpt>
      <trkpt lat="46.52922" lon="0.33664">
        <ele>136.76</ele>
        <time>2018-09-16T07:28:28.000Z</time>
      </trkpt>
      <trkpt lat="46.52935" lon="0.33668">
        <ele>136.41</ele>
        <time>2018-09-16T07:28:30.000Z</time>
      </trkpt>
      <trkpt lat="46.52945" lon="0.33671">
        <ele>136.33</ele>
        <time>2018-09-16T07:28:31.000Z</time>
      </trkpt>
      <trkpt lat="46.52963" lon="0.33676">
        <ele>136.25</ele>
        <time>2018-09-16T07:28:33.000Z</time>
      </trkpt>
      <trkpt lat="46.52977" lon="0.33676">
        <ele>136.25</ele>
        <time>2018-09-16T07:28:35.000Z</time>
      </trkpt>
      <trkpt lat="46.52992" lon="0.33673">
        <ele>136.83</ele>
        <time>2018-09-16T07:28:37.000Z</time>
      </trkpt>
      <trkpt lat="46.53006" lon="0.33671">
        <ele>137.17</ele>
        <time>2018-09-16T07:28:39.000Z</time>
      </trkpt>
      <trkpt lat="46.53019" lon="0.33669">
        <ele>136.98</ele>
        <time>2018-09-16T07:28:41.000Z</time>
      </trkpt>
      <trkpt lat="46.53028" lon="0.33666">
        <ele>136.32</ele>
        <time>2018-09-16T07:28:43.000Z</time>
      </trkpt>
      <trkpt lat="46.5304" lon="0.33662">
        <ele>135.3</ele>
        <time>2018-09-16T07:28:45.000Z</time>
      </trkpt>
      <trkpt lat="46.53051" lon="0.33655">
        <ele>134.06</ele>
        <time>2018-09-16T07:28:47.000Z</time>
      </trkpt>
      <trkpt lat="46.53062" lon="0.33646">
        <ele>133.1</ele>
        <time>2018-09-16T07:28:49.000Z</time>
      </trkpt>
      <trkpt lat="46.53072" lon="0.33646">
        <ele>133.28</ele>
        <time>2018-09-16T07:28:51.000Z</time>
      </trkpt>
      <trkpt lat="46.53081" lon="0.33651">
        <ele>133.43</ele>
        <time>2018-09-16T07:28:54.000Z</time>
      </trkpt>
      <trkpt lat="46.53091" lon="0.3365">
        <ele>133.79</ele>
        <time>2018-09-16T07:29:00.000Z</time>
      </trkpt>
      <trkpt lat="46.53102" lon="0.33652">
        <ele>134.9</ele>
        <time>2018-09-16T07:29:04.000Z</time>
      </trkpt>
      <trkpt lat="46.53115" lon="0.33661">
        <ele>136.05</ele>
        <time>2018-09-16T07:29:06.000Z</time>
      </trkpt>
      <trkpt lat="46.53126" lon="0.33667">
        <ele>137.26</ele>
        <time>2018-09-16T07:29:08.000Z</time>
      </trkpt>
      <trkpt lat="46.5314" lon="0.3367">
        <ele>137.64</ele>
        <time>2018-09-16T07:29:10.000Z</time>
      </trkpt>
      <trkpt lat="46.5315" lon="0.33673">
        <ele>138.12</ele>
        <time>2018-09-16T07:29:12.000Z</time>
      </trkpt>
      <trkpt lat="46.5316" lon="0.3368">
        <ele>138.96</ele>
        <time>2018-09-16T07:29:14.000Z</time>
      </trkpt>
      <trkpt lat="46.5317" lon="0.33685">
        <ele>140.45</ele>
        <time>2018-09-16T07:29:16.000Z</time>
      </trkpt>
      <trkpt lat="46.53181" lon="0.33689">
        <ele>141.89</ele>
        <time>2018-09-16T07:29:18.000Z</time>
      </trkpt>
      <trkpt lat="46.53195" lon="0.33694">
        <ele>141.73</ele>
        <time>2018-09-16T07:29:20.000Z</time>
      </trkpt>
      <trkpt lat="46.53209" lon="0.337">
        <ele>140.91</ele>
        <time>2018-09-16T07:29:22.000Z</time>
      </trkpt>
      <trkpt lat="46.5322" lon="0.33704">
        <ele>139.72</ele>
        <time>2018-09-16T07:29:24.000Z</time>
      </trkpt>
      <trkpt lat="46.53231" lon="0.33707">
        <ele>138.83</ele>
        <time>2018-09-16T07:29:26.000Z</time>
      </trkpt>
      <trkpt lat="46.53241" lon="0.33713">
        <ele>138.27</ele>
        <time>2018-09-16T07:29:28.000Z</time>
      </trkpt>
      <trkpt lat="46.53254" lon="0.33719">
        <ele>137.63</ele>
        <time>2018-09-16T07:29:30.000Z</time>
      </trkpt>
      <trkpt lat="46.53265" lon="0.33725">
        <ele>137.03</ele>
        <time>2018-09-16T07:29:32.000Z</time>
      </trkpt>
      <trkpt lat="46.53277" lon="0.33731">
        <ele>136.16</ele>
        <time>2018-09-16T07:29:34.000Z</time>
      </trkpt>
      <trkpt lat="46.53289" lon="0.33737">
        <ele>135.36</ele>
        <time>2018-09-16T07:29:36.000Z</time>
      </trkpt>
      <trkpt lat="46.533" lon="0.33742">
        <ele>134.17</ele>
        <time>2018-09-16T07:29:38.000Z</time>
      </trkpt>
      <trkpt lat="46.53312" lon="0.33748">
        <ele>133.12</ele>
        <time>2018-09-16T07:29:40.000Z</time>
      </trkpt>
      <trkpt lat="46.53322" lon="0.33754">
        <ele>132.1</ele>
        <time>2018-09-16T07:29:42.000Z</time>
      </trkpt>
      <trkpt lat="46.53331" lon="0.33759">
        <ele>131.89</ele>
        <time>2018-09-16T07:29:44.000Z</time>
      </trkpt>
      <trkpt lat="46.53344" lon="0.33767">
        <ele>131.14</ele>
        <time>2018-09-16T07:29:46.000Z</time>
      </trkpt>
      <trkpt lat="46.53354" lon="0.33772">
        <ele>130.94</ele>
        <time>2018-09-16T07:29:48.000Z</time>
      </trkpt>
      <trkpt lat="46.53366" lon="0.33778">
        <ele>131.05</ele>
        <time>2018-09-16T07:29:50.000Z</time>
      </trkpt>
      <trkpt lat="46.53379" lon="0.33784">
        <ele>130.98</ele>
        <time>2018-09-16T07:29:52.000Z</time>
      </trkpt>
      <trkpt lat="46.5339" lon="0.33789">
        <ele>131.1</ele>
        <time>2018-09-16T07:29:54.000Z</time>
      </trkpt>
      <trkpt lat="46.53399" lon="0.33795">
        <ele>131.36</ele>
        <time>2018-09-16T07:29:56.000Z</time>
      </trkpt>
      <trkpt lat="46.5341" lon="0.33802">
        <ele>131.78</ele>
        <time>2018-09-16T07:29:58.000Z</time>
      </trkpt>
      <trkpt lat="46.53421" lon="0.33806">
        <ele>132.06</ele>
        <time>2018-09-16T07:30:00.000Z</time>
      </trkpt>
      <trkpt lat="46.53433" lon="0.33812">
        <ele>132.63</ele>
        <time>2018-09-16T07:30:02.000Z</time>
      </trkpt>
      <trkpt lat="46.53444" lon="0.33817">
        <ele>133.13</ele>
        <time>2018-09-16T07:30:04.000Z</time>
      </trkpt>
      <trkpt lat="46.53455" lon="0.33824">
        <ele>133.57</ele>
        <time>2018-09-16T07:30:06.000Z</time>
      </trkpt>
      <trkpt lat="46.53465" lon="0.33827">
        <ele>133.66</ele>
        <time>2018-09-16T07:30:08.000Z</time>
      </trkpt>
      <trkpt lat="46.53474" lon="0.33821">
        <ele>134.15</ele>
        <time>2018-09-16T07:30:13.000Z</time>
      </trkpt>
      <trkpt lat="46.53484" lon="0.33819">
        <ele>134.78</ele>
        <time>2018-09-16T07:30:18.000Z</time>
      </trkpt>
      <trkpt lat="46.53494" lon="0.3382">
        <ele>135.31</ele>
        <time>2018-09-16T07:30:22.000Z</time>
      </trkpt>
      <trkpt lat="46.53506" lon="0.33824">
        <ele>135.77</ele>
        <time>2018-09-16T07:30:28.000Z</time>
      </trkpt>
      <trkpt lat="46.53516" lon="0.33829">
        <ele>136.72</ele>
        <time>2018-09-16T07:30:37.000Z</time>
      </trkpt>
      <trkpt lat="46.53526" lon="0.33831">
        <ele>137.32</ele>
        <time>2018-09-16T07:30:42.000Z</time>
      </trkpt>
      <trkpt lat="46.53536" lon="0.33837">
        <ele>138.12</ele>
        <time>2018-09-16T07:30:48.000Z</time>
      </trkpt>
      <trkpt lat="46.53544" lon="0.33842">
        <ele>139.38</ele>
        <time>2018-09-16T07:30:56.000Z</time>
      </trkpt>
      <trkpt lat="46.53553" lon="0.33846">
        <ele>141.12</ele>
        <time>2018-09-16T07:31:04.000Z</time>
      </trkpt>
      <trkpt lat="46.53561" lon="0.33851">
        <ele>142.26</ele>
        <time>2018-09-16T07:31:09.000Z</time>
      </trkpt>
      <trkpt lat="46.53571" lon="0.3385">
        <ele>144.22</ele>
        <time>2018-09-16T07:31:18.000Z</time>
      </trkpt>
      <trkpt lat="46.53579" lon="0.33842">
        <ele>145.93</ele>
        <time>2018-09-16T07:31:26.000Z</time>
      </trkpt>
      <trkpt lat="46.53584" lon="0.3383">
        <ele>147.82</ele>
        <time>2018-09-16T07:31:34.000Z</time>
      </trkpt>
      <trkpt lat="46.53585" lon="0.33817">
        <ele>149.05</ele>
        <time>2018-09-16T07:31:39.000Z</time>
      </trkpt>
      <trkpt lat="46.53585" lon="0.33802">
        <ele>150.49</ele>
        <time>2018-09-16T07:31:45.000Z</time>
      </trkpt>
      <trkpt lat="46.53583" lon="0.33788">
        <ele>152.07</ele>
        <time>2018-09-16T07:31:51.000Z</time>
      </trkpt>
      <trkpt lat="46.53575" lon="0.33778">
        <ele>153.48</ele>
        <time>2018-09-16T07:31:56.000Z</time>
      </trkpt>
      <trkpt lat="46.53565" lon="0.33774">
        <ele>154.31</ele>
        <time>2018-09-16T07:32:01.000Z</time>
      </trkpt>
      <trkpt lat="46.53556" lon="0.33772">
        <ele>154.88</ele>
        <time>2018-09-16T07:32:06.000Z</time>
      </trkpt>
      <trkpt lat="46.53545" lon="0.33771">
        <ele>156.42</ele>
        <time>2018-09-16T07:32:15.000Z</time>
      </trkpt>
      <trkpt lat="46.53535" lon="0.3377">
        <ele>157.17</ele>
        <time>2018-09-16T07:32:19.000Z</time>
      </trkpt>
      <trkpt lat="46.53525" lon="0.33768">
        <ele>157.66</ele>
        <time>2018-09-16T07:32:22.000Z</time>
      </trkpt>
      <trkpt lat="46.53515" lon="0.33766">
        <ele>158.28</ele>
        <time>2018-09-16T07:32:26.000Z</time>
      </trkpt>
      <trkpt lat="46.53504" lon="0.33761">
        <ele>158.95</ele>
        <time>2018-09-16T07:32:30.000Z</time>
      </trkpt>
      <trkpt lat="46.53494" lon="0.33756">
        <ele>159.6</ele>
        <time>2018-09-16T07:32:34.000Z</time>
      </trkpt>
      <trkpt lat="46.53484" lon="0.33749">
        <ele>160.41</ele>
        <time>2018-09-16T07:32:39.000Z</time>
      </trkpt>
      <trkpt lat="46.53473" lon="0.33742">
        <ele>161.02</ele>
        <time>2018-09-16T07:32:43.000Z</time>
      </trkpt>
      <trkpt lat="46.53465" lon="0.33736">
        <ele>161.77</ele>
        <time>2018-09-16T07:32:47.000Z</time>
      </trkpt>
      <trkpt lat="46.53454" lon="0.3373">
        <ele>162.74</ele>
        <time>2018-09-16T07:32:52.000Z</time>
      </trkpt>
      <trkpt lat="46.53444" lon="0.33721">
        <ele>163.62</ele>
        <time>2018-09-16T07:32:56.000Z</time>
      </trkpt>
      <trkpt lat="46.53434" lon="0.33715">
        <ele>164.31</ele>
        <time>2018-09-16T07:33:00.000Z</time>
      </trkpt>
      <trkpt lat="46.53426" lon="0.33708">
        <ele>164.74</ele>
        <time>2018-09-16T07:33:03.000Z</time>
      </trkpt>
      <trkpt lat="46.53419" lon="0.33696">
        <ele>165.29</ele>
        <time>2018-09-16T07:33:07.000Z</time>
      </trkpt>
      <trkpt lat="46.53429" lon="0.33684">
        <ele>166.06</ele>
        <time>2018-09-16T07:33:13.000Z</time>
      </trkpt>
      <trkpt lat="46.5344" lon="0.33681">
        <ele>166.54</ele>
        <time>2018-09-16T07:33:17.000Z</time>
      </trkpt>
      <trkpt lat="46.53451" lon="0.33676">
        <ele>167</ele>
        <time>2018-09-16T07:33:21.000Z</time>
      </trkpt>
      <trkpt lat="46.5346" lon="0.33673">
        <ele>167.38</ele>
        <time>2018-09-16T07:33:25.000Z</time>
      </trkpt>
      <trkpt lat="46.53471" lon="0.33669">
        <ele>167.71</ele>
        <time>2018-09-16T07:33:30.000Z</time>
      </trkpt>
      <trkpt lat="46.5348" lon="0.33671">
        <ele>167.91</ele>
        <time>2018-09-16T07:33:36.000Z</time>
      </trkpt>
      <trkpt lat="46.53471" lon="0.33675">
        <ele>170.23</ele>
        <time>2018-09-16T07:35:43.000Z</time>
      </trkpt>
      <trkpt lat="46.53481" lon="0.33672">
        <ele>170.42</ele>
        <time>2018-09-16T07:36:52.000Z</time>
      </trkpt>
      <trkpt lat="46.53489" lon="0.33663">
        <ele>170.46</ele>
        <time>2018-09-16T07:36:56.000Z</time>
      </trkpt>
      <trkpt lat="46.53499" lon="0.33656">
        <ele>170.39</ele>
        <time>2018-09-16T07:37:01.000Z</time>
      </trkpt>
      <trkpt lat="46.53492" lon="0.33666">
        <ele>169.43</ele>
        <time>2018-09-16T07:37:19.000Z</time>
      </trkpt>
      <trkpt lat="46.53499" lon="0.33656">
        <ele>169.03</ele>
        <time>2018-09-16T07:37:40.000Z</time>
      </trkpt>
      <trkpt lat="46.53497" lon="0.33639">
        <ele>169.09</ele>
        <time>2018-09-16T07:37:45.000Z</time>
      </trkpt>
      <trkpt lat="46.53493" lon="0.33622">
        <ele>169.2</ele>
        <time>2018-09-16T07:37:48.000Z</time>
      </trkpt>
      <trkpt lat="46.5349" lon="0.33607">
        <ele>169.37</ele>
        <time>2018-09-16T07:37:51.000Z</time>
      </trkpt>
      <trkpt lat="46.53488" lon="0.3359">
        <ele>169.65</ele>
        <time>2018-09-16T07:37:54.000Z</time>
      </trkpt>
      <trkpt lat="46.53484" lon="0.33573">
        <ele>171.66</ele>
        <time>2018-09-16T07:37:57.000Z</time>
      </trkpt>
      <trkpt lat="46.5348" lon="0.33557">
        <ele>173.1</ele>
        <time>2018-09-16T07:38:00.000Z</time>
      </trkpt>
      <trkpt lat="46.53475" lon="0.33538">
        <ele>175.95</ele>
        <time>2018-09-16T07:38:03.000Z</time>
      </trkpt>
      <trkpt lat="46.53472" lon="0.33524">
        <ele>176.01</ele>
        <time>2018-09-16T07:38:05.000Z</time>
      </trkpt>
      <trkpt lat="46.53479" lon="0.33514">
        <ele>174.33</ele>
        <time>2018-09-16T07:38:08.000Z</time>
      </trkpt>
      <trkpt lat="46.53487" lon="0.33509">
        <ele>173.38</ele>
        <time>2018-09-16T07:38:10.000Z</time>
      </trkpt>
      <trkpt lat="46.53498" lon="0.33506">
        <ele>173.11</ele>
        <time>2018-09-16T07:38:13.000Z</time>
      </trkpt>
      <trkpt lat="46.53509" lon="0.33498">
        <ele>172.32</ele>
        <time>2018-09-16T07:38:16.000Z</time>
      </trkpt>
      <trkpt lat="46.53518" lon="0.33491">
        <ele>172.35</ele>
        <time>2018-09-16T07:38:19.000Z</time>
      </trkpt>
      <trkpt lat="46.53508" lon="0.33478">
        <ele>172.62</ele>
        <time>2018-09-16T07:38:24.000Z</time>
      </trkpt>
      <trkpt lat="46.535" lon="0.33467">
        <ele>173.76</ele>
        <time>2018-09-16T07:38:26.000Z</time>
      </trkpt>
      <trkpt lat="46.53493" lon="0.33456">
        <ele>174.24</ele>
        <time>2018-09-16T07:38:28.000Z</time>
      </trkpt>
      <trkpt lat="46.53486" lon="0.3344">
        <ele>173.89</ele>
        <time>2018-09-16T07:38:31.000Z</time>
      </trkpt>
      <trkpt lat="46.53481" lon="0.33428">
        <ele>173.76</ele>
        <time>2018-09-16T07:38:33.000Z</time>
      </trkpt>
      <trkpt lat="46.53477" lon="0.33411">
        <ele>174.81</ele>
        <time>2018-09-16T07:38:36.000Z</time>
      </trkpt>
      <trkpt lat="46.53472" lon="0.33393">
        <ele>175.65</ele>
        <time>2018-09-16T07:38:39.000Z</time>
      </trkpt>
      <trkpt lat="46.53468" lon="0.33374">
        <ele>176.61</ele>
        <time>2018-09-16T07:38:42.000Z</time>
      </trkpt>
      <trkpt lat="46.53466" lon="0.33354">
        <ele>177.86</ele>
        <time>2018-09-16T07:38:45.000Z</time>
      </trkpt>
      <trkpt lat="46.53464" lon="0.33338">
        <ele>179.06</ele>
        <time>2018-09-16T07:38:47.000Z</time>
      </trkpt>
      <trkpt lat="46.53462" lon="0.33323">
        <ele>180.05</ele>
        <time>2018-09-16T07:38:49.000Z</time>
      </trkpt>
      <trkpt lat="46.53458" lon="0.33305">
        <ele>180.99</ele>
        <time>2018-09-16T07:38:52.000Z</time>
      </trkpt>
      <trkpt lat="46.53458" lon="0.33291">
        <ele>182.02</ele>
        <time>2018-09-16T07:38:54.000Z</time>
      </trkpt>
      <trkpt lat="46.53458" lon="0.33278">
        <ele>182.78</ele>
        <time>2018-09-16T07:38:56.000Z</time>
      </trkpt>
      <trkpt lat="46.53456" lon="0.33264">
        <ele>183.97</ele>
        <time>2018-09-16T07:38:58.000Z</time>
      </trkpt>
      <trkpt lat="46.53452" lon="0.33249">
        <ele>184.16</ele>
        <time>2018-09-16T07:39:00.000Z</time>
      </trkpt>
      <trkpt lat="46.53449" lon="0.33234">
        <ele>183.51</ele>
        <time>2018-09-16T07:39:02.000Z</time>
      </trkpt>
      <trkpt lat="46.53446" lon="0.33219">
        <ele>182.56</ele>
        <time>2018-09-16T07:39:04.000Z</time>
      </trkpt>
      <trkpt lat="46.53445" lon="0.33198">
        <ele>181.71</ele>
        <time>2018-09-16T07:39:07.000Z</time>
      </trkpt>
      <trkpt lat="46.53442" lon="0.3318">
        <ele>181.9</ele>
        <time>2018-09-16T07:39:10.000Z</time>
      </trkpt>
      <trkpt lat="46.53438" lon="0.33168">
        <ele>181.89</ele>
        <time>2018-09-16T07:39:12.000Z</time>
      </trkpt>
      <trkpt lat="46.53434" lon="0.33154">
        <ele>181.96</ele>
        <time>2018-09-16T07:39:15.000Z</time>
      </trkpt>
      <trkpt lat="46.53429" lon="0.33139">
        <ele>181.98</ele>
        <time>2018-09-16T07:39:18.000Z</time>
      </trkpt>
      <trkpt lat="46.53423" lon="0.33128">
        <ele>181.51</ele>
        <time>2018-09-16T07:39:23.000Z</time>
      </trkpt>
      <trkpt lat="46.53427" lon="0.33115">
        <ele>180.68</ele>
        <time>2018-09-16T07:39:27.000Z</time>
      </trkpt>
      <trkpt lat="46.53425" lon="0.33099">
        <ele>180.09</ele>
        <time>2018-09-16T07:39:31.000Z</time>
      </trkpt>
      <trkpt lat="46.5342" lon="0.33087">
        <ele>179.69</ele>
        <time>2018-09-16T07:39:36.000Z</time>
      </trkpt>
      <trkpt lat="46.53411" lon="0.33075">
        <ele>179.3</ele>
        <time>2018-09-16T07:39:42.000Z</time>
      </trkpt>
      <trkpt lat="46.53402" lon="0.33072">
        <ele>179.12</ele>
        <time>2018-09-16T07:39:46.000Z</time>
      </trkpt>
      <trkpt lat="46.53393" lon="0.33071">
        <ele>178.94</ele>
        <time>2018-09-16T07:39:54.000Z</time>
      </trkpt>
      <trkpt lat="46.53385" lon="0.33064">
        <ele>179.31</ele>
        <time>2018-09-16T07:40:04.000Z</time>
      </trkpt>
      <trkpt lat="46.53381" lon="0.33052">
        <ele>180.19</ele>
        <time>2018-09-16T07:40:11.000Z</time>
      </trkpt>
      <trkpt lat="46.5338" lon="0.33039">
        <ele>181.29</ele>
        <time>2018-09-16T07:40:16.000Z</time>
      </trkpt>
      <trkpt lat="46.53376" lon="0.33026">
        <ele>182.57</ele>
        <time>2018-09-16T07:40:21.000Z</time>
      </trkpt>
      <trkpt lat="46.53369" lon="0.33016">
        <ele>183.31</ele>
        <time>2018-09-16T07:40:24.000Z</time>
      </trkpt>
      <trkpt lat="46.53366" lon="0.33004">
        <ele>183.89</ele>
        <time>2018-09-16T07:40:27.000Z</time>
      </trkpt>
      <trkpt lat="46.53363" lon="0.32989">
        <ele>184.78</ele>
        <time>2018-09-16T07:40:32.000Z</time>
      </trkpt>
      <trkpt lat="46.53357" lon="0.32977">
        <ele>185.64</ele>
        <time>2018-09-16T07:40:37.000Z</time>
      </trkpt>
      <trkpt lat="46.53354" lon="0.32964">
        <ele>186.17</ele>
        <time>2018-09-16T07:40:41.000Z</time>
      </trkpt>
      <trkpt lat="46.53356" lon="0.32951">
        <ele>186.86</ele>
        <time>2018-09-16T07:40:46.000Z</time>
      </trkpt>
      <trkpt lat="46.53346" lon="0.32955">
        <ele>187.53</ele>
        <time>2018-09-16T07:40:54.000Z</time>
      </trkpt>
      <trkpt lat="46.53336" lon="0.32965">
        <ele>187.58</ele>
        <time>2018-09-16T07:40:58.000Z</time>
      </trkpt>
      <trkpt lat="46.53328" lon="0.32979">
        <ele>187.6</ele>
        <time>2018-09-16T07:41:02.000Z</time>
      </trkpt>
      <trkpt lat="46.53321" lon="0.32992">
        <ele>187.56</ele>
        <time>2018-09-16T07:41:05.000Z</time>
      </trkpt>
      <trkpt lat="46.53309" lon="0.33002">
        <ele>186.71</ele>
        <time>2018-09-16T07:41:08.000Z</time>
      </trkpt>
      <trkpt lat="46.53301" lon="0.33004">
        <ele>186.66</ele>
        <time>2018-09-16T07:41:10.000Z</time>
      </trkpt>
      <trkpt lat="46.53291" lon="0.33013">
        <ele>186.63</ele>
        <time>2018-09-16T07:41:14.000Z</time>
      </trkpt>
      <trkpt lat="46.53278" lon="0.33014">
        <ele>186.62</ele>
        <time>2018-09-16T07:41:17.000Z</time>
      </trkpt>
      <trkpt lat="46.53268" lon="0.33018">
        <ele>186.54</ele>
        <time>2018-09-16T07:41:20.000Z</time>
      </trkpt>
      <trkpt lat="46.53257" lon="0.33009">
        <ele>186.46</ele>
        <time>2018-09-16T07:41:23.000Z</time>
      </trkpt>
      <trkpt lat="46.53249" lon="0.33">
        <ele>186.41</ele>
        <time>2018-09-16T07:41:26.000Z</time>
      </trkpt>
      <trkpt lat="46.53239" lon="0.32993">
        <ele>186.45</ele>
        <time>2018-09-16T07:41:29.000Z</time>
      </trkpt>
      <trkpt lat="46.53228" lon="0.32997">
        <ele>186.59</ele>
        <time>2018-09-16T07:41:32.000Z</time>
      </trkpt>
      <trkpt lat="46.53217" lon="0.33006">
        <ele>187.18</ele>
        <time>2018-09-16T07:41:35.000Z</time>
      </trkpt>
      <trkpt lat="46.53205" lon="0.3301">
        <ele>187.22</ele>
        <time>2018-09-16T07:41:38.000Z</time>
      </trkpt>
      <trkpt lat="46.53195" lon="0.33013">
        <ele>186.86</ele>
        <time>2018-09-16T07:41:40.000Z</time>
      </trkpt>
      <trkpt lat="46.53183" lon="0.33017">
        <ele>186.88</ele>
        <time>2018-09-16T07:41:43.000Z</time>
      </trkpt>
      <trkpt lat="46.53176" lon="0.3301">
        <ele>186.9</ele>
        <time>2018-09-16T07:41:46.000Z</time>
      </trkpt>
      <trkpt lat="46.53175" lon="0.32992">
        <ele>188.08</ele>
        <time>2018-09-16T07:41:49.000Z</time>
      </trkpt>
      <trkpt lat="46.53171" lon="0.32975">
        <ele>189</ele>
        <time>2018-09-16T07:41:51.000Z</time>
      </trkpt>
      <trkpt lat="46.53167" lon="0.32958">
        <ele>188.96</ele>
        <time>2018-09-16T07:41:53.000Z</time>
      </trkpt>
      <trkpt lat="46.53164" lon="0.32941">
        <ele>188.5</ele>
        <time>2018-09-16T07:41:55.000Z</time>
      </trkpt>
      <trkpt lat="46.53169" lon="0.32925">
        <ele>187.51</ele>
        <time>2018-09-16T07:41:57.000Z</time>
      </trkpt>
      <trkpt lat="46.5318" lon="0.32918">
        <ele>185.49</ele>
        <time>2018-09-16T07:41:59.000Z</time>
      </trkpt>
      <trkpt lat="46.53192" lon="0.32912">
        <ele>183.39</ele>
        <time>2018-09-16T07:42:01.000Z</time>
      </trkpt>
      <trkpt lat="46.53204" lon="0.32904">
        <ele>181.6</ele>
        <time>2018-09-16T07:42:03.000Z</time>
      </trkpt>
      <trkpt lat="46.53214" lon="0.32899">
        <ele>180.41</ele>
        <time>2018-09-16T07:42:05.000Z</time>
      </trkpt>
      <trkpt lat="46.53224" lon="0.32893">
        <ele>179.18</ele>
        <time>2018-09-16T07:42:07.000Z</time>
      </trkpt>
      <trkpt lat="46.53233" lon="0.32887">
        <ele>178.82</ele>
        <time>2018-09-16T07:42:09.000Z</time>
      </trkpt>
      <trkpt lat="46.53242" lon="0.32883">
        <ele>178.91</ele>
        <time>2018-09-16T07:42:11.000Z</time>
      </trkpt>
      <trkpt lat="46.53252" lon="0.32876">
        <ele>179.48</ele>
        <time>2018-09-16T07:42:13.000Z</time>
      </trkpt>
      <trkpt lat="46.53265" lon="0.3287">
        <ele>180.62</ele>
        <time>2018-09-16T07:42:16.000Z</time>
      </trkpt>
      <trkpt lat="46.53275" lon="0.32867">
        <ele>181.47</ele>
        <time>2018-09-16T07:42:18.000Z</time>
      </trkpt>
      <trkpt lat="46.53287" lon="0.32862">
        <ele>182.41</ele>
        <time>2018-09-16T07:42:20.000Z</time>
      </trkpt>
      <trkpt lat="46.53296" lon="0.32857">
        <ele>183.01</ele>
        <time>2018-09-16T07:42:22.000Z</time>
      </trkpt>
      <trkpt lat="46.53305" lon="0.3285">
        <ele>183.47</ele>
        <time>2018-09-16T07:42:24.000Z</time>
      </trkpt>
      <trkpt lat="46.53315" lon="0.32843">
        <ele>184.24</ele>
        <time>2018-09-16T07:42:26.000Z</time>
      </trkpt>
      <trkpt lat="46.53326" lon="0.32832">
        <ele>185.32</ele>
        <time>2018-09-16T07:42:29.000Z</time>
      </trkpt>
      <trkpt lat="46.53332" lon="0.32819">
        <ele>185.81</ele>
        <time>2018-09-16T07:42:31.000Z</time>
      </trkpt>
      <trkpt lat="46.53328" lon="0.328">
        <ele>186.17</ele>
        <time>2018-09-16T07:42:34.000Z</time>
      </trkpt>
      <trkpt lat="46.53325" lon="0.32787">
        <ele>186.37</ele>
        <time>2018-09-16T07:42:36.000Z</time>
      </trkpt>
      <trkpt lat="46.53321" lon="0.32772">
        <ele>186.12</ele>
        <time>2018-09-16T07:42:38.000Z</time>
      </trkpt>
      <trkpt lat="46.53317" lon="0.32758">
        <ele>185.58</ele>
        <time>2018-09-16T07:42:40.000Z</time>
      </trkpt>
      <trkpt lat="46.53312" lon="0.32744">
        <ele>185.01</ele>
        <time>2018-09-16T07:42:42.000Z</time>
      </trkpt>
      <trkpt lat="46.53305" lon="0.32731">
        <ele>184.96</ele>
        <time>2018-09-16T07:42:45.000Z</time>
      </trkpt>
      <trkpt lat="46.53298" lon="0.32718">
        <ele>185.31</ele>
        <time>2018-09-16T07:42:50.000Z</time>
      </trkpt>
      <trkpt lat="46.53293" lon="0.32705">
        <ele>185.87</ele>
        <time>2018-09-16T07:42:54.000Z</time>
      </trkpt>
      <trkpt lat="46.53289" lon="0.3269">
        <ele>186.34</ele>
        <time>2018-09-16T07:42:57.000Z</time>
      </trkpt>
      <trkpt lat="46.53288" lon="0.32671">
        <ele>186.74</ele>
        <time>2018-09-16T07:43:00.000Z</time>
      </trkpt>
      <trkpt lat="46.53287" lon="0.32655">
        <ele>186.92</ele>
        <time>2018-09-16T07:43:02.000Z</time>
      </trkpt>
      <trkpt lat="46.53287" lon="0.32641">
        <ele>186.83</ele>
        <time>2018-09-16T07:43:04.000Z</time>
      </trkpt>
      <trkpt lat="46.53285" lon="0.32628">
        <ele>185.64</ele>
        <time>2018-09-16T07:43:06.000Z</time>
      </trkpt>
      <trkpt lat="46.5328" lon="0.32614">
        <ele>183.69</ele>
        <time>2018-09-16T07:43:08.000Z</time>
      </trkpt>
      <trkpt lat="46.53274" lon="0.32602">
        <ele>182.82</ele>
        <time>2018-09-16T07:43:10.000Z</time>
      </trkpt>
      <trkpt lat="46.53265" lon="0.32598">
        <ele>182.64</ele>
        <time>2018-09-16T07:43:13.000Z</time>
      </trkpt>
      <trkpt lat="46.53252" lon="0.32597">
        <ele>181.85</ele>
        <time>2018-09-16T07:43:16.000Z</time>
      </trkpt>
      <trkpt lat="46.53242" lon="0.32596">
        <ele>182.12</ele>
        <time>2018-09-16T07:43:18.000Z</time>
      </trkpt>
      <trkpt lat="46.5323" lon="0.32595">
        <ele>182.13</ele>
        <time>2018-09-16T07:43:21.000Z</time>
      </trkpt>
      <trkpt lat="46.53222" lon="0.32583">
        <ele>182.58</ele>
        <time>2018-09-16T07:43:24.000Z</time>
      </trkpt>
      <trkpt lat="46.53218" lon="0.32561">
        <ele>183.47</ele>
        <time>2018-09-16T07:43:27.000Z</time>
      </trkpt>
      <trkpt lat="46.53215" lon="0.32541">
        <ele>183.98</ele>
        <time>2018-09-16T07:43:29.000Z</time>
      </trkpt>
      <trkpt lat="46.53212" lon="0.32519">
        <ele>183.81</ele>
        <time>2018-09-16T07:43:31.000Z</time>
      </trkpt>
      <trkpt lat="46.53209" lon="0.32499">
        <ele>183.05</ele>
        <time>2018-09-16T07:43:33.000Z</time>
      </trkpt>
      <trkpt lat="46.5321" lon="0.3248">
        <ele>182.45</ele>
        <time>2018-09-16T07:43:35.000Z</time>
      </trkpt>
      <trkpt lat="46.53214" lon="0.32466">
        <ele>182.22</ele>
        <time>2018-09-16T07:43:38.000Z</time>
      </trkpt>
      <trkpt lat="46.53227" lon="0.32462">
        <ele>179.96</ele>
        <time>2018-09-16T07:43:41.000Z</time>
      </trkpt>
      <trkpt lat="46.53238" lon="0.32459">
        <ele>178.58</ele>
        <time>2018-09-16T07:43:43.000Z</time>
      </trkpt>
      <trkpt lat="46.53249" lon="0.3246">
        <ele>177.17</ele>
        <time>2018-09-16T07:43:45.000Z</time>
      </trkpt>
      <trkpt lat="46.53261" lon="0.32462">
        <ele>176.36</ele>
        <time>2018-09-16T07:43:47.000Z</time>
      </trkpt>
      <trkpt lat="46.53272" lon="0.32462">
        <ele>176.13</ele>
        <time>2018-09-16T07:43:49.000Z</time>
      </trkpt>
      <trkpt lat="46.53279" lon="0.3245">
        <ele>175.48</ele>
        <time>2018-09-16T07:43:52.000Z</time>
      </trkpt>
      <trkpt lat="46.53287" lon="0.32441">
        <ele>175.33</ele>
        <time>2018-09-16T07:43:55.000Z</time>
      </trkpt>
      <trkpt lat="46.53296" lon="0.32442">
        <ele>175.04</ele>
        <time>2018-09-16T07:44:00.000Z</time>
      </trkpt>
      <trkpt lat="46.53305" lon="0.32442">
        <ele>174.95</ele>
        <time>2018-09-16T07:44:03.000Z</time>
      </trkpt>
      <trkpt lat="46.53318" lon="0.32443">
        <ele>174.95</ele>
        <time>2018-09-16T07:44:07.000Z</time>
      </trkpt>
      <trkpt lat="46.53329" lon="0.32446">
        <ele>175.01</ele>
        <time>2018-09-16T07:44:10.000Z</time>
      </trkpt>
      <trkpt lat="46.53338" lon="0.32448">
        <ele>174.94</ele>
        <time>2018-09-16T07:44:12.000Z</time>
      </trkpt>
      <trkpt lat="46.53347" lon="0.32455">
        <ele>174.9</ele>
        <time>2018-09-16T07:44:16.000Z</time>
      </trkpt>
      <trkpt lat="46.53349" lon="0.3247">
        <ele>174.83</ele>
        <time>2018-09-16T07:44:23.000Z</time>
      </trkpt>
      <trkpt lat="46.5334" lon="0.32478">
        <ele>174.54</ele>
        <time>2018-09-16T07:44:28.000Z</time>
      </trkpt>
      <trkpt lat="46.53331" lon="0.32486">
        <ele>173.97</ele>
        <time>2018-09-16T07:44:35.000Z</time>
      </trkpt>
      <trkpt lat="46.53323" lon="0.32493">
        <ele>173.23</ele>
        <time>2018-09-16T07:44:43.000Z</time>
      </trkpt>
      <trkpt lat="46.53313" lon="0.32499">
        <ele>172.86</ele>
        <time>2018-09-16T07:44:51.000Z</time>
      </trkpt>
      <trkpt lat="46.53312" lon="0.32513">
        <ele>173.29</ele>
        <time>2018-09-16T07:44:59.000Z</time>
      </trkpt>
      <trkpt lat="46.53312" lon="0.32526">
        <ele>173.87</ele>
        <time>2018-09-16T07:45:05.000Z</time>
      </trkpt>
      <trkpt lat="46.5331" lon="0.3254">
        <ele>174.91</ele>
        <time>2018-09-16T07:45:14.000Z</time>
      </trkpt>
      <trkpt lat="46.53309" lon="0.32554">
        <ele>175.51</ele>
        <time>2018-09-16T07:45:19.000Z</time>
      </trkpt>
      <trkpt lat="46.53309" lon="0.32567">
        <ele>175.93</ele>
        <time>2018-09-16T07:45:24.000Z</time>
      </trkpt>
      <trkpt lat="46.53312" lon="0.32581">
        <ele>176.27</ele>
        <time>2018-09-16T07:45:28.000Z</time>
      </trkpt>
      <trkpt lat="46.53313" lon="0.32596">
        <ele>176.7</ele>
        <time>2018-09-16T07:45:33.000Z</time>
      </trkpt>
      <trkpt lat="46.5332" lon="0.32608">
        <ele>177.02</ele>
        <time>2018-09-16T07:45:38.000Z</time>
      </trkpt>
      <trkpt lat="46.5333" lon="0.32618">
        <ele>177.1</ele>
        <time>2018-09-16T07:45:41.000Z</time>
      </trkpt>
      <trkpt lat="46.53338" lon="0.32625">
        <ele>177.09</ele>
        <time>2018-09-16T07:45:43.000Z</time>
      </trkpt>
      <trkpt lat="46.53347" lon="0.32629">
        <ele>177.06</ele>
        <time>2018-09-16T07:45:45.000Z</time>
      </trkpt>
      <trkpt lat="46.53357" lon="0.32638">
        <ele>177.07</ele>
        <time>2018-09-16T07:45:48.000Z</time>
      </trkpt>
      <trkpt lat="46.53367" lon="0.32645">
        <ele>177.4</ele>
        <time>2018-09-16T07:45:51.000Z</time>
      </trkpt>
      <trkpt lat="46.53376" lon="0.32651">
        <ele>178.06</ele>
        <time>2018-09-16T07:45:53.000Z</time>
      </trkpt>
      <trkpt lat="46.53386" lon="0.32657">
        <ele>179.13</ele>
        <time>2018-09-16T07:45:55.000Z</time>
      </trkpt>
      <trkpt lat="46.53396" lon="0.3266">
        <ele>180.12</ele>
        <time>2018-09-16T07:45:57.000Z</time>
      </trkpt>
      <trkpt lat="46.53406" lon="0.32661">
        <ele>180.65</ele>
        <time>2018-09-16T07:45:59.000Z</time>
      </trkpt>
      <trkpt lat="46.53416" lon="0.32658">
        <ele>180.71</ele>
        <time>2018-09-16T07:46:02.000Z</time>
      </trkpt>
      <trkpt lat="46.53425" lon="0.32657">
        <ele>180.78</ele>
        <time>2018-09-16T07:46:05.000Z</time>
      </trkpt>
      <trkpt lat="46.53437" lon="0.32656">
        <ele>180.8</ele>
        <time>2018-09-16T07:46:08.000Z</time>
      </trkpt>
      <trkpt lat="46.53449" lon="0.32652">
        <ele>180.52</ele>
        <time>2018-09-16T07:46:11.000Z</time>
      </trkpt>
      <trkpt lat="46.5346" lon="0.32648">
        <ele>179.68</ele>
        <time>2018-09-16T07:46:13.000Z</time>
      </trkpt>
      <trkpt lat="46.53471" lon="0.32644">
        <ele>178.72</ele>
        <time>2018-09-16T07:46:15.000Z</time>
      </trkpt>
      <trkpt lat="46.53481" lon="0.3264">
        <ele>177.85</ele>
        <time>2018-09-16T07:46:17.000Z</time>
      </trkpt>
      <trkpt lat="46.53491" lon="0.32638">
        <ele>176.71</ele>
        <time>2018-09-16T07:46:19.000Z</time>
      </trkpt>
      <trkpt lat="46.53503" lon="0.32631">
        <ele>175.87</ele>
        <time>2018-09-16T07:46:21.000Z</time>
      </trkpt>
      <trkpt lat="46.53514" lon="0.32627">
        <ele>174.93</ele>
        <time>2018-09-16T07:46:23.000Z</time>
      </trkpt>
      <trkpt lat="46.53523" lon="0.32621">
        <ele>174.03</ele>
        <time>2018-09-16T07:46:25.000Z</time>
      </trkpt>
      <trkpt lat="46.53535" lon="0.32613">
        <ele>173.4</ele>
        <time>2018-09-16T07:46:28.000Z</time>
      </trkpt>
      <trkpt lat="46.53545" lon="0.32608">
        <ele>173.14</ele>
        <time>2018-09-16T07:46:32.000Z</time>
      </trkpt>
      <trkpt lat="46.53553" lon="0.32603">
        <ele>172.8</ele>
        <time>2018-09-16T07:46:37.000Z</time>
      </trkpt>
      <trkpt lat="46.53555" lon="0.32618">
        <ele>172.33</ele>
        <time>2018-09-16T07:46:43.000Z</time>
      </trkpt>
      <trkpt lat="46.5355" lon="0.32628">
        <ele>171.79</ele>
        <time>2018-09-16T07:46:47.000Z</time>
      </trkpt>
      <trkpt lat="46.53544" lon="0.3264">
        <ele>171.11</ele>
        <time>2018-09-16T07:46:53.000Z</time>
      </trkpt>
      <trkpt lat="46.5354" lon="0.32653">
        <ele>171.03</ele>
        <time>2018-09-16T07:46:57.000Z</time>
      </trkpt>
      <trkpt lat="46.53536" lon="0.32665">
        <ele>171.19</ele>
        <time>2018-09-16T07:47:01.000Z</time>
      </trkpt>
      <trkpt lat="46.53533" lon="0.32678">
        <ele>171.61</ele>
        <time>2018-09-16T07:47:06.000Z</time>
      </trkpt>
      <trkpt lat="46.53529" lon="0.32694">
        <ele>172.39</ele>
        <time>2018-09-16T07:47:12.000Z</time>
      </trkpt>
      <trkpt lat="46.53523" lon="0.32705">
        <ele>172.93</ele>
        <time>2018-09-16T07:47:17.000Z</time>
      </trkpt>
      <trkpt lat="46.53524" lon="0.32719">
        <ele>173.83</ele>
        <time>2018-09-16T07:47:24.000Z</time>
      </trkpt>
      <trkpt lat="46.53532" lon="0.32726">
        <ele>174.57</ele>
        <time>2018-09-16T07:47:28.000Z</time>
      </trkpt>
      <trkpt lat="46.53543" lon="0.32733">
        <ele>175.23</ele>
        <time>2018-09-16T07:47:32.000Z</time>
      </trkpt>
      <trkpt lat="46.53553" lon="0.32741">
        <ele>176.07</ele>
        <time>2018-09-16T07:47:37.000Z</time>
      </trkpt>
      <trkpt lat="46.53562" lon="0.32747">
        <ele>176.58</ele>
        <time>2018-09-16T07:47:40.000Z</time>
      </trkpt>
      <trkpt lat="46.53573" lon="0.3275">
        <ele>179.67</ele>
        <time>2018-09-16T07:47:43.000Z</time>
      </trkpt>
      <trkpt lat="46.53584" lon="0.32753">
        <ele>180</ele>
        <time>2018-09-16T07:47:46.000Z</time>
      </trkpt>
      <trkpt lat="46.53595" lon="0.32752">
        <ele>181.23</ele>
        <time>2018-09-16T07:47:49.000Z</time>
      </trkpt>
      <trkpt lat="46.53608" lon="0.32752">
        <ele>183.14</ele>
        <time>2018-09-16T07:47:52.000Z</time>
      </trkpt>
      <trkpt lat="46.53617" lon="0.3275">
        <ele>183.92</ele>
        <time>2018-09-16T07:47:54.000Z</time>
      </trkpt>
      <trkpt lat="46.53628" lon="0.32751">
        <ele>183.68</ele>
        <time>2018-09-16T07:47:56.000Z</time>
      </trkpt>
      <trkpt lat="46.53639" lon="0.32749">
        <ele>182.93</ele>
        <time>2018-09-16T07:47:58.000Z</time>
      </trkpt>
      <trkpt lat="46.53652" lon="0.32747">
        <ele>181.79</ele>
        <time>2018-09-16T07:48:00.000Z</time>
      </trkpt>
      <trkpt lat="46.53667" lon="0.32748">
        <ele>180.1</ele>
        <time>2018-09-16T07:48:02.000Z</time>
      </trkpt>
      <trkpt lat="46.53677" lon="0.32749">
        <ele>179.03</ele>
        <time>2018-09-16T07:48:03.000Z</time>
      </trkpt>
      <trkpt lat="46.53686" lon="0.32751">
        <ele>178</ele>
        <time>2018-09-16T07:48:04.000Z</time>
      </trkpt>
      <trkpt lat="46.53703" lon="0.32752">
        <ele>176.08</ele>
        <time>2018-09-16T07:48:06.000Z</time>
      </trkpt>
      <trkpt lat="46.53719" lon="0.32756">
        <ele>174.85</ele>
        <time>2018-09-16T07:48:08.000Z</time>
      </trkpt>
      <trkpt lat="46.53735" lon="0.32758">
        <ele>174.07</ele>
        <time>2018-09-16T07:48:10.000Z</time>
      </trkpt>
      <trkpt lat="46.53753" lon="0.32759">
        <ele>173.64</ele>
        <time>2018-09-16T07:48:12.000Z</time>
      </trkpt>
      <trkpt lat="46.5377" lon="0.32761">
        <ele>173.59</ele>
        <time>2018-09-16T07:48:14.000Z</time>
      </trkpt>
      <trkpt lat="46.53779" lon="0.32763">
        <ele>173.32</ele>
        <time>2018-09-16T07:48:15.000Z</time>
      </trkpt>
      <trkpt lat="46.53796" lon="0.32767">
        <ele>172.95</ele>
        <time>2018-09-16T07:48:17.000Z</time>
      </trkpt>
      <trkpt lat="46.53813" lon="0.32774">
        <ele>172.68</ele>
        <time>2018-09-16T07:48:19.000Z</time>
      </trkpt>
      <trkpt lat="46.5383" lon="0.3278">
        <ele>172.45</ele>
        <time>2018-09-16T07:48:21.000Z</time>
      </trkpt>
      <trkpt lat="46.53844" lon="0.3279">
        <ele>172.08</ele>
        <time>2018-09-16T07:48:23.000Z</time>
      </trkpt>
      <trkpt lat="46.53857" lon="0.32798">
        <ele>172.16</ele>
        <time>2018-09-16T07:48:25.000Z</time>
      </trkpt>
      <trkpt lat="46.53869" lon="0.32803">
        <ele>171.89</ele>
        <time>2018-09-16T07:48:27.000Z</time>
      </trkpt>
      <trkpt lat="46.5388" lon="0.32808">
        <ele>172.12</ele>
        <time>2018-09-16T07:48:29.000Z</time>
      </trkpt>
      <trkpt lat="46.5389" lon="0.3281">
        <ele>172.36</ele>
        <time>2018-09-16T07:48:31.000Z</time>
      </trkpt>
      <trkpt lat="46.53903" lon="0.32808">
        <ele>172.62</ele>
        <time>2018-09-16T07:48:34.000Z</time>
      </trkpt>
      <trkpt lat="46.53915" lon="0.32805">
        <ele>172.71</ele>
        <time>2018-09-16T07:48:36.000Z</time>
      </trkpt>
      <trkpt lat="46.53926" lon="0.32804">
        <ele>172.61</ele>
        <time>2018-09-16T07:48:38.000Z</time>
      </trkpt>
      <trkpt lat="46.53936" lon="0.32804">
        <ele>172.28</ele>
        <time>2018-09-16T07:48:40.000Z</time>
      </trkpt>
      <trkpt lat="46.53946" lon="0.32803">
        <ele>172.21</ele>
        <time>2018-09-16T07:48:43.000Z</time>
      </trkpt>
      <trkpt lat="46.53956" lon="0.32805">
        <ele>172.04</ele>
        <time>2018-09-16T07:48:48.000Z</time>
      </trkpt>
      <trkpt lat="46.53965" lon="0.32808">
        <ele>171.69</ele>
        <time>2018-09-16T07:48:59.000Z</time>
      </trkpt>
      <trkpt lat="46.53976" lon="0.32816">
        <ele>171.76</ele>
        <time>2018-09-16T07:49:08.000Z</time>
      </trkpt>
      <trkpt lat="46.53979" lon="0.32828">
        <ele>171.49</ele>
        <time>2018-09-16T07:49:14.000Z</time>
      </trkpt>
      <trkpt lat="46.53969" lon="0.32834">
        <ele>171.16</ele>
        <time>2018-09-16T07:49:19.000Z</time>
      </trkpt>
      <trkpt lat="46.5396" lon="0.32838">
        <ele>170.61</ele>
        <time>2018-09-16T07:49:26.000Z</time>
      </trkpt>
      <trkpt lat="46.53949" lon="0.3284">
        <ele>170.14</ele>
        <time>2018-09-16T07:49:32.000Z</time>
      </trkpt>
      <trkpt lat="46.53944" lon="0.32853">
        <ele>169.72</ele>
        <time>2018-09-16T07:49:37.000Z</time>
      </trkpt>
      <trkpt lat="46.53937" lon="0.32862">
        <ele>169.58</ele>
        <time>2018-09-16T07:49:41.000Z</time>
      </trkpt>
      <trkpt lat="46.53927" lon="0.32863">
        <ele>169.52</ele>
        <time>2018-09-16T07:49:46.000Z</time>
      </trkpt>
      <trkpt lat="46.53916" lon="0.32867">
        <ele>169.47</ele>
        <time>2018-09-16T07:49:51.000Z</time>
      </trkpt>
      <trkpt lat="46.53908" lon="0.32872">
        <ele>169.6</ele>
        <time>2018-09-16T07:49:55.000Z</time>
      </trkpt>
      <trkpt lat="46.53902" lon="0.32883">
        <ele>169.96</ele>
        <time>2018-09-16T07:49:59.000Z</time>
      </trkpt>
      <trkpt lat="46.53896" lon="0.32894">
        <ele>170.61</ele>
        <time>2018-09-16T07:50:04.000Z</time>
      </trkpt>
      <trkpt lat="46.53896" lon="0.3291">
        <ele>170.99</ele>
        <time>2018-09-16T07:50:09.000Z</time>
      </trkpt>
      <trkpt lat="46.53896" lon="0.32923">
        <ele>171.18</ele>
        <time>2018-09-16T07:50:15.000Z</time>
      </trkpt>
      <trkpt lat="46.53887" lon="0.32932">
        <ele>171.41</ele>
        <time>2018-09-16T07:50:20.000Z</time>
      </trkpt>
      <trkpt lat="46.53879" lon="0.32944">
        <ele>171.42</ele>
        <time>2018-09-16T07:50:24.000Z</time>
      </trkpt>
      <trkpt lat="46.5387" lon="0.3295">
        <ele>171.35</ele>
        <time>2018-09-16T07:50:28.000Z</time>
      </trkpt>
      <trkpt lat="46.53859" lon="0.32949">
        <ele>171.32</ele>
        <time>2018-09-16T07:50:32.000Z</time>
      </trkpt>
      <trkpt lat="46.53848" lon="0.32952">
        <ele>171.22</ele>
        <time>2018-09-16T07:50:36.000Z</time>
      </trkpt>
      <trkpt lat="46.53838" lon="0.3296">
        <ele>171.16</ele>
        <time>2018-09-16T07:50:41.000Z</time>
      </trkpt>
      <trkpt lat="46.53833" lon="0.32975">
        <ele>171.19</ele>
        <time>2018-09-16T07:50:44.000Z</time>
      </trkpt>
      <trkpt lat="46.53828" lon="0.32991">
        <ele>171.15</ele>
        <time>2018-09-16T07:50:46.000Z</time>
      </trkpt>
      <trkpt lat="46.53818" lon="0.3301">
        <ele>171.07</ele>
        <time>2018-09-16T07:50:48.000Z</time>
      </trkpt>
      <trkpt lat="46.53809" lon="0.33029">
        <ele>170.53</ele>
        <time>2018-09-16T07:50:50.000Z</time>
      </trkpt>
      <trkpt lat="46.53803" lon="0.33044">
        <ele>170.08</ele>
        <time>2018-09-16T07:50:52.000Z</time>
      </trkpt>
      <trkpt lat="46.53798" lon="0.33057">
        <ele>170.07</ele>
        <time>2018-09-16T07:50:55.000Z</time>
      </trkpt>
      <trkpt lat="46.53792" lon="0.3307">
        <ele>170.23</ele>
        <time>2018-09-16T07:50:58.000Z</time>
      </trkpt>
      <trkpt lat="46.53787" lon="0.33082">
        <ele>170.38</ele>
        <time>2018-09-16T07:51:00.000Z</time>
      </trkpt>
      <trkpt lat="46.53782" lon="0.33093">
        <ele>170.38</ele>
        <time>2018-09-16T07:51:02.000Z</time>
      </trkpt>
      <trkpt lat="46.53776" lon="0.33105">
        <ele>170.51</ele>
        <time>2018-09-16T07:51:04.000Z</time>
      </trkpt>
      <trkpt lat="46.53771" lon="0.33115">
        <ele>170.53</ele>
        <time>2018-09-16T07:51:06.000Z</time>
      </trkpt>
      <trkpt lat="46.53762" lon="0.33129">
        <ele>170.67</ele>
        <time>2018-09-16T07:51:09.000Z</time>
      </trkpt>
      <trkpt lat="46.53756" lon="0.33138">
        <ele>170.6</ele>
        <time>2018-09-16T07:51:11.000Z</time>
      </trkpt>
      <trkpt lat="46.53749" lon="0.33151">
        <ele>170.21</ele>
        <time>2018-09-16T07:51:13.000Z</time>
      </trkpt>
      <trkpt lat="46.53744" lon="0.33163">
        <ele>170.16</ele>
        <time>2018-09-16T07:51:15.000Z</time>
      </trkpt>
      <trkpt lat="46.53748" lon="0.33175">
        <ele>168.69</ele>
        <time>2018-09-16T07:51:17.000Z</time>
      </trkpt>
      <trkpt lat="46.53754" lon="0.33185">
        <ele>168.34</ele>
        <time>2018-09-16T07:51:19.000Z</time>
      </trkpt>
      <trkpt lat="46.53766" lon="0.33184">
        <ele>167.88</ele>
        <time>2018-09-16T07:51:22.000Z</time>
      </trkpt>
      <trkpt lat="46.53775" lon="0.3319">
        <ele>166.99</ele>
        <time>2018-09-16T07:51:24.000Z</time>
      </trkpt>
      <trkpt lat="46.53785" lon="0.33195">
        <ele>165.9</ele>
        <time>2018-09-16T07:51:26.000Z</time>
      </trkpt>
      <trkpt lat="46.53795" lon="0.33201">
        <ele>165.05</ele>
        <time>2018-09-16T07:51:28.000Z</time>
      </trkpt>
      <trkpt lat="46.53803" lon="0.33208">
        <ele>164.56</ele>
        <time>2018-09-16T07:51:30.000Z</time>
      </trkpt>
      <trkpt lat="46.53816" lon="0.33213">
        <ele>163.1</ele>
        <time>2018-09-16T07:51:32.000Z</time>
      </trkpt>
      <trkpt lat="46.53827" lon="0.33224">
        <ele>161.47</ele>
        <time>2018-09-16T07:51:34.000Z</time>
      </trkpt>
      <trkpt lat="46.53837" lon="0.33229">
        <ele>161.23</ele>
        <time>2018-09-16T07:51:37.000Z</time>
      </trkpt>
      <trkpt lat="46.53844" lon="0.33215">
        <ele>160.91</ele>
        <time>2018-09-16T07:51:40.000Z</time>
      </trkpt>
      <trkpt lat="46.53846" lon="0.33196">
        <ele>158.87</ele>
        <time>2018-09-16T07:51:43.000Z</time>
      </trkpt>
      <trkpt lat="46.53851" lon="0.33182">
        <ele>158.09</ele>
        <time>2018-09-16T07:51:45.000Z</time>
      </trkpt>
      <trkpt lat="46.53856" lon="0.33163">
        <ele>157.59</ele>
        <time>2018-09-16T07:51:47.000Z</time>
      </trkpt>
      <trkpt lat="46.53861" lon="0.33143">
        <ele>157.44</ele>
        <time>2018-09-16T07:51:49.000Z</time>
      </trkpt>
      <trkpt lat="46.53864" lon="0.33122">
        <ele>158.77</ele>
        <time>2018-09-16T07:51:51.000Z</time>
      </trkpt>
      <trkpt lat="46.53868" lon="0.33106">
        <ele>159.25</ele>
        <time>2018-09-16T07:51:53.000Z</time>
      </trkpt>
      <trkpt lat="46.5387" lon="0.33093">
        <ele>159.2</ele>
        <time>2018-09-16T07:51:57.000Z</time>
      </trkpt>
      <trkpt lat="46.53876" lon="0.33078">
        <ele>159.22</ele>
        <time>2018-09-16T07:52:01.000Z</time>
      </trkpt>
      <trkpt lat="46.5388" lon="0.33066">
        <ele>158.96</ele>
        <time>2018-09-16T07:52:03.000Z</time>
      </trkpt>
      <trkpt lat="46.53887" lon="0.33053">
        <ele>159.76</ele>
        <time>2018-09-16T07:52:06.000Z</time>
      </trkpt>
      <trkpt lat="46.53894" lon="0.33035">
        <ele>160.4</ele>
        <time>2018-09-16T07:52:09.000Z</time>
      </trkpt>
      <trkpt lat="46.53898" lon="0.33023">
        <ele>160.33</ele>
        <time>2018-09-16T07:52:11.000Z</time>
      </trkpt>
      <trkpt lat="46.53904" lon="0.33011">
        <ele>160.25</ele>
        <time>2018-09-16T07:52:13.000Z</time>
      </trkpt>
      <trkpt lat="46.53912" lon="0.33002">
        <ele>160.74</ele>
        <time>2018-09-16T07:52:15.000Z</time>
      </trkpt>
      <trkpt lat="46.53918" lon="0.32989">
        <ele>161.09</ele>
        <time>2018-09-16T07:52:17.000Z</time>
      </trkpt>
      <trkpt lat="46.53925" lon="0.32975">
        <ele>160.82</ele>
        <time>2018-09-16T07:52:19.000Z</time>
      </trkpt>
      <trkpt lat="46.53935" lon="0.32958">
        <ele>160.23</ele>
        <time>2018-09-16T07:52:21.000Z</time>
      </trkpt>
      <trkpt lat="46.53947" lon="0.32947">
        <ele>159.74</ele>
        <time>2018-09-16T07:52:23.000Z</time>
      </trkpt>
      <trkpt lat="46.53954" lon="0.32939">
        <ele>159.61</ele>
        <time>2018-09-16T07:52:24.000Z</time>
      </trkpt>
      <trkpt lat="46.53965" lon="0.32929">
        <ele>159.96</ele>
        <time>2018-09-16T07:52:26.000Z</time>
      </trkpt>
      <trkpt lat="46.53974" lon="0.3292">
        <ele>160.14</ele>
        <time>2018-09-16T07:52:28.000Z</time>
      </trkpt>
      <trkpt lat="46.53984" lon="0.32907">
        <ele>159.67</ele>
        <time>2018-09-16T07:52:30.000Z</time>
      </trkpt>
      <trkpt lat="46.53995" lon="0.329">
        <ele>158.6</ele>
        <time>2018-09-16T07:52:32.000Z</time>
      </trkpt>
      <trkpt lat="46.54005" lon="0.3289">
        <ele>155.94</ele>
        <time>2018-09-16T07:52:34.000Z</time>
      </trkpt>
      <trkpt lat="46.54012" lon="0.32882">
        <ele>154.41</ele>
        <time>2018-09-16T07:52:36.000Z</time>
      </trkpt>
      <trkpt lat="46.54022" lon="0.32876">
        <ele>153.77</ele>
        <time>2018-09-16T07:52:40.000Z</time>
      </trkpt>
      <trkpt lat="46.54031" lon="0.32869">
        <ele>152.89</ele>
        <time>2018-09-16T07:52:44.000Z</time>
      </trkpt>
      <trkpt lat="46.5404" lon="0.32868">
        <ele>152.2</ele>
        <time>2018-09-16T07:52:47.000Z</time>
      </trkpt>
      <trkpt lat="46.5405" lon="0.32864">
        <ele>151.72</ele>
        <time>2018-09-16T07:52:49.000Z</time>
      </trkpt>
      <trkpt lat="46.5406" lon="0.32863">
        <ele>151.09</ele>
        <time>2018-09-16T07:52:52.000Z</time>
      </trkpt>
      <trkpt lat="46.54069" lon="0.32859">
        <ele>150.48</ele>
        <time>2018-09-16T07:52:55.000Z</time>
      </trkpt>
      <trkpt lat="46.54077" lon="0.32847">
        <ele>149.72</ele>
        <time>2018-09-16T07:53:00.000Z</time>
      </trkpt>
      <trkpt lat="46.54083" lon="0.32834">
        <ele>149.38</ele>
        <time>2018-09-16T07:53:03.000Z</time>
      </trkpt>
      <trkpt lat="46.54091" lon="0.32824">
        <ele>149.11</ele>
        <time>2018-09-16T07:53:05.000Z</time>
      </trkpt>
      <trkpt lat="46.54101" lon="0.32813">
        <ele>146.16</ele>
        <time>2018-09-16T07:53:07.000Z</time>
      </trkpt>
      <trkpt lat="46.54111" lon="0.32806">
        <ele>143.91</ele>
        <time>2018-09-16T07:53:09.000Z</time>
      </trkpt>
      <trkpt lat="46.54121" lon="0.32799">
        <ele>142.63</ele>
        <time>2018-09-16T07:53:11.000Z</time>
      </trkpt>
      <trkpt lat="46.54134" lon="0.32793">
        <ele>141.18</ele>
        <time>2018-09-16T07:53:13.000Z</time>
      </trkpt>
      <trkpt lat="46.54145" lon="0.32787">
        <ele>140.1</ele>
        <time>2018-09-16T07:53:15.000Z</time>
      </trkpt>
      <trkpt lat="46.54155" lon="0.32784">
        <ele>139.5</ele>
        <time>2018-09-16T07:53:17.000Z</time>
      </trkpt>
      <trkpt lat="46.54165" lon="0.32781">
        <ele>139.54</ele>
        <time>2018-09-16T07:53:19.000Z</time>
      </trkpt>
      <trkpt lat="46.54176" lon="0.32773">
        <ele>139.77</ele>
        <time>2018-09-16T07:53:22.000Z</time>
      </trkpt>
      <trkpt lat="46.54185" lon="0.32765">
        <ele>139.97</ele>
        <time>2018-09-16T07:53:25.000Z</time>
      </trkpt>
      <trkpt lat="46.54192" lon="0.32755">
        <ele>140.24</ele>
        <time>2018-09-16T07:53:28.000Z</time>
      </trkpt>
      <trkpt lat="46.54195" lon="0.32742">
        <ele>140.67</ele>
        <time>2018-09-16T07:53:32.000Z</time>
      </trkpt>
      <trkpt lat="46.54195" lon="0.32726">
        <ele>140.98</ele>
        <time>2018-09-16T07:53:36.000Z</time>
      </trkpt>
      <trkpt lat="46.54201" lon="0.32713">
        <ele>141.48</ele>
        <time>2018-09-16T07:53:44.000Z</time>
      </trkpt>
      <trkpt lat="46.54212" lon="0.32714">
        <ele>141.72</ele>
        <time>2018-09-16T07:53:48.000Z</time>
      </trkpt>
      <trkpt lat="46.54222" lon="0.32715">
        <ele>141.84</ele>
        <time>2018-09-16T07:53:52.000Z</time>
      </trkpt>
      <trkpt lat="46.54233" lon="0.3272">
        <ele>142.13</ele>
        <time>2018-09-16T07:53:56.000Z</time>
      </trkpt>
      <trkpt lat="46.54245" lon="0.32724">
        <ele>143.54</ele>
        <time>2018-09-16T07:53:59.000Z</time>
      </trkpt>
      <trkpt lat="46.54254" lon="0.32728">
        <ele>144.64</ele>
        <time>2018-09-16T07:54:01.000Z</time>
      </trkpt>
      <trkpt lat="46.54265" lon="0.32732">
        <ele>145.17</ele>
        <time>2018-09-16T07:54:03.000Z</time>
      </trkpt>
      <trkpt lat="46.54277" lon="0.32737">
        <ele>145.06</ele>
        <time>2018-09-16T07:54:05.000Z</time>
      </trkpt>
      <trkpt lat="46.54289" lon="0.32743">
        <ele>144.84</ele>
        <time>2018-09-16T07:54:07.000Z</time>
      </trkpt>
      <trkpt lat="46.54301" lon="0.3275">
        <ele>144.26</ele>
        <time>2018-09-16T07:54:09.000Z</time>
      </trkpt>
      <trkpt lat="46.54316" lon="0.3276">
        <ele>143.77</ele>
        <time>2018-09-16T07:54:11.000Z</time>
      </trkpt>
      <trkpt lat="46.5433" lon="0.32771">
        <ele>143.3</ele>
        <time>2018-09-16T07:54:13.000Z</time>
      </trkpt>
      <trkpt lat="46.54344" lon="0.32782">
        <ele>142.7</ele>
        <time>2018-09-16T07:54:15.000Z</time>
      </trkpt>
      <trkpt lat="46.54356" lon="0.32795">
        <ele>141.53</ele>
        <time>2018-09-16T07:54:17.000Z</time>
      </trkpt>
      <trkpt lat="46.54367" lon="0.32808">
        <ele>140.36</ele>
        <time>2018-09-16T07:54:19.000Z</time>
      </trkpt>
      <trkpt lat="46.54378" lon="0.32819">
        <ele>139.72</ele>
        <time>2018-09-16T07:54:21.000Z</time>
      </trkpt>
      <trkpt lat="46.54388" lon="0.3283">
        <ele>139.09</ele>
        <time>2018-09-16T07:54:23.000Z</time>
      </trkpt>
      <trkpt lat="46.54397" lon="0.32842">
        <ele>138.7</ele>
        <time>2018-09-16T07:54:25.000Z</time>
      </trkpt>
      <trkpt lat="46.54406" lon="0.32855">
        <ele>138.62</ele>
        <time>2018-09-16T07:54:27.000Z</time>
      </trkpt>
      <trkpt lat="46.54414" lon="0.32867">
        <ele>138.54</ele>
        <time>2018-09-16T07:54:29.000Z</time>
      </trkpt>
      <trkpt lat="46.54424" lon="0.32878">
        <ele>138.51</ele>
        <time>2018-09-16T07:54:31.000Z</time>
      </trkpt>
      <trkpt lat="46.54433" lon="0.32892">
        <ele>139.19</ele>
        <time>2018-09-16T07:54:33.000Z</time>
      </trkpt>
      <trkpt lat="46.54443" lon="0.32905">
        <ele>139.77</ele>
        <time>2018-09-16T07:54:35.000Z</time>
      </trkpt>
      <trkpt lat="46.54453" lon="0.32919">
        <ele>140.1</ele>
        <time>2018-09-16T07:54:37.000Z</time>
      </trkpt>
      <trkpt lat="46.54462" lon="0.32934">
        <ele>140.31</ele>
        <time>2018-09-16T07:54:39.000Z</time>
      </trkpt>
      <trkpt lat="46.54471" lon="0.32948">
        <ele>140.3</ele>
        <time>2018-09-16T07:54:41.000Z</time>
      </trkpt>
      <trkpt lat="46.5448" lon="0.32964">
        <ele>140.16</ele>
        <time>2018-09-16T07:54:43.000Z</time>
      </trkpt>
      <trkpt lat="46.5449" lon="0.32979">
        <ele>140.09</ele>
        <time>2018-09-16T07:54:45.000Z</time>
      </trkpt>
      <trkpt lat="46.54499" lon="0.32995">
        <ele>139.94</ele>
        <time>2018-09-16T07:54:47.000Z</time>
      </trkpt>
      <trkpt lat="46.54509" lon="0.33008">
        <ele>139.85</ele>
        <time>2018-09-16T07:54:49.000Z</time>
      </trkpt>
      <trkpt lat="46.54519" lon="0.3302">
        <ele>139.84</ele>
        <time>2018-09-16T07:54:51.000Z</time>
      </trkpt>
      <trkpt lat="46.54528" lon="0.33032">
        <ele>140.04</ele>
        <time>2018-09-16T07:54:53.000Z</time>
      </trkpt>
      <trkpt lat="46.54537" lon="0.33043">
        <ele>140.25</ele>
        <time>2018-09-16T07:54:55.000Z</time>
      </trkpt>
      <trkpt lat="46.54546" lon="0.33055">
        <ele>140.26</ele>
        <time>2018-09-16T07:54:57.000Z</time>
      </trkpt>
      <trkpt lat="46.54556" lon="0.33067">
        <ele>140.36</ele>
        <time>2018-09-16T07:54:59.000Z</time>
      </trkpt>
      <trkpt lat="46.54565" lon="0.33079">
        <ele>140.17</ele>
        <time>2018-09-16T07:55:01.000Z</time>
      </trkpt>
      <trkpt lat="46.54575" lon="0.33091">
        <ele>140.17</ele>
        <time>2018-09-16T07:55:03.000Z</time>
      </trkpt>
      <trkpt lat="46.54585" lon="0.33101">
        <ele>140.08</ele>
        <time>2018-09-16T07:55:05.000Z</time>
      </trkpt>
      <trkpt lat="46.54596" lon="0.33112">
        <ele>140.2</ele>
        <time>2018-09-16T07:55:07.000Z</time>
      </trkpt>
      <trkpt lat="46.54606" lon="0.33122">
        <ele>140.35</ele>
        <time>2018-09-16T07:55:09.000Z</time>
      </trkpt>
      <trkpt lat="46.54622" lon="0.33139">
        <ele>140.34</ele>
        <time>2018-09-16T07:55:12.000Z</time>
      </trkpt>
      <trkpt lat="46.54633" lon="0.33149">
        <ele>140.59</ele>
        <time>2018-09-16T07:55:14.000Z</time>
      </trkpt>
      <trkpt lat="46.54649" lon="0.33168">
        <ele>141.01</ele>
        <time>2018-09-16T07:55:17.000Z</time>
      </trkpt>
      <trkpt lat="46.5466" lon="0.33178">
        <ele>141.26</ele>
        <time>2018-09-16T07:55:19.000Z</time>
      </trkpt>
      <trkpt lat="46.54671" lon="0.33189">
        <ele>141.75</ele>
        <time>2018-09-16T07:55:21.000Z</time>
      </trkpt>
      <trkpt lat="46.54682" lon="0.332">
        <ele>141.97</ele>
        <time>2018-09-16T07:55:23.000Z</time>
      </trkpt>
      <trkpt lat="46.54693" lon="0.33209">
        <ele>141.7</ele>
        <time>2018-09-16T07:55:25.000Z</time>
      </trkpt>
      <trkpt lat="46.54703" lon="0.33218">
        <ele>141.71</ele>
        <time>2018-09-16T07:55:27.000Z</time>
      </trkpt>
      <trkpt lat="46.54712" lon="0.33227">
        <ele>141.91</ele>
        <time>2018-09-16T07:55:29.000Z</time>
      </trkpt>
      <trkpt lat="46.54723" lon="0.33238">
        <ele>142.33</ele>
        <time>2018-09-16T07:55:31.000Z</time>
      </trkpt>
      <trkpt lat="46.54734" lon="0.33248">
        <ele>142.79</ele>
        <time>2018-09-16T07:55:33.000Z</time>
      </trkpt>
      <trkpt lat="46.54747" lon="0.33257">
        <ele>142.89</ele>
        <time>2018-09-16T07:55:35.000Z</time>
      </trkpt>
      <trkpt lat="46.54759" lon="0.33266">
        <ele>142.75</ele>
        <time>2018-09-16T07:55:37.000Z</time>
      </trkpt>
      <trkpt lat="46.54772" lon="0.33276">
        <ele>142.49</ele>
        <time>2018-09-16T07:55:39.000Z</time>
      </trkpt>
      <trkpt lat="46.54784" lon="0.33286">
        <ele>142.2</ele>
        <time>2018-09-16T07:55:41.000Z</time>
      </trkpt>
      <trkpt lat="46.54796" lon="0.33295">
        <ele>142</ele>
        <time>2018-09-16T07:55:43.000Z</time>
      </trkpt>
      <trkpt lat="46.54807" lon="0.33304">
        <ele>141.92</ele>
        <time>2018-09-16T07:55:45.000Z</time>
      </trkpt>
      <trkpt lat="46.54818" lon="0.33313">
        <ele>141.42</ele>
        <time>2018-09-16T07:55:47.000Z</time>
      </trkpt>
      <trkpt lat="46.54829" lon="0.33321">
        <ele>141.13</ele>
        <time>2018-09-16T07:55:49.000Z</time>
      </trkpt>
      <trkpt lat="46.54837" lon="0.33327">
        <ele>141.01</ele>
        <time>2018-09-16T07:55:51.000Z</time>
      </trkpt>
      <trkpt lat="46.54845" lon="0.33335">
        <ele>141.02</ele>
        <time>2018-09-16T07:55:53.000Z</time>
      </trkpt>
      <trkpt lat="46.54852" lon="0.33343">
        <ele>140.88</ele>
        <time>2018-09-16T07:55:55.000Z</time>
      </trkpt>
      <trkpt lat="46.54862" lon="0.33351">
        <ele>140.74</ele>
        <time>2018-09-16T07:55:57.000Z</time>
      </trkpt>
      <trkpt lat="46.54871" lon="0.33356">
        <ele>140.95</ele>
        <time>2018-09-16T07:55:59.000Z</time>
      </trkpt>
      <trkpt lat="46.54879" lon="0.33365">
        <ele>141.67</ele>
        <time>2018-09-16T07:56:01.000Z</time>
      </trkpt>
      <trkpt lat="46.5489" lon="0.33375">
        <ele>142.3</ele>
        <time>2018-09-16T07:56:04.000Z</time>
      </trkpt>
      <trkpt lat="46.54898" lon="0.33382">
        <ele>142.61</ele>
        <time>2018-09-16T07:56:06.000Z</time>
      </trkpt>
      <trkpt lat="46.54906" lon="0.33389">
        <ele>142.84</ele>
        <time>2018-09-16T07:56:08.000Z</time>
      </trkpt>
      <trkpt lat="46.54914" lon="0.33396">
        <ele>142.69</ele>
        <time>2018-09-16T07:56:10.000Z</time>
      </trkpt>
      <trkpt lat="46.54923" lon="0.33403">
        <ele>142.56</ele>
        <time>2018-09-16T07:56:12.000Z</time>
      </trkpt>
      <trkpt lat="46.54932" lon="0.3341">
        <ele>142.53</ele>
        <time>2018-09-16T07:56:14.000Z</time>
      </trkpt>
      <trkpt lat="46.5494" lon="0.33416">
        <ele>142.46</ele>
        <time>2018-09-16T07:56:16.000Z</time>
      </trkpt>
      <trkpt lat="46.5495" lon="0.33424">
        <ele>142.48</ele>
        <time>2018-09-16T07:56:19.000Z</time>
      </trkpt>
      <trkpt lat="46.54958" lon="0.3343">
        <ele>142.49</ele>
        <time>2018-09-16T07:56:21.000Z</time>
      </trkpt>
      <trkpt lat="46.54968" lon="0.33436">
        <ele>142.51</ele>
        <time>2018-09-16T07:56:24.000Z</time>
      </trkpt>
      <trkpt lat="46.54975" lon="0.33447">
        <ele>142.51</ele>
        <time>2018-09-16T07:56:29.000Z</time>
      </trkpt>
      <trkpt lat="46.54979" lon="0.33463">
        <ele>142.85</ele>
        <time>2018-09-16T07:56:32.000Z</time>
      </trkpt>
      <trkpt lat="46.54983" lon="0.33476">
        <ele>143.5</ele>
        <time>2018-09-16T07:56:34.000Z</time>
      </trkpt>
      <trkpt lat="46.54987" lon="0.3349">
        <ele>144.19</ele>
        <time>2018-09-16T07:56:36.000Z</time>
      </trkpt>
      <trkpt lat="46.54991" lon="0.33505">
        <ele>144.85</ele>
        <time>2018-09-16T07:56:38.000Z</time>
      </trkpt>
      <trkpt lat="46.54995" lon="0.33521">
        <ele>145.47</ele>
        <time>2018-09-16T07:56:40.000Z</time>
      </trkpt>
      <trkpt lat="46.55" lon="0.33538">
        <ele>145.6</ele>
        <time>2018-09-16T07:56:42.000Z</time>
      </trkpt>
      <trkpt lat="46.55003" lon="0.33554">
        <ele>145.81</ele>
        <time>2018-09-16T07:56:44.000Z</time>
      </trkpt>
      <trkpt lat="46.55006" lon="0.3357">
        <ele>145.94</ele>
        <time>2018-09-16T07:56:46.000Z</time>
      </trkpt>
      <trkpt lat="46.5501" lon="0.33587">
        <ele>146.04</ele>
        <time>2018-09-16T07:56:48.000Z</time>
      </trkpt>
      <trkpt lat="46.55013" lon="0.33603">
        <ele>146.05</ele>
        <time>2018-09-16T07:56:50.000Z</time>
      </trkpt>
      <trkpt lat="46.55015" lon="0.33619">
        <ele>145.85</ele>
        <time>2018-09-16T07:56:52.000Z</time>
      </trkpt>
      <trkpt lat="46.55016" lon="0.33633">
        <ele>145.81</ele>
        <time>2018-09-16T07:56:54.000Z</time>
      </trkpt>
      <trkpt lat="46.55014" lon="0.33649">
        <ele>145.74</ele>
        <time>2018-09-16T07:56:56.000Z</time>
      </trkpt>
      <trkpt lat="46.55013" lon="0.33663">
        <ele>145.24</ele>
        <time>2018-09-16T07:56:58.000Z</time>
      </trkpt>
      <trkpt lat="46.55011" lon="0.33676">
        <ele>144.85</ele>
        <time>2018-09-16T07:57:00.000Z</time>
      </trkpt>
      <trkpt lat="46.55004" lon="0.33687">
        <ele>144.83</ele>
        <time>2018-09-16T07:57:04.000Z</time>
      </trkpt>
      <trkpt lat="46.54994" lon="0.3369">
        <ele>144.53</ele>
        <time>2018-09-16T07:57:06.000Z</time>
      </trkpt>
      <trkpt lat="46.54986" lon="0.33696">
        <ele>144.26</ele>
        <time>2018-09-16T07:57:10.000Z</time>
      </trkpt>
      <trkpt lat="46.54985" lon="0.33712">
        <ele>143.26</ele>
        <time>2018-09-16T07:57:13.000Z</time>
      </trkpt>
      <trkpt lat="46.54983" lon="0.3373">
        <ele>141.93</ele>
        <time>2018-09-16T07:57:16.000Z</time>
      </trkpt>
      <trkpt lat="46.54981" lon="0.33748">
        <ele>140.66</ele>
        <time>2018-09-16T07:57:19.000Z</time>
      </trkpt>
      <trkpt lat="46.54976" lon="0.33763">
        <ele>140.39</ele>
        <time>2018-09-16T07:57:23.000Z</time>
      </trkpt>
      <trkpt lat="46.54968" lon="0.33768">
        <ele>140.04</ele>
        <time>2018-09-16T07:57:28.000Z</time>
      </trkpt>
      <trkpt lat="46.54974" lon="0.33777">
        <ele>138.78</ele>
        <time>2018-09-16T07:59:13.000Z</time>
      </trkpt>
      <trkpt lat="46.5497" lon="0.33765">
        <ele>134.44</ele>
        <time>2018-09-16T08:06:01.000Z</time>
      </trkpt>
      <trkpt lat="46.54981" lon="0.33772">
        <ele>133.46</ele>
        <time>2018-09-16T08:07:29.000Z</time>
      </trkpt>
      <trkpt lat="46.54991" lon="0.33775">
        <ele>133.36</ele>
        <time>2018-09-16T08:07:33.000Z</time>
      </trkpt>
      <trkpt lat="46.55001" lon="0.33781">
        <ele>133.33</ele>
        <time>2018-09-16T08:07:39.000Z</time>
      </trkpt>
      <trkpt lat="46.55012" lon="0.33783">
        <ele>133.46</ele>
        <time>2018-09-16T08:07:43.000Z</time>
      </trkpt>
      <trkpt lat="46.55017" lon="0.33767">
        <ele>133.61</ele>
        <time>2018-09-16T08:07:48.000Z</time>
      </trkpt>
      <trkpt lat="46.55018" lon="0.3375">
        <ele>133.71</ele>
        <time>2018-09-16T08:07:51.000Z</time>
      </trkpt>
      <trkpt lat="46.55019" lon="0.33734">
        <ele>133.76</ele>
        <time>2018-09-16T08:07:54.000Z</time>
      </trkpt>
      <trkpt lat="46.55023" lon="0.33721">
        <ele>133.82</ele>
        <time>2018-09-16T08:07:58.000Z</time>
      </trkpt>
      <trkpt lat="46.55032" lon="0.33717">
        <ele>133.54</ele>
        <time>2018-09-16T08:08:07.000Z</time>
      </trkpt>
      <trkpt lat="46.55042" lon="0.33716">
        <ele>133.48</ele>
        <time>2018-09-16T08:08:10.000Z</time>
      </trkpt>
      <trkpt lat="46.55053" lon="0.3372">
        <ele>133.44</ele>
        <time>2018-09-16T08:08:13.000Z</time>
      </trkpt>
      <trkpt lat="46.55064" lon="0.33725">
        <ele>133.41</ele>
        <time>2018-09-16T08:08:16.000Z</time>
      </trkpt>
      <trkpt lat="46.55076" lon="0.33727">
        <ele>133.37</ele>
        <time>2018-09-16T08:08:19.000Z</time>
      </trkpt>
      <trkpt lat="46.55086" lon="0.33727">
        <ele>133.28</ele>
        <time>2018-09-16T08:08:22.000Z</time>
      </trkpt>
      <trkpt lat="46.55099" lon="0.33729">
        <ele>132.64</ele>
        <time>2018-09-16T08:08:25.000Z</time>
      </trkpt>
      <trkpt lat="46.55109" lon="0.33733">
        <ele>132.57</ele>
        <time>2018-09-16T08:08:27.000Z</time>
      </trkpt>
      <trkpt lat="46.55117" lon="0.33735">
        <ele>132.54</ele>
        <time>2018-09-16T08:08:29.000Z</time>
      </trkpt>
      <trkpt lat="46.55127" lon="0.33737">
        <ele>132.49</ele>
        <time>2018-09-16T08:08:31.000Z</time>
      </trkpt>
      <trkpt lat="46.55138" lon="0.33739">
        <ele>132.43</ele>
        <time>2018-09-16T08:08:33.000Z</time>
      </trkpt>
      <trkpt lat="46.55148" lon="0.3374">
        <ele>132.32</ele>
        <time>2018-09-16T08:08:35.000Z</time>
      </trkpt>
      <trkpt lat="46.55157" lon="0.3374">
        <ele>132.06</ele>
        <time>2018-09-16T08:08:37.000Z</time>
      </trkpt>
      <trkpt lat="46.55167" lon="0.33741">
        <ele>131.69</ele>
        <time>2018-09-16T08:08:39.000Z</time>
      </trkpt>
      <trkpt lat="46.55177" lon="0.33742">
        <ele>131.33</ele>
        <time>2018-09-16T08:08:41.000Z</time>
      </trkpt>
      <trkpt lat="46.55187" lon="0.33742">
        <ele>131.01</ele>
        <time>2018-09-16T08:08:43.000Z</time>
      </trkpt>
      <trkpt lat="46.55197" lon="0.33743">
        <ele>130.77</ele>
        <time>2018-09-16T08:08:45.000Z</time>
      </trkpt>
      <trkpt lat="46.55207" lon="0.33742">
        <ele>130.65</ele>
        <time>2018-09-16T08:08:47.000Z</time>
      </trkpt>
      <trkpt lat="46.55218" lon="0.33742">
        <ele>130.57</ele>
        <time>2018-09-16T08:08:49.000Z</time>
      </trkpt>
      <trkpt lat="46.55228" lon="0.33741">
        <ele>130.42</ele>
        <time>2018-09-16T08:08:51.000Z</time>
      </trkpt>
      <trkpt lat="46.55239" lon="0.33741">
        <ele>130.3</ele>
        <time>2018-09-16T08:08:53.000Z</time>
      </trkpt>
      <trkpt lat="46.5525" lon="0.33741">
        <ele>130.35</ele>
        <time>2018-09-16T08:08:55.000Z</time>
      </trkpt>
      <trkpt lat="46.55261" lon="0.33741">
        <ele>130.71</ele>
        <time>2018-09-16T08:08:57.000Z</time>
      </trkpt>
      <trkpt lat="46.5527" lon="0.33741">
        <ele>131.18</ele>
        <time>2018-09-16T08:08:59.000Z</time>
      </trkpt>
      <trkpt lat="46.55281" lon="0.33741">
        <ele>131.44</ele>
        <time>2018-09-16T08:09:01.000Z</time>
      </trkpt>
      <trkpt lat="46.55291" lon="0.33741">
        <ele>131.6</ele>
        <time>2018-09-16T08:09:03.000Z</time>
      </trkpt>
      <trkpt lat="46.55302" lon="0.33741">
        <ele>131.83</ele>
        <time>2018-09-16T08:09:05.000Z</time>
      </trkpt>
      <trkpt lat="46.55312" lon="0.33739">
        <ele>132.18</ele>
        <time>2018-09-16T08:09:07.000Z</time>
      </trkpt>
      <trkpt lat="46.55323" lon="0.33737">
        <ele>132.26</ele>
        <time>2018-09-16T08:09:09.000Z</time>
      </trkpt>
      <trkpt lat="46.55335" lon="0.33741">
        <ele>131.73</ele>
        <time>2018-09-16T08:09:12.000Z</time>
      </trkpt>
      <trkpt lat="46.55344" lon="0.33743">
        <ele>131.68</ele>
        <time>2018-09-16T08:09:14.000Z</time>
      </trkpt>
      <trkpt lat="46.55354" lon="0.33749">
        <ele>131.64</ele>
        <time>2018-09-16T08:09:17.000Z</time>
      </trkpt>
      <trkpt lat="46.55365" lon="0.33757">
        <ele>131.32</ele>
        <time>2018-09-16T08:09:19.000Z</time>
      </trkpt>
      <trkpt lat="46.55375" lon="0.33764">
        <ele>131.35</ele>
        <time>2018-09-16T08:09:21.000Z</time>
      </trkpt>
      <trkpt lat="46.55386" lon="0.33768">
        <ele>131.56</ele>
        <time>2018-09-16T08:09:23.000Z</time>
      </trkpt>
      <trkpt lat="46.55396" lon="0.33771">
        <ele>131.83</ele>
        <time>2018-09-16T08:09:25.000Z</time>
      </trkpt>
      <trkpt lat="46.55406" lon="0.33771">
        <ele>132.39</ele>
        <time>2018-09-16T08:09:27.000Z</time>
      </trkpt>
      <trkpt lat="46.5542" lon="0.33772">
        <ele>132.76</ele>
        <time>2018-09-16T08:09:30.000Z</time>
      </trkpt>
      <trkpt lat="46.55429" lon="0.33775">
        <ele>133.19</ele>
        <time>2018-09-16T08:09:32.000Z</time>
      </trkpt>
      <trkpt lat="46.55441" lon="0.33775">
        <ele>133.5</ele>
        <time>2018-09-16T08:09:34.000Z</time>
      </trkpt>
      <trkpt lat="46.55452" lon="0.33775">
        <ele>133.38</ele>
        <time>2018-09-16T08:09:36.000Z</time>
      </trkpt>
      <trkpt lat="46.55463" lon="0.33778">
        <ele>133.18</ele>
        <time>2018-09-16T08:09:38.000Z</time>
      </trkpt>
      <trkpt lat="46.55472" lon="0.33781">
        <ele>133.51</ele>
        <time>2018-09-16T08:09:40.000Z</time>
      </trkpt>
      <trkpt lat="46.55482" lon="0.33787">
        <ele>133.52</ele>
        <time>2018-09-16T08:09:42.000Z</time>
      </trkpt>
      <trkpt lat="46.55491" lon="0.33794">
        <ele>133.46</ele>
        <time>2018-09-16T08:09:44.000Z</time>
      </trkpt>
      <trkpt lat="46.55501" lon="0.338">
        <ele>132.71</ele>
        <time>2018-09-16T08:09:46.000Z</time>
      </trkpt>
      <trkpt lat="46.55509" lon="0.33811">
        <ele>132.35</ele>
        <time>2018-09-16T08:09:48.000Z</time>
      </trkpt>
      <trkpt lat="46.55515" lon="0.33822">
        <ele>132.59</ele>
        <time>2018-09-16T08:09:50.000Z</time>
      </trkpt>
      <trkpt lat="46.55523" lon="0.33831">
        <ele>133.16</ele>
        <time>2018-09-16T08:09:52.000Z</time>
      </trkpt>
      <trkpt lat="46.55531" lon="0.33841">
        <ele>133.57</ele>
        <time>2018-09-16T08:09:54.000Z</time>
      </trkpt>
      <trkpt lat="46.55538" lon="0.33853">
        <ele>133.94</ele>
        <time>2018-09-16T08:09:56.000Z</time>
      </trkpt>
      <trkpt lat="46.55544" lon="0.33865">
        <ele>134.07</ele>
        <time>2018-09-16T08:09:58.000Z</time>
      </trkpt>
      <trkpt lat="46.55553" lon="0.33877">
        <ele>133.89</ele>
        <time>2018-09-16T08:10:01.000Z</time>
      </trkpt>
      <trkpt lat="46.55563" lon="0.33883">
        <ele>133.86</ele>
        <time>2018-09-16T08:10:04.000Z</time>
      </trkpt>
      <trkpt lat="46.55571" lon="0.3389">
        <ele>133.91</ele>
        <time>2018-09-16T08:10:07.000Z</time>
      </trkpt>
      <trkpt lat="46.55581" lon="0.33894">
        <ele>134.12</ele>
        <time>2018-09-16T08:10:15.000Z</time>
      </trkpt>
      <trkpt lat="46.55589" lon="0.33905">
        <ele>134.22</ele>
        <time>2018-09-16T08:10:19.000Z</time>
      </trkpt>
      <trkpt lat="46.55598" lon="0.33915">
        <ele>134.23</ele>
        <time>2018-09-16T08:10:22.000Z</time>
      </trkpt>
      <trkpt lat="46.5561" lon="0.3392">
        <ele>135</ele>
        <time>2018-09-16T08:10:25.000Z</time>
      </trkpt>
      <trkpt lat="46.55621" lon="0.33924">
        <ele>135.31</ele>
        <time>2018-09-16T08:10:28.000Z</time>
      </trkpt>
      <trkpt lat="46.55631" lon="0.33924">
        <ele>135.38</ele>
        <time>2018-09-16T08:10:31.000Z</time>
      </trkpt>
      <trkpt lat="46.55643" lon="0.33923">
        <ele>136.17</ele>
        <time>2018-09-16T08:10:34.000Z</time>
      </trkpt>
      <trkpt lat="46.55652" lon="0.33921">
        <ele>136.72</ele>
        <time>2018-09-16T08:10:36.000Z</time>
      </trkpt>
      <trkpt lat="46.55662" lon="0.33919">
        <ele>137.48</ele>
        <time>2018-09-16T08:10:38.000Z</time>
      </trkpt>
      <trkpt lat="46.55673" lon="0.33917">
        <ele>137.58</ele>
        <time>2018-09-16T08:10:40.000Z</time>
      </trkpt>
      <trkpt lat="46.55682" lon="0.33913">
        <ele>137.54</ele>
        <time>2018-09-16T08:10:42.000Z</time>
      </trkpt>
      <trkpt lat="46.55693" lon="0.3391">
        <ele>137.63</ele>
        <time>2018-09-16T08:10:44.000Z</time>
      </trkpt>
      <trkpt lat="46.55706" lon="0.33906">
        <ele>137.75</ele>
        <time>2018-09-16T08:10:46.000Z</time>
      </trkpt>
      <trkpt lat="46.55718" lon="0.33898">
        <ele>137.1</ele>
        <time>2018-09-16T08:10:48.000Z</time>
      </trkpt>
      <trkpt lat="46.55731" lon="0.33895">
        <ele>137.04</ele>
        <time>2018-09-16T08:10:51.000Z</time>
      </trkpt>
      <trkpt lat="46.55742" lon="0.33893">
        <ele>136.54</ele>
        <time>2018-09-16T08:10:53.000Z</time>
      </trkpt>
      <trkpt lat="46.5575" lon="0.33886">
        <ele>136.59</ele>
        <time>2018-09-16T08:10:55.000Z</time>
      </trkpt>
      <trkpt lat="46.55761" lon="0.33874">
        <ele>137.36</ele>
        <time>2018-09-16T08:10:58.000Z</time>
      </trkpt>
      <trkpt lat="46.55774" lon="0.33878">
        <ele>137.52</ele>
        <time>2018-09-16T08:11:01.000Z</time>
      </trkpt>
      <trkpt lat="46.55785" lon="0.33884">
        <ele>137.84</ele>
        <time>2018-09-16T08:11:04.000Z</time>
      </trkpt>
      <trkpt lat="46.55795" lon="0.33891">
        <ele>137.9</ele>
        <time>2018-09-16T08:11:07.000Z</time>
      </trkpt>
      <trkpt lat="46.55805" lon="0.33898">
        <ele>139.1</ele>
        <time>2018-09-16T08:11:10.000Z</time>
      </trkpt>
      <trkpt lat="46.55816" lon="0.33904">
        <ele>139.93</ele>
        <time>2018-09-16T08:11:13.000Z</time>
      </trkpt>
      <trkpt lat="46.55827" lon="0.33908">
        <ele>139.94</ele>
        <time>2018-09-16T08:11:16.000Z</time>
      </trkpt>
      <trkpt lat="46.55839" lon="0.33907">
        <ele>139.57</ele>
        <time>2018-09-16T08:11:19.000Z</time>
      </trkpt>
      <trkpt lat="46.55853" lon="0.33901">
        <ele>139.29</ele>
        <time>2018-09-16T08:11:22.000Z</time>
      </trkpt>
      <trkpt lat="46.55862" lon="0.33894">
        <ele>139.62</ele>
        <time>2018-09-16T08:11:24.000Z</time>
      </trkpt>
      <trkpt lat="46.55872" lon="0.33887">
        <ele>139.79</ele>
        <time>2018-09-16T08:11:26.000Z</time>
      </trkpt>
      <trkpt lat="46.55883" lon="0.33878">
        <ele>140.02</ele>
        <time>2018-09-16T08:11:28.000Z</time>
      </trkpt>
      <trkpt lat="46.55893" lon="0.33869">
        <ele>140.02</ele>
        <time>2018-09-16T08:11:30.000Z</time>
      </trkpt>
      <trkpt lat="46.55904" lon="0.33859">
        <ele>140.3</ele>
        <time>2018-09-16T08:11:32.000Z</time>
      </trkpt>
      <trkpt lat="46.55914" lon="0.33846">
        <ele>140.48</ele>
        <time>2018-09-16T08:11:34.000Z</time>
      </trkpt>
      <trkpt lat="46.55925" lon="0.33838">
        <ele>139.7</ele>
        <time>2018-09-16T08:11:36.000Z</time>
      </trkpt>
      <trkpt lat="46.55933" lon="0.3383">
        <ele>139.15</ele>
        <time>2018-09-16T08:11:38.000Z</time>
      </trkpt>
      <trkpt lat="46.55943" lon="0.33819">
        <ele>138.86</ele>
        <time>2018-09-16T08:11:40.000Z</time>
      </trkpt>
      <trkpt lat="46.55953" lon="0.33808">
        <ele>139.19</ele>
        <time>2018-09-16T08:11:42.000Z</time>
      </trkpt>
      <trkpt lat="46.55963" lon="0.33799">
        <ele>139.6</ele>
        <time>2018-09-16T08:11:44.000Z</time>
      </trkpt>
      <trkpt lat="46.5597" lon="0.3379">
        <ele>140.48</ele>
        <time>2018-09-16T08:11:46.000Z</time>
      </trkpt>
      <trkpt lat="46.55979" lon="0.33782">
        <ele>141.7</ele>
        <time>2018-09-16T08:11:48.000Z</time>
      </trkpt>
      <trkpt lat="46.55987" lon="0.33773">
        <ele>142.64</ele>
        <time>2018-09-16T08:11:50.000Z</time>
      </trkpt>
      <trkpt lat="46.55998" lon="0.33762">
        <ele>143.48</ele>
        <time>2018-09-16T08:11:52.000Z</time>
      </trkpt>
      <trkpt lat="46.56007" lon="0.33752">
        <ele>144.26</ele>
        <time>2018-09-16T08:11:54.000Z</time>
      </trkpt>
      <trkpt lat="46.56015" lon="0.33742">
        <ele>144.49</ele>
        <time>2018-09-16T08:11:56.000Z</time>
      </trkpt>
      <trkpt lat="46.56025" lon="0.33735">
        <ele>144.46</ele>
        <time>2018-09-16T08:11:58.000Z</time>
      </trkpt>
      <trkpt lat="46.56036" lon="0.33734">
        <ele>144.12</ele>
        <time>2018-09-16T08:12:02.000Z</time>
      </trkpt>
      <trkpt lat="46.56045" lon="0.3373">
        <ele>143.49</ele>
        <time>2018-09-16T08:12:06.000Z</time>
      </trkpt>
      <trkpt lat="46.56054" lon="0.33721">
        <ele>142.95</ele>
        <time>2018-09-16T08:12:10.000Z</time>
      </trkpt>
      <trkpt lat="46.56064" lon="0.33722">
        <ele>142.31</ele>
        <time>2018-09-16T08:12:15.000Z</time>
      </trkpt>
      <trkpt lat="46.56074" lon="0.33718">
        <ele>141.5</ele>
        <time>2018-09-16T08:12:22.000Z</time>
      </trkpt>
      <trkpt lat="46.56083" lon="0.33716">
        <ele>141.37</ele>
        <time>2018-09-16T08:12:28.000Z</time>
      </trkpt>
      <trkpt lat="46.56091" lon="0.33712">
        <ele>141.64</ele>
        <time>2018-09-16T08:12:35.000Z</time>
      </trkpt>
      <trkpt lat="46.56101" lon="0.3371">
        <ele>142.9</ele>
        <time>2018-09-16T08:12:49.000Z</time>
      </trkpt>
      <trkpt lat="46.5611" lon="0.33707">
        <ele>143.89</ele>
        <time>2018-09-16T08:12:59.000Z</time>
      </trkpt>
      <trkpt lat="46.56121" lon="0.337">
        <ele>144.32</ele>
        <time>2018-09-16T08:13:04.000Z</time>
      </trkpt>
      <trkpt lat="46.56131" lon="0.33693">
        <ele>145.14</ele>
        <time>2018-09-16T08:13:10.000Z</time>
      </trkpt>
      <trkpt lat="46.56139" lon="0.33685">
        <ele>145.88</ele>
        <time>2018-09-16T08:13:14.000Z</time>
      </trkpt>
      <trkpt lat="46.56149" lon="0.33679">
        <ele>146.59</ele>
        <time>2018-09-16T08:13:19.000Z</time>
      </trkpt>
      <trkpt lat="46.56159" lon="0.33673">
        <ele>146.98</ele>
        <time>2018-09-16T08:13:24.000Z</time>
      </trkpt>
      <trkpt lat="46.56168" lon="0.33668">
        <ele>147.35</ele>
        <time>2018-09-16T08:13:28.000Z</time>
      </trkpt>
      <trkpt lat="46.56176" lon="0.33664">
        <ele>147.76</ele>
        <time>2018-09-16T08:13:33.000Z</time>
      </trkpt>
      <trkpt lat="46.56186" lon="0.33661">
        <ele>148.49</ele>
        <time>2018-09-16T08:13:40.000Z</time>
      </trkpt>
      <trkpt lat="46.56196" lon="0.33663">
        <ele>149.05</ele>
        <time>2018-09-16T08:13:44.000Z</time>
      </trkpt>
      <trkpt lat="46.56206" lon="0.3367">
        <ele>149.5</ele>
        <time>2018-09-16T08:13:48.000Z</time>
      </trkpt>
      <trkpt lat="46.56215" lon="0.33676">
        <ele>150.01</ele>
        <time>2018-09-16T08:13:56.000Z</time>
      </trkpt>
      <trkpt lat="46.56218" lon="0.3369">
        <ele>150.65</ele>
        <time>2018-09-16T08:14:01.000Z</time>
      </trkpt>
      <trkpt lat="46.5622" lon="0.33705">
        <ele>151.52</ele>
        <time>2018-09-16T08:14:09.000Z</time>
      </trkpt>
      <trkpt lat="46.56216" lon="0.33718">
        <ele>152.42</ele>
        <time>2018-09-16T08:14:19.000Z</time>
      </trkpt>
      <trkpt lat="46.56207" lon="0.33718">
        <ele>152.99</ele>
        <time>2018-09-16T08:14:25.000Z</time>
      </trkpt>
      <trkpt lat="46.56197" lon="0.33721">
        <ele>154.01</ele>
        <time>2018-09-16T08:14:32.000Z</time>
      </trkpt>
      <trkpt lat="46.56187" lon="0.33727">
        <ele>155.47</ele>
        <time>2018-09-16T08:14:39.000Z</time>
      </trkpt>
      <trkpt lat="46.56178" lon="0.33736">
        <ele>156.7</ele>
        <time>2018-09-16T08:14:45.000Z</time>
      </trkpt>
      <trkpt lat="46.56171" lon="0.33745">
        <ele>157.79</ele>
        <time>2018-09-16T08:14:50.000Z</time>
      </trkpt>
      <trkpt lat="46.56163" lon="0.33753">
        <ele>158.75</ele>
        <time>2018-09-16T08:14:54.000Z</time>
      </trkpt>
      <trkpt lat="46.56157" lon="0.33765">
        <ele>159.84</ele>
        <time>2018-09-16T08:14:59.000Z</time>
      </trkpt>
      <trkpt lat="46.56149" lon="0.33774">
        <ele>160.47</ele>
        <time>2018-09-16T08:15:03.000Z</time>
      </trkpt>
      <trkpt lat="46.56141" lon="0.33783">
        <ele>160.73</ele>
        <time>2018-09-16T08:15:05.000Z</time>
      </trkpt>
      <trkpt lat="46.56133" lon="0.33792">
        <ele>160.99</ele>
        <time>2018-09-16T08:15:08.000Z</time>
      </trkpt>
      <trkpt lat="46.56125" lon="0.33801">
        <ele>161.12</ele>
        <time>2018-09-16T08:15:11.000Z</time>
      </trkpt>
      <trkpt lat="46.56115" lon="0.33808">
        <ele>161.2</ele>
        <time>2018-09-16T08:15:15.000Z</time>
      </trkpt>
      <trkpt lat="46.56106" lon="0.33813">
        <ele>161.33</ele>
        <time>2018-09-16T08:15:19.000Z</time>
      </trkpt>
      <trkpt lat="46.56097" lon="0.33821">
        <ele>161.42</ele>
        <time>2018-09-16T08:15:23.000Z</time>
      </trkpt>
      <trkpt lat="46.56089" lon="0.33831">
        <ele>161.38</ele>
        <time>2018-09-16T08:15:27.000Z</time>
      </trkpt>
      <trkpt lat="46.5608" lon="0.33838">
        <ele>161.36</ele>
        <time>2018-09-16T08:15:31.000Z</time>
      </trkpt>
      <trkpt lat="46.5607" lon="0.33847">
        <ele>161.43</ele>
        <time>2018-09-16T08:15:34.000Z</time>
      </trkpt>
      <trkpt lat="46.5606" lon="0.33857">
        <ele>162.3</ele>
        <time>2018-09-16T08:15:37.000Z</time>
      </trkpt>
      <trkpt lat="46.56051" lon="0.3387">
        <ele>163</ele>
        <time>2018-09-16T08:15:40.000Z</time>
      </trkpt>
      <trkpt lat="46.56045" lon="0.33882">
        <ele>163.69</ele>
        <time>2018-09-16T08:15:42.000Z</time>
      </trkpt>
      <trkpt lat="46.56041" lon="0.33895">
        <ele>163.84</ele>
        <time>2018-09-16T08:15:45.000Z</time>
      </trkpt>
      <trkpt lat="46.56034" lon="0.33909">
        <ele>164.16</ele>
        <time>2018-09-16T08:15:48.000Z</time>
      </trkpt>
      <trkpt lat="46.56026" lon="0.33921">
        <ele>164.42</ele>
        <time>2018-09-16T08:15:51.000Z</time>
      </trkpt>
      <trkpt lat="46.56017" lon="0.33929">
        <ele>164.59</ele>
        <time>2018-09-16T08:15:54.000Z</time>
      </trkpt>
      <trkpt lat="46.56004" lon="0.33934">
        <ele>164.78</ele>
        <time>2018-09-16T08:15:57.000Z</time>
      </trkpt>
      <trkpt lat="46.55995" lon="0.33938">
        <ele>164.83</ele>
        <time>2018-09-16T08:15:59.000Z</time>
      </trkpt>
      <trkpt lat="46.55984" lon="0.33942">
        <ele>165.05</ele>
        <time>2018-09-16T08:16:02.000Z</time>
      </trkpt>
      <trkpt lat="46.55975" lon="0.33952">
        <ele>165.04</ele>
        <time>2018-09-16T08:16:05.000Z</time>
      </trkpt>
      <trkpt lat="46.55965" lon="0.33965">
        <ele>164.75</ele>
        <time>2018-09-16T08:16:08.000Z</time>
      </trkpt>
      <trkpt lat="46.55957" lon="0.33972">
        <ele>164.74</ele>
        <time>2018-09-16T08:16:10.000Z</time>
      </trkpt>
      <trkpt lat="46.55948" lon="0.33979">
        <ele>164.74</ele>
        <time>2018-09-16T08:16:12.000Z</time>
      </trkpt>
      <trkpt lat="46.55936" lon="0.33994">
        <ele>164.38</ele>
        <time>2018-09-16T08:16:14.000Z</time>
      </trkpt>
      <trkpt lat="46.5593" lon="0.34008">
        <ele>164.2</ele>
        <time>2018-09-16T08:16:16.000Z</time>
      </trkpt>
      <trkpt lat="46.55925" lon="0.3402">
        <ele>165.03</ele>
        <time>2018-09-16T08:16:18.000Z</time>
      </trkpt>
      <trkpt lat="46.55921" lon="0.34034">
        <ele>165.35</ele>
        <time>2018-09-16T08:16:21.000Z</time>
      </trkpt>
      <trkpt lat="46.5591" lon="0.34041">
        <ele>166.73</ele>
        <time>2018-09-16T08:16:24.000Z</time>
      </trkpt>
      <trkpt lat="46.55901" lon="0.34039">
        <ele>167.94</ele>
        <time>2018-09-16T08:16:26.000Z</time>
      </trkpt>
      <trkpt lat="46.55888" lon="0.34043">
        <ele>168.62</ele>
        <time>2018-09-16T08:16:29.000Z</time>
      </trkpt>
      <trkpt lat="46.55876" lon="0.34042">
        <ele>168.12</ele>
        <time>2018-09-16T08:16:31.000Z</time>
      </trkpt>
      <trkpt lat="46.55864" lon="0.34042">
        <ele>167.69</ele>
        <time>2018-09-16T08:16:33.000Z</time>
      </trkpt>
      <trkpt lat="46.55855" lon="0.34042">
        <ele>167.54</ele>
        <time>2018-09-16T08:16:35.000Z</time>
      </trkpt>
      <trkpt lat="46.55842" lon="0.34044">
        <ele>168</ele>
        <time>2018-09-16T08:16:38.000Z</time>
      </trkpt>
      <trkpt lat="46.55834" lon="0.34052">
        <ele>168.43</ele>
        <time>2018-09-16T08:16:40.000Z</time>
      </trkpt>
      <trkpt lat="46.55822" lon="0.3406">
        <ele>169.23</ele>
        <time>2018-09-16T08:16:43.000Z</time>
      </trkpt>
      <trkpt lat="46.5581" lon="0.34067">
        <ele>169.27</ele>
        <time>2018-09-16T08:16:46.000Z</time>
      </trkpt>
      <trkpt lat="46.55799" lon="0.34074">
        <ele>169.26</ele>
        <time>2018-09-16T08:16:49.000Z</time>
      </trkpt>
      <trkpt lat="46.5579" lon="0.3408">
        <ele>169.37</ele>
        <time>2018-09-16T08:16:54.000Z</time>
      </trkpt>
      <trkpt lat="46.55779" lon="0.34086">
        <ele>170.27</ele>
        <time>2018-09-16T08:16:58.000Z</time>
      </trkpt>
      <trkpt lat="46.5577" lon="0.34088">
        <ele>171.42</ele>
        <time>2018-09-16T08:17:00.000Z</time>
      </trkpt>
      <trkpt lat="46.5576" lon="0.3409">
        <ele>172.11</ele>
        <time>2018-09-16T08:17:02.000Z</time>
      </trkpt>
      <trkpt lat="46.5575" lon="0.3409">
        <ele>172.08</ele>
        <time>2018-09-16T08:17:04.000Z</time>
      </trkpt>
      <trkpt lat="46.55737" lon="0.34091">
        <ele>171.88</ele>
        <time>2018-09-16T08:17:07.000Z</time>
      </trkpt>
      <trkpt lat="46.55725" lon="0.34092">
        <ele>170.99</ele>
        <time>2018-09-16T08:17:10.000Z</time>
      </trkpt>
      <trkpt lat="46.55716" lon="0.34094">
        <ele>170.77</ele>
        <time>2018-09-16T08:17:12.000Z</time>
      </trkpt>
      <trkpt lat="46.55709" lon="0.34103">
        <ele>170.82</ele>
        <time>2018-09-16T08:17:15.000Z</time>
      </trkpt>
      <trkpt lat="46.55703" lon="0.34114">
        <ele>170.95</ele>
        <time>2018-09-16T08:17:17.000Z</time>
      </trkpt>
      <trkpt lat="46.557" lon="0.34128">
        <ele>172.29</ele>
        <time>2018-09-16T08:17:19.000Z</time>
      </trkpt>
      <trkpt lat="46.55697" lon="0.34142">
        <ele>172.71</ele>
        <time>2018-09-16T08:17:21.000Z</time>
      </trkpt>
      <trkpt lat="46.55691" lon="0.34157">
        <ele>172.71</ele>
        <time>2018-09-16T08:17:24.000Z</time>
      </trkpt>
      <trkpt lat="46.55685" lon="0.34172">
        <ele>172.43</ele>
        <time>2018-09-16T08:17:27.000Z</time>
      </trkpt>
      <trkpt lat="46.5568" lon="0.34187">
        <ele>172.42</ele>
        <time>2018-09-16T08:17:30.000Z</time>
      </trkpt>
      <trkpt lat="46.55674" lon="0.34202">
        <ele>172.48</ele>
        <time>2018-09-16T08:17:33.000Z</time>
      </trkpt>
      <trkpt lat="46.55669" lon="0.34216">
        <ele>172.55</ele>
        <time>2018-09-16T08:17:37.000Z</time>
      </trkpt>
      <trkpt lat="46.55674" lon="0.34229">
        <ele>172.72</ele>
        <time>2018-09-16T08:17:40.000Z</time>
      </trkpt>
      <trkpt lat="46.55681" lon="0.3424">
        <ele>172.92</ele>
        <time>2018-09-16T08:17:43.000Z</time>
      </trkpt>
      <trkpt lat="46.55685" lon="0.34255">
        <ele>173.86</ele>
        <time>2018-09-16T08:17:46.000Z</time>
      </trkpt>
      <trkpt lat="46.5569" lon="0.34268">
        <ele>174.1</ele>
        <time>2018-09-16T08:17:49.000Z</time>
      </trkpt>
      <trkpt lat="46.55696" lon="0.34284">
        <ele>176.21</ele>
        <time>2018-09-16T08:17:52.000Z</time>
      </trkpt>
      <trkpt lat="46.55704" lon="0.34299">
        <ele>176.9</ele>
        <time>2018-09-16T08:17:55.000Z</time>
      </trkpt>
      <trkpt lat="46.55713" lon="0.3431">
        <ele>177.2</ele>
        <time>2018-09-16T08:17:58.000Z</time>
      </trkpt>
      <trkpt lat="46.55721" lon="0.34322">
        <ele>177.75</ele>
        <time>2018-09-16T08:18:01.000Z</time>
      </trkpt>
      <trkpt lat="46.55729" lon="0.34334">
        <ele>178.28</ele>
        <time>2018-09-16T08:18:04.000Z</time>
      </trkpt>
      <trkpt lat="46.55737" lon="0.34348">
        <ele>178.82</ele>
        <time>2018-09-16T08:18:07.000Z</time>
      </trkpt>
      <trkpt lat="46.55745" lon="0.34361">
        <ele>179.33</ele>
        <time>2018-09-16T08:18:10.000Z</time>
      </trkpt>
      <trkpt lat="46.55753" lon="0.34376">
        <ele>179.67</ele>
        <time>2018-09-16T08:18:13.000Z</time>
      </trkpt>
      <trkpt lat="46.55761" lon="0.34392">
        <ele>179.82</ele>
        <time>2018-09-16T08:18:16.000Z</time>
      </trkpt>
      <trkpt lat="46.55765" lon="0.34404">
        <ele>179.74</ele>
        <time>2018-09-16T08:18:18.000Z</time>
      </trkpt>
      <trkpt lat="46.5577" lon="0.34421">
        <ele>179.98</ele>
        <time>2018-09-16T08:18:21.000Z</time>
      </trkpt>
      <trkpt lat="46.55773" lon="0.34436">
        <ele>179.93</ele>
        <time>2018-09-16T08:18:23.000Z</time>
      </trkpt>
      <trkpt lat="46.55777" lon="0.34451">
        <ele>179.68</ele>
        <time>2018-09-16T08:18:25.000Z</time>
      </trkpt>
      <trkpt lat="46.55779" lon="0.34467">
        <ele>179.44</ele>
        <time>2018-09-16T08:18:27.000Z</time>
      </trkpt>
      <trkpt lat="46.55782" lon="0.34483">
        <ele>179.2</ele>
        <time>2018-09-16T08:18:29.000Z</time>
      </trkpt>
      <trkpt lat="46.55785" lon="0.345">
        <ele>179.08</ele>
        <time>2018-09-16T08:18:31.000Z</time>
      </trkpt>
      <trkpt lat="46.55788" lon="0.34518">
        <ele>178.66</ele>
        <time>2018-09-16T08:18:33.000Z</time>
      </trkpt>
      <trkpt lat="46.55793" lon="0.34534">
        <ele>177.99</ele>
        <time>2018-09-16T08:18:35.000Z</time>
      </trkpt>
      <trkpt lat="46.55798" lon="0.34548">
        <ele>177.68</ele>
        <time>2018-09-16T08:18:37.000Z</time>
      </trkpt>
      <trkpt lat="46.55803" lon="0.34561">
        <ele>177.5</ele>
        <time>2018-09-16T08:18:39.000Z</time>
      </trkpt>
      <trkpt lat="46.55807" lon="0.34573">
        <ele>177.15</ele>
        <time>2018-09-16T08:18:41.000Z</time>
      </trkpt>
      <trkpt lat="46.55806" lon="0.34588">
        <ele>177.05</ele>
        <time>2018-09-16T08:18:43.000Z</time>
      </trkpt>
      <trkpt lat="46.55803" lon="0.34602">
        <ele>177.3</ele>
        <time>2018-09-16T08:18:45.000Z</time>
      </trkpt>
      <trkpt lat="46.55795" lon="0.34614">
        <ele>177.29</ele>
        <time>2018-09-16T08:18:47.000Z</time>
      </trkpt>
      <trkpt lat="46.55785" lon="0.34622">
        <ele>177.2</ele>
        <time>2018-09-16T08:18:49.000Z</time>
      </trkpt>
      <trkpt lat="46.55775" lon="0.3463">
        <ele>177.01</ele>
        <time>2018-09-16T08:18:51.000Z</time>
      </trkpt>
      <trkpt lat="46.55765" lon="0.34637">
        <ele>176.79</ele>
        <time>2018-09-16T08:18:53.000Z</time>
      </trkpt>
      <trkpt lat="46.55756" lon="0.34645">
        <ele>176.17</ele>
        <time>2018-09-16T08:18:55.000Z</time>
      </trkpt>
      <trkpt lat="46.55746" lon="0.34653">
        <ele>175.67</ele>
        <time>2018-09-16T08:18:57.000Z</time>
      </trkpt>
      <trkpt lat="46.55737" lon="0.3466">
        <ele>175.01</ele>
        <time>2018-09-16T08:18:59.000Z</time>
      </trkpt>
      <trkpt lat="46.55728" lon="0.34665">
        <ele>174.35</ele>
        <time>2018-09-16T08:19:01.000Z</time>
      </trkpt>
      <trkpt lat="46.55718" lon="0.34672">
        <ele>174.1</ele>
        <time>2018-09-16T08:19:03.000Z</time>
      </trkpt>
      <trkpt lat="46.55708" lon="0.34679">
        <ele>174.06</ele>
        <time>2018-09-16T08:19:05.000Z</time>
      </trkpt>
      <trkpt lat="46.55697" lon="0.34688">
        <ele>174.04</ele>
        <time>2018-09-16T08:19:07.000Z</time>
      </trkpt>
      <trkpt lat="46.55687" lon="0.34693">
        <ele>174.11</ele>
        <time>2018-09-16T08:19:09.000Z</time>
      </trkpt>
      <trkpt lat="46.5568" lon="0.34703">
        <ele>174.05</ele>
        <time>2018-09-16T08:19:11.000Z</time>
      </trkpt>
      <trkpt lat="46.55682" lon="0.34719">
        <ele>173.6</ele>
        <time>2018-09-16T08:19:13.000Z</time>
      </trkpt>
      <trkpt lat="46.55686" lon="0.34733">
        <ele>173.22</ele>
        <time>2018-09-16T08:19:15.000Z</time>
      </trkpt>
      <trkpt lat="46.55692" lon="0.34748">
        <ele>172.61</ele>
        <time>2018-09-16T08:19:17.000Z</time>
      </trkpt>
      <trkpt lat="46.55697" lon="0.34761">
        <ele>172.7</ele>
        <time>2018-09-16T08:19:19.000Z</time>
      </trkpt>
      <trkpt lat="46.55703" lon="0.34775">
        <ele>173</ele>
        <time>2018-09-16T08:19:21.000Z</time>
      </trkpt>
      <trkpt lat="46.55708" lon="0.34789">
        <ele>173.51</ele>
        <time>2018-09-16T08:19:23.000Z</time>
      </trkpt>
      <trkpt lat="46.55713" lon="0.34803">
        <ele>174.11</ele>
        <time>2018-09-16T08:19:25.000Z</time>
      </trkpt>
      <trkpt lat="46.55717" lon="0.34819">
        <ele>174.54</ele>
        <time>2018-09-16T08:19:27.000Z</time>
      </trkpt>
      <trkpt lat="46.55722" lon="0.34834">
        <ele>174.76</ele>
        <time>2018-09-16T08:19:29.000Z</time>
      </trkpt>
      <trkpt lat="46.55729" lon="0.3485">
        <ele>174.94</ele>
        <time>2018-09-16T08:19:31.000Z</time>
      </trkpt>
      <trkpt lat="46.55735" lon="0.34867">
        <ele>174.91</ele>
        <time>2018-09-16T08:19:33.000Z</time>
      </trkpt>
      <trkpt lat="46.55741" lon="0.34885">
        <ele>174.77</ele>
        <time>2018-09-16T08:19:35.000Z</time>
      </trkpt>
      <trkpt lat="46.55748" lon="0.34904">
        <ele>174.63</ele>
        <time>2018-09-16T08:19:37.000Z</time>
      </trkpt>
      <trkpt lat="46.55755" lon="0.34923">
        <ele>174.34</ele>
        <time>2018-09-16T08:19:39.000Z</time>
      </trkpt>
      <trkpt lat="46.55762" lon="0.34942">
        <ele>174.07</ele>
        <time>2018-09-16T08:19:41.000Z</time>
      </trkpt>
      <trkpt lat="46.55767" lon="0.34959">
        <ele>173.76</ele>
        <time>2018-09-16T08:19:43.000Z</time>
      </trkpt>
      <trkpt lat="46.55764" lon="0.34974">
        <ele>173.28</ele>
        <time>2018-09-16T08:19:45.000Z</time>
      </trkpt>
      <trkpt lat="46.55753" lon="0.34979">
        <ele>172.57</ele>
        <time>2018-09-16T08:19:47.000Z</time>
      </trkpt>
      <trkpt lat="46.55739" lon="0.3498">
        <ele>171.82</ele>
        <time>2018-09-16T08:19:49.000Z</time>
      </trkpt>
      <trkpt lat="46.55726" lon="0.34979">
        <ele>171.23</ele>
        <time>2018-09-16T08:19:51.000Z</time>
      </trkpt>
      <trkpt lat="46.55714" lon="0.34972">
        <ele>170.69</ele>
        <time>2018-09-16T08:19:53.000Z</time>
      </trkpt>
      <trkpt lat="46.55703" lon="0.34963">
        <ele>170.28</ele>
        <time>2018-09-16T08:19:55.000Z</time>
      </trkpt>
      <trkpt lat="46.55696" lon="0.3495">
        <ele>169.94</ele>
        <time>2018-09-16T08:19:57.000Z</time>
      </trkpt>
      <trkpt lat="46.55689" lon="0.34936">
        <ele>169.85</ele>
        <time>2018-09-16T08:19:59.000Z</time>
      </trkpt>
      <trkpt lat="46.55684" lon="0.34923">
        <ele>169.99</ele>
        <time>2018-09-16T08:20:01.000Z</time>
      </trkpt>
      <trkpt lat="46.5568" lon="0.34911">
        <ele>170.27</ele>
        <time>2018-09-16T08:20:03.000Z</time>
      </trkpt>
      <trkpt lat="46.55676" lon="0.34899">
        <ele>170.5</ele>
        <time>2018-09-16T08:20:05.000Z</time>
      </trkpt>
      <trkpt lat="46.55669" lon="0.34889">
        <ele>170.52</ele>
        <time>2018-09-16T08:20:09.000Z</time>
      </trkpt>
      <trkpt lat="46.55658" lon="0.34894">
        <ele>170.15</ele>
        <time>2018-09-16T08:20:13.000Z</time>
      </trkpt>
      <trkpt lat="46.5565" lon="0.34899">
        <ele>169.72</ele>
        <time>2018-09-16T08:20:15.000Z</time>
      </trkpt>
      <trkpt lat="46.55642" lon="0.34904">
        <ele>169.07</ele>
        <time>2018-09-16T08:20:17.000Z</time>
      </trkpt>
      <trkpt lat="46.55632" lon="0.34899">
        <ele>168.88</ele>
        <time>2018-09-16T08:20:22.000Z</time>
      </trkpt>
      <trkpt lat="46.55628" lon="0.34885">
        <ele>168.32</ele>
        <time>2018-09-16T08:20:25.000Z</time>
      </trkpt>
      <trkpt lat="46.55617" lon="0.34883">
        <ele>167.05</ele>
        <time>2018-09-16T08:20:28.000Z</time>
      </trkpt>
      <trkpt lat="46.55605" lon="0.34873">
        <ele>165.73</ele>
        <time>2018-09-16T08:20:31.000Z</time>
      </trkpt>
      <trkpt lat="46.55597" lon="0.34863">
        <ele>164.77</ele>
        <time>2018-09-16T08:20:33.000Z</time>
      </trkpt>
      <trkpt lat="46.55584" lon="0.34857">
        <ele>163.31</ele>
        <time>2018-09-16T08:20:35.000Z</time>
      </trkpt>
      <trkpt lat="46.5557" lon="0.34851">
        <ele>162.04</ele>
        <time>2018-09-16T08:20:37.000Z</time>
      </trkpt>
      <trkpt lat="46.55558" lon="0.34841">
        <ele>161.38</ele>
        <time>2018-09-16T08:20:39.000Z</time>
      </trkpt>
      <trkpt lat="46.55544" lon="0.34832">
        <ele>161.14</ele>
        <time>2018-09-16T08:20:41.000Z</time>
      </trkpt>
      <trkpt lat="46.55531" lon="0.34826">
        <ele>160.6</ele>
        <time>2018-09-16T08:20:43.000Z</time>
      </trkpt>
      <trkpt lat="46.55519" lon="0.34819">
        <ele>160.07</ele>
        <time>2018-09-16T08:20:45.000Z</time>
      </trkpt>
      <trkpt lat="46.55509" lon="0.34819">
        <ele>160.04</ele>
        <time>2018-09-16T08:20:47.000Z</time>
      </trkpt>
      <trkpt lat="46.55498" lon="0.34817">
        <ele>159.92</ele>
        <time>2018-09-16T08:20:49.000Z</time>
      </trkpt>
      <trkpt lat="46.55487" lon="0.34809">
        <ele>159.75</ele>
        <time>2018-09-16T08:20:52.000Z</time>
      </trkpt>
      <trkpt lat="46.55478" lon="0.34796">
        <ele>159.6</ele>
        <time>2018-09-16T08:20:54.000Z</time>
      </trkpt>
      <trkpt lat="46.55468" lon="0.34782">
        <ele>159.2</ele>
        <time>2018-09-16T08:20:56.000Z</time>
      </trkpt>
      <trkpt lat="46.55458" lon="0.34768">
        <ele>158.26</ele>
        <time>2018-09-16T08:20:58.000Z</time>
      </trkpt>
      <trkpt lat="46.5545" lon="0.34759">
        <ele>158</ele>
        <time>2018-09-16T08:21:00.000Z</time>
      </trkpt>
      <trkpt lat="46.55446" lon="0.34747">
        <ele>157.52</ele>
        <time>2018-09-16T08:21:02.000Z</time>
      </trkpt>
      <trkpt lat="46.55438" lon="0.34734">
        <ele>157.09</ele>
        <time>2018-09-16T08:21:04.000Z</time>
      </trkpt>
      <trkpt lat="46.55425" lon="0.34723">
        <ele>155.48</ele>
        <time>2018-09-16T08:21:07.000Z</time>
      </trkpt>
      <trkpt lat="46.55414" lon="0.34713">
        <ele>153.66</ele>
        <time>2018-09-16T08:21:09.000Z</time>
      </trkpt>
      <trkpt lat="46.55407" lon="0.34704">
        <ele>152.41</ele>
        <time>2018-09-16T08:21:11.000Z</time>
      </trkpt>
      <trkpt lat="46.55397" lon="0.347">
        <ele>151.98</ele>
        <time>2018-09-16T08:21:14.000Z</time>
      </trkpt>
      <trkpt lat="46.55399" lon="0.34686">
        <ele>150.84</ele>
        <time>2018-09-16T08:21:20.000Z</time>
      </trkpt>
      <trkpt lat="46.55405" lon="0.34672">
        <ele>148.19</ele>
        <time>2018-09-16T08:21:23.000Z</time>
      </trkpt>
      <trkpt lat="46.5541" lon="0.34656">
        <ele>143.11</ele>
        <time>2018-09-16T08:21:26.000Z</time>
      </trkpt>
      <trkpt lat="46.55414" lon="0.34643">
        <ele>140.84</ele>
        <time>2018-09-16T08:21:28.000Z</time>
      </trkpt>
      <trkpt lat="46.55419" lon="0.34628">
        <ele>139.17</ele>
        <time>2018-09-16T08:21:30.000Z</time>
      </trkpt>
      <trkpt lat="46.55422" lon="0.34614">
        <ele>137.84</ele>
        <time>2018-09-16T08:21:32.000Z</time>
      </trkpt>
      <trkpt lat="46.55425" lon="0.34602">
        <ele>136.3</ele>
        <time>2018-09-16T08:21:34.000Z</time>
      </trkpt>
      <trkpt lat="46.55429" lon="0.34587">
        <ele>135.09</ele>
        <time>2018-09-16T08:21:36.000Z</time>
      </trkpt>
      <trkpt lat="46.55431" lon="0.34574">
        <ele>134.31</ele>
        <time>2018-09-16T08:21:38.000Z</time>
      </trkpt>
      <trkpt lat="46.55434" lon="0.34559">
        <ele>133.87</ele>
        <time>2018-09-16T08:21:40.000Z</time>
      </trkpt>
      <trkpt lat="46.55436" lon="0.34542">
        <ele>133.68</ele>
        <time>2018-09-16T08:21:42.000Z</time>
      </trkpt>
      <trkpt lat="46.55438" lon="0.34526">
        <ele>133.61</ele>
        <time>2018-09-16T08:21:44.000Z</time>
      </trkpt>
      <trkpt lat="46.55438" lon="0.3451">
        <ele>133.52</ele>
        <time>2018-09-16T08:21:46.000Z</time>
      </trkpt>
      <trkpt lat="46.55435" lon="0.34495">
        <ele>133.35</ele>
        <time>2018-09-16T08:21:48.000Z</time>
      </trkpt>
      <trkpt lat="46.55431" lon="0.34479">
        <ele>133.34</ele>
        <time>2018-09-16T08:21:50.000Z</time>
      </trkpt>
      <trkpt lat="46.55424" lon="0.34468">
        <ele>133.46</ele>
        <time>2018-09-16T08:21:52.000Z</time>
      </trkpt>
      <trkpt lat="46.55416" lon="0.34456">
        <ele>133.85</ele>
        <time>2018-09-16T08:21:54.000Z</time>
      </trkpt>
      <trkpt lat="46.55408" lon="0.34444">
        <ele>134.09</ele>
        <time>2018-09-16T08:21:56.000Z</time>
      </trkpt>
      <trkpt lat="46.55398" lon="0.34435">
        <ele>134.37</ele>
        <time>2018-09-16T08:21:58.000Z</time>
      </trkpt>
      <trkpt lat="46.55388" lon="0.3443">
        <ele>134.33</ele>
        <time>2018-09-16T08:22:00.000Z</time>
      </trkpt>
      <trkpt lat="46.55377" lon="0.34427">
        <ele>135.01</ele>
        <time>2018-09-16T08:22:02.000Z</time>
      </trkpt>
      <trkpt lat="46.55368" lon="0.34423">
        <ele>135.52</ele>
        <time>2018-09-16T08:22:04.000Z</time>
      </trkpt>
      <trkpt lat="46.55355" lon="0.34421">
        <ele>136.08</ele>
        <time>2018-09-16T08:22:07.000Z</time>
      </trkpt>
      <trkpt lat="46.55343" lon="0.3442">
        <ele>137.56</ele>
        <time>2018-09-16T08:22:10.000Z</time>
      </trkpt>
      <trkpt lat="46.55333" lon="0.34422">
        <ele>138.33</ele>
        <time>2018-09-16T08:22:12.000Z</time>
      </trkpt>
      <trkpt lat="46.55323" lon="0.34423">
        <ele>139.38</ele>
        <time>2018-09-16T08:22:14.000Z</time>
      </trkpt>
      <trkpt lat="46.55309" lon="0.34423">
        <ele>139.57</ele>
        <time>2018-09-16T08:22:17.000Z</time>
      </trkpt>
      <trkpt lat="46.55299" lon="0.34423">
        <ele>139.18</ele>
        <time>2018-09-16T08:22:19.000Z</time>
      </trkpt>
      <trkpt lat="46.55288" lon="0.34422">
        <ele>138.61</ele>
        <time>2018-09-16T08:22:21.000Z</time>
      </trkpt>
      <trkpt lat="46.55277" lon="0.34419">
        <ele>137.83</ele>
        <time>2018-09-16T08:22:23.000Z</time>
      </trkpt>
      <trkpt lat="46.55267" lon="0.34416">
        <ele>137.38</ele>
        <time>2018-09-16T08:22:25.000Z</time>
      </trkpt>
      <trkpt lat="46.55256" lon="0.34413">
        <ele>137.54</ele>
        <time>2018-09-16T08:22:27.000Z</time>
      </trkpt>
      <trkpt lat="46.55243" lon="0.34411">
        <ele>137.59</ele>
        <time>2018-09-16T08:22:29.000Z</time>
      </trkpt>
      <trkpt lat="46.55231" lon="0.34408">
        <ele>138.59</ele>
        <time>2018-09-16T08:22:31.000Z</time>
      </trkpt>
      <trkpt lat="46.55221" lon="0.34406">
        <ele>140.59</ele>
        <time>2018-09-16T08:22:33.000Z</time>
      </trkpt>
      <trkpt lat="46.5521" lon="0.34404">
        <ele>142.55</ele>
        <time>2018-09-16T08:22:35.000Z</time>
      </trkpt>
      <trkpt lat="46.55199" lon="0.34402">
        <ele>143.67</ele>
        <time>2018-09-16T08:22:37.000Z</time>
      </trkpt>
      <trkpt lat="46.55189" lon="0.34399">
        <ele>144.08</ele>
        <time>2018-09-16T08:22:39.000Z</time>
      </trkpt>
      <trkpt lat="46.55179" lon="0.34397">
        <ele>143.86</ele>
        <time>2018-09-16T08:22:41.000Z</time>
      </trkpt>
      <trkpt lat="46.5517" lon="0.34394">
        <ele>142.3</ele>
        <time>2018-09-16T08:22:43.000Z</time>
      </trkpt>
      <trkpt lat="46.55158" lon="0.34387">
        <ele>140.38</ele>
        <time>2018-09-16T08:22:46.000Z</time>
      </trkpt>
      <trkpt lat="46.55144" lon="0.34382">
        <ele>139.07</ele>
        <time>2018-09-16T08:22:49.000Z</time>
      </trkpt>
      <trkpt lat="46.55131" lon="0.3438">
        <ele>137.57</ele>
        <time>2018-09-16T08:22:52.000Z</time>
      </trkpt>
      <trkpt lat="46.55119" lon="0.34377">
        <ele>137.15</ele>
        <time>2018-09-16T08:22:55.000Z</time>
      </trkpt>
      <trkpt lat="46.55111" lon="0.34369">
        <ele>135.88</ele>
        <time>2018-09-16T08:22:57.000Z</time>
      </trkpt>
      <trkpt lat="46.55101" lon="0.34361">
        <ele>134.76</ele>
        <time>2018-09-16T08:22:59.000Z</time>
      </trkpt>
      <trkpt lat="46.55091" lon="0.34355">
        <ele>133.73</ele>
        <time>2018-09-16T08:23:01.000Z</time>
      </trkpt>
      <trkpt lat="46.5508" lon="0.34351">
        <ele>133.09</ele>
        <time>2018-09-16T08:23:03.000Z</time>
      </trkpt>
      <trkpt lat="46.55071" lon="0.34348">
        <ele>132.52</ele>
        <time>2018-09-16T08:23:05.000Z</time>
      </trkpt>
      <trkpt lat="46.55059" lon="0.34344">
        <ele>132.14</ele>
        <time>2018-09-16T08:23:07.000Z</time>
      </trkpt>
      <trkpt lat="46.55048" lon="0.3434">
        <ele>132.36</ele>
        <time>2018-09-16T08:23:10.000Z</time>
      </trkpt>
      <trkpt lat="46.5505" lon="0.34356">
        <ele>131.2</ele>
        <time>2018-09-16T08:23:16.000Z</time>
      </trkpt>
      <trkpt lat="46.55052" lon="0.34373">
        <ele>131.18</ele>
        <time>2018-09-16T08:23:19.000Z</time>
      </trkpt>
      <trkpt lat="46.55057" lon="0.34387">
        <ele>130.52</ele>
        <time>2018-09-16T08:23:24.000Z</time>
      </trkpt>
      <trkpt lat="46.55063" lon="0.344">
        <ele>129</ele>
        <time>2018-09-16T08:23:27.000Z</time>
      </trkpt>
      <trkpt lat="46.55059" lon="0.34413">
        <ele>128.44</ele>
        <time>2018-09-16T08:23:29.000Z</time>
      </trkpt>
      <trkpt lat="46.55057" lon="0.34428">
        <ele>128.94</ele>
        <time>2018-09-16T08:23:31.000Z</time>
      </trkpt>
      <trkpt lat="46.55051" lon="0.34439">
        <ele>129.12</ele>
        <time>2018-09-16T08:23:34.000Z</time>
      </trkpt>
      <trkpt lat="46.55042" lon="0.34443">
        <ele>129.38</ele>
        <time>2018-09-16T08:23:38.000Z</time>
      </trkpt>
      <trkpt lat="46.55032" lon="0.34443">
        <ele>129.84</ele>
        <time>2018-09-16T08:23:42.000Z</time>
      </trkpt>
      <trkpt lat="46.55022" lon="0.34445">
        <ele>130.42</ele>
        <time>2018-09-16T08:23:46.000Z</time>
      </trkpt>
      <trkpt lat="46.55011" lon="0.34446">
        <ele>131.48</ele>
        <time>2018-09-16T08:23:52.000Z</time>
      </trkpt>
      <trkpt lat="46.55017" lon="0.34457">
        <ele>134.2</ele>
        <time>2018-09-16T08:24:06.000Z</time>
      </trkpt>
      <trkpt lat="46.55026" lon="0.34466">
        <ele>135.45</ele>
        <time>2018-09-16T08:24:12.000Z</time>
      </trkpt>
      <trkpt lat="46.55035" lon="0.34476">
        <ele>136.31</ele>
        <time>2018-09-16T08:24:16.000Z</time>
      </trkpt>
      <trkpt lat="46.55042" lon="0.34487">
        <ele>137.07</ele>
        <time>2018-09-16T08:24:19.000Z</time>
      </trkpt>
      <trkpt lat="46.55052" lon="0.34494">
        <ele>138.39</ele>
        <time>2018-09-16T08:24:24.000Z</time>
      </trkpt>
      <trkpt lat="46.55061" lon="0.34502">
        <ele>139.65</ele>
        <time>2018-09-16T08:24:29.000Z</time>
      </trkpt>
      <trkpt lat="46.55068" lon="0.34508">
        <ele>141.25</ele>
        <time>2018-09-16T08:24:35.000Z</time>
      </trkpt>
      <trkpt lat="46.55077" lon="0.34518">
        <ele>143.23</ele>
        <time>2018-09-16T08:24:42.000Z</time>
      </trkpt>
      <trkpt lat="46.55084" lon="0.34528">
        <ele>144.92</ele>
        <time>2018-09-16T08:24:48.000Z</time>
      </trkpt>
      <trkpt lat="46.55091" lon="0.34536">
        <ele>147.46</ele>
        <time>2018-09-16T08:24:56.000Z</time>
      </trkpt>
      <trkpt lat="46.55099" lon="0.34547">
        <ele>149.68</ele>
        <time>2018-09-16T08:25:04.000Z</time>
      </trkpt>
      <trkpt lat="46.55107" lon="0.34557">
        <ele>151.08</ele>
        <time>2018-09-16T08:25:11.000Z</time>
      </trkpt>
      <trkpt lat="46.55114" lon="0.34566">
        <ele>152.07</ele>
        <time>2018-09-16T08:25:15.000Z</time>
      </trkpt>
      <trkpt lat="46.5512" lon="0.34578">
        <ele>153.33</ele>
        <time>2018-09-16T08:25:21.000Z</time>
      </trkpt>
      <trkpt lat="46.55125" lon="0.3459">
        <ele>154.75</ele>
        <time>2018-09-16T08:25:29.000Z</time>
      </trkpt>
      <trkpt lat="46.55127" lon="0.34603">
        <ele>156.83</ele>
        <time>2018-09-16T08:25:38.000Z</time>
      </trkpt>
      <trkpt lat="46.55121" lon="0.34614">
        <ele>158.59</ele>
        <time>2018-09-16T08:25:45.000Z</time>
      </trkpt>
      <trkpt lat="46.55114" lon="0.34622">
        <ele>159.74</ele>
        <time>2018-09-16T08:25:50.000Z</time>
      </trkpt>
      <trkpt lat="46.55106" lon="0.34632">
        <ele>160.68</ele>
        <time>2018-09-16T08:25:55.000Z</time>
      </trkpt>
      <trkpt lat="46.55099" lon="0.3464">
        <ele>161.27</ele>
        <time>2018-09-16T08:25:59.000Z</time>
      </trkpt>
      <trkpt lat="46.55091" lon="0.34647">
        <ele>162.02</ele>
        <time>2018-09-16T08:26:03.000Z</time>
      </trkpt>
      <trkpt lat="46.55082" lon="0.34656">
        <ele>162.75</ele>
        <time>2018-09-16T08:26:07.000Z</time>
      </trkpt>
      <trkpt lat="46.55077" lon="0.34667">
        <ele>163.95</ele>
        <time>2018-09-16T08:26:14.000Z</time>
      </trkpt>
      <trkpt lat="46.55079" lon="0.34683">
        <ele>165.56</ele>
        <time>2018-09-16T08:26:21.000Z</time>
      </trkpt>
      <trkpt lat="46.55081" lon="0.34699">
        <ele>166.48</ele>
        <time>2018-09-16T08:26:25.000Z</time>
      </trkpt>
      <trkpt lat="46.55085" lon="0.34714">
        <ele>167.35</ele>
        <time>2018-09-16T08:26:29.000Z</time>
      </trkpt>
      <trkpt lat="46.55089" lon="0.34726">
        <ele>167.95</ele>
        <time>2018-09-16T08:26:32.000Z</time>
      </trkpt>
      <trkpt lat="46.55092" lon="0.34742">
        <ele>168.65</ele>
        <time>2018-09-16T08:26:36.000Z</time>
      </trkpt>
      <trkpt lat="46.55094" lon="0.34756">
        <ele>169.23</ele>
        <time>2018-09-16T08:26:39.000Z</time>
      </trkpt>
      <trkpt lat="46.55091" lon="0.3477">
        <ele>169.74</ele>
        <time>2018-09-16T08:26:42.000Z</time>
      </trkpt>
      <trkpt lat="46.55081" lon="0.34782">
        <ele>170.22</ele>
        <time>2018-09-16T08:26:45.000Z</time>
      </trkpt>
      <trkpt lat="46.55072" lon="0.34791">
        <ele>170.67</ele>
        <time>2018-09-16T08:26:48.000Z</time>
      </trkpt>
      <trkpt lat="46.55062" lon="0.348">
        <ele>171.06</ele>
        <time>2018-09-16T08:26:51.000Z</time>
      </trkpt>
      <trkpt lat="46.55052" lon="0.34807">
        <ele>171.3</ele>
        <time>2018-09-16T08:26:54.000Z</time>
      </trkpt>
      <trkpt lat="46.55043" lon="0.34816">
        <ele>171.4</ele>
        <time>2018-09-16T08:26:57.000Z</time>
      </trkpt>
      <trkpt lat="46.55031" lon="0.34825">
        <ele>171.13</ele>
        <time>2018-09-16T08:27:00.000Z</time>
      </trkpt>
      <trkpt lat="46.5502" lon="0.34831">
        <ele>171.2</ele>
        <time>2018-09-16T08:27:03.000Z</time>
      </trkpt>
      <trkpt lat="46.55009" lon="0.34838">
        <ele>171.23</ele>
        <time>2018-09-16T08:27:06.000Z</time>
      </trkpt>
      <trkpt lat="46.54998" lon="0.34845">
        <ele>171.52</ele>
        <time>2018-09-16T08:27:09.000Z</time>
      </trkpt>
      <trkpt lat="46.54987" lon="0.34851">
        <ele>172.34</ele>
        <time>2018-09-16T08:27:12.000Z</time>
      </trkpt>
      <trkpt lat="46.54976" lon="0.34856">
        <ele>173.06</ele>
        <time>2018-09-16T08:27:15.000Z</time>
      </trkpt>
      <trkpt lat="46.54965" lon="0.3486">
        <ele>173.12</ele>
        <time>2018-09-16T08:27:18.000Z</time>
      </trkpt>
      <trkpt lat="46.54955" lon="0.34866">
        <ele>173.16</ele>
        <time>2018-09-16T08:27:21.000Z</time>
      </trkpt>
      <trkpt lat="46.54946" lon="0.34873">
        <ele>173.2</ele>
        <time>2018-09-16T08:27:24.000Z</time>
      </trkpt>
      <trkpt lat="46.54936" lon="0.34882">
        <ele>173.37</ele>
        <time>2018-09-16T08:27:27.000Z</time>
      </trkpt>
      <trkpt lat="46.54924" lon="0.3489">
        <ele>173.16</ele>
        <time>2018-09-16T08:27:30.000Z</time>
      </trkpt>
      <trkpt lat="46.54912" lon="0.34898">
        <ele>172.49</ele>
        <time>2018-09-16T08:27:33.000Z</time>
      </trkpt>
      <trkpt lat="46.54903" lon="0.34903">
        <ele>172.5</ele>
        <time>2018-09-16T08:27:35.000Z</time>
      </trkpt>
      <trkpt lat="46.54894" lon="0.34909">
        <ele>172.25</ele>
        <time>2018-09-16T08:27:37.000Z</time>
      </trkpt>
      <trkpt lat="46.54885" lon="0.34913">
        <ele>172.13</ele>
        <time>2018-09-16T08:27:39.000Z</time>
      </trkpt>
      <trkpt lat="46.54871" lon="0.34921">
        <ele>172.34</ele>
        <time>2018-09-16T08:27:42.000Z</time>
      </trkpt>
      <trkpt lat="46.5486" lon="0.34928">
        <ele>172.9</ele>
        <time>2018-09-16T08:27:45.000Z</time>
      </trkpt>
      <trkpt lat="46.54847" lon="0.34936">
        <ele>173.38</ele>
        <time>2018-09-16T08:27:48.000Z</time>
      </trkpt>
      <trkpt lat="46.54839" lon="0.34943">
        <ele>174.05</ele>
        <time>2018-09-16T08:27:50.000Z</time>
      </trkpt>
      <trkpt lat="46.5483" lon="0.34948">
        <ele>174.88</ele>
        <time>2018-09-16T08:27:52.000Z</time>
      </trkpt>
      <trkpt lat="46.54821" lon="0.34954">
        <ele>176.06</ele>
        <time>2018-09-16T08:27:54.000Z</time>
      </trkpt>
      <trkpt lat="46.54812" lon="0.34959">
        <ele>177.78</ele>
        <time>2018-09-16T08:27:56.000Z</time>
      </trkpt>
      <trkpt lat="46.54802" lon="0.34966">
        <ele>179.58</ele>
        <time>2018-09-16T08:27:58.000Z</time>
      </trkpt>
      <trkpt lat="46.54793" lon="0.34973">
        <ele>181.4</ele>
        <time>2018-09-16T08:28:00.000Z</time>
      </trkpt>
      <trkpt lat="46.54784" lon="0.34978">
        <ele>182.44</ele>
        <time>2018-09-16T08:28:02.000Z</time>
      </trkpt>
      <trkpt lat="46.54775" lon="0.34983">
        <ele>183.89</ele>
        <time>2018-09-16T08:28:04.000Z</time>
      </trkpt>
      <trkpt lat="46.54765" lon="0.34989">
        <ele>184.81</ele>
        <time>2018-09-16T08:28:06.000Z</time>
      </trkpt>
      <trkpt lat="46.54755" lon="0.34996">
        <ele>184.9</ele>
        <time>2018-09-16T08:28:08.000Z</time>
      </trkpt>
      <trkpt lat="46.54744" lon="0.35001">
        <ele>184.78</ele>
        <time>2018-09-16T08:28:10.000Z</time>
      </trkpt>
      <trkpt lat="46.54734" lon="0.35006">
        <ele>184.56</ele>
        <time>2018-09-16T08:28:12.000Z</time>
      </trkpt>
      <trkpt lat="46.54723" lon="0.3501">
        <ele>184.34</ele>
        <time>2018-09-16T08:28:14.000Z</time>
      </trkpt>
      <trkpt lat="46.54713" lon="0.35014">
        <ele>184.11</ele>
        <time>2018-09-16T08:28:16.000Z</time>
      </trkpt>
      <trkpt lat="46.54703" lon="0.35017">
        <ele>183.7</ele>
        <time>2018-09-16T08:28:18.000Z</time>
      </trkpt>
      <trkpt lat="46.54694" lon="0.35021">
        <ele>183.65</ele>
        <time>2018-09-16T08:28:20.000Z</time>
      </trkpt>
      <trkpt lat="46.54682" lon="0.35021">
        <ele>183.9</ele>
        <time>2018-09-16T08:28:23.000Z</time>
      </trkpt>
      <trkpt lat="46.54671" lon="0.3503">
        <ele>183.84</ele>
        <time>2018-09-16T08:28:26.000Z</time>
      </trkpt>
      <trkpt lat="46.54663" lon="0.35046">
        <ele>183.09</ele>
        <time>2018-09-16T08:28:28.000Z</time>
      </trkpt>
      <trkpt lat="46.54652" lon="0.35063">
        <ele>181.64</ele>
        <time>2018-09-16T08:28:30.000Z</time>
      </trkpt>
      <trkpt lat="46.54645" lon="0.35081">
        <ele>180.47</ele>
        <time>2018-09-16T08:28:32.000Z</time>
      </trkpt>
      <trkpt lat="46.5464" lon="0.351">
        <ele>179.19</ele>
        <time>2018-09-16T08:28:34.000Z</time>
      </trkpt>
      <trkpt lat="46.54635" lon="0.35121">
        <ele>177.65</ele>
        <time>2018-09-16T08:28:36.000Z</time>
      </trkpt>
      <trkpt lat="46.54628" lon="0.35139">
        <ele>175.89</ele>
        <time>2018-09-16T08:28:38.000Z</time>
      </trkpt>
      <trkpt lat="46.54623" lon="0.35155">
        <ele>174.94</ele>
        <time>2018-09-16T08:28:40.000Z</time>
      </trkpt>
      <trkpt lat="46.54614" lon="0.35164">
        <ele>174.53</ele>
        <time>2018-09-16T08:28:45.000Z</time>
      </trkpt>
      <trkpt lat="46.54604" lon="0.35163">
        <ele>174.28</ele>
        <time>2018-09-16T08:28:49.000Z</time>
      </trkpt>
      <trkpt lat="46.54595" lon="0.35167">
        <ele>173.93</ele>
        <time>2018-09-16T08:28:55.000Z</time>
      </trkpt>
      <trkpt lat="46.54585" lon="0.35174">
        <ele>173.95</ele>
        <time>2018-09-16T08:28:58.000Z</time>
      </trkpt>
      <trkpt lat="46.54573" lon="0.35182">
        <ele>174.07</ele>
        <time>2018-09-16T08:29:01.000Z</time>
      </trkpt>
      <trkpt lat="46.54563" lon="0.3518">
        <ele>174.12</ele>
        <time>2018-09-16T08:29:04.000Z</time>
      </trkpt>
      <trkpt lat="46.54551" lon="0.3518">
        <ele>174.2</ele>
        <time>2018-09-16T08:29:07.000Z</time>
      </trkpt>
      <trkpt lat="46.5454" lon="0.35177">
        <ele>174.42</ele>
        <time>2018-09-16T08:29:10.000Z</time>
      </trkpt>
      <trkpt lat="46.54528" lon="0.35179">
        <ele>174.77</ele>
        <time>2018-09-16T08:29:13.000Z</time>
      </trkpt>
      <trkpt lat="46.54517" lon="0.35189">
        <ele>175.2</ele>
        <time>2018-09-16T08:29:16.000Z</time>
      </trkpt>
      <trkpt lat="46.54506" lon="0.35191">
        <ele>175.53</ele>
        <time>2018-09-16T08:29:18.000Z</time>
      </trkpt>
      <trkpt lat="46.54494" lon="0.35194">
        <ele>175.97</ele>
        <time>2018-09-16T08:29:21.000Z</time>
      </trkpt>
      <trkpt lat="46.54482" lon="0.35196">
        <ele>176.3</ele>
        <time>2018-09-16T08:29:24.000Z</time>
      </trkpt>
      <trkpt lat="46.54472" lon="0.35197">
        <ele>176.72</ele>
        <time>2018-09-16T08:29:27.000Z</time>
      </trkpt>
      <trkpt lat="46.54461" lon="0.35207">
        <ele>177.45</ele>
        <time>2018-09-16T08:29:31.000Z</time>
      </trkpt>
      <trkpt lat="46.54448" lon="0.35208">
        <ele>177.76</ele>
        <time>2018-09-16T08:29:33.000Z</time>
      </trkpt>
      <trkpt lat="46.54438" lon="0.35203">
        <ele>178</ele>
        <time>2018-09-16T08:29:35.000Z</time>
      </trkpt>
      <trkpt lat="46.54429" lon="0.35198">
        <ele>178.15</ele>
        <time>2018-09-16T08:29:37.000Z</time>
      </trkpt>
      <trkpt lat="46.54419" lon="0.35187">
        <ele>178.35</ele>
        <time>2018-09-16T08:29:40.000Z</time>
      </trkpt>
      <trkpt lat="46.54409" lon="0.35178">
        <ele>178.38</ele>
        <time>2018-09-16T08:29:43.000Z</time>
      </trkpt>
      <trkpt lat="46.54399" lon="0.35165">
        <ele>179.08</ele>
        <time>2018-09-16T08:29:46.000Z</time>
      </trkpt>
      <trkpt lat="46.54393" lon="0.35155">
        <ele>179.17</ele>
        <time>2018-09-16T08:29:48.000Z</time>
      </trkpt>
      <trkpt lat="46.54383" lon="0.3514">
        <ele>180.35</ele>
        <time>2018-09-16T08:29:51.000Z</time>
      </trkpt>
      <trkpt lat="46.54377" lon="0.35128">
        <ele>180.73</ele>
        <time>2018-09-16T08:29:53.000Z</time>
      </trkpt>
      <trkpt lat="46.54368" lon="0.35126">
        <ele>180.78</ele>
        <time>2018-09-16T08:29:56.000Z</time>
      </trkpt>
      <trkpt lat="46.54359" lon="0.35123">
        <ele>180.55</ele>
        <time>2018-09-16T08:29:58.000Z</time>
      </trkpt>
      <trkpt lat="46.5435" lon="0.35105">
        <ele>180.46</ele>
        <time>2018-09-16T08:30:01.000Z</time>
      </trkpt>
      <trkpt lat="46.54344" lon="0.35093">
        <ele>180.4</ele>
        <time>2018-09-16T08:30:04.000Z</time>
      </trkpt>
      <trkpt lat="46.54342" lon="0.3508">
        <ele>180.33</ele>
        <time>2018-09-16T08:30:06.000Z</time>
      </trkpt>
      <trkpt lat="46.54337" lon="0.35066">
        <ele>180.22</ele>
        <time>2018-09-16T08:30:08.000Z</time>
      </trkpt>
      <trkpt lat="46.54329" lon="0.35058">
        <ele>179.75</ele>
        <time>2018-09-16T08:30:13.000Z</time>
      </trkpt>
      <trkpt lat="46.54315" lon="0.35058">
        <ele>178.67</ele>
        <time>2018-09-16T08:30:16.000Z</time>
      </trkpt>
      <trkpt lat="46.54304" lon="0.35059">
        <ele>179.13</ele>
        <time>2018-09-16T08:30:18.000Z</time>
      </trkpt>
      <trkpt lat="46.54293" lon="0.35055">
        <ele>179.24</ele>
        <time>2018-09-16T08:30:20.000Z</time>
      </trkpt>
      <trkpt lat="46.54283" lon="0.35049">
        <ele>179.23</ele>
        <time>2018-09-16T08:30:22.000Z</time>
      </trkpt>
      <trkpt lat="46.54271" lon="0.35042">
        <ele>179.34</ele>
        <time>2018-09-16T08:30:25.000Z</time>
      </trkpt>
      <trkpt lat="46.54261" lon="0.35036">
        <ele>179.82</ele>
        <time>2018-09-16T08:30:27.000Z</time>
      </trkpt>
      <trkpt lat="46.5425" lon="0.3503">
        <ele>179.53</ele>
        <time>2018-09-16T08:30:30.000Z</time>
      </trkpt>
      <trkpt lat="46.54242" lon="0.35018">
        <ele>179.29</ele>
        <time>2018-09-16T08:30:33.000Z</time>
      </trkpt>
      <trkpt lat="46.54245" lon="0.35006">
        <ele>179.25</ele>
        <time>2018-09-16T08:30:36.000Z</time>
      </trkpt>
      <trkpt lat="46.54249" lon="0.34994">
        <ele>179.28</ele>
        <time>2018-09-16T08:30:39.000Z</time>
      </trkpt>
      <trkpt lat="46.5426" lon="0.34988">
        <ele>179.41</ele>
        <time>2018-09-16T08:30:46.000Z</time>
      </trkpt>
      <trkpt lat="46.5427" lon="0.34984">
        <ele>179.45</ele>
        <time>2018-09-16T08:30:50.000Z</time>
      </trkpt>
      <trkpt lat="46.5428" lon="0.34975">
        <ele>179.34</ele>
        <time>2018-09-16T08:30:54.000Z</time>
      </trkpt>
      <trkpt lat="46.5429" lon="0.34973">
        <ele>178.91</ele>
        <time>2018-09-16T08:30:57.000Z</time>
      </trkpt>
      <trkpt lat="46.54299" lon="0.34972">
        <ele>178.32</ele>
        <time>2018-09-16T08:31:00.000Z</time>
      </trkpt>
      <trkpt lat="46.54296" lon="0.34956">
        <ele>178.1</ele>
        <time>2018-09-16T08:31:05.000Z</time>
      </trkpt>
      <trkpt lat="46.54292" lon="0.34942">
        <ele>178.29</ele>
        <time>2018-09-16T08:31:08.000Z</time>
      </trkpt>
      <trkpt lat="46.54285" lon="0.34927">
        <ele>180.41</ele>
        <time>2018-09-16T08:31:11.000Z</time>
      </trkpt>
      <trkpt lat="46.54277" lon="0.34912">
        <ele>181.29</ele>
        <time>2018-09-16T08:31:14.000Z</time>
      </trkpt>
      <trkpt lat="46.5427" lon="0.34897">
        <ele>182.55</ele>
        <time>2018-09-16T08:31:17.000Z</time>
      </trkpt>
      <trkpt lat="46.54258" lon="0.34889">
        <ele>183.22</ele>
        <time>2018-09-16T08:31:20.000Z</time>
      </trkpt>
      <trkpt lat="46.54251" lon="0.34879">
        <ele>183.46</ele>
        <time>2018-09-16T08:31:22.000Z</time>
      </trkpt>
      <trkpt lat="46.54241" lon="0.34863">
        <ele>183.47</ele>
        <time>2018-09-16T08:31:25.000Z</time>
      </trkpt>
      <trkpt lat="46.54242" lon="0.34846">
        <ele>183.58</ele>
        <time>2018-09-16T08:31:28.000Z</time>
      </trkpt>
      <trkpt lat="46.54244" lon="0.34833">
        <ele>183.69</ele>
        <time>2018-09-16T08:31:30.000Z</time>
      </trkpt>
      <trkpt lat="46.54247" lon="0.34819">
        <ele>183.82</ele>
        <time>2018-09-16T08:31:35.000Z</time>
      </trkpt>
      <trkpt lat="46.54252" lon="0.34806">
        <ele>183.81</ele>
        <time>2018-09-16T08:31:39.000Z</time>
      </trkpt>
      <trkpt lat="46.54255" lon="0.3479">
        <ele>183.83</ele>
        <time>2018-09-16T08:31:42.000Z</time>
      </trkpt>
      <trkpt lat="46.54257" lon="0.34777">
        <ele>183.81</ele>
        <time>2018-09-16T08:31:45.000Z</time>
      </trkpt>
      <trkpt lat="46.54251" lon="0.34764">
        <ele>183.85</ele>
        <time>2018-09-16T08:31:49.000Z</time>
      </trkpt>
      <trkpt lat="46.54246" lon="0.34747">
        <ele>183.92</ele>
        <time>2018-09-16T08:31:52.000Z</time>
      </trkpt>
      <trkpt lat="46.54245" lon="0.3473">
        <ele>183.89</ele>
        <time>2018-09-16T08:31:55.000Z</time>
      </trkpt>
      <trkpt lat="46.54248" lon="0.34717">
        <ele>183.78</ele>
        <time>2018-09-16T08:31:59.000Z</time>
      </trkpt>
      <trkpt lat="46.54257" lon="0.34702">
        <ele>183.49</ele>
        <time>2018-09-16T08:32:02.000Z</time>
      </trkpt>
      <trkpt lat="46.54269" lon="0.347">
        <ele>182.73</ele>
        <time>2018-09-16T08:32:05.000Z</time>
      </trkpt>
      <trkpt lat="46.54277" lon="0.34693">
        <ele>182.05</ele>
        <time>2018-09-16T08:32:08.000Z</time>
      </trkpt>
      <trkpt lat="46.54284" lon="0.34683">
        <ele>180.12</ele>
        <time>2018-09-16T08:32:10.000Z</time>
      </trkpt>
      <trkpt lat="46.54292" lon="0.34669">
        <ele>179.81</ele>
        <time>2018-09-16T08:32:14.000Z</time>
      </trkpt>
      <trkpt lat="46.543" lon="0.3466">
        <ele>179.35</ele>
        <time>2018-09-16T08:32:16.000Z</time>
      </trkpt>
      <trkpt lat="46.54309" lon="0.34649">
        <ele>179.15</ele>
        <time>2018-09-16T08:32:19.000Z</time>
      </trkpt>
      <trkpt lat="46.54317" lon="0.3464">
        <ele>178.71</ele>
        <time>2018-09-16T08:32:22.000Z</time>
      </trkpt>
      <trkpt lat="46.54327" lon="0.34631">
        <ele>178.26</ele>
        <time>2018-09-16T08:32:25.000Z</time>
      </trkpt>
      <trkpt lat="46.54335" lon="0.34622">
        <ele>177.72</ele>
        <time>2018-09-16T08:32:28.000Z</time>
      </trkpt>
      <trkpt lat="46.54344" lon="0.34604">
        <ele>177.4</ele>
        <time>2018-09-16T08:32:31.000Z</time>
      </trkpt>
      <trkpt lat="46.54352" lon="0.34594">
        <ele>177.16</ele>
        <time>2018-09-16T08:32:33.000Z</time>
      </trkpt>
      <trkpt lat="46.54362" lon="0.34592">
        <ele>176.77</ele>
        <time>2018-09-16T08:32:36.000Z</time>
      </trkpt>
      <trkpt lat="46.54374" lon="0.34587">
        <ele>176.35</ele>
        <time>2018-09-16T08:32:39.000Z</time>
      </trkpt>
      <trkpt lat="46.54384" lon="0.34583">
        <ele>175.72</ele>
        <time>2018-09-16T08:32:43.000Z</time>
      </trkpt>
      <trkpt lat="46.54386" lon="0.3457">
        <ele>175.36</ele>
        <time>2018-09-16T08:32:47.000Z</time>
      </trkpt>
      <trkpt lat="46.54384" lon="0.34557">
        <ele>175.28</ele>
        <time>2018-09-16T08:32:49.000Z</time>
      </trkpt>
      <trkpt lat="46.54387" lon="0.34543">
        <ele>175.67</ele>
        <time>2018-09-16T08:32:52.000Z</time>
      </trkpt>
      <trkpt lat="46.54397" lon="0.34534">
        <ele>175.67</ele>
        <time>2018-09-16T08:32:55.000Z</time>
      </trkpt>
      <trkpt lat="46.54405" lon="0.34526">
        <ele>175.23</ele>
        <time>2018-09-16T08:32:57.000Z</time>
      </trkpt>
      <trkpt lat="46.54413" lon="0.3452">
        <ele>173.79</ele>
        <time>2018-09-16T08:32:59.000Z</time>
      </trkpt>
      <trkpt lat="46.54421" lon="0.34513">
        <ele>172.43</ele>
        <time>2018-09-16T08:33:01.000Z</time>
      </trkpt>
      <trkpt lat="46.54422" lon="0.34495">
        <ele>171.95</ele>
        <time>2018-09-16T08:33:04.000Z</time>
      </trkpt>
      <trkpt lat="46.54415" lon="0.34484">
        <ele>171.24</ele>
        <time>2018-09-16T08:33:06.000Z</time>
      </trkpt>
      <trkpt lat="46.54408" lon="0.34472">
        <ele>170.72</ele>
        <time>2018-09-16T08:33:08.000Z</time>
      </trkpt>
      <trkpt lat="46.54401" lon="0.34457">
        <ele>170.19</ele>
        <time>2018-09-16T08:33:10.000Z</time>
      </trkpt>
      <trkpt lat="46.54395" lon="0.34441">
        <ele>169.38</ele>
        <time>2018-09-16T08:33:12.000Z</time>
      </trkpt>
      <trkpt lat="46.5439" lon="0.34424">
        <ele>168.44</ele>
        <time>2018-09-16T08:33:14.000Z</time>
      </trkpt>
      <trkpt lat="46.54383" lon="0.3441">
        <ele>167.59</ele>
        <time>2018-09-16T08:33:16.000Z</time>
      </trkpt>
      <trkpt lat="46.54377" lon="0.34396">
        <ele>167.11</ele>
        <time>2018-09-16T08:33:18.000Z</time>
      </trkpt>
      <trkpt lat="46.54371" lon="0.34383">
        <ele>166.71</ele>
        <time>2018-09-16T08:33:20.000Z</time>
      </trkpt>
      <trkpt lat="46.54364" lon="0.34368">
        <ele>166.42</ele>
        <time>2018-09-16T08:33:22.000Z</time>
      </trkpt>
      <trkpt lat="46.54358" lon="0.34352">
        <ele>166.33</ele>
        <time>2018-09-16T08:33:24.000Z</time>
      </trkpt>
      <trkpt lat="46.5435" lon="0.34335">
        <ele>166.36</ele>
        <time>2018-09-16T08:33:26.000Z</time>
      </trkpt>
      <trkpt lat="46.54343" lon="0.34319">
        <ele>166.55</ele>
        <time>2018-09-16T08:33:28.000Z</time>
      </trkpt>
      <trkpt lat="46.54337" lon="0.34304">
        <ele>166.8</ele>
        <time>2018-09-16T08:33:30.000Z</time>
      </trkpt>
      <trkpt lat="46.54329" lon="0.34298">
        <ele>167.33</ele>
        <time>2018-09-16T08:33:32.000Z</time>
      </trkpt>
      <trkpt lat="46.54319" lon="0.34299">
        <ele>167.8</ele>
        <time>2018-09-16T08:33:34.000Z</time>
      </trkpt>
      <trkpt lat="46.54306" lon="0.34302">
        <ele>168.17</ele>
        <time>2018-09-16T08:33:37.000Z</time>
      </trkpt>
      <trkpt lat="46.54295" lon="0.343">
        <ele>169.71</ele>
        <time>2018-09-16T08:33:40.000Z</time>
      </trkpt>
      <trkpt lat="46.54282" lon="0.34297">
        <ele>171.15</ele>
        <time>2018-09-16T08:33:43.000Z</time>
      </trkpt>
      <trkpt lat="46.54271" lon="0.34293">
        <ele>172.22</ele>
        <time>2018-09-16T08:33:45.000Z</time>
      </trkpt>
      <trkpt lat="46.54261" lon="0.34289">
        <ele>173.47</ele>
        <time>2018-09-16T08:33:47.000Z</time>
      </trkpt>
      <trkpt lat="46.5425" lon="0.34285">
        <ele>174.71</ele>
        <time>2018-09-16T08:33:49.000Z</time>
      </trkpt>
      <trkpt lat="46.54237" lon="0.34281">
        <ele>175.89</ele>
        <time>2018-09-16T08:33:51.000Z</time>
      </trkpt>
      <trkpt lat="46.54225" lon="0.34278">
        <ele>176.85</ele>
        <time>2018-09-16T08:33:53.000Z</time>
      </trkpt>
      <trkpt lat="46.54215" lon="0.34275">
        <ele>177.39</ele>
        <time>2018-09-16T08:33:55.000Z</time>
      </trkpt>
      <trkpt lat="46.54205" lon="0.34274">
        <ele>177.54</ele>
        <time>2018-09-16T08:33:58.000Z</time>
      </trkpt>
      <trkpt lat="46.54196" lon="0.34275">
        <ele>177.68</ele>
        <time>2018-09-16T08:34:00.000Z</time>
      </trkpt>
      <trkpt lat="46.54186" lon="0.34276">
        <ele>178.37</ele>
        <time>2018-09-16T08:34:02.000Z</time>
      </trkpt>
      <trkpt lat="46.54174" lon="0.34277">
        <ele>179.63</ele>
        <time>2018-09-16T08:34:04.000Z</time>
      </trkpt>
      <trkpt lat="46.5416" lon="0.3428">
        <ele>180.17</ele>
        <time>2018-09-16T08:34:06.000Z</time>
      </trkpt>
      <trkpt lat="46.54147" lon="0.34285">
        <ele>179.38</ele>
        <time>2018-09-16T08:34:08.000Z</time>
      </trkpt>
      <trkpt lat="46.54138" lon="0.34295">
        <ele>178.35</ele>
        <time>2018-09-16T08:34:10.000Z</time>
      </trkpt>
      <trkpt lat="46.54124" lon="0.34308">
        <ele>176.69</ele>
        <time>2018-09-16T08:34:12.000Z</time>
      </trkpt>
      <trkpt lat="46.54112" lon="0.34319">
        <ele>174.44</ele>
        <time>2018-09-16T08:34:14.000Z</time>
      </trkpt>
      <trkpt lat="46.54101" lon="0.34332">
        <ele>172.35</ele>
        <time>2018-09-16T08:34:16.000Z</time>
      </trkpt>
      <trkpt lat="46.54088" lon="0.34345">
        <ele>170.24</ele>
        <time>2018-09-16T08:34:18.000Z</time>
      </trkpt>
      <trkpt lat="46.54076" lon="0.34357">
        <ele>167.9</ele>
        <time>2018-09-16T08:34:20.000Z</time>
      </trkpt>
      <trkpt lat="46.54065" lon="0.34365">
        <ele>166.25</ele>
        <time>2018-09-16T08:34:22.000Z</time>
      </trkpt>
      <trkpt lat="46.54056" lon="0.34372">
        <ele>165.99</ele>
        <time>2018-09-16T08:34:27.000Z</time>
      </trkpt>
      <trkpt lat="46.54056" lon="0.34358">
        <ele>165.51</ele>
        <time>2018-09-16T08:34:34.000Z</time>
      </trkpt>
      <trkpt lat="46.5406" lon="0.34347">
        <ele>165.18</ele>
        <time>2018-09-16T08:34:39.000Z</time>
      </trkpt>
      <trkpt lat="46.54065" lon="0.34335">
        <ele>164.95</ele>
        <time>2018-09-16T08:34:46.000Z</time>
      </trkpt>
      <trkpt lat="46.54071" lon="0.34323">
        <ele>165.07</ele>
        <time>2018-09-16T08:34:52.000Z</time>
      </trkpt>
      <trkpt lat="46.54077" lon="0.34312">
        <ele>165.32</ele>
        <time>2018-09-16T08:34:58.000Z</time>
      </trkpt>
      <trkpt lat="46.54083" lon="0.34302">
        <ele>165.42</ele>
        <time>2018-09-16T08:35:04.000Z</time>
      </trkpt>
      <trkpt lat="46.54089" lon="0.34291">
        <ele>165.7</ele>
        <time>2018-09-16T08:35:11.000Z</time>
      </trkpt>
      <trkpt lat="46.54093" lon="0.34279">
        <ele>166.1</ele>
        <time>2018-09-16T08:35:15.000Z</time>
      </trkpt>
      <trkpt lat="46.541" lon="0.34271">
        <ele>166.2</ele>
        <time>2018-09-16T08:35:19.000Z</time>
      </trkpt>
      <trkpt lat="46.54105" lon="0.34258">
        <ele>166.25</ele>
        <time>2018-09-16T08:35:25.000Z</time>
      </trkpt>
      <trkpt lat="46.54112" lon="0.34248">
        <ele>166.56</ele>
        <time>2018-09-16T08:35:32.000Z</time>
      </trkpt>
      <trkpt lat="46.54117" lon="0.34237">
        <ele>167.52</ele>
        <time>2018-09-16T08:35:38.000Z</time>
      </trkpt>
      <trkpt lat="46.54124" lon="0.34222">
        <ele>167.98</ele>
        <time>2018-09-16T08:35:41.000Z</time>
      </trkpt>
      <trkpt lat="46.54126" lon="0.34209">
        <ele>170.49</ele>
        <time>2018-09-16T08:35:43.000Z</time>
      </trkpt>
      <trkpt lat="46.54129" lon="0.34196">
        <ele>172.34</ele>
        <time>2018-09-16T08:35:45.000Z</time>
      </trkpt>
      <trkpt lat="46.54131" lon="0.3418">
        <ele>172.58</ele>
        <time>2018-09-16T08:35:49.000Z</time>
      </trkpt>
      <trkpt lat="46.54137" lon="0.34166">
        <ele>172.59</ele>
        <time>2018-09-16T08:35:54.000Z</time>
      </trkpt>
      <trkpt lat="46.54142" lon="0.34154">
        <ele>172.8</ele>
        <time>2018-09-16T08:35:58.000Z</time>
      </trkpt>
      <trkpt lat="46.54149" lon="0.34143">
        <ele>173.04</ele>
        <time>2018-09-16T08:36:02.000Z</time>
      </trkpt>
      <trkpt lat="46.54155" lon="0.34132">
        <ele>173.22</ele>
        <time>2018-09-16T08:36:06.000Z</time>
      </trkpt>
      <trkpt lat="46.54162" lon="0.34118">
        <ele>173.31</ele>
        <time>2018-09-16T08:36:10.000Z</time>
      </trkpt>
      <trkpt lat="46.54167" lon="0.34102">
        <ele>173.57</ele>
        <time>2018-09-16T08:36:14.000Z</time>
      </trkpt>
      <trkpt lat="46.54172" lon="0.3409">
        <ele>173.74</ele>
        <time>2018-09-16T08:36:18.000Z</time>
      </trkpt>
      <trkpt lat="46.54172" lon="0.34074">
        <ele>173.88</ele>
        <time>2018-09-16T08:36:21.000Z</time>
      </trkpt>
      <trkpt lat="46.54177" lon="0.34059">
        <ele>174.2</ele>
        <time>2018-09-16T08:36:25.000Z</time>
      </trkpt>
      <trkpt lat="46.54182" lon="0.34046">
        <ele>174.52</ele>
        <time>2018-09-16T08:36:29.000Z</time>
      </trkpt>
      <trkpt lat="46.54183" lon="0.34031">
        <ele>174.95</ele>
        <time>2018-09-16T08:36:33.000Z</time>
      </trkpt>
      <trkpt lat="46.54181" lon="0.34016">
        <ele>175.33</ele>
        <time>2018-09-16T08:36:36.000Z</time>
      </trkpt>
      <trkpt lat="46.54179" lon="0.34">
        <ele>175.78</ele>
        <time>2018-09-16T08:36:39.000Z</time>
      </trkpt>
      <trkpt lat="46.54182" lon="0.33985">
        <ele>176.07</ele>
        <time>2018-09-16T08:36:42.000Z</time>
      </trkpt>
      <trkpt lat="46.54187" lon="0.3397">
        <ele>176.08</ele>
        <time>2018-09-16T08:36:44.000Z</time>
      </trkpt>
      <trkpt lat="46.54194" lon="0.33955">
        <ele>175.88</ele>
        <time>2018-09-16T08:36:47.000Z</time>
      </trkpt>
      <trkpt lat="46.54195" lon="0.33938">
        <ele>175.46</ele>
        <time>2018-09-16T08:36:50.000Z</time>
      </trkpt>
      <trkpt lat="46.54192" lon="0.33921">
        <ele>173.23</ele>
        <time>2018-09-16T08:36:53.000Z</time>
      </trkpt>
      <trkpt lat="46.5419" lon="0.33906">
        <ele>170.31</ele>
        <time>2018-09-16T08:36:55.000Z</time>
      </trkpt>
      <trkpt lat="46.54189" lon="0.33892">
        <ele>167.82</ele>
        <time>2018-09-16T08:36:57.000Z</time>
      </trkpt>
      <trkpt lat="46.54187" lon="0.33877">
        <ele>166.09</ele>
        <time>2018-09-16T08:36:59.000Z</time>
      </trkpt>
      <trkpt lat="46.54184" lon="0.33859">
        <ele>164.4</ele>
        <time>2018-09-16T08:37:01.000Z</time>
      </trkpt>
      <trkpt lat="46.54181" lon="0.33839">
        <ele>163.03</ele>
        <time>2018-09-16T08:37:03.000Z</time>
      </trkpt>
      <trkpt lat="46.54183" lon="0.33817">
        <ele>161.63</ele>
        <time>2018-09-16T08:37:05.000Z</time>
      </trkpt>
      <trkpt lat="46.54189" lon="0.33797">
        <ele>160.75</ele>
        <time>2018-09-16T08:37:07.000Z</time>
      </trkpt>
      <trkpt lat="46.54194" lon="0.33777">
        <ele>159.75</ele>
        <time>2018-09-16T08:37:09.000Z</time>
      </trkpt>
      <trkpt lat="46.542" lon="0.33757">
        <ele>158.93</ele>
        <time>2018-09-16T08:37:11.000Z</time>
      </trkpt>
      <trkpt lat="46.54208" lon="0.33739">
        <ele>158.37</ele>
        <time>2018-09-16T08:37:13.000Z</time>
      </trkpt>
      <trkpt lat="46.54216" lon="0.33722">
        <ele>157.46</ele>
        <time>2018-09-16T08:37:15.000Z</time>
      </trkpt>
      <trkpt lat="46.54227" lon="0.33706">
        <ele>156.75</ele>
        <time>2018-09-16T08:37:17.000Z</time>
      </trkpt>
      <trkpt lat="46.54241" lon="0.33692">
        <ele>156.38</ele>
        <time>2018-09-16T08:37:19.000Z</time>
      </trkpt>
      <trkpt lat="46.54255" lon="0.33677">
        <ele>155.83</ele>
        <time>2018-09-16T08:37:21.000Z</time>
      </trkpt>
      <trkpt lat="46.54263" lon="0.3367">
        <ele>155.59</ele>
        <time>2018-09-16T08:37:22.000Z</time>
      </trkpt>
      <trkpt lat="46.5427" lon="0.33662">
        <ele>155.48</ele>
        <time>2018-09-16T08:37:23.000Z</time>
      </trkpt>
      <trkpt lat="46.54278" lon="0.33655">
        <ele>155.33</ele>
        <time>2018-09-16T08:37:24.000Z</time>
      </trkpt>
      <trkpt lat="46.54293" lon="0.33642">
        <ele>155.07</ele>
        <time>2018-09-16T08:37:26.000Z</time>
      </trkpt>
      <trkpt lat="46.54309" lon="0.33629">
        <ele>154.9</ele>
        <time>2018-09-16T08:37:28.000Z</time>
      </trkpt>
      <trkpt lat="46.54317" lon="0.33623">
        <ele>154.8</ele>
        <time>2018-09-16T08:37:29.000Z</time>
      </trkpt>
      <trkpt lat="46.54325" lon="0.33617">
        <ele>154.58</ele>
        <time>2018-09-16T08:37:30.000Z</time>
      </trkpt>
      <trkpt lat="46.54334" lon="0.33613">
        <ele>154.42</ele>
        <time>2018-09-16T08:37:31.000Z</time>
      </trkpt>
      <trkpt lat="46.54343" lon="0.33611">
        <ele>154.3</ele>
        <time>2018-09-16T08:37:32.000Z</time>
      </trkpt>
      <trkpt lat="46.54352" lon="0.3361">
        <ele>154.22</ele>
        <time>2018-09-16T08:37:33.000Z</time>
      </trkpt>
      <trkpt lat="46.54369" lon="0.33609">
        <ele>154.16</ele>
        <time>2018-09-16T08:37:35.000Z</time>
      </trkpt>
      <trkpt lat="46.54386" lon="0.33609">
        <ele>153.97</ele>
        <time>2018-09-16T08:37:37.000Z</time>
      </trkpt>
      <trkpt lat="46.54401" lon="0.33612">
        <ele>153.55</ele>
        <time>2018-09-16T08:37:39.000Z</time>
      </trkpt>
      <trkpt lat="46.54416" lon="0.33612">
        <ele>153.2</ele>
        <time>2018-09-16T08:37:41.000Z</time>
      </trkpt>
      <trkpt lat="46.54429" lon="0.33614">
        <ele>152.99</ele>
        <time>2018-09-16T08:37:43.000Z</time>
      </trkpt>
      <trkpt lat="46.5444" lon="0.33614">
        <ele>153</ele>
        <time>2018-09-16T08:37:45.000Z</time>
      </trkpt>
      <trkpt lat="46.54449" lon="0.33613">
        <ele>153.3</ele>
        <time>2018-09-16T08:37:47.000Z</time>
      </trkpt>
      <trkpt lat="46.54462" lon="0.33614">
        <ele>153.5</ele>
        <time>2018-09-16T08:37:50.000Z</time>
      </trkpt>
      <trkpt lat="46.54471" lon="0.33614">
        <ele>153.8</ele>
        <time>2018-09-16T08:37:52.000Z</time>
      </trkpt>
      <trkpt lat="46.54482" lon="0.33613">
        <ele>154.07</ele>
        <time>2018-09-16T08:37:54.000Z</time>
      </trkpt>
      <trkpt lat="46.54493" lon="0.33615">
        <ele>154.39</ele>
        <time>2018-09-16T08:37:56.000Z</time>
      </trkpt>
      <trkpt lat="46.54504" lon="0.33617">
        <ele>154.86</ele>
        <time>2018-09-16T08:37:58.000Z</time>
      </trkpt>
      <trkpt lat="46.54514" lon="0.33622">
        <ele>155.28</ele>
        <time>2018-09-16T08:38:00.000Z</time>
      </trkpt>
      <trkpt lat="46.54525" lon="0.33627">
        <ele>155.7</ele>
        <time>2018-09-16T08:38:02.000Z</time>
      </trkpt>
      <trkpt lat="46.54536" lon="0.33634">
        <ele>156.13</ele>
        <time>2018-09-16T08:38:04.000Z</time>
      </trkpt>
      <trkpt lat="46.54548" lon="0.33639">
        <ele>156.65</ele>
        <time>2018-09-16T08:38:06.000Z</time>
      </trkpt>
      <trkpt lat="46.54559" lon="0.33645">
        <ele>157.16</ele>
        <time>2018-09-16T08:38:08.000Z</time>
      </trkpt>
      <trkpt lat="46.5457" lon="0.3365">
        <ele>157.6</ele>
        <time>2018-09-16T08:38:10.000Z</time>
      </trkpt>
      <trkpt lat="46.5458" lon="0.33654">
        <ele>157.62</ele>
        <time>2018-09-16T08:38:12.000Z</time>
      </trkpt>
      <trkpt lat="46.54587" lon="0.3364">
        <ele>157.12</ele>
        <time>2018-09-16T08:38:15.000Z</time>
      </trkpt>
      <trkpt lat="46.5459" lon="0.33624">
        <ele>156.16</ele>
        <time>2018-09-16T08:38:17.000Z</time>
      </trkpt>
      <trkpt lat="46.54592" lon="0.33609">
        <ele>154.83</ele>
        <time>2018-09-16T08:38:19.000Z</time>
      </trkpt>
      <trkpt lat="46.54602" lon="0.33602">
        <ele>152.78</ele>
        <time>2018-09-16T08:38:22.000Z</time>
      </trkpt>
      <trkpt lat="46.54612" lon="0.33611">
        <ele>151.31</ele>
        <time>2018-09-16T08:38:24.000Z</time>
      </trkpt>
      <trkpt lat="46.54622" lon="0.33619">
        <ele>150.09</ele>
        <time>2018-09-16T08:38:26.000Z</time>
      </trkpt>
      <trkpt lat="46.54632" lon="0.33627">
        <ele>149.36</ele>
        <time>2018-09-16T08:38:28.000Z</time>
      </trkpt>
      <trkpt lat="46.54642" lon="0.33635">
        <ele>149.2</ele>
        <time>2018-09-16T08:38:30.000Z</time>
      </trkpt>
      <trkpt lat="46.54653" lon="0.3364">
        <ele>149.4</ele>
        <time>2018-09-16T08:38:32.000Z</time>
      </trkpt>
      <trkpt lat="46.54665" lon="0.33642">
        <ele>149.87</ele>
        <time>2018-09-16T08:38:34.000Z</time>
      </trkpt>
      <trkpt lat="46.54676" lon="0.33641">
        <ele>150.24</ele>
        <time>2018-09-16T08:38:36.000Z</time>
      </trkpt>
      <trkpt lat="46.54686" lon="0.33639">
        <ele>150.24</ele>
        <time>2018-09-16T08:38:38.000Z</time>
      </trkpt>
      <trkpt lat="46.54694" lon="0.33634">
        <ele>150.2</ele>
        <time>2018-09-16T08:38:41.000Z</time>
      </trkpt>
      <trkpt lat="46.54703" lon="0.33631">
        <ele>150.19</ele>
        <time>2018-09-16T08:38:46.000Z</time>
      </trkpt>
      <trkpt lat="46.54714" lon="0.33619">
        <ele>149.93</ele>
        <time>2018-09-16T08:38:49.000Z</time>
      </trkpt>
      <trkpt lat="46.54721" lon="0.3361">
        <ele>149.81</ele>
        <time>2018-09-16T08:38:51.000Z</time>
      </trkpt>
      <trkpt lat="46.54728" lon="0.33598">
        <ele>149.64</ele>
        <time>2018-09-16T08:38:53.000Z</time>
      </trkpt>
      <trkpt lat="46.54735" lon="0.33586">
        <ele>149.63</ele>
        <time>2018-09-16T08:38:55.000Z</time>
      </trkpt>
      <trkpt lat="46.54742" lon="0.33574">
        <ele>149.7</ele>
        <time>2018-09-16T08:38:57.000Z</time>
      </trkpt>
      <trkpt lat="46.5475" lon="0.33558">
        <ele>149.91</ele>
        <time>2018-09-16T08:38:59.000Z</time>
      </trkpt>
      <trkpt lat="46.54758" lon="0.33544">
        <ele>149.85</ele>
        <time>2018-09-16T08:39:01.000Z</time>
      </trkpt>
      <trkpt lat="46.54766" lon="0.33529">
        <ele>149.38</ele>
        <time>2018-09-16T08:39:03.000Z</time>
      </trkpt>
      <trkpt lat="46.54774" lon="0.33514">
        <ele>148.92</ele>
        <time>2018-09-16T08:39:05.000Z</time>
      </trkpt>
      <trkpt lat="46.54782" lon="0.335">
        <ele>148.38</ele>
        <time>2018-09-16T08:39:07.000Z</time>
      </trkpt>
      <trkpt lat="46.54789" lon="0.33487">
        <ele>147.74</ele>
        <time>2018-09-16T08:39:09.000Z</time>
      </trkpt>
      <trkpt lat="46.54796" lon="0.33474">
        <ele>147.12</ele>
        <time>2018-09-16T08:39:11.000Z</time>
      </trkpt>
      <trkpt lat="46.54802" lon="0.33461">
        <ele>146.61</ele>
        <time>2018-09-16T08:39:13.000Z</time>
      </trkpt>
      <trkpt lat="46.54808" lon="0.3345">
        <ele>146.08</ele>
        <time>2018-09-16T08:39:15.000Z</time>
      </trkpt>
      <trkpt lat="46.54815" lon="0.33438">
        <ele>145.5</ele>
        <time>2018-09-16T08:39:17.000Z</time>
      </trkpt>
      <trkpt lat="46.54822" lon="0.33426">
        <ele>145</ele>
        <time>2018-09-16T08:39:19.000Z</time>
      </trkpt>
      <trkpt lat="46.54828" lon="0.33414">
        <ele>144.41</ele>
        <time>2018-09-16T08:39:21.000Z</time>
      </trkpt>
      <trkpt lat="46.54835" lon="0.33402">
        <ele>143.98</ele>
        <time>2018-09-16T08:39:23.000Z</time>
      </trkpt>
      <trkpt lat="46.54843" lon="0.33392">
        <ele>143.69</ele>
        <time>2018-09-16T08:39:25.000Z</time>
      </trkpt>
      <trkpt lat="46.54851" lon="0.33382">
        <ele>143.28</ele>
        <time>2018-09-16T08:39:27.000Z</time>
      </trkpt>
      <trkpt lat="46.54862" lon="0.33371">
        <ele>142.92</ele>
        <time>2018-09-16T08:39:29.000Z</time>
      </trkpt>
      <trkpt lat="46.54874" lon="0.33359">
        <ele>142.87</ele>
        <time>2018-09-16T08:39:31.000Z</time>
      </trkpt>
      <trkpt lat="46.54887" lon="0.33348">
        <ele>143.27</ele>
        <time>2018-09-16T08:39:33.000Z</time>
      </trkpt>
      <trkpt lat="46.549" lon="0.3334">
        <ele>143.76</ele>
        <time>2018-09-16T08:39:35.000Z</time>
      </trkpt>
      <trkpt lat="46.54913" lon="0.33336">
        <ele>144.62</ele>
        <time>2018-09-16T08:39:37.000Z</time>
      </trkpt>
      <trkpt lat="46.54924" lon="0.33335">
        <ele>145.39</ele>
        <time>2018-09-16T08:39:39.000Z</time>
      </trkpt>
      <trkpt lat="46.54933" lon="0.33338">
        <ele>145.57</ele>
        <time>2018-09-16T08:39:43.000Z</time>
      </trkpt>
      <trkpt lat="46.54942" lon="0.3334">
        <ele>145.97</ele>
        <time>2018-09-16T08:39:51.000Z</time>
      </trkpt>
      <trkpt lat="46.54933" lon="0.33334">
        <ele>149.81</ele>
        <time>2018-09-16T08:40:13.000Z</time>
      </trkpt>
      <trkpt lat="46.54927" lon="0.33323">
        <ele>151.28</ele>
        <time>2018-09-16T08:40:18.000Z</time>
      </trkpt>
      <trkpt lat="46.54918" lon="0.33316">
        <ele>153.21</ele>
        <time>2018-09-16T08:40:24.000Z</time>
      </trkpt>
      <trkpt lat="46.54913" lon="0.33305">
        <ele>155.71</ele>
        <time>2018-09-16T08:40:31.000Z</time>
      </trkpt>
      <trkpt lat="46.54905" lon="0.33296">
        <ele>157.77</ele>
        <time>2018-09-16T08:40:38.000Z</time>
      </trkpt>
      <trkpt lat="46.54897" lon="0.33287">
        <ele>159.16</ele>
        <time>2018-09-16T08:40:44.000Z</time>
      </trkpt>
      <trkpt lat="46.5489" lon="0.33276">
        <ele>160.51</ele>
        <time>2018-09-16T08:40:50.000Z</time>
      </trkpt>
      <trkpt lat="46.54884" lon="0.33265">
        <ele>162.61</ele>
        <time>2018-09-16T08:40:58.000Z</time>
      </trkpt>
      <trkpt lat="46.54877" lon="0.33255">
        <ele>164.27</ele>
        <time>2018-09-16T08:41:06.000Z</time>
      </trkpt>
      <trkpt lat="46.5487" lon="0.33245">
        <ele>165.32</ele>
        <time>2018-09-16T08:41:12.000Z</time>
      </trkpt>
      <trkpt lat="46.54863" lon="0.33236">
        <ele>166.85</ele>
        <time>2018-09-16T08:41:20.000Z</time>
      </trkpt>
      <trkpt lat="46.54857" lon="0.33225">
        <ele>168.39</ele>
        <time>2018-09-16T08:41:26.000Z</time>
      </trkpt>
      <trkpt lat="46.54851" lon="0.33214">
        <ele>169.73</ele>
        <time>2018-09-16T08:41:32.000Z</time>
      </trkpt>
      <trkpt lat="46.54846" lon="0.33201">
        <ele>171.3</ele>
        <time>2018-09-16T08:41:39.000Z</time>
      </trkpt>
      <trkpt lat="46.54843" lon="0.33188">
        <ele>172.16</ele>
        <time>2018-09-16T08:41:44.000Z</time>
      </trkpt>
      <trkpt lat="46.54839" lon="0.33176">
        <ele>172.67</ele>
        <time>2018-09-16T08:41:48.000Z</time>
      </trkpt>
      <trkpt lat="46.54835" lon="0.33162">
        <ele>173.43</ele>
        <time>2018-09-16T08:41:53.000Z</time>
      </trkpt>
      <trkpt lat="46.54831" lon="0.33147">
        <ele>174.07</ele>
        <time>2018-09-16T08:41:57.000Z</time>
      </trkpt>
      <trkpt lat="46.54828" lon="0.33134">
        <ele>174.72</ele>
        <time>2018-09-16T08:42:01.000Z</time>
      </trkpt>
      <trkpt lat="46.54826" lon="0.33118">
        <ele>175.73</ele>
        <time>2018-09-16T08:42:06.000Z</time>
      </trkpt>
      <trkpt lat="46.54824" lon="0.33102">
        <ele>177.07</ele>
        <time>2018-09-16T08:42:11.000Z</time>
      </trkpt>
      <trkpt lat="46.54821" lon="0.33088">
        <ele>178.25</ele>
        <time>2018-09-16T08:42:15.000Z</time>
      </trkpt>
      <trkpt lat="46.54818" lon="0.33073">
        <ele>179.52</ele>
        <time>2018-09-16T08:42:19.000Z</time>
      </trkpt>
      <trkpt lat="46.54816" lon="0.3306">
        <ele>180.41</ele>
        <time>2018-09-16T08:42:22.000Z</time>
      </trkpt>
      <trkpt lat="46.54813" lon="0.33045">
        <ele>181.61</ele>
        <time>2018-09-16T08:42:26.000Z</time>
      </trkpt>
      <trkpt lat="46.54812" lon="0.33027">
        <ele>182.72</ele>
        <time>2018-09-16T08:42:30.000Z</time>
      </trkpt>
      <trkpt lat="46.54813" lon="0.33013">
        <ele>183.46</ele>
        <time>2018-09-16T08:42:33.000Z</time>
      </trkpt>
      <trkpt lat="46.54813" lon="0.32998">
        <ele>184.1</ele>
        <time>2018-09-16T08:42:36.000Z</time>
      </trkpt>
      <trkpt lat="46.54812" lon="0.32982">
        <ele>184.65</ele>
        <time>2018-09-16T08:42:39.000Z</time>
      </trkpt>
      <trkpt lat="46.54811" lon="0.32965">
        <ele>185.14</ele>
        <time>2018-09-16T08:42:42.000Z</time>
      </trkpt>
      <trkpt lat="46.54811" lon="0.3295">
        <ele>185.67</ele>
        <time>2018-09-16T08:42:45.000Z</time>
      </trkpt>
      <trkpt lat="46.54811" lon="0.32932">
        <ele>186.88</ele>
        <time>2018-09-16T08:42:48.000Z</time>
      </trkpt>
      <trkpt lat="46.5481" lon="0.32918">
        <ele>188.09</ele>
        <time>2018-09-16T08:42:50.000Z</time>
      </trkpt>
      <trkpt lat="46.54807" lon="0.32906">
        <ele>188.59</ele>
        <time>2018-09-16T08:42:52.000Z</time>
      </trkpt>
      <trkpt lat="46.54803" lon="0.32894">
        <ele>188.58</ele>
        <time>2018-09-16T08:42:54.000Z</time>
      </trkpt>
      <trkpt lat="46.54799" lon="0.32879">
        <ele>188.3</ele>
        <time>2018-09-16T08:42:57.000Z</time>
      </trkpt>
      <trkpt lat="46.54796" lon="0.32892">
        <ele>187.45</ele>
        <time>2018-09-16T08:43:02.000Z</time>
      </trkpt>
      <trkpt lat="46.54794" lon="0.32905">
        <ele>187.13</ele>
        <time>2018-09-16T08:43:05.000Z</time>
      </trkpt>
      <trkpt lat="46.54784" lon="0.32923">
        <ele>186.95</ele>
        <time>2018-09-16T08:43:08.000Z</time>
      </trkpt>
      <trkpt lat="46.54774" lon="0.3293">
        <ele>186.95</ele>
        <time>2018-09-16T08:43:10.000Z</time>
      </trkpt>
      <trkpt lat="46.54765" lon="0.32934">
        <ele>186.86</ele>
        <time>2018-09-16T08:43:12.000Z</time>
      </trkpt>
      <trkpt lat="46.54755" lon="0.32939">
        <ele>186.63</ele>
        <time>2018-09-16T08:43:14.000Z</time>
      </trkpt>
      <trkpt lat="46.54747" lon="0.32946">
        <ele>186.36</ele>
        <time>2018-09-16T08:43:16.000Z</time>
      </trkpt>
      <trkpt lat="46.54738" lon="0.3296">
        <ele>186.39</ele>
        <time>2018-09-16T08:43:19.000Z</time>
      </trkpt>
      <trkpt lat="46.5473" lon="0.32968">
        <ele>186.36</ele>
        <time>2018-09-16T08:43:21.000Z</time>
      </trkpt>
      <trkpt lat="46.5472" lon="0.32968">
        <ele>185.83</ele>
        <time>2018-09-16T08:43:23.000Z</time>
      </trkpt>
      <trkpt lat="46.54709" lon="0.32957">
        <ele>183.7</ele>
        <time>2018-09-16T08:43:25.000Z</time>
      </trkpt>
      <trkpt lat="46.54699" lon="0.32945">
        <ele>181.03</ele>
        <time>2018-09-16T08:43:27.000Z</time>
      </trkpt>
      <trkpt lat="46.54689" lon="0.32942">
        <ele>180.73</ele>
        <time>2018-09-16T08:43:29.000Z</time>
      </trkpt>
      <trkpt lat="46.54685" lon="0.32927">
        <ele>180.36</ele>
        <time>2018-09-16T08:43:32.000Z</time>
      </trkpt>
      <trkpt lat="46.54687" lon="0.3291">
        <ele>180.15</ele>
        <time>2018-09-16T08:43:35.000Z</time>
      </trkpt>
      <trkpt lat="46.54682" lon="0.32898">
        <ele>178.9</ele>
        <time>2018-09-16T08:43:37.000Z</time>
      </trkpt>
      <trkpt lat="46.5467" lon="0.32892">
        <ele>176.81</ele>
        <time>2018-09-16T08:43:40.000Z</time>
      </trkpt>
      <trkpt lat="46.5466" lon="0.32888">
        <ele>176.62</ele>
        <time>2018-09-16T08:43:43.000Z</time>
      </trkpt>
      <trkpt lat="46.54654" lon="0.32877">
        <ele>176.51</ele>
        <time>2018-09-16T08:43:45.000Z</time>
      </trkpt>
      <trkpt lat="46.54644" lon="0.32864">
        <ele>175.65</ele>
        <time>2018-09-16T08:43:48.000Z</time>
      </trkpt>
      <trkpt lat="46.54638" lon="0.32855">
        <ele>175.51</ele>
        <time>2018-09-16T08:43:51.000Z</time>
      </trkpt>
      <trkpt lat="46.5463" lon="0.32849">
        <ele>175.44</ele>
        <time>2018-09-16T08:43:54.000Z</time>
      </trkpt>
      <trkpt lat="46.54619" lon="0.32835">
        <ele>175.9</ele>
        <time>2018-09-16T08:43:57.000Z</time>
      </trkpt>
      <trkpt lat="46.5461" lon="0.32822">
        <ele>177.24</ele>
        <time>2018-09-16T08:43:59.000Z</time>
      </trkpt>
      <trkpt lat="46.546" lon="0.32805">
        <ele>177.92</ele>
        <time>2018-09-16T08:44:02.000Z</time>
      </trkpt>
      <trkpt lat="46.54595" lon="0.32791">
        <ele>177.52</ele>
        <time>2018-09-16T08:44:04.000Z</time>
      </trkpt>
      <trkpt lat="46.54584" lon="0.32783">
        <ele>177.18</ele>
        <time>2018-09-16T08:44:07.000Z</time>
      </trkpt>
      <trkpt lat="46.54573" lon="0.3277">
        <ele>176.73</ele>
        <time>2018-09-16T08:44:10.000Z</time>
      </trkpt>
      <trkpt lat="46.54567" lon="0.32761">
        <ele>176.67</ele>
        <time>2018-09-16T08:44:12.000Z</time>
      </trkpt>
      <trkpt lat="46.5456" lon="0.32749">
        <ele>176.51</ele>
        <time>2018-09-16T08:44:15.000Z</time>
      </trkpt>
      <trkpt lat="46.54551" lon="0.32734">
        <ele>175.69</ele>
        <time>2018-09-16T08:44:18.000Z</time>
      </trkpt>
      <trkpt lat="46.54542" lon="0.32729">
        <ele>175.03</ele>
        <time>2018-09-16T08:44:20.000Z</time>
      </trkpt>
      <trkpt lat="46.54532" lon="0.32714">
        <ele>174.9</ele>
        <time>2018-09-16T08:44:22.000Z</time>
      </trkpt>
      <trkpt lat="46.54527" lon="0.32697">
        <ele>174.8</ele>
        <time>2018-09-16T08:44:26.000Z</time>
      </trkpt>
      <trkpt lat="46.54527" lon="0.32678">
        <ele>174.54</ele>
        <time>2018-09-16T08:44:28.000Z</time>
      </trkpt>
      <trkpt lat="46.54521" lon="0.32664">
        <ele>174.72</ele>
        <time>2018-09-16T08:44:30.000Z</time>
      </trkpt>
      <trkpt lat="46.54517" lon="0.32649">
        <ele>174.82</ele>
        <time>2018-09-16T08:44:32.000Z</time>
      </trkpt>
      <trkpt lat="46.54515" lon="0.32636">
        <ele>175.29</ele>
        <time>2018-09-16T08:44:34.000Z</time>
      </trkpt>
      <trkpt lat="46.54514" lon="0.3262">
        <ele>175.37</ele>
        <time>2018-09-16T08:44:37.000Z</time>
      </trkpt>
      <trkpt lat="46.54513" lon="0.32604">
        <ele>175.36</ele>
        <time>2018-09-16T08:44:40.000Z</time>
      </trkpt>
      <trkpt lat="46.54512" lon="0.32591">
        <ele>175.35</ele>
        <time>2018-09-16T08:44:43.000Z</time>
      </trkpt>
      <trkpt lat="46.54512" lon="0.32576">
        <ele>175.46</ele>
        <time>2018-09-16T08:44:47.000Z</time>
      </trkpt>
      <trkpt lat="46.54513" lon="0.32562">
        <ele>175.8</ele>
        <time>2018-09-16T08:44:51.000Z</time>
      </trkpt>
      <trkpt lat="46.54512" lon="0.32547">
        <ele>176.11</ele>
        <time>2018-09-16T08:44:54.000Z</time>
      </trkpt>
      <trkpt lat="46.54508" lon="0.32533">
        <ele>176.49</ele>
        <time>2018-09-16T08:44:58.000Z</time>
      </trkpt>
      <trkpt lat="46.54497" lon="0.32532">
        <ele>176.83</ele>
        <time>2018-09-16T08:45:03.000Z</time>
      </trkpt>
      <trkpt lat="46.54488" lon="0.32528">
        <ele>176.95</ele>
        <time>2018-09-16T08:45:06.000Z</time>
      </trkpt>
      <trkpt lat="46.54479" lon="0.3252">
        <ele>177.06</ele>
        <time>2018-09-16T08:45:09.000Z</time>
      </trkpt>
      <trkpt lat="46.54468" lon="0.32514">
        <ele>177.16</ele>
        <time>2018-09-16T08:45:13.000Z</time>
      </trkpt>
      <trkpt lat="46.54462" lon="0.325">
        <ele>176.98</ele>
        <time>2018-09-16T08:45:18.000Z</time>
      </trkpt>
      <trkpt lat="46.54453" lon="0.32493">
        <ele>176.91</ele>
        <time>2018-09-16T08:45:23.000Z</time>
      </trkpt>
      <trkpt lat="46.54442" lon="0.32493">
        <ele>177.15</ele>
        <time>2018-09-16T08:45:26.000Z</time>
      </trkpt>
      <trkpt lat="46.54429" lon="0.32492">
        <ele>177.53</ele>
        <time>2018-09-16T08:45:29.000Z</time>
      </trkpt>
      <trkpt lat="46.54418" lon="0.32493">
        <ele>177.7</ele>
        <time>2018-09-16T08:45:32.000Z</time>
      </trkpt>
      <trkpt lat="46.54409" lon="0.32492">
        <ele>177.79</ele>
        <time>2018-09-16T08:45:35.000Z</time>
      </trkpt>
      <trkpt lat="46.5441" lon="0.32506">
        <ele>177.71</ele>
        <time>2018-09-16T08:45:43.000Z</time>
      </trkpt>
      <trkpt lat="46.54417" lon="0.32514">
        <ele>177.58</ele>
        <time>2018-09-16T08:45:47.000Z</time>
      </trkpt>
      <trkpt lat="46.54424" lon="0.3253">
        <ele>177.6</ele>
        <time>2018-09-16T08:45:50.000Z</time>
      </trkpt>
      <trkpt lat="46.5443" lon="0.32541">
        <ele>177.72</ele>
        <time>2018-09-16T08:45:52.000Z</time>
      </trkpt>
      <trkpt lat="46.54437" lon="0.32557">
        <ele>178.22</ele>
        <time>2018-09-16T08:45:55.000Z</time>
      </trkpt>
      <trkpt lat="46.54444" lon="0.32569">
        <ele>178.24</ele>
        <time>2018-09-16T08:45:57.000Z</time>
      </trkpt>
      <trkpt lat="46.54449" lon="0.32586">
        <ele>177.86</ele>
        <time>2018-09-16T08:45:59.000Z</time>
      </trkpt>
      <trkpt lat="46.54453" lon="0.32598">
        <ele>177.75</ele>
        <time>2018-09-16T08:46:03.000Z</time>
      </trkpt>
      <trkpt lat="46.54443" lon="0.326">
        <ele>177.61</ele>
        <time>2018-09-16T08:46:08.000Z</time>
      </trkpt>
      <trkpt lat="46.54436" lon="0.32609">
        <ele>177.59</ele>
        <time>2018-09-16T08:46:12.000Z</time>
      </trkpt>
      <trkpt lat="46.54428" lon="0.32619">
        <ele>177.47</ele>
        <time>2018-09-16T08:46:15.000Z</time>
      </trkpt>
      <trkpt lat="46.54422" lon="0.32629">
        <ele>177.34</ele>
        <time>2018-09-16T08:46:22.000Z</time>
      </trkpt>
      <trkpt lat="46.54409" lon="0.32638">
        <ele>177.29</ele>
        <time>2018-09-16T08:46:28.000Z</time>
      </trkpt>
      <trkpt lat="46.54399" lon="0.32647">
        <ele>177.15</ele>
        <time>2018-09-16T08:46:31.000Z</time>
      </trkpt>
      <trkpt lat="46.54394" lon="0.32658">
        <ele>176.74</ele>
        <time>2018-09-16T08:46:36.000Z</time>
      </trkpt>
      <trkpt lat="46.54394" lon="0.32673">
        <ele>176.38</ele>
        <time>2018-09-16T08:46:39.000Z</time>
      </trkpt>
      <trkpt lat="46.54389" lon="0.32684">
        <ele>176.17</ele>
        <time>2018-09-16T08:46:42.000Z</time>
      </trkpt>
      <trkpt lat="46.54379" lon="0.32686">
        <ele>175.93</ele>
        <time>2018-09-16T08:46:48.000Z</time>
      </trkpt>
      <trkpt lat="46.54369" lon="0.3268">
        <ele>175.68</ele>
        <time>2018-09-16T08:46:53.000Z</time>
      </trkpt>
      <trkpt lat="46.54361" lon="0.32669">
        <ele>175.35</ele>
        <time>2018-09-16T08:46:57.000Z</time>
      </trkpt>
      <trkpt lat="46.54353" lon="0.32664">
        <ele>175.24</ele>
        <time>2018-09-16T08:47:02.000Z</time>
      </trkpt>
      <trkpt lat="46.54345" lon="0.32654">
        <ele>175.3</ele>
        <time>2018-09-16T08:47:17.000Z</time>
      </trkpt>
      <trkpt lat="46.54344" lon="0.32641">
        <ele>175.04</ele>
        <time>2018-09-16T08:47:28.000Z</time>
      </trkpt>
      <trkpt lat="46.54334" lon="0.3264">
        <ele>174.56</ele>
        <time>2018-09-16T08:47:42.000Z</time>
      </trkpt>
      <trkpt lat="46.54326" lon="0.32633">
        <ele>174.83</ele>
        <time>2018-09-16T08:47:46.000Z</time>
      </trkpt>
      <trkpt lat="46.54318" lon="0.32625">
        <ele>175.74</ele>
        <time>2018-09-16T08:47:54.000Z</time>
      </trkpt>
      <trkpt lat="46.5431" lon="0.32631">
        <ele>176.34</ele>
        <time>2018-09-16T08:48:01.000Z</time>
      </trkpt>
      <trkpt lat="46.54305" lon="0.32642">
        <ele>176.34</ele>
        <time>2018-09-16T08:48:08.000Z</time>
      </trkpt>
      <trkpt lat="46.54295" lon="0.32642">
        <ele>175.96</ele>
        <time>2018-09-16T08:48:13.000Z</time>
      </trkpt>
      <trkpt lat="46.54285" lon="0.3264">
        <ele>172.11</ele>
        <time>2018-09-16T08:48:54.000Z</time>
      </trkpt>
      <trkpt lat="46.54276" lon="0.32635">
        <ele>171.72</ele>
        <time>2018-09-16T08:48:56.000Z</time>
      </trkpt>
      <trkpt lat="46.54266" lon="0.32635">
        <ele>171.84</ele>
        <time>2018-09-16T08:49:27.000Z</time>
      </trkpt>
      <trkpt lat="46.54256" lon="0.32629">
        <ele>172.48</ele>
        <time>2018-09-16T08:49:34.000Z</time>
      </trkpt>
      <trkpt lat="46.54248" lon="0.32621">
        <ele>173.28</ele>
        <time>2018-09-16T08:49:39.000Z</time>
      </trkpt>
      <trkpt lat="46.54241" lon="0.3261">
        <ele>174.87</ele>
        <time>2018-09-16T08:49:47.000Z</time>
      </trkpt>
      <trkpt lat="46.54233" lon="0.32603">
        <ele>175.78</ele>
        <time>2018-09-16T08:49:52.000Z</time>
      </trkpt>
      <trkpt lat="46.54227" lon="0.32592">
        <ele>176.49</ele>
        <time>2018-09-16T08:49:56.000Z</time>
      </trkpt>
      <trkpt lat="46.54224" lon="0.32578">
        <ele>177.45</ele>
        <time>2018-09-16T08:50:03.000Z</time>
      </trkpt>
      <trkpt lat="46.54216" lon="0.32582">
        <ele>177.96</ele>
        <time>2018-09-16T08:50:09.000Z</time>
      </trkpt>
      <trkpt lat="46.54207" lon="0.32591">
        <ele>178.23</ele>
        <time>2018-09-16T08:50:15.000Z</time>
      </trkpt>
      <trkpt lat="46.54198" lon="0.32591">
        <ele>178.24</ele>
        <time>2018-09-16T08:50:17.000Z</time>
      </trkpt>
      <trkpt lat="46.54186" lon="0.32591">
        <ele>178.14</ele>
        <time>2018-09-16T08:50:20.000Z</time>
      </trkpt>
      <trkpt lat="46.54177" lon="0.32593">
        <ele>177.34</ele>
        <time>2018-09-16T08:50:22.000Z</time>
      </trkpt>
      <trkpt lat="46.54164" lon="0.32598">
        <ele>175.25</ele>
        <time>2018-09-16T08:50:25.000Z</time>
      </trkpt>
      <trkpt lat="46.54152" lon="0.32598">
        <ele>174.75</ele>
        <time>2018-09-16T08:50:27.000Z</time>
      </trkpt>
      <trkpt lat="46.54141" lon="0.326">
        <ele>174.63</ele>
        <time>2018-09-16T08:50:29.000Z</time>
      </trkpt>
      <trkpt lat="46.54129" lon="0.32604">
        <ele>174.57</ele>
        <time>2018-09-16T08:50:32.000Z</time>
      </trkpt>
      <trkpt lat="46.54122" lon="0.32596">
        <ele>174.68</ele>
        <time>2018-09-16T08:50:36.000Z</time>
      </trkpt>
      <trkpt lat="46.54114" lon="0.32588">
        <ele>174.89</ele>
        <time>2018-09-16T08:50:40.000Z</time>
      </trkpt>
      <trkpt lat="46.54119" lon="0.32575">
        <ele>175.69</ele>
        <time>2018-09-16T08:50:51.000Z</time>
      </trkpt>
      <trkpt lat="46.54128" lon="0.3257">
        <ele>176.47</ele>
        <time>2018-09-16T08:50:58.000Z</time>
      </trkpt>
      <trkpt lat="46.54138" lon="0.3257">
        <ele>176.92</ele>
        <time>2018-09-16T08:51:05.000Z</time>
      </trkpt>
      <trkpt lat="46.54145" lon="0.32559">
        <ele>177.61</ele>
        <time>2018-09-16T08:51:13.000Z</time>
      </trkpt>
      <trkpt lat="46.5415" lon="0.32547">
        <ele>178.25</ele>
        <time>2018-09-16T08:51:19.000Z</time>
      </trkpt>
      <trkpt lat="46.54153" lon="0.32536">
        <ele>178.84</ele>
        <time>2018-09-16T08:51:25.000Z</time>
      </trkpt>
      <trkpt lat="46.54161" lon="0.32528">
        <ele>179.07</ele>
        <time>2018-09-16T08:51:32.000Z</time>
      </trkpt>
      <trkpt lat="46.5417" lon="0.32522">
        <ele>179.09</ele>
        <time>2018-09-16T08:51:38.000Z</time>
      </trkpt>
      <trkpt lat="46.54181" lon="0.32517">
        <ele>179.37</ele>
        <time>2018-09-16T08:51:44.000Z</time>
      </trkpt>
      <trkpt lat="46.54191" lon="0.32512">
        <ele>179.81</ele>
        <time>2018-09-16T08:51:49.000Z</time>
      </trkpt>
      <trkpt lat="46.54199" lon="0.32504">
        <ele>180.51</ele>
        <time>2018-09-16T08:51:54.000Z</time>
      </trkpt>
      <trkpt lat="46.54199" lon="0.32489">
        <ele>181.21</ele>
        <time>2018-09-16T08:51:58.000Z</time>
      </trkpt>
      <trkpt lat="46.542" lon="0.32472">
        <ele>181.98</ele>
        <time>2018-09-16T08:52:02.000Z</time>
      </trkpt>
      <trkpt lat="46.54202" lon="0.32456">
        <ele>182.51</ele>
        <time>2018-09-16T08:52:05.000Z</time>
      </trkpt>
      <trkpt lat="46.54203" lon="0.32442">
        <ele>182.94</ele>
        <time>2018-09-16T08:52:08.000Z</time>
      </trkpt>
      <trkpt lat="46.54203" lon="0.32424">
        <ele>183.31</ele>
        <time>2018-09-16T08:52:12.000Z</time>
      </trkpt>
      <trkpt lat="46.54205" lon="0.32405">
        <ele>183.29</ele>
        <time>2018-09-16T08:52:16.000Z</time>
      </trkpt>
      <trkpt lat="46.54206" lon="0.32389">
        <ele>183.23</ele>
        <time>2018-09-16T08:52:19.000Z</time>
      </trkpt>
      <trkpt lat="46.54208" lon="0.32376">
        <ele>183.67</ele>
        <time>2018-09-16T08:52:24.000Z</time>
      </trkpt>
      <trkpt lat="46.54208" lon="0.32359">
        <ele>184.13</ele>
        <time>2018-09-16T08:52:28.000Z</time>
      </trkpt>
      <trkpt lat="46.5421" lon="0.32343">
        <ele>184.5</ele>
        <time>2018-09-16T08:52:31.000Z</time>
      </trkpt>
      <trkpt lat="46.54211" lon="0.32327">
        <ele>184.88</ele>
        <time>2018-09-16T08:52:34.000Z</time>
      </trkpt>
      <trkpt lat="46.54213" lon="0.32312">
        <ele>185.28</ele>
        <time>2018-09-16T08:52:37.000Z</time>
      </trkpt>
      <trkpt lat="46.54213" lon="0.32295">
        <ele>185.65</ele>
        <time>2018-09-16T08:52:40.000Z</time>
      </trkpt>
      <trkpt lat="46.54214" lon="0.3228">
        <ele>186.15</ele>
        <time>2018-09-16T08:52:43.000Z</time>
      </trkpt>
      <trkpt lat="46.54214" lon="0.32265">
        <ele>186.7</ele>
        <time>2018-09-16T08:52:47.000Z</time>
      </trkpt>
      <trkpt lat="46.54216" lon="0.32251">
        <ele>187.12</ele>
        <time>2018-09-16T08:52:52.000Z</time>
      </trkpt>
      <trkpt lat="46.54219" lon="0.32238">
        <ele>187.3</ele>
        <time>2018-09-16T08:52:58.000Z</time>
      </trkpt>
      <trkpt lat="46.54212" lon="0.32228">
        <ele>187.37</ele>
        <time>2018-09-16T08:53:01.000Z</time>
      </trkpt>
      <trkpt lat="46.54207" lon="0.32214">
        <ele>187.72</ele>
        <time>2018-09-16T08:53:08.000Z</time>
      </trkpt>
      <trkpt lat="46.54208" lon="0.322">
        <ele>187.86</ele>
        <time>2018-09-16T08:53:24.000Z</time>
      </trkpt>
      <trkpt lat="46.5421" lon="0.32185">
        <ele>187.9</ele>
        <time>2018-09-16T08:53:28.000Z</time>
      </trkpt>
      <trkpt lat="46.54211" lon="0.32172">
        <ele>188.1</ele>
        <time>2018-09-16T08:53:31.000Z</time>
      </trkpt>
      <trkpt lat="46.54213" lon="0.32156">
        <ele>188.4</ele>
        <time>2018-09-16T08:53:35.000Z</time>
      </trkpt>
      <trkpt lat="46.54214" lon="0.32142">
        <ele>188.63</ele>
        <time>2018-09-16T08:53:38.000Z</time>
      </trkpt>
      <trkpt lat="46.54215" lon="0.32129">
        <ele>189.78</ele>
        <time>2018-09-16T08:53:40.000Z</time>
      </trkpt>
      <trkpt lat="46.54216" lon="0.32113">
        <ele>192.05</ele>
        <time>2018-09-16T08:53:43.000Z</time>
      </trkpt>
      <trkpt lat="46.54217" lon="0.32096">
        <ele>194.5</ele>
        <time>2018-09-16T08:53:46.000Z</time>
      </trkpt>
      <trkpt lat="46.54219" lon="0.32075">
        <ele>197.19</ele>
        <time>2018-09-16T08:53:49.000Z</time>
      </trkpt>
      <trkpt lat="46.54221" lon="0.32062">
        <ele>197.32</ele>
        <time>2018-09-16T08:53:51.000Z</time>
      </trkpt>
      <trkpt lat="46.54226" lon="0.32046">
        <ele>197.57</ele>
        <time>2018-09-16T08:53:54.000Z</time>
      </trkpt>
      <trkpt lat="46.54235" lon="0.32033">
        <ele>197.69</ele>
        <time>2018-09-16T08:53:57.000Z</time>
      </trkpt>
      <trkpt lat="46.54235" lon="0.32014">
        <ele>197.86</ele>
        <time>2018-09-16T08:54:00.000Z</time>
      </trkpt>
      <trkpt lat="46.54236" lon="0.31996">
        <ele>198.95</ele>
        <time>2018-09-16T08:54:03.000Z</time>
      </trkpt>
      <trkpt lat="46.54235" lon="0.31981">
        <ele>199.43</ele>
        <time>2018-09-16T08:54:06.000Z</time>
      </trkpt>
      <trkpt lat="46.54238" lon="0.31965">
        <ele>200.04</ele>
        <time>2018-09-16T08:54:10.000Z</time>
      </trkpt>
      <trkpt lat="46.54239" lon="0.31948">
        <ele>200.49</ele>
        <time>2018-09-16T08:54:13.000Z</time>
      </trkpt>
      <trkpt lat="46.54241" lon="0.31932">
        <ele>200.79</ele>
        <time>2018-09-16T08:54:15.000Z</time>
      </trkpt>
      <trkpt lat="46.54242" lon="0.31914">
        <ele>202.13</ele>
        <time>2018-09-16T08:54:18.000Z</time>
      </trkpt>
      <trkpt lat="46.54242" lon="0.319">
        <ele>203.53</ele>
        <time>2018-09-16T08:54:20.000Z</time>
      </trkpt>
      <trkpt lat="46.54243" lon="0.31887">
        <ele>203.82</ele>
        <time>2018-09-16T08:54:22.000Z</time>
      </trkpt>
      <trkpt lat="46.5424" lon="0.31873">
        <ele>203.92</ele>
        <time>2018-09-16T08:54:24.000Z</time>
      </trkpt>
      <trkpt lat="46.54231" lon="0.31862">
        <ele>204.08</ele>
        <time>2018-09-16T08:54:28.000Z</time>
      </trkpt>
      <trkpt lat="46.54219" lon="0.31851">
        <ele>203.8</ele>
        <time>2018-09-16T08:54:31.000Z</time>
      </trkpt>
      <trkpt lat="46.54208" lon="0.31842">
        <ele>203.48</ele>
        <time>2018-09-16T08:54:33.000Z</time>
      </trkpt>
      <trkpt lat="46.54197" lon="0.31834">
        <ele>202.85</ele>
        <time>2018-09-16T08:54:36.000Z</time>
      </trkpt>
      <trkpt lat="46.54186" lon="0.31826">
        <ele>202.55</ele>
        <time>2018-09-16T08:54:39.000Z</time>
      </trkpt>
      <trkpt lat="46.54177" lon="0.31817">
        <ele>202.36</ele>
        <time>2018-09-16T08:54:41.000Z</time>
      </trkpt>
      <trkpt lat="46.54165" lon="0.31808">
        <ele>201.23</ele>
        <time>2018-09-16T08:54:44.000Z</time>
      </trkpt>
      <trkpt lat="46.54157" lon="0.31803">
        <ele>200.61</ele>
        <time>2018-09-16T08:54:46.000Z</time>
      </trkpt>
      <trkpt lat="46.54146" lon="0.31798">
        <ele>200.4</ele>
        <time>2018-09-16T08:54:49.000Z</time>
      </trkpt>
      <trkpt lat="46.54133" lon="0.31796">
        <ele>198.47</ele>
        <time>2018-09-16T08:54:52.000Z</time>
      </trkpt>
      <trkpt lat="46.5412" lon="0.31791">
        <ele>198.37</ele>
        <time>2018-09-16T08:54:55.000Z</time>
      </trkpt>
      <trkpt lat="46.54109" lon="0.31789">
        <ele>198.39</ele>
        <time>2018-09-16T08:54:58.000Z</time>
      </trkpt>
      <trkpt lat="46.54097" lon="0.31787">
        <ele>198.31</ele>
        <time>2018-09-16T08:55:01.000Z</time>
      </trkpt>
      <trkpt lat="46.54086" lon="0.31786">
        <ele>197.41</ele>
        <time>2018-09-16T08:55:03.000Z</time>
      </trkpt>
      <trkpt lat="46.54077" lon="0.31786">
        <ele>197.5</ele>
        <time>2018-09-16T08:55:05.000Z</time>
      </trkpt>
      <trkpt lat="46.54067" lon="0.31785">
        <ele>197.86</ele>
        <time>2018-09-16T08:55:07.000Z</time>
      </trkpt>
      <trkpt lat="46.54055" lon="0.31786">
        <ele>198.78</ele>
        <time>2018-09-16T08:55:10.000Z</time>
      </trkpt>
      <trkpt lat="46.54044" lon="0.31785">
        <ele>200.25</ele>
        <time>2018-09-16T08:55:12.000Z</time>
      </trkpt>
      <trkpt lat="46.54033" lon="0.31785">
        <ele>200.33</ele>
        <time>2018-09-16T08:55:14.000Z</time>
      </trkpt>
      <trkpt lat="46.5402" lon="0.31786">
        <ele>200.88</ele>
        <time>2018-09-16T08:55:16.000Z</time>
      </trkpt>
      <trkpt lat="46.54008" lon="0.3179">
        <ele>200.84</ele>
        <time>2018-09-16T08:55:18.000Z</time>
      </trkpt>
      <trkpt lat="46.53992" lon="0.31792">
        <ele>200.24</ele>
        <time>2018-09-16T08:55:20.000Z</time>
      </trkpt>
      <trkpt lat="46.53978" lon="0.31794">
        <ele>199.95</ele>
        <time>2018-09-16T08:55:22.000Z</time>
      </trkpt>
      <trkpt lat="46.53964" lon="0.31793">
        <ele>199.19</ele>
        <time>2018-09-16T08:55:24.000Z</time>
      </trkpt>
      <trkpt lat="46.53953" lon="0.31793">
        <ele>198.99</ele>
        <time>2018-09-16T08:55:26.000Z</time>
      </trkpt>
      <trkpt lat="46.53944" lon="0.31794">
        <ele>198.28</ele>
        <time>2018-09-16T08:55:28.000Z</time>
      </trkpt>
      <trkpt lat="46.53934" lon="0.31799">
        <ele>197.69</ele>
        <time>2018-09-16T08:55:30.000Z</time>
      </trkpt>
      <trkpt lat="46.53931" lon="0.31813">
        <ele>196.29</ele>
        <time>2018-09-16T08:55:32.000Z</time>
      </trkpt>
      <trkpt lat="46.53922" lon="0.31826">
        <ele>194.96</ele>
        <time>2018-09-16T08:55:34.000Z</time>
      </trkpt>
      <trkpt lat="46.53904" lon="0.31832">
        <ele>193.85</ele>
        <time>2018-09-16T08:55:37.000Z</time>
      </trkpt>
      <trkpt lat="46.53893" lon="0.31835">
        <ele>193.43</ele>
        <time>2018-09-16T08:55:39.000Z</time>
      </trkpt>
      <trkpt lat="46.53883" lon="0.31838">
        <ele>193.88</ele>
        <time>2018-09-16T08:55:41.000Z</time>
      </trkpt>
      <trkpt lat="46.5387" lon="0.31842">
        <ele>194.43</ele>
        <time>2018-09-16T08:55:43.000Z</time>
      </trkpt>
      <trkpt lat="46.53857" lon="0.31844">
        <ele>195.15</ele>
        <time>2018-09-16T08:55:45.000Z</time>
      </trkpt>
      <trkpt lat="46.53843" lon="0.31848">
        <ele>196.13</ele>
        <time>2018-09-16T08:55:47.000Z</time>
      </trkpt>
      <trkpt lat="46.53833" lon="0.31853">
        <ele>196.66</ele>
        <time>2018-09-16T08:55:49.000Z</time>
      </trkpt>
      <trkpt lat="46.5382" lon="0.31859">
        <ele>197.66</ele>
        <time>2018-09-16T08:55:51.000Z</time>
      </trkpt>
      <trkpt lat="46.53809" lon="0.31862">
        <ele>198.45</ele>
        <time>2018-09-16T08:55:53.000Z</time>
      </trkpt>
      <trkpt lat="46.53795" lon="0.31866">
        <ele>198.36</ele>
        <time>2018-09-16T08:55:55.000Z</time>
      </trkpt>
      <trkpt lat="46.53782" lon="0.31871">
        <ele>197.8</ele>
        <time>2018-09-16T08:55:57.000Z</time>
      </trkpt>
      <trkpt lat="46.5377" lon="0.31873">
        <ele>197.16</ele>
        <time>2018-09-16T08:55:59.000Z</time>
      </trkpt>
      <trkpt lat="46.53758" lon="0.31878">
        <ele>196.68</ele>
        <time>2018-09-16T08:56:01.000Z</time>
      </trkpt>
      <trkpt lat="46.53743" lon="0.31881">
        <ele>195.83</ele>
        <time>2018-09-16T08:56:03.000Z</time>
      </trkpt>
      <trkpt lat="46.5373" lon="0.31885">
        <ele>194.97</ele>
        <time>2018-09-16T08:56:05.000Z</time>
      </trkpt>
      <trkpt lat="46.53719" lon="0.31888">
        <ele>194.2</ele>
        <time>2018-09-16T08:56:07.000Z</time>
      </trkpt>
      <trkpt lat="46.53704" lon="0.31893">
        <ele>193.78</ele>
        <time>2018-09-16T08:56:09.000Z</time>
      </trkpt>
      <trkpt lat="46.53691" lon="0.31899">
        <ele>193.14</ele>
        <time>2018-09-16T08:56:11.000Z</time>
      </trkpt>
      <trkpt lat="46.5368" lon="0.319">
        <ele>192.06</ele>
        <time>2018-09-16T08:56:13.000Z</time>
      </trkpt>
      <trkpt lat="46.53669" lon="0.31901">
        <ele>191.27</ele>
        <time>2018-09-16T08:56:15.000Z</time>
      </trkpt>
      <trkpt lat="46.53656" lon="0.31901">
        <ele>190.87</ele>
        <time>2018-09-16T08:56:17.000Z</time>
      </trkpt>
      <trkpt lat="46.53645" lon="0.31903">
        <ele>191.01</ele>
        <time>2018-09-16T08:56:19.000Z</time>
      </trkpt>
      <trkpt lat="46.53633" lon="0.31904">
        <ele>191.2</ele>
        <time>2018-09-16T08:56:21.000Z</time>
      </trkpt>
      <trkpt lat="46.53619" lon="0.31903">
        <ele>191.21</ele>
        <time>2018-09-16T08:56:23.000Z</time>
      </trkpt>
      <trkpt lat="46.53605" lon="0.31899">
        <ele>190.7</ele>
        <time>2018-09-16T08:56:25.000Z</time>
      </trkpt>
      <trkpt lat="46.53592" lon="0.31895">
        <ele>189.96</ele>
        <time>2018-09-16T08:56:27.000Z</time>
      </trkpt>
      <trkpt lat="46.53578" lon="0.31891">
        <ele>189.39</ele>
        <time>2018-09-16T08:56:29.000Z</time>
      </trkpt>
      <trkpt lat="46.53565" lon="0.3189">
        <ele>188.97</ele>
        <time>2018-09-16T08:56:31.000Z</time>
      </trkpt>
      <trkpt lat="46.53553" lon="0.31896">
        <ele>188.52</ele>
        <time>2018-09-16T08:56:33.000Z</time>
      </trkpt>
      <trkpt lat="46.53543" lon="0.31906">
        <ele>188.28</ele>
        <time>2018-09-16T08:56:35.000Z</time>
      </trkpt>
      <trkpt lat="46.53533" lon="0.31916">
        <ele>188.03</ele>
        <time>2018-09-16T08:56:37.000Z</time>
      </trkpt>
      <trkpt lat="46.53523" lon="0.31926">
        <ele>187.63</ele>
        <time>2018-09-16T08:56:39.000Z</time>
      </trkpt>
      <trkpt lat="46.53511" lon="0.31938">
        <ele>187.35</ele>
        <time>2018-09-16T08:56:41.000Z</time>
      </trkpt>
      <trkpt lat="46.53502" lon="0.31946">
        <ele>187.29</ele>
        <time>2018-09-16T08:56:44.000Z</time>
      </trkpt>
      <trkpt lat="46.53492" lon="0.31946">
        <ele>187.2</ele>
        <time>2018-09-16T08:56:47.000Z</time>
      </trkpt>
      <trkpt lat="46.53482" lon="0.31943">
        <ele>185.87</ele>
        <time>2018-09-16T08:56:49.000Z</time>
      </trkpt>
      <trkpt lat="46.5347" lon="0.3194">
        <ele>184.75</ele>
        <time>2018-09-16T08:56:51.000Z</time>
      </trkpt>
      <trkpt lat="46.53458" lon="0.31937">
        <ele>183.69</ele>
        <time>2018-09-16T08:56:53.000Z</time>
      </trkpt>
      <trkpt lat="46.53451" lon="0.31928">
        <ele>183.53</ele>
        <time>2018-09-16T08:56:58.000Z</time>
      </trkpt>
      <trkpt lat="46.53455" lon="0.31915">
        <ele>183.74</ele>
        <time>2018-09-16T08:57:03.000Z</time>
      </trkpt>
      <trkpt lat="46.5346" lon="0.31904">
        <ele>184.11</ele>
        <time>2018-09-16T08:57:06.000Z</time>
      </trkpt>
      <trkpt lat="46.53465" lon="0.31893">
        <ele>184.54</ele>
        <time>2018-09-16T08:57:09.000Z</time>
      </trkpt>
      <trkpt lat="46.53471" lon="0.31877">
        <ele>185.06</ele>
        <time>2018-09-16T08:57:13.000Z</time>
      </trkpt>
      <trkpt lat="46.53475" lon="0.31865">
        <ele>185.37</ele>
        <time>2018-09-16T08:57:17.000Z</time>
      </trkpt>
      <trkpt lat="46.53481" lon="0.31853">
        <ele>185.45</ele>
        <time>2018-09-16T08:57:20.000Z</time>
      </trkpt>
      <trkpt lat="46.5349" lon="0.31844">
        <ele>185.41</ele>
        <time>2018-09-16T08:57:23.000Z</time>
      </trkpt>
      <trkpt lat="46.53498" lon="0.31836">
        <ele>185.32</ele>
        <time>2018-09-16T08:57:26.000Z</time>
      </trkpt>
      <trkpt lat="46.53507" lon="0.31824">
        <ele>185.16</ele>
        <time>2018-09-16T08:57:30.000Z</time>
      </trkpt>
      <trkpt lat="46.53516" lon="0.31816">
        <ele>184.94</ele>
        <time>2018-09-16T08:57:33.000Z</time>
      </trkpt>
      <trkpt lat="46.53524" lon="0.31809">
        <ele>184.68</ele>
        <time>2018-09-16T08:57:36.000Z</time>
      </trkpt>
      <trkpt lat="46.53534" lon="0.31802">
        <ele>184.61</ele>
        <time>2018-09-16T08:57:40.000Z</time>
      </trkpt>
      <trkpt lat="46.53542" lon="0.31795">
        <ele>184.71</ele>
        <time>2018-09-16T08:57:43.000Z</time>
      </trkpt>
      <trkpt lat="46.53549" lon="0.31781">
        <ele>184.73</ele>
        <time>2018-09-16T08:57:46.000Z</time>
      </trkpt>
      <trkpt lat="46.53556" lon="0.31769">
        <ele>184.74</ele>
        <time>2018-09-16T08:57:49.000Z</time>
      </trkpt>
      <trkpt lat="46.53561" lon="0.31757">
        <ele>184.85</ele>
        <time>2018-09-16T08:57:52.000Z</time>
      </trkpt>
      <trkpt lat="46.53566" lon="0.31746">
        <ele>184.89</ele>
        <time>2018-09-16T08:57:54.000Z</time>
      </trkpt>
      <trkpt lat="46.53571" lon="0.31734">
        <ele>184.71</ele>
        <time>2018-09-16T08:57:56.000Z</time>
      </trkpt>
      <trkpt lat="46.53576" lon="0.31722">
        <ele>184.62</ele>
        <time>2018-09-16T08:57:58.000Z</time>
      </trkpt>
      <trkpt lat="46.53585" lon="0.31709">
        <ele>184.4</ele>
        <time>2018-09-16T08:58:01.000Z</time>
      </trkpt>
      <trkpt lat="46.53593" lon="0.31694">
        <ele>183.66</ele>
        <time>2018-09-16T08:58:04.000Z</time>
      </trkpt>
      <trkpt lat="46.536" lon="0.31679">
        <ele>183.54</ele>
        <time>2018-09-16T08:58:07.000Z</time>
      </trkpt>
      <trkpt lat="46.53604" lon="0.31667">
        <ele>183.13</ele>
        <time>2018-09-16T08:58:09.000Z</time>
      </trkpt>
      <trkpt lat="46.53611" lon="0.31653">
        <ele>183.03</ele>
        <time>2018-09-16T08:58:12.000Z</time>
      </trkpt>
      <trkpt lat="46.5362" lon="0.31641">
        <ele>183.18</ele>
        <time>2018-09-16T08:58:15.000Z</time>
      </trkpt>
      <trkpt lat="46.53626" lon="0.3163">
        <ele>183.29</ele>
        <time>2018-09-16T08:58:17.000Z</time>
      </trkpt>
      <trkpt lat="46.53632" lon="0.31615">
        <ele>183.63</ele>
        <time>2018-09-16T08:58:20.000Z</time>
      </trkpt>
      <trkpt lat="46.53635" lon="0.31602">
        <ele>183.88</ele>
        <time>2018-09-16T08:58:22.000Z</time>
      </trkpt>
      <trkpt lat="46.5364" lon="0.31586">
        <ele>184.33</ele>
        <time>2018-09-16T08:58:25.000Z</time>
      </trkpt>
      <trkpt lat="46.53646" lon="0.3157">
        <ele>184.83</ele>
        <time>2018-09-16T08:58:28.000Z</time>
      </trkpt>
      <trkpt lat="46.53652" lon="0.3156">
        <ele>185.15</ele>
        <time>2018-09-16T08:58:30.000Z</time>
      </trkpt>
      <trkpt lat="46.53659" lon="0.31545">
        <ele>185.74</ele>
        <time>2018-09-16T08:58:33.000Z</time>
      </trkpt>
      <trkpt lat="46.53667" lon="0.31534">
        <ele>186.56</ele>
        <time>2018-09-16T08:58:37.000Z</time>
      </trkpt>
      <trkpt lat="46.53672" lon="0.31521">
        <ele>187.48</ele>
        <time>2018-09-16T08:58:42.000Z</time>
      </trkpt>
      <trkpt lat="46.53663" lon="0.3152">
        <ele>188.36</ele>
        <time>2018-09-16T08:58:47.000Z</time>
      </trkpt>
      <trkpt lat="46.53651" lon="0.31519">
        <ele>188.75</ele>
        <time>2018-09-16T08:58:50.000Z</time>
      </trkpt>
      <trkpt lat="46.53642" lon="0.31517">
        <ele>189.06</ele>
        <time>2018-09-16T08:58:53.000Z</time>
      </trkpt>
      <trkpt lat="46.53631" lon="0.31514">
        <ele>189.32</ele>
        <time>2018-09-16T08:58:56.000Z</time>
      </trkpt>
      <trkpt lat="46.53622" lon="0.31511">
        <ele>189.74</ele>
        <time>2018-09-16T08:58:59.000Z</time>
      </trkpt>
      <trkpt lat="46.53614" lon="0.315">
        <ele>191.07</ele>
        <time>2018-09-16T08:59:11.000Z</time>
      </trkpt>
      <trkpt lat="46.53605" lon="0.31493">
        <ele>192.48</ele>
        <time>2018-09-16T08:59:19.000Z</time>
      </trkpt>
      <trkpt lat="46.53595" lon="0.31487">
        <ele>192.66</ele>
        <time>2018-09-16T08:59:23.000Z</time>
      </trkpt>
      <trkpt lat="46.53587" lon="0.31481">
        <ele>192.82</ele>
        <time>2018-09-16T08:59:26.000Z</time>
      </trkpt>
      <trkpt lat="46.53578" lon="0.31477">
        <ele>193.05</ele>
        <time>2018-09-16T08:59:29.000Z</time>
      </trkpt>
      <trkpt lat="46.53569" lon="0.31472">
        <ele>193.23</ele>
        <time>2018-09-16T08:59:31.000Z</time>
      </trkpt>
      <trkpt lat="46.53558" lon="0.31466">
        <ele>193.42</ele>
        <time>2018-09-16T08:59:34.000Z</time>
      </trkpt>
      <trkpt lat="46.53548" lon="0.3146">
        <ele>193.65</ele>
        <time>2018-09-16T08:59:37.000Z</time>
      </trkpt>
      <trkpt lat="46.53538" lon="0.31459">
        <ele>193.77</ele>
        <time>2018-09-16T08:59:40.000Z</time>
      </trkpt>
      <trkpt lat="46.53526" lon="0.31458">
        <ele>193.77</ele>
        <time>2018-09-16T08:59:43.000Z</time>
      </trkpt>
      <trkpt lat="46.53513" lon="0.31455">
        <ele>193.78</ele>
        <time>2018-09-16T08:59:46.000Z</time>
      </trkpt>
      <trkpt lat="46.53503" lon="0.31452">
        <ele>193.89</ele>
        <time>2018-09-16T08:59:49.000Z</time>
      </trkpt>
      <trkpt lat="46.53493" lon="0.31451">
        <ele>193.96</ele>
        <time>2018-09-16T08:59:51.000Z</time>
      </trkpt>
      <trkpt lat="46.53481" lon="0.31451">
        <ele>193.93</ele>
        <time>2018-09-16T08:59:54.000Z</time>
      </trkpt>
      <trkpt lat="46.53472" lon="0.3145">
        <ele>193.77</ele>
        <time>2018-09-16T08:59:56.000Z</time>
      </trkpt>
      <trkpt lat="46.53465" lon="0.31459">
        <ele>193.67</ele>
        <time>2018-09-16T09:00:01.000Z</time>
      </trkpt>
      <trkpt lat="46.53464" lon="0.31481">
        <ele>192.33</ele>
        <time>2018-09-16T09:00:04.000Z</time>
      </trkpt>
      <trkpt lat="46.53459" lon="0.31496">
        <ele>191.32</ele>
        <time>2018-09-16T09:00:06.000Z</time>
      </trkpt>
      <trkpt lat="46.53449" lon="0.31508">
        <ele>190.48</ele>
        <time>2018-09-16T09:00:08.000Z</time>
      </trkpt>
      <trkpt lat="46.53441" lon="0.3152">
        <ele>189.89</ele>
        <time>2018-09-16T09:00:10.000Z</time>
      </trkpt>
      <trkpt lat="46.53432" lon="0.31531">
        <ele>189.3</ele>
        <time>2018-09-16T09:00:12.000Z</time>
      </trkpt>
      <trkpt lat="46.53424" lon="0.31541">
        <ele>188.99</ele>
        <time>2018-09-16T09:00:14.000Z</time>
      </trkpt>
      <trkpt lat="46.53415" lon="0.31553">
        <ele>188.56</ele>
        <time>2018-09-16T09:00:16.000Z</time>
      </trkpt>
      <trkpt lat="46.53405" lon="0.31563">
        <ele>187.83</ele>
        <time>2018-09-16T09:00:18.000Z</time>
      </trkpt>
      <trkpt lat="46.53396" lon="0.31574">
        <ele>186.84</ele>
        <time>2018-09-16T09:00:20.000Z</time>
      </trkpt>
      <trkpt lat="46.53388" lon="0.31587">
        <ele>186.19</ele>
        <time>2018-09-16T09:00:22.000Z</time>
      </trkpt>
      <trkpt lat="46.53382" lon="0.316">
        <ele>185.85</ele>
        <time>2018-09-16T09:00:24.000Z</time>
      </trkpt>
      <trkpt lat="46.53373" lon="0.3161">
        <ele>185.72</ele>
        <time>2018-09-16T09:00:26.000Z</time>
      </trkpt>
      <trkpt lat="46.53365" lon="0.31618">
        <ele>186.07</ele>
        <time>2018-09-16T09:00:28.000Z</time>
      </trkpt>
      <trkpt lat="46.53357" lon="0.31628">
        <ele>186.71</ele>
        <time>2018-09-16T09:00:30.000Z</time>
      </trkpt>
      <trkpt lat="46.53349" lon="0.31644">
        <ele>187.31</ele>
        <time>2018-09-16T09:00:32.000Z</time>
      </trkpt>
      <trkpt lat="46.53344" lon="0.31658">
        <ele>187.54</ele>
        <time>2018-09-16T09:00:34.000Z</time>
      </trkpt>
      <trkpt lat="46.53333" lon="0.31668">
        <ele>187.15</ele>
        <time>2018-09-16T09:00:36.000Z</time>
      </trkpt>
      <trkpt lat="46.53322" lon="0.31677">
        <ele>187.24</ele>
        <time>2018-09-16T09:00:38.000Z</time>
      </trkpt>
      <trkpt lat="46.5331" lon="0.31689">
        <ele>187.04</ele>
        <time>2018-09-16T09:00:40.000Z</time>
      </trkpt>
      <trkpt lat="46.53301" lon="0.31701">
        <ele>186.85</ele>
        <time>2018-09-16T09:00:42.000Z</time>
      </trkpt>
      <trkpt lat="46.5329" lon="0.31712">
        <ele>186.44</ele>
        <time>2018-09-16T09:00:44.000Z</time>
      </trkpt>
      <trkpt lat="46.53279" lon="0.3172">
        <ele>185.6</ele>
        <time>2018-09-16T09:00:46.000Z</time>
      </trkpt>
      <trkpt lat="46.53268" lon="0.31728">
        <ele>184.65</ele>
        <time>2018-09-16T09:00:48.000Z</time>
      </trkpt>
      <trkpt lat="46.53259" lon="0.31738">
        <ele>183.56</ele>
        <time>2018-09-16T09:00:50.000Z</time>
      </trkpt>
      <trkpt lat="46.5325" lon="0.31748">
        <ele>182.62</ele>
        <time>2018-09-16T09:00:52.000Z</time>
      </trkpt>
      <trkpt lat="46.53242" lon="0.31757">
        <ele>182.29</ele>
        <time>2018-09-16T09:00:54.000Z</time>
      </trkpt>
      <trkpt lat="46.53233" lon="0.31756">
        <ele>181.96</ele>
        <time>2018-09-16T09:00:57.000Z</time>
      </trkpt>
      <trkpt lat="46.53227" lon="0.31744">
        <ele>181.7</ele>
        <time>2018-09-16T09:01:00.000Z</time>
      </trkpt>
      <trkpt lat="46.53223" lon="0.31731">
        <ele>180.12</ele>
        <time>2018-09-16T09:01:02.000Z</time>
      </trkpt>
      <trkpt lat="46.53221" lon="0.31716">
        <ele>180.02</ele>
        <time>2018-09-16T09:01:05.000Z</time>
      </trkpt>
      <trkpt lat="46.53219" lon="0.31702">
        <ele>179.98</ele>
        <time>2018-09-16T09:01:09.000Z</time>
      </trkpt>
      <trkpt lat="46.53217" lon="0.31685">
        <ele>179.89</ele>
        <time>2018-09-16T09:01:12.000Z</time>
      </trkpt>
      <trkpt lat="46.53218" lon="0.31671">
        <ele>179.53</ele>
        <time>2018-09-16T09:01:14.000Z</time>
      </trkpt>
      <trkpt lat="46.53219" lon="0.31654">
        <ele>179.63</ele>
        <time>2018-09-16T09:01:16.000Z</time>
      </trkpt>
      <trkpt lat="46.53218" lon="0.31639">
        <ele>179.9</ele>
        <time>2018-09-16T09:01:18.000Z</time>
      </trkpt>
      <trkpt lat="46.53219" lon="0.31625">
        <ele>179.89</ele>
        <time>2018-09-16T09:01:20.000Z</time>
      </trkpt>
      <trkpt lat="46.53215" lon="0.31607">
        <ele>179.78</ele>
        <time>2018-09-16T09:01:23.000Z</time>
      </trkpt>
      <trkpt lat="46.53214" lon="0.31593">
        <ele>179.76</ele>
        <time>2018-09-16T09:01:25.000Z</time>
      </trkpt>
      <trkpt lat="46.53209" lon="0.31579">
        <ele>179.84</ele>
        <time>2018-09-16T09:01:28.000Z</time>
      </trkpt>
      <trkpt lat="46.53206" lon="0.31564">
        <ele>180.2</ele>
        <time>2018-09-16T09:01:32.000Z</time>
      </trkpt>
      <trkpt lat="46.53199" lon="0.31551">
        <ele>180.72</ele>
        <time>2018-09-16T09:01:35.000Z</time>
      </trkpt>
      <trkpt lat="46.53195" lon="0.31536">
        <ele>181.26</ele>
        <time>2018-09-16T09:01:38.000Z</time>
      </trkpt>
      <trkpt lat="46.53186" lon="0.31524">
        <ele>184.55</ele>
        <time>2018-09-16T09:01:41.000Z</time>
      </trkpt>
      <trkpt lat="46.53179" lon="0.31516">
        <ele>184.71</ele>
        <time>2018-09-16T09:01:43.000Z</time>
      </trkpt>
      <trkpt lat="46.53172" lon="0.31503">
        <ele>184.89</ele>
        <time>2018-09-16T09:01:46.000Z</time>
      </trkpt>
      <trkpt lat="46.53166" lon="0.31489">
        <ele>185.13</ele>
        <time>2018-09-16T09:01:49.000Z</time>
      </trkpt>
      <trkpt lat="46.53165" lon="0.31475">
        <ele>185.4</ele>
        <time>2018-09-16T09:01:52.000Z</time>
      </trkpt>
      <trkpt lat="46.53166" lon="0.31459">
        <ele>185.62</ele>
        <time>2018-09-16T09:01:57.000Z</time>
      </trkpt>
      <trkpt lat="46.53167" lon="0.31444">
        <ele>185.65</ele>
        <time>2018-09-16T09:01:59.000Z</time>
      </trkpt>
      <trkpt lat="46.53159" lon="0.31431">
        <ele>185.57</ele>
        <time>2018-09-16T09:02:03.000Z</time>
      </trkpt>
      <trkpt lat="46.53151" lon="0.31416">
        <ele>185.41</ele>
        <time>2018-09-16T09:02:08.000Z</time>
      </trkpt>
      <trkpt lat="46.53146" lon="0.31404">
        <ele>185.49</ele>
        <time>2018-09-16T09:02:13.000Z</time>
      </trkpt>
      <trkpt lat="46.53143" lon="0.31387">
        <ele>185.65</ele>
        <time>2018-09-16T09:02:16.000Z</time>
      </trkpt>
      <trkpt lat="46.53139" lon="0.31373">
        <ele>186.3</ele>
        <time>2018-09-16T09:02:20.000Z</time>
      </trkpt>
      <trkpt lat="46.53139" lon="0.31359">
        <ele>186.93</ele>
        <time>2018-09-16T09:02:23.000Z</time>
      </trkpt>
      <trkpt lat="46.53137" lon="0.31343">
        <ele>187.64</ele>
        <time>2018-09-16T09:02:27.000Z</time>
      </trkpt>
      <trkpt lat="46.53134" lon="0.3133">
        <ele>188.09</ele>
        <time>2018-09-16T09:02:32.000Z</time>
      </trkpt>
      <trkpt lat="46.5313" lon="0.31317">
        <ele>188.42</ele>
        <time>2018-09-16T09:02:35.000Z</time>
      </trkpt>
      <trkpt lat="46.53125" lon="0.31304">
        <ele>188.63</ele>
        <time>2018-09-16T09:02:39.000Z</time>
      </trkpt>
      <trkpt lat="46.53124" lon="0.31289">
        <ele>188.56</ele>
        <time>2018-09-16T09:02:42.000Z</time>
      </trkpt>
      <trkpt lat="46.5313" lon="0.31275">
        <ele>188.34</ele>
        <time>2018-09-16T09:02:45.000Z</time>
      </trkpt>
      <trkpt lat="46.53139" lon="0.31266">
        <ele>187.96</ele>
        <time>2018-09-16T09:02:49.000Z</time>
      </trkpt>
      <trkpt lat="46.53146" lon="0.31255">
        <ele>187.55</ele>
        <time>2018-09-16T09:02:54.000Z</time>
      </trkpt>
      <trkpt lat="46.53153" lon="0.31244">
        <ele>187.33</ele>
        <time>2018-09-16T09:02:57.000Z</time>
      </trkpt>
      <trkpt lat="46.53159" lon="0.31233">
        <ele>187.09</ele>
        <time>2018-09-16T09:03:00.000Z</time>
      </trkpt>
      <trkpt lat="46.53167" lon="0.31223">
        <ele>186.82</ele>
        <time>2018-09-16T09:03:03.000Z</time>
      </trkpt>
      <trkpt lat="46.53174" lon="0.31215">
        <ele>186.64</ele>
        <time>2018-09-16T09:03:06.000Z</time>
      </trkpt>
      <trkpt lat="46.53181" lon="0.31201">
        <ele>186.28</ele>
        <time>2018-09-16T09:03:11.000Z</time>
      </trkpt>
      <trkpt lat="46.53182" lon="0.31183">
        <ele>185.55</ele>
        <time>2018-09-16T09:03:14.000Z</time>
      </trkpt>
      <trkpt lat="46.53184" lon="0.31163">
        <ele>185.79</ele>
        <time>2018-09-16T09:03:16.000Z</time>
      </trkpt>
      <trkpt lat="46.53188" lon="0.31143">
        <ele>185.65</ele>
        <time>2018-09-16T09:03:19.000Z</time>
      </trkpt>
      <trkpt lat="46.53192" lon="0.31127">
        <ele>184.89</ele>
        <time>2018-09-16T09:03:21.000Z</time>
      </trkpt>
      <trkpt lat="46.53197" lon="0.31115">
        <ele>184.82</ele>
        <time>2018-09-16T09:03:23.000Z</time>
      </trkpt>
      <trkpt lat="46.53199" lon="0.31102">
        <ele>185.04</ele>
        <time>2018-09-16T09:03:28.000Z</time>
      </trkpt>
      <trkpt lat="46.53196" lon="0.31088">
        <ele>185.17</ele>
        <time>2018-09-16T09:03:33.000Z</time>
      </trkpt>
      <trkpt lat="46.5319" lon="0.31074">
        <ele>185.23</ele>
        <time>2018-09-16T09:03:36.000Z</time>
      </trkpt>
      <trkpt lat="46.53191" lon="0.31061">
        <ele>185.18</ele>
        <time>2018-09-16T09:03:39.000Z</time>
      </trkpt>
      <trkpt lat="46.53194" lon="0.31048">
        <ele>185.05</ele>
        <time>2018-09-16T09:03:42.000Z</time>
      </trkpt>
      <trkpt lat="46.53193" lon="0.31034">
        <ele>185.13</ele>
        <time>2018-09-16T09:03:46.000Z</time>
      </trkpt>
      <trkpt lat="46.53187" lon="0.31024">
        <ele>185.05</ele>
        <time>2018-09-16T09:03:55.000Z</time>
      </trkpt>
      <trkpt lat="46.5318" lon="0.31015">
        <ele>184.56</ele>
        <time>2018-09-16T09:04:04.000Z</time>
      </trkpt>
      <trkpt lat="46.53182" lon="0.30999">
        <ele>184.18</ele>
        <time>2018-09-16T09:04:08.000Z</time>
      </trkpt>
      <trkpt lat="46.5319" lon="0.30991">
        <ele>183.25</ele>
        <time>2018-09-16T09:04:15.000Z</time>
      </trkpt>
      <trkpt lat="46.53194" lon="0.30979">
        <ele>182.94</ele>
        <time>2018-09-16T09:04:18.000Z</time>
      </trkpt>
      <trkpt lat="46.53202" lon="0.30964">
        <ele>182.66</ele>
        <time>2018-09-16T09:04:22.000Z</time>
      </trkpt>
      <trkpt lat="46.5321" lon="0.30953">
        <ele>182.24</ele>
        <time>2018-09-16T09:04:25.000Z</time>
      </trkpt>
      <trkpt lat="46.53213" lon="0.30936">
        <ele>181.65</ele>
        <time>2018-09-16T09:04:28.000Z</time>
      </trkpt>
      <trkpt lat="46.53216" lon="0.30924">
        <ele>180.99</ele>
        <time>2018-09-16T09:04:32.000Z</time>
      </trkpt>
      <trkpt lat="46.53223" lon="0.30914">
        <ele>180.39</ele>
        <time>2018-09-16T09:04:36.000Z</time>
      </trkpt>
      <trkpt lat="46.53227" lon="0.309">
        <ele>176.97</ele>
        <time>2018-09-16T09:04:56.000Z</time>
      </trkpt>
      <trkpt lat="46.53236" lon="0.30892">
        <ele>176.67</ele>
        <time>2018-09-16T09:04:59.000Z</time>
      </trkpt>
      <trkpt lat="46.53244" lon="0.30882">
        <ele>176.43</ele>
        <time>2018-09-16T09:05:02.000Z</time>
      </trkpt>
      <trkpt lat="46.53251" lon="0.30873">
        <ele>176.44</ele>
        <time>2018-09-16T09:05:05.000Z</time>
      </trkpt>
      <trkpt lat="46.53259" lon="0.30865">
        <ele>176.6</ele>
        <time>2018-09-16T09:05:08.000Z</time>
      </trkpt>
      <trkpt lat="46.53268" lon="0.3086">
        <ele>176.81</ele>
        <time>2018-09-16T09:05:12.000Z</time>
      </trkpt>
      <trkpt lat="46.53279" lon="0.30854">
        <ele>176.88</ele>
        <time>2018-09-16T09:05:16.000Z</time>
      </trkpt>
      <trkpt lat="46.53289" lon="0.30849">
        <ele>177.01</ele>
        <time>2018-09-16T09:05:19.000Z</time>
      </trkpt>
      <trkpt lat="46.53299" lon="0.30845">
        <ele>177.17</ele>
        <time>2018-09-16T09:05:22.000Z</time>
      </trkpt>
      <trkpt lat="46.53308" lon="0.30839">
        <ele>177.36</ele>
        <time>2018-09-16T09:05:25.000Z</time>
      </trkpt>
      <trkpt lat="46.53318" lon="0.30831">
        <ele>177.9</ele>
        <time>2018-09-16T09:05:30.000Z</time>
      </trkpt>
      <trkpt lat="46.53328" lon="0.30823">
        <ele>178.28</ele>
        <time>2018-09-16T09:05:34.000Z</time>
      </trkpt>
      <trkpt lat="46.53335" lon="0.30811">
        <ele>178.7</ele>
        <time>2018-09-16T09:05:39.000Z</time>
      </trkpt>
      <trkpt lat="46.53344" lon="0.30806">
        <ele>179.25</ele>
        <time>2018-09-16T09:05:43.000Z</time>
      </trkpt>
      <trkpt lat="46.53354" lon="0.30803">
        <ele>179.75</ele>
        <time>2018-09-16T09:05:47.000Z</time>
      </trkpt>
      <trkpt lat="46.53364" lon="0.308">
        <ele>180.08</ele>
        <time>2018-09-16T09:05:51.000Z</time>
      </trkpt>
      <trkpt lat="46.53373" lon="0.30796">
        <ele>180.21</ele>
        <time>2018-09-16T09:05:54.000Z</time>
      </trkpt>
      <trkpt lat="46.53383" lon="0.30792">
        <ele>180.39</ele>
        <time>2018-09-16T09:05:58.000Z</time>
      </trkpt>
      <trkpt lat="46.53392" lon="0.30788">
        <ele>180.52</ele>
        <time>2018-09-16T09:06:01.000Z</time>
      </trkpt>
      <trkpt lat="46.53401" lon="0.30782">
        <ele>180.82</ele>
        <time>2018-09-16T09:06:05.000Z</time>
      </trkpt>
      <trkpt lat="46.5341" lon="0.30775">
        <ele>181.41</ele>
        <time>2018-09-16T09:06:10.000Z</time>
      </trkpt>
      <trkpt lat="46.53418" lon="0.30768">
        <ele>181.93</ele>
        <time>2018-09-16T09:06:14.000Z</time>
      </trkpt>
      <trkpt lat="46.53428" lon="0.30765">
        <ele>182.43</ele>
        <time>2018-09-16T09:06:19.000Z</time>
      </trkpt>
      <trkpt lat="46.53437" lon="0.3076">
        <ele>182.58</ele>
        <time>2018-09-16T09:06:24.000Z</time>
      </trkpt>
      <trkpt lat="46.53447" lon="0.30755">
        <ele>182.54</ele>
        <time>2018-09-16T09:06:30.000Z</time>
      </trkpt>
      <trkpt lat="46.53457" lon="0.30754">
        <ele>182.55</ele>
        <time>2018-09-16T09:06:34.000Z</time>
      </trkpt>
      <trkpt lat="46.53467" lon="0.30756">
        <ele>182.63</ele>
        <time>2018-09-16T09:06:40.000Z</time>
      </trkpt>
      <trkpt lat="46.53479" lon="0.30757">
        <ele>182.77</ele>
        <time>2018-09-16T09:06:45.000Z</time>
      </trkpt>
      <trkpt lat="46.53489" lon="0.30756">
        <ele>182.84</ele>
        <time>2018-09-16T09:06:50.000Z</time>
      </trkpt>
      <trkpt lat="46.53498" lon="0.30753">
        <ele>182.81</ele>
        <time>2018-09-16T09:06:55.000Z</time>
      </trkpt>
      <trkpt lat="46.53507" lon="0.30752">
        <ele>182.99</ele>
        <time>2018-09-16T09:07:00.000Z</time>
      </trkpt>
      <trkpt lat="46.53517" lon="0.30754">
        <ele>183.18</ele>
        <time>2018-09-16T09:07:05.000Z</time>
      </trkpt>
      <trkpt lat="46.53526" lon="0.30754">
        <ele>183.74</ele>
        <time>2018-09-16T09:07:11.000Z</time>
      </trkpt>
      <trkpt lat="46.53537" lon="0.30753">
        <ele>184.64</ele>
        <time>2018-09-16T09:07:18.000Z</time>
      </trkpt>
      <trkpt lat="46.53547" lon="0.30755">
        <ele>185.19</ele>
        <time>2018-09-16T09:07:23.000Z</time>
      </trkpt>
      <trkpt lat="46.53557" lon="0.30756">
        <ele>185.7</ele>
        <time>2018-09-16T09:07:29.000Z</time>
      </trkpt>
      <trkpt lat="46.53567" lon="0.30759">
        <ele>186.26</ele>
        <time>2018-09-16T09:07:35.000Z</time>
      </trkpt>
      <trkpt lat="46.53577" lon="0.30765">
        <ele>187.08</ele>
        <time>2018-09-16T09:07:40.000Z</time>
      </trkpt>
      <trkpt lat="46.53587" lon="0.30767">
        <ele>188.05</ele>
        <time>2018-09-16T09:07:44.000Z</time>
      </trkpt>
      <trkpt lat="46.53588" lon="0.30753">
        <ele>190.08</ele>
        <time>2018-09-16T09:07:54.000Z</time>
      </trkpt>
      <trkpt lat="46.53579" lon="0.30737">
        <ele>194.41</ele>
        <time>2018-09-16T09:07:57.000Z</time>
      </trkpt>
      <trkpt lat="46.53567" lon="0.30724">
        <ele>195.9</ele>
        <time>2018-09-16T09:07:59.000Z</time>
      </trkpt>
      <trkpt lat="46.53558" lon="0.30715">
        <ele>196.48</ele>
        <time>2018-09-16T09:08:01.000Z</time>
      </trkpt>
      <trkpt lat="46.53547" lon="0.30704">
        <ele>196.61</ele>
        <time>2018-09-16T09:08:03.000Z</time>
      </trkpt>
      <trkpt lat="46.53537" lon="0.30693">
        <ele>196.19</ele>
        <time>2018-09-16T09:08:05.000Z</time>
      </trkpt>
      <trkpt lat="46.53529" lon="0.30682">
        <ele>195.14</ele>
        <time>2018-09-16T09:08:07.000Z</time>
      </trkpt>
      <trkpt lat="46.53522" lon="0.30669">
        <ele>194.93</ele>
        <time>2018-09-16T09:08:09.000Z</time>
      </trkpt>
      <trkpt lat="46.53518" lon="0.30653">
        <ele>195.18</ele>
        <time>2018-09-16T09:08:12.000Z</time>
      </trkpt>
      <trkpt lat="46.53515" lon="0.30641">
        <ele>195.95</ele>
        <time>2018-09-16T09:08:14.000Z</time>
      </trkpt>
      <trkpt lat="46.53511" lon="0.30624">
        <ele>196.08</ele>
        <time>2018-09-16T09:08:17.000Z</time>
      </trkpt>
      <trkpt lat="46.53507" lon="0.3061">
        <ele>196.1</ele>
        <time>2018-09-16T09:08:20.000Z</time>
      </trkpt>
      <trkpt lat="46.53503" lon="0.30596">
        <ele>195.86</ele>
        <time>2018-09-16T09:08:24.000Z</time>
      </trkpt>
      <trkpt lat="46.53502" lon="0.30581">
        <ele>195.6</ele>
        <time>2018-09-16T09:08:27.000Z</time>
      </trkpt>
      <trkpt lat="46.53506" lon="0.30566">
        <ele>195.11</ele>
        <time>2018-09-16T09:08:30.000Z</time>
      </trkpt>
      <trkpt lat="46.53515" lon="0.30558">
        <ele>194.3</ele>
        <time>2018-09-16T09:08:35.000Z</time>
      </trkpt>
      <trkpt lat="46.53527" lon="0.30558">
        <ele>193.59</ele>
        <time>2018-09-16T09:08:39.000Z</time>
      </trkpt>
      <trkpt lat="46.53539" lon="0.30557">
        <ele>190.51</ele>
        <time>2018-09-16T09:08:42.000Z</time>
      </trkpt>
      <trkpt lat="46.53552" lon="0.30551">
        <ele>190.2</ele>
        <time>2018-09-16T09:08:45.000Z</time>
      </trkpt>
      <trkpt lat="46.53565" lon="0.30545">
        <ele>187.41</ele>
        <time>2018-09-16T09:08:48.000Z</time>
      </trkpt>
      <trkpt lat="46.53578" lon="0.3054">
        <ele>184.78</ele>
        <time>2018-09-16T09:08:51.000Z</time>
      </trkpt>
      <trkpt lat="46.53588" lon="0.30539">
        <ele>183.89</ele>
        <time>2018-09-16T09:08:53.000Z</time>
      </trkpt>
      <trkpt lat="46.536" lon="0.3054">
        <ele>183.66</ele>
        <time>2018-09-16T09:08:55.000Z</time>
      </trkpt>
      <trkpt lat="46.53609" lon="0.30541">
        <ele>184.31</ele>
        <time>2018-09-16T09:08:57.000Z</time>
      </trkpt>
      <trkpt lat="46.53619" lon="0.30541">
        <ele>184.47</ele>
        <time>2018-09-16T09:09:00.000Z</time>
      </trkpt>
      <trkpt lat="46.5363" lon="0.30542">
        <ele>184.95</ele>
        <time>2018-09-16T09:09:05.000Z</time>
      </trkpt>
      <trkpt lat="46.5364" lon="0.30541">
        <ele>185.66</ele>
        <time>2018-09-16T09:09:10.000Z</time>
      </trkpt>
      <trkpt lat="46.5365" lon="0.30542">
        <ele>186.56</ele>
        <time>2018-09-16T09:09:15.000Z</time>
      </trkpt>
      <trkpt lat="46.5366" lon="0.30545">
        <ele>187.71</ele>
        <time>2018-09-16T09:09:21.000Z</time>
      </trkpt>
      <trkpt lat="46.53669" lon="0.30548">
        <ele>188.6</ele>
        <time>2018-09-16T09:09:26.000Z</time>
      </trkpt>
      <trkpt lat="46.53679" lon="0.30548">
        <ele>189.29</ele>
        <time>2018-09-16T09:09:30.000Z</time>
      </trkpt>
      <trkpt lat="46.53688" lon="0.30548">
        <ele>189.82</ele>
        <time>2018-09-16T09:09:35.000Z</time>
      </trkpt>
      <trkpt lat="46.53699" lon="0.30548">
        <ele>190.12</ele>
        <time>2018-09-16T09:09:39.000Z</time>
      </trkpt>
      <trkpt lat="46.53708" lon="0.30546">
        <ele>190.26</ele>
        <time>2018-09-16T09:09:43.000Z</time>
      </trkpt>
      <trkpt lat="46.5372" lon="0.30546">
        <ele>190.43</ele>
        <time>2018-09-16T09:09:48.000Z</time>
      </trkpt>
      <trkpt lat="46.53731" lon="0.30548">
        <ele>190.67</ele>
        <time>2018-09-16T09:09:52.000Z</time>
      </trkpt>
      <trkpt lat="46.5374" lon="0.3055">
        <ele>190.89</ele>
        <time>2018-09-16T09:09:56.000Z</time>
      </trkpt>
      <trkpt lat="46.53752" lon="0.30551">
        <ele>191.03</ele>
        <time>2018-09-16T09:10:00.000Z</time>
      </trkpt>
      <trkpt lat="46.53764" lon="0.30553">
        <ele>191.11</ele>
        <time>2018-09-16T09:10:04.000Z</time>
      </trkpt>
      <trkpt lat="46.53775" lon="0.30555">
        <ele>191.2</ele>
        <time>2018-09-16T09:10:08.000Z</time>
      </trkpt>
      <trkpt lat="46.53784" lon="0.30556">
        <ele>191.31</ele>
        <time>2018-09-16T09:10:11.000Z</time>
      </trkpt>
      <trkpt lat="46.53795" lon="0.30557">
        <ele>191.39</ele>
        <time>2018-09-16T09:10:14.000Z</time>
      </trkpt>
      <trkpt lat="46.53806" lon="0.30558">
        <ele>191.51</ele>
        <time>2018-09-16T09:10:17.000Z</time>
      </trkpt>
      <trkpt lat="46.53817" lon="0.30559">
        <ele>191.66</ele>
        <time>2018-09-16T09:10:20.000Z</time>
      </trkpt>
      <trkpt lat="46.53827" lon="0.30554">
        <ele>191.97</ele>
        <time>2018-09-16T09:10:24.000Z</time>
      </trkpt>
      <trkpt lat="46.53828" lon="0.30539">
        <ele>192.3</ele>
        <time>2018-09-16T09:10:27.000Z</time>
      </trkpt>
      <trkpt lat="46.53831" lon="0.30524">
        <ele>192.57</ele>
        <time>2018-09-16T09:10:30.000Z</time>
      </trkpt>
      <trkpt lat="46.53834" lon="0.30508">
        <ele>192.9</ele>
        <time>2018-09-16T09:10:33.000Z</time>
      </trkpt>
      <trkpt lat="46.53838" lon="0.30493">
        <ele>193.23</ele>
        <time>2018-09-16T09:10:36.000Z</time>
      </trkpt>
      <trkpt lat="46.53841" lon="0.30477">
        <ele>194.88</ele>
        <time>2018-09-16T09:10:39.000Z</time>
      </trkpt>
      <trkpt lat="46.53844" lon="0.30464">
        <ele>196.2</ele>
        <time>2018-09-16T09:10:41.000Z</time>
      </trkpt>
      <trkpt lat="46.53846" lon="0.3045">
        <ele>196.74</ele>
        <time>2018-09-16T09:10:44.000Z</time>
      </trkpt>
      <trkpt lat="46.53848" lon="0.30435">
        <ele>196.92</ele>
        <time>2018-09-16T09:10:46.000Z</time>
      </trkpt>
      <trkpt lat="46.53851" lon="0.30419">
        <ele>197.07</ele>
        <time>2018-09-16T09:10:49.000Z</time>
      </trkpt>
      <trkpt lat="46.53854" lon="0.304">
        <ele>196.72</ele>
        <time>2018-09-16T09:10:52.000Z</time>
      </trkpt>
      <trkpt lat="46.53856" lon="0.30382">
        <ele>196.74</ele>
        <time>2018-09-16T09:10:54.000Z</time>
      </trkpt>
      <trkpt lat="46.53858" lon="0.30367">
        <ele>197.62</ele>
        <time>2018-09-16T09:10:56.000Z</time>
      </trkpt>
      <trkpt lat="46.5386" lon="0.30353">
        <ele>198.52</ele>
        <time>2018-09-16T09:10:59.000Z</time>
      </trkpt>
      <trkpt lat="46.53861" lon="0.3034">
        <ele>198.23</ele>
        <time>2018-09-16T09:11:01.000Z</time>
      </trkpt>
      <trkpt lat="46.53862" lon="0.3032">
        <ele>198.14</ele>
        <time>2018-09-16T09:11:03.000Z</time>
      </trkpt>
      <trkpt lat="46.53862" lon="0.30306">
        <ele>198.19</ele>
        <time>2018-09-16T09:11:05.000Z</time>
      </trkpt>
      <trkpt lat="46.53861" lon="0.3029">
        <ele>197.97</ele>
        <time>2018-09-16T09:11:07.000Z</time>
      </trkpt>
      <trkpt lat="46.53861" lon="0.30272">
        <ele>198.12</ele>
        <time>2018-09-16T09:11:09.000Z</time>
      </trkpt>
      <trkpt lat="46.53862" lon="0.30255">
        <ele>198.4</ele>
        <time>2018-09-16T09:11:12.000Z</time>
      </trkpt>
      <trkpt lat="46.53863" lon="0.3024">
        <ele>198.52</ele>
        <time>2018-09-16T09:11:14.000Z</time>
      </trkpt>
      <trkpt lat="46.53864" lon="0.30225">
        <ele>198.05</ele>
        <time>2018-09-16T09:11:16.000Z</time>
      </trkpt>
      <trkpt lat="46.53864" lon="0.30207">
        <ele>197.27</ele>
        <time>2018-09-16T09:11:19.000Z</time>
      </trkpt>
      <trkpt lat="46.53865" lon="0.30193">
        <ele>197.67</ele>
        <time>2018-09-16T09:11:21.000Z</time>
      </trkpt>
      <trkpt lat="46.53868" lon="0.30179">
        <ele>197.82</ele>
        <time>2018-09-16T09:11:24.000Z</time>
      </trkpt>
      <trkpt lat="46.53872" lon="0.30164">
        <ele>198</ele>
        <time>2018-09-16T09:11:26.000Z</time>
      </trkpt>
      <trkpt lat="46.53876" lon="0.30152">
        <ele>198.32</ele>
        <time>2018-09-16T09:11:29.000Z</time>
      </trkpt>
      <trkpt lat="46.53881" lon="0.30138">
        <ele>198.51</ele>
        <time>2018-09-16T09:11:32.000Z</time>
      </trkpt>
      <trkpt lat="46.53886" lon="0.30127">
        <ele>198.6</ele>
        <time>2018-09-16T09:11:34.000Z</time>
      </trkpt>
      <trkpt lat="46.53891" lon="0.30113">
        <ele>198.69</ele>
        <time>2018-09-16T09:11:37.000Z</time>
      </trkpt>
      <trkpt lat="46.53898" lon="0.30096">
        <ele>199.43</ele>
        <time>2018-09-16T09:11:40.000Z</time>
      </trkpt>
      <trkpt lat="46.53901" lon="0.30083">
        <ele>199.44</ele>
        <time>2018-09-16T09:11:42.000Z</time>
      </trkpt>
      <trkpt lat="46.53904" lon="0.3007">
        <ele>199.37</ele>
        <time>2018-09-16T09:11:44.000Z</time>
      </trkpt>
      <trkpt lat="46.53909" lon="0.30056">
        <ele>199.26</ele>
        <time>2018-09-16T09:11:47.000Z</time>
      </trkpt>
      <trkpt lat="46.53913" lon="0.30042">
        <ele>199.16</ele>
        <time>2018-09-16T09:11:50.000Z</time>
      </trkpt>
      <trkpt lat="46.53917" lon="0.30028">
        <ele>199.06</ele>
        <time>2018-09-16T09:11:52.000Z</time>
      </trkpt>
      <trkpt lat="46.53922" lon="0.30016">
        <ele>199.42</ele>
        <time>2018-09-16T09:11:54.000Z</time>
      </trkpt>
      <trkpt lat="46.53928" lon="0.3">
        <ele>199.91</ele>
        <time>2018-09-16T09:11:57.000Z</time>
      </trkpt>
      <trkpt lat="46.53932" lon="0.29986">
        <ele>200.61</ele>
        <time>2018-09-16T09:11:59.000Z</time>
      </trkpt>
      <trkpt lat="46.53936" lon="0.29973">
        <ele>201.21</ele>
        <time>2018-09-16T09:12:01.000Z</time>
      </trkpt>
      <trkpt lat="46.53941" lon="0.29959">
        <ele>201.66</ele>
        <time>2018-09-16T09:12:04.000Z</time>
      </trkpt>
      <trkpt lat="46.53945" lon="0.29945">
        <ele>201.69</ele>
        <time>2018-09-16T09:12:07.000Z</time>
      </trkpt>
      <trkpt lat="46.53948" lon="0.29931">
        <ele>201.73</ele>
        <time>2018-09-16T09:12:10.000Z</time>
      </trkpt>
      <trkpt lat="46.5395" lon="0.29917">
        <ele>201.77</ele>
        <time>2018-09-16T09:12:12.000Z</time>
      </trkpt>
      <trkpt lat="46.53952" lon="0.29902">
        <ele>202.18</ele>
        <time>2018-09-16T09:12:16.000Z</time>
      </trkpt>
      <trkpt lat="46.53956" lon="0.2989">
        <ele>202.37</ele>
        <time>2018-09-16T09:12:19.000Z</time>
      </trkpt>
      <trkpt lat="46.53959" lon="0.29878">
        <ele>202.42</ele>
        <time>2018-09-16T09:12:21.000Z</time>
      </trkpt>
      <trkpt lat="46.53966" lon="0.29861">
        <ele>202.42</ele>
        <time>2018-09-16T09:12:25.000Z</time>
      </trkpt>
      <trkpt lat="46.53965" lon="0.29848">
        <ele>202.54</ele>
        <time>2018-09-16T09:12:27.000Z</time>
      </trkpt>
      <trkpt lat="46.53956" lon="0.29837">
        <ele>203.31</ele>
        <time>2018-09-16T09:12:30.000Z</time>
      </trkpt>
      <trkpt lat="46.53948" lon="0.29826">
        <ele>203.69</ele>
        <time>2018-09-16T09:12:32.000Z</time>
      </trkpt>
      <trkpt lat="46.53941" lon="0.29815">
        <ele>203.55</ele>
        <time>2018-09-16T09:12:34.000Z</time>
      </trkpt>
      <trkpt lat="46.53931" lon="0.29804">
        <ele>203.47</ele>
        <time>2018-09-16T09:12:36.000Z</time>
      </trkpt>
      <trkpt lat="46.53923" lon="0.29792">
        <ele>202.81</ele>
        <time>2018-09-16T09:12:38.000Z</time>
      </trkpt>
      <trkpt lat="46.53914" lon="0.29779">
        <ele>202.34</ele>
        <time>2018-09-16T09:12:40.000Z</time>
      </trkpt>
      <trkpt lat="46.53906" lon="0.29769">
        <ele>202</ele>
        <time>2018-09-16T09:12:42.000Z</time>
      </trkpt>
      <trkpt lat="46.53897" lon="0.29757">
        <ele>201.5</ele>
        <time>2018-09-16T09:12:44.000Z</time>
      </trkpt>
      <trkpt lat="46.5389" lon="0.29745">
        <ele>201.29</ele>
        <time>2018-09-16T09:12:46.000Z</time>
      </trkpt>
      <trkpt lat="46.5388" lon="0.29738">
        <ele>200.74</ele>
        <time>2018-09-16T09:12:48.000Z</time>
      </trkpt>
      <trkpt lat="46.5387" lon="0.29731">
        <ele>199.88</ele>
        <time>2018-09-16T09:12:50.000Z</time>
      </trkpt>
      <trkpt lat="46.53858" lon="0.29727">
        <ele>199.5</ele>
        <time>2018-09-16T09:12:52.000Z</time>
      </trkpt>
      <trkpt lat="46.53847" lon="0.29726">
        <ele>200.06</ele>
        <time>2018-09-16T09:12:54.000Z</time>
      </trkpt>
      <trkpt lat="46.53835" lon="0.29726">
        <ele>200.9</ele>
        <time>2018-09-16T09:12:56.000Z</time>
      </trkpt>
      <trkpt lat="46.53822" lon="0.29729">
        <ele>202.12</ele>
        <time>2018-09-16T09:12:58.000Z</time>
      </trkpt>
      <trkpt lat="46.53809" lon="0.29732">
        <ele>203.19</ele>
        <time>2018-09-16T09:13:00.000Z</time>
      </trkpt>
      <trkpt lat="46.53796" lon="0.29735">
        <ele>203.92</ele>
        <time>2018-09-16T09:13:02.000Z</time>
      </trkpt>
      <trkpt lat="46.53784" lon="0.29741">
        <ele>204.49</ele>
        <time>2018-09-16T09:13:04.000Z</time>
      </trkpt>
      <trkpt lat="46.53771" lon="0.29744">
        <ele>204.66</ele>
        <time>2018-09-16T09:13:06.000Z</time>
      </trkpt>
      <trkpt lat="46.53759" lon="0.29748">
        <ele>204.56</ele>
        <time>2018-09-16T09:13:08.000Z</time>
      </trkpt>
      <trkpt lat="46.53747" lon="0.2975">
        <ele>204.42</ele>
        <time>2018-09-16T09:13:10.000Z</time>
      </trkpt>
      <trkpt lat="46.53736" lon="0.29753">
        <ele>204.24</ele>
        <time>2018-09-16T09:13:12.000Z</time>
      </trkpt>
      <trkpt lat="46.53724" lon="0.29752">
        <ele>204.14</ele>
        <time>2018-09-16T09:13:14.000Z</time>
      </trkpt>
      <trkpt lat="46.53713" lon="0.2975">
        <ele>204.38</ele>
        <time>2018-09-16T09:13:16.000Z</time>
      </trkpt>
      <trkpt lat="46.53702" lon="0.29744">
        <ele>204.51</ele>
        <time>2018-09-16T09:13:18.000Z</time>
      </trkpt>
      <trkpt lat="46.53692" lon="0.29736">
        <ele>204.53</ele>
        <time>2018-09-16T09:13:20.000Z</time>
      </trkpt>
      <trkpt lat="46.53685" lon="0.29726">
        <ele>204.41</ele>
        <time>2018-09-16T09:13:22.000Z</time>
      </trkpt>
      <trkpt lat="46.53678" lon="0.29716">
        <ele>204.31</ele>
        <time>2018-09-16T09:13:24.000Z</time>
      </trkpt>
      <trkpt lat="46.53669" lon="0.29703">
        <ele>204.12</ele>
        <time>2018-09-16T09:13:27.000Z</time>
      </trkpt>
      <trkpt lat="46.53663" lon="0.29692">
        <ele>204.08</ele>
        <time>2018-09-16T09:13:30.000Z</time>
      </trkpt>
      <trkpt lat="46.53655" lon="0.29679">
        <ele>204.01</ele>
        <time>2018-09-16T09:13:34.000Z</time>
      </trkpt>
      <trkpt lat="46.53652" lon="0.29666">
        <ele>204.09</ele>
        <time>2018-09-16T09:13:46.000Z</time>
      </trkpt>
      <trkpt lat="46.53641" lon="0.29674">
        <ele>210.3</ele>
        <time>2018-09-16T09:22:43.000Z</time>
      </trkpt>
      <trkpt lat="46.53629" lon="0.29682">
        <ele>212.23</ele>
        <time>2018-09-16T09:22:46.000Z</time>
      </trkpt>
      <trkpt lat="46.53621" lon="0.29687">
        <ele>212.96</ele>
        <time>2018-09-16T09:22:48.000Z</time>
      </trkpt>
      <trkpt lat="46.53609" lon="0.29694">
        <ele>213.42</ele>
        <time>2018-09-16T09:22:51.000Z</time>
      </trkpt>
      <trkpt lat="46.53598" lon="0.29702">
        <ele>213.64</ele>
        <time>2018-09-16T09:22:54.000Z</time>
      </trkpt>
      <trkpt lat="46.53587" lon="0.29712">
        <ele>213</ele>
        <time>2018-09-16T09:22:56.000Z</time>
      </trkpt>
      <trkpt lat="46.53579" lon="0.29721">
        <ele>212.74</ele>
        <time>2018-09-16T09:22:58.000Z</time>
      </trkpt>
      <trkpt lat="46.53571" lon="0.29731">
        <ele>211.9</ele>
        <time>2018-09-16T09:23:00.000Z</time>
      </trkpt>
      <trkpt lat="46.53563" lon="0.29741">
        <ele>210.66</ele>
        <time>2018-09-16T09:23:02.000Z</time>
      </trkpt>
      <trkpt lat="46.53552" lon="0.29748">
        <ele>209.19</ele>
        <time>2018-09-16T09:23:04.000Z</time>
      </trkpt>
      <trkpt lat="46.53541" lon="0.2975">
        <ele>208</ele>
        <time>2018-09-16T09:23:06.000Z</time>
      </trkpt>
      <trkpt lat="46.5353" lon="0.29746">
        <ele>207.2</ele>
        <time>2018-09-16T09:23:08.000Z</time>
      </trkpt>
      <trkpt lat="46.53519" lon="0.29738">
        <ele>206.05</ele>
        <time>2018-09-16T09:23:10.000Z</time>
      </trkpt>
      <trkpt lat="46.53511" lon="0.29727">
        <ele>204.8</ele>
        <time>2018-09-16T09:23:12.000Z</time>
      </trkpt>
      <trkpt lat="46.53503" lon="0.29717">
        <ele>203.49</ele>
        <time>2018-09-16T09:23:14.000Z</time>
      </trkpt>
      <trkpt lat="46.53494" lon="0.29707">
        <ele>202.5</ele>
        <time>2018-09-16T09:23:16.000Z</time>
      </trkpt>
      <trkpt lat="46.53486" lon="0.297">
        <ele>201.92</ele>
        <time>2018-09-16T09:23:18.000Z</time>
      </trkpt>
      <trkpt lat="46.53478" lon="0.29693">
        <ele>201.32</ele>
        <time>2018-09-16T09:23:20.000Z</time>
      </trkpt>
      <trkpt lat="46.53469" lon="0.29686">
        <ele>200.16</ele>
        <time>2018-09-16T09:23:22.000Z</time>
      </trkpt>
      <trkpt lat="46.53458" lon="0.2968">
        <ele>198.87</ele>
        <time>2018-09-16T09:23:24.000Z</time>
      </trkpt>
      <trkpt lat="46.53445" lon="0.29671">
        <ele>197.86</ele>
        <time>2018-09-16T09:23:26.000Z</time>
      </trkpt>
      <trkpt lat="46.53433" lon="0.29664">
        <ele>197.16</ele>
        <time>2018-09-16T09:23:28.000Z</time>
      </trkpt>
      <trkpt lat="46.53422" lon="0.29658">
        <ele>196.63</ele>
        <time>2018-09-16T09:23:30.000Z</time>
      </trkpt>
      <trkpt lat="46.53415" lon="0.29649">
        <ele>196.26</ele>
        <time>2018-09-16T09:23:32.000Z</time>
      </trkpt>
      <trkpt lat="46.53414" lon="0.29634">
        <ele>196.02</ele>
        <time>2018-09-16T09:23:41.000Z</time>
      </trkpt>
      <trkpt lat="46.53416" lon="0.29619">
        <ele>196.06</ele>
        <time>2018-09-16T09:23:45.000Z</time>
      </trkpt>
      <trkpt lat="46.53417" lon="0.29605">
        <ele>196.6</ele>
        <time>2018-09-16T09:23:47.000Z</time>
      </trkpt>
      <trkpt lat="46.53419" lon="0.29588">
        <ele>196.5</ele>
        <time>2018-09-16T09:23:49.000Z</time>
      </trkpt>
      <trkpt lat="46.5342" lon="0.29573">
        <ele>196.61</ele>
        <time>2018-09-16T09:23:51.000Z</time>
      </trkpt>
      <trkpt lat="46.53422" lon="0.29557">
        <ele>196.53</ele>
        <time>2018-09-16T09:23:53.000Z</time>
      </trkpt>
      <trkpt lat="46.53424" lon="0.29541">
        <ele>196.77</ele>
        <time>2018-09-16T09:23:55.000Z</time>
      </trkpt>
      <trkpt lat="46.53425" lon="0.29526">
        <ele>196.99</ele>
        <time>2018-09-16T09:23:59.000Z</time>
      </trkpt>
      <trkpt lat="46.53434" lon="0.29521">
        <ele>197.65</ele>
        <time>2018-09-16T09:24:06.000Z</time>
      </trkpt>
      <trkpt lat="46.53444" lon="0.29519">
        <ele>197.82</ele>
        <time>2018-09-16T09:24:10.000Z</time>
      </trkpt>
      <trkpt lat="46.53452" lon="0.29511">
        <ele>197.98</ele>
        <time>2018-09-16T09:24:17.000Z</time>
      </trkpt>
      <trkpt lat="46.53462" lon="0.29503">
        <ele>198.17</ele>
        <time>2018-09-16T09:24:23.000Z</time>
      </trkpt>
      <trkpt lat="46.53468" lon="0.29493">
        <ele>198.28</ele>
        <time>2018-09-16T09:24:26.000Z</time>
      </trkpt>
      <trkpt lat="46.53476" lon="0.29483">
        <ele>198.31</ele>
        <time>2018-09-16T09:24:30.000Z</time>
      </trkpt>
      <trkpt lat="46.53484" lon="0.29479">
        <ele>198.51</ele>
        <time>2018-09-16T09:24:35.000Z</time>
      </trkpt>
      <trkpt lat="46.53493" lon="0.29476">
        <ele>198.56</ele>
        <time>2018-09-16T09:24:42.000Z</time>
      </trkpt>
      <trkpt lat="46.53498" lon="0.29461">
        <ele>198.52</ele>
        <time>2018-09-16T09:24:47.000Z</time>
      </trkpt>
      <trkpt lat="46.535" lon="0.29444">
        <ele>198.43</ele>
        <time>2018-09-16T09:24:51.000Z</time>
      </trkpt>
      <trkpt lat="46.53509" lon="0.29436">
        <ele>198.34</ele>
        <time>2018-09-16T09:24:54.000Z</time>
      </trkpt>
      <trkpt lat="46.53519" lon="0.29428">
        <ele>197.99</ele>
        <time>2018-09-16T09:24:57.000Z</time>
      </trkpt>
      <trkpt lat="46.53531" lon="0.29418">
        <ele>198.06</ele>
        <time>2018-09-16T09:25:00.000Z</time>
      </trkpt>
      <trkpt lat="46.53542" lon="0.29408">
        <ele>198.33</ele>
        <time>2018-09-16T09:25:03.000Z</time>
      </trkpt>
      <trkpt lat="46.53553" lon="0.29399">
        <ele>198.49</ele>
        <time>2018-09-16T09:25:06.000Z</time>
      </trkpt>
      <trkpt lat="46.53562" lon="0.29393">
        <ele>199.5</ele>
        <time>2018-09-16T09:25:08.000Z</time>
      </trkpt>
      <trkpt lat="46.53572" lon="0.29388">
        <ele>200.76</ele>
        <time>2018-09-16T09:25:10.000Z</time>
      </trkpt>
      <trkpt lat="46.53581" lon="0.29382">
        <ele>201.39</ele>
        <time>2018-09-16T09:25:12.000Z</time>
      </trkpt>
      <trkpt lat="46.53589" lon="0.29377">
        <ele>201.44</ele>
        <time>2018-09-16T09:25:14.000Z</time>
      </trkpt>
      <trkpt lat="46.53599" lon="0.29365">
        <ele>201.89</ele>
        <time>2018-09-16T09:25:17.000Z</time>
      </trkpt>
      <trkpt lat="46.53607" lon="0.29354">
        <ele>201.7</ele>
        <time>2018-09-16T09:25:19.000Z</time>
      </trkpt>
      <trkpt lat="46.53616" lon="0.29344">
        <ele>201.4</ele>
        <time>2018-09-16T09:25:21.000Z</time>
      </trkpt>
      <trkpt lat="46.53624" lon="0.29334">
        <ele>201.08</ele>
        <time>2018-09-16T09:25:23.000Z</time>
      </trkpt>
      <trkpt lat="46.53633" lon="0.29325">
        <ele>200.61</ele>
        <time>2018-09-16T09:25:25.000Z</time>
      </trkpt>
      <trkpt lat="46.53642" lon="0.29315">
        <ele>199.5</ele>
        <time>2018-09-16T09:25:27.000Z</time>
      </trkpt>
      <trkpt lat="46.5365" lon="0.29308">
        <ele>199.38</ele>
        <time>2018-09-16T09:25:29.000Z</time>
      </trkpt>
      <trkpt lat="46.53663" lon="0.29304">
        <ele>198.73</ele>
        <time>2018-09-16T09:25:32.000Z</time>
      </trkpt>
      <trkpt lat="46.53672" lon="0.29306">
        <ele>198.62</ele>
        <time>2018-09-16T09:25:36.000Z</time>
      </trkpt>
      <trkpt lat="46.53682" lon="0.29309">
        <ele>198.92</ele>
        <time>2018-09-16T09:25:43.000Z</time>
      </trkpt>
      <trkpt lat="46.53692" lon="0.29304">
        <ele>198.99</ele>
        <time>2018-09-16T09:25:46.000Z</time>
      </trkpt>
      <trkpt lat="46.53703" lon="0.29294">
        <ele>197.76</ele>
        <time>2018-09-16T09:25:48.000Z</time>
      </trkpt>
      <trkpt lat="46.53715" lon="0.29285">
        <ele>195.88</ele>
        <time>2018-09-16T09:25:50.000Z</time>
      </trkpt>
      <trkpt lat="46.53726" lon="0.29275">
        <ele>194.43</ele>
        <time>2018-09-16T09:25:52.000Z</time>
      </trkpt>
      <trkpt lat="46.53736" lon="0.29266">
        <ele>193.29</ele>
        <time>2018-09-16T09:25:54.000Z</time>
      </trkpt>
      <trkpt lat="46.53746" lon="0.29255">
        <ele>192.89</ele>
        <time>2018-09-16T09:25:56.000Z</time>
      </trkpt>
      <trkpt lat="46.53756" lon="0.29242">
        <ele>192.99</ele>
        <time>2018-09-16T09:25:58.000Z</time>
      </trkpt>
      <trkpt lat="46.53767" lon="0.29229">
        <ele>193.04</ele>
        <time>2018-09-16T09:26:00.000Z</time>
      </trkpt>
      <trkpt lat="46.53777" lon="0.29216">
        <ele>192.75</ele>
        <time>2018-09-16T09:26:02.000Z</time>
      </trkpt>
      <trkpt lat="46.53788" lon="0.29202">
        <ele>192.9</ele>
        <time>2018-09-16T09:26:04.000Z</time>
      </trkpt>
      <trkpt lat="46.53798" lon="0.29189">
        <ele>192.94</ele>
        <time>2018-09-16T09:26:06.000Z</time>
      </trkpt>
      <trkpt lat="46.53806" lon="0.29177">
        <ele>192.95</ele>
        <time>2018-09-16T09:26:08.000Z</time>
      </trkpt>
      <trkpt lat="46.53816" lon="0.29163">
        <ele>193.08</ele>
        <time>2018-09-16T09:26:10.000Z</time>
      </trkpt>
      <trkpt lat="46.53826" lon="0.29148">
        <ele>193.13</ele>
        <time>2018-09-16T09:26:12.000Z</time>
      </trkpt>
      <trkpt lat="46.53837" lon="0.29133">
        <ele>193.13</ele>
        <time>2018-09-16T09:26:14.000Z</time>
      </trkpt>
      <trkpt lat="46.53845" lon="0.29118">
        <ele>193.11</ele>
        <time>2018-09-16T09:26:16.000Z</time>
      </trkpt>
      <trkpt lat="46.53852" lon="0.29099">
        <ele>193.2</ele>
        <time>2018-09-16T09:26:18.000Z</time>
      </trkpt>
      <trkpt lat="46.53859" lon="0.29075">
        <ele>193.2</ele>
        <time>2018-09-16T09:26:20.000Z</time>
      </trkpt>
      <trkpt lat="46.53863" lon="0.29063">
        <ele>192.97</ele>
        <time>2018-09-16T09:26:21.000Z</time>
      </trkpt>
      <trkpt lat="46.53867" lon="0.2905">
        <ele>192.79</ele>
        <time>2018-09-16T09:26:22.000Z</time>
      </trkpt>
      <trkpt lat="46.5387" lon="0.29037">
        <ele>192.56</ele>
        <time>2018-09-16T09:26:23.000Z</time>
      </trkpt>
      <trkpt lat="46.53873" lon="0.29023">
        <ele>192.19</ele>
        <time>2018-09-16T09:26:24.000Z</time>
      </trkpt>
      <trkpt lat="46.53876" lon="0.29008">
        <ele>191.69</ele>
        <time>2018-09-16T09:26:25.000Z</time>
      </trkpt>
      <trkpt lat="46.5388" lon="0.28993">
        <ele>191.07</ele>
        <time>2018-09-16T09:26:26.000Z</time>
      </trkpt>
      <trkpt lat="46.53883" lon="0.28976">
        <ele>190.75</ele>
        <time>2018-09-16T09:26:27.000Z</time>
      </trkpt>
      <trkpt lat="46.53886" lon="0.2896">
        <ele>190.46</ele>
        <time>2018-09-16T09:26:28.000Z</time>
      </trkpt>
      <trkpt lat="46.53889" lon="0.28946">
        <ele>190.08</ele>
        <time>2018-09-16T09:26:29.000Z</time>
      </trkpt>
      <trkpt lat="46.53896" lon="0.28925">
        <ele>189.32</ele>
        <time>2018-09-16T09:26:31.000Z</time>
      </trkpt>
      <trkpt lat="46.53897" lon="0.28909">
        <ele>188.4</ele>
        <time>2018-09-16T09:26:33.000Z</time>
      </trkpt>
      <trkpt lat="46.53891" lon="0.28894">
        <ele>187.41</ele>
        <time>2018-09-16T09:26:35.000Z</time>
      </trkpt>
      <trkpt lat="46.53896" lon="0.28882">
        <ele>186.72</ele>
        <time>2018-09-16T09:26:39.000Z</time>
      </trkpt>
      <trkpt lat="46.53906" lon="0.28881">
        <ele>185.7</ele>
        <time>2018-09-16T09:26:41.000Z</time>
      </trkpt>
      <trkpt lat="46.53917" lon="0.2888">
        <ele>184.95</ele>
        <time>2018-09-16T09:26:43.000Z</time>
      </trkpt>
      <trkpt lat="46.53928" lon="0.28875">
        <ele>184.33</ele>
        <time>2018-09-16T09:26:45.000Z</time>
      </trkpt>
      <trkpt lat="46.53938" lon="0.2887">
        <ele>185.02</ele>
        <time>2018-09-16T09:26:47.000Z</time>
      </trkpt>
      <trkpt lat="46.53949" lon="0.28857">
        <ele>185.7</ele>
        <time>2018-09-16T09:26:49.000Z</time>
      </trkpt>
      <trkpt lat="46.53962" lon="0.28846">
        <ele>186.57</ele>
        <time>2018-09-16T09:26:51.000Z</time>
      </trkpt>
      <trkpt lat="46.53972" lon="0.28839">
        <ele>187.43</ele>
        <time>2018-09-16T09:26:53.000Z</time>
      </trkpt>
      <trkpt lat="46.53983" lon="0.28838">
        <ele>187.98</ele>
        <time>2018-09-16T09:26:55.000Z</time>
      </trkpt>
      <trkpt lat="46.53993" lon="0.28838">
        <ele>188.53</ele>
        <time>2018-09-16T09:26:57.000Z</time>
      </trkpt>
      <trkpt lat="46.54002" lon="0.28838">
        <ele>188.94</ele>
        <time>2018-09-16T09:26:59.000Z</time>
      </trkpt>
      <trkpt lat="46.54015" lon="0.28842">
        <ele>189.26</ele>
        <time>2018-09-16T09:27:02.000Z</time>
      </trkpt>
      <trkpt lat="46.54026" lon="0.28846">
        <ele>189.29</ele>
        <time>2018-09-16T09:27:05.000Z</time>
      </trkpt>
      <trkpt lat="46.54036" lon="0.28849">
        <ele>189.35</ele>
        <time>2018-09-16T09:27:08.000Z</time>
      </trkpt>
      <trkpt lat="46.54047" lon="0.28848">
        <ele>189.49</ele>
        <time>2018-09-16T09:27:12.000Z</time>
      </trkpt>
      <trkpt lat="46.54058" lon="0.28844">
        <ele>189.7</ele>
        <time>2018-09-16T09:27:16.000Z</time>
      </trkpt>
      <trkpt lat="46.54067" lon="0.28837">
        <ele>189.98</ele>
        <time>2018-09-16T09:27:20.000Z</time>
      </trkpt>
      <trkpt lat="46.54074" lon="0.28825">
        <ele>190.36</ele>
        <time>2018-09-16T09:27:24.000Z</time>
      </trkpt>
      <trkpt lat="46.54078" lon="0.28813">
        <ele>190.91</ele>
        <time>2018-09-16T09:27:29.000Z</time>
      </trkpt>
      <trkpt lat="46.5408" lon="0.288">
        <ele>191.29</ele>
        <time>2018-09-16T09:27:33.000Z</time>
      </trkpt>
      <trkpt lat="46.54082" lon="0.28786">
        <ele>191.81</ele>
        <time>2018-09-16T09:27:38.000Z</time>
      </trkpt>
      <trkpt lat="46.54083" lon="0.28773">
        <ele>192.31</ele>
        <time>2018-09-16T09:27:42.000Z</time>
      </trkpt>
      <trkpt lat="46.54083" lon="0.28757">
        <ele>192.89</ele>
        <time>2018-09-16T09:27:46.000Z</time>
      </trkpt>
      <trkpt lat="46.54086" lon="0.28743">
        <ele>193.49</ele>
        <time>2018-09-16T09:27:50.000Z</time>
      </trkpt>
      <trkpt lat="46.54089" lon="0.28727">
        <ele>194.27</ele>
        <time>2018-09-16T09:27:55.000Z</time>
      </trkpt>
      <trkpt lat="46.5409" lon="0.28713">
        <ele>194.98</ele>
        <time>2018-09-16T09:27:59.000Z</time>
      </trkpt>
      <trkpt lat="46.5409" lon="0.28699">
        <ele>195.54</ele>
        <time>2018-09-16T09:28:02.000Z</time>
      </trkpt>
      <trkpt lat="46.54091" lon="0.28686">
        <ele>196.09</ele>
        <time>2018-09-16T09:28:05.000Z</time>
      </trkpt>
      <trkpt lat="46.54092" lon="0.28671">
        <ele>196.56</ele>
        <time>2018-09-16T09:28:08.000Z</time>
      </trkpt>
      <trkpt lat="46.54095" lon="0.28656">
        <ele>197</ele>
        <time>2018-09-16T09:28:11.000Z</time>
      </trkpt>
      <trkpt lat="46.54099" lon="0.28642">
        <ele>197.45</ele>
        <time>2018-09-16T09:28:14.000Z</time>
      </trkpt>
      <trkpt lat="46.54099" lon="0.28626">
        <ele>197.88</ele>
        <time>2018-09-16T09:28:17.000Z</time>
      </trkpt>
      <trkpt lat="46.54098" lon="0.28606">
        <ele>201.17</ele>
        <time>2018-09-16T09:28:20.000Z</time>
      </trkpt>
      <trkpt lat="46.541" lon="0.28593">
        <ele>202.58</ele>
        <time>2018-09-16T09:28:22.000Z</time>
      </trkpt>
      <trkpt lat="46.54104" lon="0.2858">
        <ele>203.77</ele>
        <time>2018-09-16T09:28:24.000Z</time>
      </trkpt>
      <trkpt lat="46.54107" lon="0.28568">
        <ele>204.82</ele>
        <time>2018-09-16T09:28:26.000Z</time>
      </trkpt>
      <trkpt lat="46.54111" lon="0.28555">
        <ele>205.09</ele>
        <time>2018-09-16T09:28:28.000Z</time>
      </trkpt>
      <trkpt lat="46.54117" lon="0.28543">
        <ele>205.1</ele>
        <time>2018-09-16T09:28:30.000Z</time>
      </trkpt>
      <trkpt lat="46.54123" lon="0.28532">
        <ele>205.13</ele>
        <time>2018-09-16T09:28:32.000Z</time>
      </trkpt>
      <trkpt lat="46.5413" lon="0.2852">
        <ele>205.01</ele>
        <time>2018-09-16T09:28:34.000Z</time>
      </trkpt>
      <trkpt lat="46.5414" lon="0.2851">
        <ele>205.04</ele>
        <time>2018-09-16T09:28:37.000Z</time>
      </trkpt>
      <trkpt lat="46.54146" lon="0.28498">
        <ele>205.39</ele>
        <time>2018-09-16T09:28:39.000Z</time>
      </trkpt>
      <trkpt lat="46.54152" lon="0.28487">
        <ele>205.48</ele>
        <time>2018-09-16T09:28:41.000Z</time>
      </trkpt>
      <trkpt lat="46.54158" lon="0.28476">
        <ele>205.51</ele>
        <time>2018-09-16T09:28:43.000Z</time>
      </trkpt>
      <trkpt lat="46.54165" lon="0.28464">
        <ele>205.49</ele>
        <time>2018-09-16T09:28:45.000Z</time>
      </trkpt>
      <trkpt lat="46.54172" lon="0.28451">
        <ele>205.83</ele>
        <time>2018-09-16T09:28:47.000Z</time>
      </trkpt>
      <trkpt lat="46.54178" lon="0.28438">
        <ele>206.16</ele>
        <time>2018-09-16T09:28:49.000Z</time>
      </trkpt>
      <trkpt lat="46.54186" lon="0.28425">
        <ele>206.84</ele>
        <time>2018-09-16T09:28:51.000Z</time>
      </trkpt>
      <trkpt lat="46.54192" lon="0.28414">
        <ele>207.34</ele>
        <time>2018-09-16T09:28:53.000Z</time>
      </trkpt>
      <trkpt lat="46.54198" lon="0.28403">
        <ele>207.49</ele>
        <time>2018-09-16T09:28:55.000Z</time>
      </trkpt>
      <trkpt lat="46.54205" lon="0.2839">
        <ele>207.8</ele>
        <time>2018-09-16T09:28:57.000Z</time>
      </trkpt>
      <trkpt lat="46.54211" lon="0.28379">
        <ele>207.5</ele>
        <time>2018-09-16T09:28:59.000Z</time>
      </trkpt>
      <trkpt lat="46.54218" lon="0.28368">
        <ele>206.78</ele>
        <time>2018-09-16T09:29:01.000Z</time>
      </trkpt>
      <trkpt lat="46.54224" lon="0.28355">
        <ele>205.99</ele>
        <time>2018-09-16T09:29:03.000Z</time>
      </trkpt>
      <trkpt lat="46.54229" lon="0.28339">
        <ele>205.3</ele>
        <time>2018-09-16T09:29:05.000Z</time>
      </trkpt>
      <trkpt lat="46.54236" lon="0.28324">
        <ele>204.66</ele>
        <time>2018-09-16T09:29:07.000Z</time>
      </trkpt>
      <trkpt lat="46.54242" lon="0.28311">
        <ele>203.99</ele>
        <time>2018-09-16T09:29:09.000Z</time>
      </trkpt>
      <trkpt lat="46.54247" lon="0.28298">
        <ele>203.89</ele>
        <time>2018-09-16T09:29:11.000Z</time>
      </trkpt>
      <trkpt lat="46.54252" lon="0.28283">
        <ele>204.05</ele>
        <time>2018-09-16T09:29:14.000Z</time>
      </trkpt>
      <trkpt lat="46.54245" lon="0.28272">
        <ele>204.14</ele>
        <time>2018-09-16T09:29:17.000Z</time>
      </trkpt>
      <trkpt lat="46.54239" lon="0.28259">
        <ele>204.17</ele>
        <time>2018-09-16T09:29:20.000Z</time>
      </trkpt>
      <trkpt lat="46.54233" lon="0.28247">
        <ele>204.13</ele>
        <time>2018-09-16T09:29:22.000Z</time>
      </trkpt>
      <trkpt lat="46.54228" lon="0.28231">
        <ele>204.64</ele>
        <time>2018-09-16T09:29:25.000Z</time>
      </trkpt>
      <trkpt lat="46.54223" lon="0.2821">
        <ele>206.47</ele>
        <time>2018-09-16T09:29:28.000Z</time>
      </trkpt>
      <trkpt lat="46.54219" lon="0.28195">
        <ele>207.73</ele>
        <time>2018-09-16T09:29:30.000Z</time>
      </trkpt>
      <trkpt lat="46.54215" lon="0.2818">
        <ele>208.86</ele>
        <time>2018-09-16T09:29:32.000Z</time>
      </trkpt>
      <trkpt lat="46.54212" lon="0.28166">
        <ele>209.31</ele>
        <time>2018-09-16T09:29:34.000Z</time>
      </trkpt>
      <trkpt lat="46.54206" lon="0.28154">
        <ele>208.86</ele>
        <time>2018-09-16T09:29:36.000Z</time>
      </trkpt>
      <trkpt lat="46.54199" lon="0.28142">
        <ele>208.26</ele>
        <time>2018-09-16T09:29:38.000Z</time>
      </trkpt>
      <trkpt lat="46.54193" lon="0.28127">
        <ele>208.1</ele>
        <time>2018-09-16T09:29:40.000Z</time>
      </trkpt>
      <trkpt lat="46.54189" lon="0.2811">
        <ele>208.51</ele>
        <time>2018-09-16T09:29:42.000Z</time>
      </trkpt>
      <trkpt lat="46.54184" lon="0.28092">
        <ele>209.7</ele>
        <time>2018-09-16T09:29:44.000Z</time>
      </trkpt>
      <trkpt lat="46.5418" lon="0.28072">
        <ele>210.76</ele>
        <time>2018-09-16T09:29:46.000Z</time>
      </trkpt>
      <trkpt lat="46.54176" lon="0.28054">
        <ele>211.66</ele>
        <time>2018-09-16T09:29:48.000Z</time>
      </trkpt>
      <trkpt lat="46.54171" lon="0.28039">
        <ele>212.49</ele>
        <time>2018-09-16T09:29:50.000Z</time>
      </trkpt>
      <trkpt lat="46.54168" lon="0.28022">
        <ele>212.52</ele>
        <time>2018-09-16T09:29:52.000Z</time>
      </trkpt>
      <trkpt lat="46.54162" lon="0.28007">
        <ele>212.15</ele>
        <time>2018-09-16T09:29:54.000Z</time>
      </trkpt>
      <trkpt lat="46.54155" lon="0.27992">
        <ele>211.51</ele>
        <time>2018-09-16T09:29:56.000Z</time>
      </trkpt>
      <trkpt lat="46.54148" lon="0.27973">
        <ele>210.85</ele>
        <time>2018-09-16T09:29:58.000Z</time>
      </trkpt>
      <trkpt lat="46.5414" lon="0.27956">
        <ele>210.06</ele>
        <time>2018-09-16T09:30:00.000Z</time>
      </trkpt>
      <trkpt lat="46.54132" lon="0.2794">
        <ele>209.07</ele>
        <time>2018-09-16T09:30:02.000Z</time>
      </trkpt>
      <trkpt lat="46.54124" lon="0.27925">
        <ele>208.05</ele>
        <time>2018-09-16T09:30:04.000Z</time>
      </trkpt>
      <trkpt lat="46.54117" lon="0.27911">
        <ele>208.06</ele>
        <time>2018-09-16T09:30:06.000Z</time>
      </trkpt>
      <trkpt lat="46.54111" lon="0.27899">
        <ele>207.93</ele>
        <time>2018-09-16T09:30:08.000Z</time>
      </trkpt>
      <trkpt lat="46.54105" lon="0.27887">
        <ele>207.92</ele>
        <time>2018-09-16T09:30:10.000Z</time>
      </trkpt>
      <trkpt lat="46.54097" lon="0.27874">
        <ele>207.73</ele>
        <time>2018-09-16T09:30:13.000Z</time>
      </trkpt>
      <trkpt lat="46.5409" lon="0.27862">
        <ele>205.56</ele>
        <time>2018-09-16T09:30:15.000Z</time>
      </trkpt>
      <trkpt lat="46.54081" lon="0.27848">
        <ele>203.87</ele>
        <time>2018-09-16T09:30:17.000Z</time>
      </trkpt>
      <trkpt lat="46.54071" lon="0.27835">
        <ele>202.77</ele>
        <time>2018-09-16T09:30:19.000Z</time>
      </trkpt>
      <trkpt lat="46.54062" lon="0.27821">
        <ele>201.77</ele>
        <time>2018-09-16T09:30:21.000Z</time>
      </trkpt>
      <trkpt lat="46.54051" lon="0.27809">
        <ele>200.65</ele>
        <time>2018-09-16T09:30:23.000Z</time>
      </trkpt>
      <trkpt lat="46.5404" lon="0.27796">
        <ele>199.49</ele>
        <time>2018-09-16T09:30:25.000Z</time>
      </trkpt>
      <trkpt lat="46.54029" lon="0.27785">
        <ele>199.14</ele>
        <time>2018-09-16T09:30:27.000Z</time>
      </trkpt>
      <trkpt lat="46.54018" lon="0.27776">
        <ele>199.08</ele>
        <time>2018-09-16T09:30:29.000Z</time>
      </trkpt>
      <trkpt lat="46.54005" lon="0.27774">
        <ele>198.89</ele>
        <time>2018-09-16T09:30:31.000Z</time>
      </trkpt>
      <trkpt lat="46.53992" lon="0.27776">
        <ele>198.78</ele>
        <time>2018-09-16T09:30:33.000Z</time>
      </trkpt>
      <trkpt lat="46.53978" lon="0.2778">
        <ele>198.68</ele>
        <time>2018-09-16T09:30:35.000Z</time>
      </trkpt>
      <trkpt lat="46.53964" lon="0.27782">
        <ele>198.54</ele>
        <time>2018-09-16T09:30:37.000Z</time>
      </trkpt>
      <trkpt lat="46.5395" lon="0.2778">
        <ele>198.12</ele>
        <time>2018-09-16T09:30:39.000Z</time>
      </trkpt>
      <trkpt lat="46.53936" lon="0.2778">
        <ele>197.7</ele>
        <time>2018-09-16T09:30:41.000Z</time>
      </trkpt>
      <trkpt lat="46.53923" lon="0.2778">
        <ele>197.3</ele>
        <time>2018-09-16T09:30:43.000Z</time>
      </trkpt>
      <trkpt lat="46.53909" lon="0.27781">
        <ele>196.9</ele>
        <time>2018-09-16T09:30:45.000Z</time>
      </trkpt>
      <trkpt lat="46.53895" lon="0.2778">
        <ele>196.51</ele>
        <time>2018-09-16T09:30:47.000Z</time>
      </trkpt>
      <trkpt lat="46.5388" lon="0.2778">
        <ele>196.01</ele>
        <time>2018-09-16T09:30:49.000Z</time>
      </trkpt>
      <trkpt lat="46.53866" lon="0.27791">
        <ele>195.71</ele>
        <time>2018-09-16T09:30:51.000Z</time>
      </trkpt>
      <trkpt lat="46.53854" lon="0.27809">
        <ele>195.49</ele>
        <time>2018-09-16T09:30:53.000Z</time>
      </trkpt>
      <trkpt lat="46.53842" lon="0.27827">
        <ele>195.37</ele>
        <time>2018-09-16T09:30:55.000Z</time>
      </trkpt>
      <trkpt lat="46.53828" lon="0.27842">
        <ele>195.11</ele>
        <time>2018-09-16T09:30:57.000Z</time>
      </trkpt>
      <trkpt lat="46.53815" lon="0.27855">
        <ele>194.78</ele>
        <time>2018-09-16T09:30:59.000Z</time>
      </trkpt>
      <trkpt lat="46.53804" lon="0.27868">
        <ele>194.38</ele>
        <time>2018-09-16T09:31:01.000Z</time>
      </trkpt>
      <trkpt lat="46.53792" lon="0.27878">
        <ele>194.18</ele>
        <time>2018-09-16T09:31:03.000Z</time>
      </trkpt>
      <trkpt lat="46.53785" lon="0.27892">
        <ele>193.98</ele>
        <time>2018-09-16T09:31:05.000Z</time>
      </trkpt>
      <trkpt lat="46.53781" lon="0.27911">
        <ele>193.55</ele>
        <time>2018-09-16T09:31:07.000Z</time>
      </trkpt>
      <trkpt lat="46.53776" lon="0.2793">
        <ele>193.28</ele>
        <time>2018-09-16T09:31:09.000Z</time>
      </trkpt>
      <trkpt lat="46.53774" lon="0.27947">
        <ele>193.17</ele>
        <time>2018-09-16T09:31:11.000Z</time>
      </trkpt>
      <trkpt lat="46.53774" lon="0.27966">
        <ele>192.74</ele>
        <time>2018-09-16T09:31:13.000Z</time>
      </trkpt>
      <trkpt lat="46.5377" lon="0.27979">
        <ele>192.04</ele>
        <time>2018-09-16T09:31:15.000Z</time>
      </trkpt>
      <trkpt lat="46.53762" lon="0.2799">
        <ele>191.7</ele>
        <time>2018-09-16T09:31:17.000Z</time>
      </trkpt>
      <trkpt lat="46.53753" lon="0.28003">
        <ele>191.37</ele>
        <time>2018-09-16T09:31:19.000Z</time>
      </trkpt>
      <trkpt lat="46.53745" lon="0.28014">
        <ele>190.99</ele>
        <time>2018-09-16T09:31:21.000Z</time>
      </trkpt>
      <trkpt lat="46.53737" lon="0.28023">
        <ele>190.62</ele>
        <time>2018-09-16T09:31:23.000Z</time>
      </trkpt>
      <trkpt lat="46.53728" lon="0.28033">
        <ele>190.58</ele>
        <time>2018-09-16T09:31:25.000Z</time>
      </trkpt>
      <trkpt lat="46.53717" lon="0.28035">
        <ele>190.56</ele>
        <time>2018-09-16T09:31:28.000Z</time>
      </trkpt>
      <trkpt lat="46.53706" lon="0.28036">
        <ele>190.5</ele>
        <time>2018-09-16T09:31:31.000Z</time>
      </trkpt>
      <trkpt lat="46.537" lon="0.28021">
        <ele>190.79</ele>
        <time>2018-09-16T09:31:40.000Z</time>
      </trkpt>
      <trkpt lat="46.537" lon="0.28006">
        <ele>191.01</ele>
        <time>2018-09-16T09:31:45.000Z</time>
      </trkpt>
      <trkpt lat="46.53697" lon="0.2799">
        <ele>191.38</ele>
        <time>2018-09-16T09:31:49.000Z</time>
      </trkpt>
      <trkpt lat="46.53698" lon="0.27972">
        <ele>191.87</ele>
        <time>2018-09-16T09:31:52.000Z</time>
      </trkpt>
      <trkpt lat="46.53698" lon="0.27959">
        <ele>192.36</ele>
        <time>2018-09-16T09:31:55.000Z</time>
      </trkpt>
      <trkpt lat="46.53699" lon="0.27944">
        <ele>193.09</ele>
        <time>2018-09-16T09:32:01.000Z</time>
      </trkpt>
      <trkpt lat="46.53691" lon="0.27933">
        <ele>193.43</ele>
        <time>2018-09-16T09:32:05.000Z</time>
      </trkpt>
      <trkpt lat="46.53682" lon="0.27928">
        <ele>193.48</ele>
        <time>2018-09-16T09:32:09.000Z</time>
      </trkpt>
      <trkpt lat="46.53674" lon="0.27918">
        <ele>193.4</ele>
        <time>2018-09-16T09:32:13.000Z</time>
      </trkpt>
      <trkpt lat="46.53672" lon="0.27905">
        <ele>193.22</ele>
        <time>2018-09-16T09:32:22.000Z</time>
      </trkpt>
      <trkpt lat="46.53669" lon="0.27891">
        <ele>192.13</ele>
        <time>2018-09-16T09:32:55.000Z</time>
      </trkpt>
      <trkpt lat="46.53677" lon="0.27883">
        <ele>190.63</ele>
        <time>2018-09-16T09:33:21.000Z</time>
      </trkpt>
      <trkpt lat="46.53675" lon="0.27867">
        <ele>189.37</ele>
        <time>2018-09-16T09:33:28.000Z</time>
      </trkpt>
      <trkpt lat="46.53672" lon="0.27849">
        <ele>188.57</ele>
        <time>2018-09-16T09:33:31.000Z</time>
      </trkpt>
      <trkpt lat="46.5366" lon="0.27852">
        <ele>186.53</ele>
        <time>2018-09-16T09:33:38.000Z</time>
      </trkpt>
      <trkpt lat="46.5365" lon="0.27851">
        <ele>185.17</ele>
        <time>2018-09-16T09:33:42.000Z</time>
      </trkpt>
      <trkpt lat="46.53643" lon="0.27838">
        <ele>184.17</ele>
        <time>2018-09-16T09:33:45.000Z</time>
      </trkpt>
      <trkpt lat="46.53635" lon="0.27826">
        <ele>183.12</ele>
        <time>2018-09-16T09:33:48.000Z</time>
      </trkpt>
      <trkpt lat="46.53627" lon="0.27817">
        <ele>182.2</ele>
        <time>2018-09-16T09:33:51.000Z</time>
      </trkpt>
      <trkpt lat="46.53619" lon="0.27804">
        <ele>176.37</ele>
        <time>2018-09-16T09:33:54.000Z</time>
      </trkpt>
      <trkpt lat="46.53613" lon="0.27791">
        <ele>174.33</ele>
        <time>2018-09-16T09:33:56.000Z</time>
      </trkpt>
      <trkpt lat="46.53608" lon="0.27777">
        <ele>172.89</ele>
        <time>2018-09-16T09:33:58.000Z</time>
      </trkpt>
      <trkpt lat="46.53604" lon="0.27761">
        <ele>171.96</ele>
        <time>2018-09-16T09:34:00.000Z</time>
      </trkpt>
      <trkpt lat="46.536" lon="0.27746">
        <ele>171.32</ele>
        <time>2018-09-16T09:34:02.000Z</time>
      </trkpt>
      <trkpt lat="46.53595" lon="0.27733">
        <ele>170.89</ele>
        <time>2018-09-16T09:34:04.000Z</time>
      </trkpt>
      <trkpt lat="46.53592" lon="0.27716">
        <ele>171.15</ele>
        <time>2018-09-16T09:34:07.000Z</time>
      </trkpt>
      <trkpt lat="46.53587" lon="0.27704">
        <ele>171.29</ele>
        <time>2018-09-16T09:34:10.000Z</time>
      </trkpt>
      <trkpt lat="46.53576" lon="0.27702">
        <ele>171.89</ele>
        <time>2018-09-16T09:34:13.000Z</time>
      </trkpt>
      <trkpt lat="46.53568" lon="0.27711">
        <ele>172.13</ele>
        <time>2018-09-16T09:34:15.000Z</time>
      </trkpt>
      <trkpt lat="46.53563" lon="0.27729">
        <ele>171.23</ele>
        <time>2018-09-16T09:34:18.000Z</time>
      </trkpt>
      <trkpt lat="46.5356" lon="0.27743">
        <ele>170.33</ele>
        <time>2018-09-16T09:34:20.000Z</time>
      </trkpt>
      <trkpt lat="46.53558" lon="0.27757">
        <ele>169.32</ele>
        <time>2018-09-16T09:34:22.000Z</time>
      </trkpt>
      <trkpt lat="46.53552" lon="0.27773">
        <ele>168.11</ele>
        <time>2018-09-16T09:34:25.000Z</time>
      </trkpt>
      <trkpt lat="46.53546" lon="0.27786">
        <ele>167.29</ele>
        <time>2018-09-16T09:34:27.000Z</time>
      </trkpt>
      <trkpt lat="46.53542" lon="0.27802">
        <ele>166.44</ele>
        <time>2018-09-16T09:34:29.000Z</time>
      </trkpt>
      <trkpt lat="46.53543" lon="0.27816">
        <ele>166.29</ele>
        <time>2018-09-16T09:34:33.000Z</time>
      </trkpt>
      <trkpt lat="46.53536" lon="0.27826">
        <ele>166.19</ele>
        <time>2018-09-16T09:34:38.000Z</time>
      </trkpt>
      <trkpt lat="46.53531" lon="0.27838">
        <ele>166.27</ele>
        <time>2018-09-16T09:34:42.000Z</time>
      </trkpt>
      <trkpt lat="46.53528" lon="0.27852">
        <ele>166.46</ele>
        <time>2018-09-16T09:34:47.000Z</time>
      </trkpt>
      <trkpt lat="46.53524" lon="0.27868">
        <ele>166.63</ele>
        <time>2018-09-16T09:34:51.000Z</time>
      </trkpt>
      <trkpt lat="46.5352" lon="0.2788">
        <ele>166.62</ele>
        <time>2018-09-16T09:34:54.000Z</time>
      </trkpt>
      <trkpt lat="46.53516" lon="0.27894">
        <ele>166.54</ele>
        <time>2018-09-16T09:34:58.000Z</time>
      </trkpt>
      <trkpt lat="46.53513" lon="0.27909">
        <ele>166.67</ele>
        <time>2018-09-16T09:35:01.000Z</time>
      </trkpt>
      <trkpt lat="46.53509" lon="0.27923">
        <ele>166.8</ele>
        <time>2018-09-16T09:35:05.000Z</time>
      </trkpt>
      <trkpt lat="46.5351" lon="0.27937">
        <ele>167.1</ele>
        <time>2018-09-16T09:35:08.000Z</time>
      </trkpt>
      <trkpt lat="46.53514" lon="0.27955">
        <ele>167.46</ele>
        <time>2018-09-16T09:35:11.000Z</time>
      </trkpt>
      <trkpt lat="46.53519" lon="0.27973">
        <ele>167.82</ele>
        <time>2018-09-16T09:35:14.000Z</time>
      </trkpt>
      <trkpt lat="46.53522" lon="0.27985">
        <ele>168.05</ele>
        <time>2018-09-16T09:35:16.000Z</time>
      </trkpt>
      <trkpt lat="46.53525" lon="0.27999">
        <ele>168.3</ele>
        <time>2018-09-16T09:35:18.000Z</time>
      </trkpt>
      <trkpt lat="46.53528" lon="0.28016">
        <ele>168.56</ele>
        <time>2018-09-16T09:35:20.000Z</time>
      </trkpt>
      <trkpt lat="46.5353" lon="0.28031">
        <ele>168.77</ele>
        <time>2018-09-16T09:35:22.000Z</time>
      </trkpt>
      <trkpt lat="46.53531" lon="0.28047">
        <ele>169.09</ele>
        <time>2018-09-16T09:35:25.000Z</time>
      </trkpt>
      <trkpt lat="46.53534" lon="0.28065">
        <ele>169.49</ele>
        <time>2018-09-16T09:35:29.000Z</time>
      </trkpt>
      <trkpt lat="46.53539" lon="0.28076">
        <ele>169.68</ele>
        <time>2018-09-16T09:35:31.000Z</time>
      </trkpt>
      <trkpt lat="46.53543" lon="0.28093">
        <ele>169.86</ele>
        <time>2018-09-16T09:35:33.000Z</time>
      </trkpt>
      <trkpt lat="46.53546" lon="0.28112">
        <ele>169.96</ele>
        <time>2018-09-16T09:35:35.000Z</time>
      </trkpt>
      <trkpt lat="46.53544" lon="0.28127">
        <ele>170</ele>
        <time>2018-09-16T09:35:37.000Z</time>
      </trkpt>
      <trkpt lat="46.5354" lon="0.28139">
        <ele>169.99</ele>
        <time>2018-09-16T09:35:40.000Z</time>
      </trkpt>
      <trkpt lat="46.53537" lon="0.28153">
        <ele>169.61</ele>
        <time>2018-09-16T09:35:45.000Z</time>
      </trkpt>
      <trkpt lat="46.53543" lon="0.28168">
        <ele>169.44</ele>
        <time>2018-09-16T09:35:48.000Z</time>
      </trkpt>
      <trkpt lat="46.53547" lon="0.28183">
        <ele>169.22</ele>
        <time>2018-09-16T09:35:51.000Z</time>
      </trkpt>
      <trkpt lat="46.53547" lon="0.28203">
        <ele>168.81</ele>
        <time>2018-09-16T09:35:54.000Z</time>
      </trkpt>
      <trkpt lat="46.53547" lon="0.28219">
        <ele>168.4</ele>
        <time>2018-09-16T09:35:59.000Z</time>
      </trkpt>
      <trkpt lat="46.53542" lon="0.28232">
        <ele>168.14</ele>
        <time>2018-09-16T09:36:04.000Z</time>
      </trkpt>
      <trkpt lat="46.53535" lon="0.28239">
        <ele>167.77</ele>
        <time>2018-09-16T09:36:09.000Z</time>
      </trkpt>
      <trkpt lat="46.53528" lon="0.2825">
        <ele>167.54</ele>
        <time>2018-09-16T09:36:14.000Z</time>
      </trkpt>
      <trkpt lat="46.53524" lon="0.28265">
        <ele>167.41</ele>
        <time>2018-09-16T09:36:18.000Z</time>
      </trkpt>
      <trkpt lat="46.5352" lon="0.28277">
        <ele>167.25</ele>
        <time>2018-09-16T09:36:21.000Z</time>
      </trkpt>
      <trkpt lat="46.53512" lon="0.28287">
        <ele>167.24</ele>
        <time>2018-09-16T09:36:25.000Z</time>
      </trkpt>
      <trkpt lat="46.535" lon="0.2829">
        <ele>167.3</ele>
        <time>2018-09-16T09:36:29.000Z</time>
      </trkpt>
      <trkpt lat="46.5349" lon="0.2829">
        <ele>167.24</ele>
        <time>2018-09-16T09:36:32.000Z</time>
      </trkpt>
      <trkpt lat="46.5348" lon="0.28283">
        <ele>167.14</ele>
        <time>2018-09-16T09:36:36.000Z</time>
      </trkpt>
      <trkpt lat="46.53475" lon="0.28272">
        <ele>167.35</ele>
        <time>2018-09-16T09:36:41.000Z</time>
      </trkpt>
      <trkpt lat="46.53471" lon="0.28258">
        <ele>167.72</ele>
        <time>2018-09-16T09:36:45.000Z</time>
      </trkpt>
      <trkpt lat="46.53468" lon="0.28242">
        <ele>168.16</ele>
        <time>2018-09-16T09:36:49.000Z</time>
      </trkpt>
      <trkpt lat="46.53466" lon="0.28228">
        <ele>168.45</ele>
        <time>2018-09-16T09:36:52.000Z</time>
      </trkpt>
      <trkpt lat="46.53462" lon="0.28213">
        <ele>168.91</ele>
        <time>2018-09-16T09:36:56.000Z</time>
      </trkpt>
      <trkpt lat="46.5346" lon="0.28197">
        <ele>169.43</ele>
        <time>2018-09-16T09:37:00.000Z</time>
      </trkpt>
      <trkpt lat="46.53454" lon="0.28184">
        <ele>169.96</ele>
        <time>2018-09-16T09:37:04.000Z</time>
      </trkpt>
      <trkpt lat="46.53446" lon="0.28173">
        <ele>170.33</ele>
        <time>2018-09-16T09:37:09.000Z</time>
      </trkpt>
      <trkpt lat="46.53443" lon="0.2816">
        <ele>170.84</ele>
        <time>2018-09-16T09:37:13.000Z</time>
      </trkpt>
      <trkpt lat="46.53441" lon="0.28145">
        <ele>171.53</ele>
        <time>2018-09-16T09:37:17.000Z</time>
      </trkpt>
      <trkpt lat="46.53437" lon="0.28129">
        <ele>172.2</ele>
        <time>2018-09-16T09:37:21.000Z</time>
      </trkpt>
      <trkpt lat="46.53435" lon="0.28115">
        <ele>172.69</ele>
        <time>2018-09-16T09:37:24.000Z</time>
      </trkpt>
      <trkpt lat="46.53433" lon="0.28102">
        <ele>173.16</ele>
        <time>2018-09-16T09:37:27.000Z</time>
      </trkpt>
      <trkpt lat="46.53431" lon="0.28085">
        <ele>173.82</ele>
        <time>2018-09-16T09:37:31.000Z</time>
      </trkpt>
      <trkpt lat="46.5343" lon="0.28072">
        <ele>174.35</ele>
        <time>2018-09-16T09:37:34.000Z</time>
      </trkpt>
      <trkpt lat="46.53428" lon="0.28059">
        <ele>175.07</ele>
        <time>2018-09-16T09:37:38.000Z</time>
      </trkpt>
      <trkpt lat="46.53425" lon="0.28046">
        <ele>176.02</ele>
        <time>2018-09-16T09:37:43.000Z</time>
      </trkpt>
      <trkpt lat="46.53423" lon="0.28032">
        <ele>176.73</ele>
        <time>2018-09-16T09:37:47.000Z</time>
      </trkpt>
      <trkpt lat="46.53421" lon="0.28016">
        <ele>177.27</ele>
        <time>2018-09-16T09:37:51.000Z</time>
      </trkpt>
      <trkpt lat="46.53421" lon="0.28002">
        <ele>177.69</ele>
        <time>2018-09-16T09:37:55.000Z</time>
      </trkpt>
      <trkpt lat="46.5342" lon="0.27988">
        <ele>177.97</ele>
        <time>2018-09-16T09:37:59.000Z</time>
      </trkpt>
      <trkpt lat="46.5342" lon="0.27971">
        <ele>179.27</ele>
        <time>2018-09-16T09:38:03.000Z</time>
      </trkpt>
      <trkpt lat="46.53423" lon="0.27954">
        <ele>180.85</ele>
        <time>2018-09-16T09:38:06.000Z</time>
      </trkpt>
      <trkpt lat="46.53428" lon="0.27937">
        <ele>180.98</ele>
        <time>2018-09-16T09:38:09.000Z</time>
      </trkpt>
      <trkpt lat="46.53437" lon="0.27929">
        <ele>181.08</ele>
        <time>2018-09-16T09:38:12.000Z</time>
      </trkpt>
      <trkpt lat="46.53445" lon="0.2792">
        <ele>181.12</ele>
        <time>2018-09-16T09:38:15.000Z</time>
      </trkpt>
      <trkpt lat="46.53457" lon="0.2791">
        <ele>181.23</ele>
        <time>2018-09-16T09:38:18.000Z</time>
      </trkpt>
      <trkpt lat="46.53464" lon="0.27899">
        <ele>180.23</ele>
        <time>2018-09-16T09:38:20.000Z</time>
      </trkpt>
      <trkpt lat="46.53469" lon="0.27884">
        <ele>178.25</ele>
        <time>2018-09-16T09:38:22.000Z</time>
      </trkpt>
      <trkpt lat="46.53473" lon="0.27864">
        <ele>176.4</ele>
        <time>2018-09-16T09:38:24.000Z</time>
      </trkpt>
      <trkpt lat="46.53471" lon="0.27848">
        <ele>176.24</ele>
        <time>2018-09-16T09:38:26.000Z</time>
      </trkpt>
      <trkpt lat="46.53469" lon="0.27833">
        <ele>174.57</ele>
        <time>2018-09-16T09:38:28.000Z</time>
      </trkpt>
      <trkpt lat="46.53473" lon="0.27816">
        <ele>173.55</ele>
        <time>2018-09-16T09:38:30.000Z</time>
      </trkpt>
      <trkpt lat="46.53469" lon="0.27796">
        <ele>173.34</ele>
        <time>2018-09-16T09:38:33.000Z</time>
      </trkpt>
      <trkpt lat="46.53461" lon="0.27787">
        <ele>173.29</ele>
        <time>2018-09-16T09:38:35.000Z</time>
      </trkpt>
      <trkpt lat="46.53453" lon="0.27775">
        <ele>173.31</ele>
        <time>2018-09-16T09:38:38.000Z</time>
      </trkpt>
      <trkpt lat="46.53444" lon="0.27765">
        <ele>173.42</ele>
        <time>2018-09-16T09:38:41.000Z</time>
      </trkpt>
      <trkpt lat="46.53436" lon="0.27756">
        <ele>173.64</ele>
        <time>2018-09-16T09:38:44.000Z</time>
      </trkpt>
      <trkpt lat="46.53428" lon="0.27744">
        <ele>174.07</ele>
        <time>2018-09-16T09:38:47.000Z</time>
      </trkpt>
      <trkpt lat="46.53419" lon="0.27731">
        <ele>174.84</ele>
        <time>2018-09-16T09:38:51.000Z</time>
      </trkpt>
      <trkpt lat="46.53411" lon="0.2772">
        <ele>175.68</ele>
        <time>2018-09-16T09:38:55.000Z</time>
      </trkpt>
      <trkpt lat="46.53405" lon="0.2771">
        <ele>176.4</ele>
        <time>2018-09-16T09:38:58.000Z</time>
      </trkpt>
      <trkpt lat="46.53397" lon="0.27699">
        <ele>177.41</ele>
        <time>2018-09-16T09:39:02.000Z</time>
      </trkpt>
      <trkpt lat="46.53386" lon="0.27685">
        <ele>178.27</ele>
        <time>2018-09-16T09:39:06.000Z</time>
      </trkpt>
      <trkpt lat="46.53378" lon="0.27677">
        <ele>178.89</ele>
        <time>2018-09-16T09:39:09.000Z</time>
      </trkpt>
      <trkpt lat="46.5337" lon="0.27667">
        <ele>180.01</ele>
        <time>2018-09-16T09:39:14.000Z</time>
      </trkpt>
      <trkpt lat="46.53362" lon="0.27661">
        <ele>181.41</ele>
        <time>2018-09-16T09:39:20.000Z</time>
      </trkpt>
      <trkpt lat="46.53352" lon="0.27659">
        <ele>182.66</ele>
        <time>2018-09-16T09:39:26.000Z</time>
      </trkpt>
      <trkpt lat="46.53344" lon="0.27654">
        <ele>183.4</ele>
        <time>2018-09-16T09:39:31.000Z</time>
      </trkpt>
      <trkpt lat="46.53335" lon="0.27651">
        <ele>184.11</ele>
        <time>2018-09-16T09:39:37.000Z</time>
      </trkpt>
      <trkpt lat="46.53326" lon="0.27646">
        <ele>184.96</ele>
        <time>2018-09-16T09:39:44.000Z</time>
      </trkpt>
      <trkpt lat="46.53317" lon="0.27649">
        <ele>185.97</ele>
        <time>2018-09-16T09:39:50.000Z</time>
      </trkpt>
      <trkpt lat="46.53309" lon="0.27654">
        <ele>186.88</ele>
        <time>2018-09-16T09:39:56.000Z</time>
      </trkpt>
      <trkpt lat="46.53301" lon="0.27645">
        <ele>187.29</ele>
        <time>2018-09-16T09:40:00.000Z</time>
      </trkpt>
      <trkpt lat="46.53296" lon="0.27634">
        <ele>187.44</ele>
        <time>2018-09-16T09:40:03.000Z</time>
      </trkpt>
      <trkpt lat="46.53292" lon="0.27622">
        <ele>187.48</ele>
        <time>2018-09-16T09:40:06.000Z</time>
      </trkpt>
      <trkpt lat="46.53286" lon="0.27609">
        <ele>187.47</ele>
        <time>2018-09-16T09:40:10.000Z</time>
      </trkpt>
      <trkpt lat="46.53281" lon="0.27593">
        <ele>187.65</ele>
        <time>2018-09-16T09:40:13.000Z</time>
      </trkpt>
      <trkpt lat="46.53276" lon="0.27581">
        <ele>189.54</ele>
        <time>2018-09-16T09:40:15.000Z</time>
      </trkpt>
      <trkpt lat="46.5327" lon="0.27567">
        <ele>191.14</ele>
        <time>2018-09-16T09:40:17.000Z</time>
      </trkpt>
      <trkpt lat="46.53265" lon="0.27556">
        <ele>192.21</ele>
        <time>2018-09-16T09:40:19.000Z</time>
      </trkpt>
      <trkpt lat="46.53256" lon="0.2754">
        <ele>192.68</ele>
        <time>2018-09-16T09:40:22.000Z</time>
      </trkpt>
      <trkpt lat="46.53249" lon="0.27525">
        <ele>192.96</ele>
        <time>2018-09-16T09:40:24.000Z</time>
      </trkpt>
      <trkpt lat="46.53241" lon="0.27512">
        <ele>192.94</ele>
        <time>2018-09-16T09:40:26.000Z</time>
      </trkpt>
      <trkpt lat="46.53232" lon="0.27495">
        <ele>193.59</ele>
        <time>2018-09-16T09:40:28.000Z</time>
      </trkpt>
      <trkpt lat="46.53223" lon="0.27479">
        <ele>194.5</ele>
        <time>2018-09-16T09:40:30.000Z</time>
      </trkpt>
      <trkpt lat="46.53218" lon="0.27463">
        <ele>194.72</ele>
        <time>2018-09-16T09:40:32.000Z</time>
      </trkpt>
      <trkpt lat="46.53214" lon="0.27443">
        <ele>194.87</ele>
        <time>2018-09-16T09:40:34.000Z</time>
      </trkpt>
      <trkpt lat="46.53209" lon="0.27425">
        <ele>194.65</ele>
        <time>2018-09-16T09:40:36.000Z</time>
      </trkpt>
      <trkpt lat="46.53202" lon="0.27411">
        <ele>194.52</ele>
        <time>2018-09-16T09:40:38.000Z</time>
      </trkpt>
      <trkpt lat="46.53197" lon="0.27399">
        <ele>194.53</ele>
        <time>2018-09-16T09:40:41.000Z</time>
      </trkpt>
      <trkpt lat="46.532" lon="0.27386">
        <ele>194.5</ele>
        <time>2018-09-16T09:40:45.000Z</time>
      </trkpt>
      <trkpt lat="46.5321" lon="0.27381">
        <ele>194.42</ele>
        <time>2018-09-16T09:40:49.000Z</time>
      </trkpt>
      <trkpt lat="46.53219" lon="0.27382">
        <ele>194.32</ele>
        <time>2018-09-16T09:40:53.000Z</time>
      </trkpt>
      <trkpt lat="46.53227" lon="0.27373">
        <ele>194.19</ele>
        <time>2018-09-16T09:40:56.000Z</time>
      </trkpt>
      <trkpt lat="46.53221" lon="0.2736">
        <ele>194.06</ele>
        <time>2018-09-16T09:41:01.000Z</time>
      </trkpt>
      <trkpt lat="46.53214" lon="0.27349">
        <ele>194.15</ele>
        <time>2018-09-16T09:41:07.000Z</time>
      </trkpt>
      <trkpt lat="46.53206" lon="0.27339">
        <ele>194.37</ele>
        <time>2018-09-16T09:41:10.000Z</time>
      </trkpt>
      <trkpt lat="46.53197" lon="0.27327">
        <ele>194.6</ele>
        <time>2018-09-16T09:41:14.000Z</time>
      </trkpt>
      <trkpt lat="46.5319" lon="0.27317">
        <ele>194.73</ele>
        <time>2018-09-16T09:41:16.000Z</time>
      </trkpt>
      <trkpt lat="46.53183" lon="0.27307">
        <ele>195.95</ele>
        <time>2018-09-16T09:41:18.000Z</time>
      </trkpt>
      <trkpt lat="46.53173" lon="0.27294">
        <ele>195.92</ele>
        <time>2018-09-16T09:41:20.000Z</time>
      </trkpt>
      <trkpt lat="46.53164" lon="0.27284">
        <ele>195.64</ele>
        <time>2018-09-16T09:41:22.000Z</time>
      </trkpt>
      <trkpt lat="46.53156" lon="0.27274">
        <ele>194.83</ele>
        <time>2018-09-16T09:41:24.000Z</time>
      </trkpt>
      <trkpt lat="46.53147" lon="0.27263">
        <ele>194.36</ele>
        <time>2018-09-16T09:41:26.000Z</time>
      </trkpt>
      <trkpt lat="46.5314" lon="0.27254">
        <ele>192.49</ele>
        <time>2018-09-16T09:41:28.000Z</time>
      </trkpt>
      <trkpt lat="46.5313" lon="0.27243">
        <ele>191.52</ele>
        <time>2018-09-16T09:41:30.000Z</time>
      </trkpt>
      <trkpt lat="46.53122" lon="0.27233">
        <ele>191.06</ele>
        <time>2018-09-16T09:41:32.000Z</time>
      </trkpt>
      <trkpt lat="46.53113" lon="0.27224">
        <ele>190.85</ele>
        <time>2018-09-16T09:41:34.000Z</time>
      </trkpt>
      <trkpt lat="46.53105" lon="0.27215">
        <ele>190.82</ele>
        <time>2018-09-16T09:41:36.000Z</time>
      </trkpt>
      <trkpt lat="46.53094" lon="0.27205">
        <ele>191.11</ele>
        <time>2018-09-16T09:41:38.000Z</time>
      </trkpt>
      <trkpt lat="46.53085" lon="0.27194">
        <ele>191.81</ele>
        <time>2018-09-16T09:41:40.000Z</time>
      </trkpt>
      <trkpt lat="46.53077" lon="0.27185">
        <ele>192.58</ele>
        <time>2018-09-16T09:41:42.000Z</time>
      </trkpt>
      <trkpt lat="46.53069" lon="0.27177">
        <ele>193.31</ele>
        <time>2018-09-16T09:41:44.000Z</time>
      </trkpt>
      <trkpt lat="46.53059" lon="0.27166">
        <ele>193.32</ele>
        <time>2018-09-16T09:41:46.000Z</time>
      </trkpt>
      <trkpt lat="46.5305" lon="0.27156">
        <ele>193.17</ele>
        <time>2018-09-16T09:41:48.000Z</time>
      </trkpt>
      <trkpt lat="46.5304" lon="0.27146">
        <ele>193.47</ele>
        <time>2018-09-16T09:41:50.000Z</time>
      </trkpt>
      <trkpt lat="46.53032" lon="0.27134">
        <ele>193.56</ele>
        <time>2018-09-16T09:41:52.000Z</time>
      </trkpt>
      <trkpt lat="46.53021" lon="0.27122">
        <ele>193.87</ele>
        <time>2018-09-16T09:41:54.000Z</time>
      </trkpt>
      <trkpt lat="46.53009" lon="0.27106">
        <ele>194.55</ele>
        <time>2018-09-16T09:41:56.000Z</time>
      </trkpt>
      <trkpt lat="46.52998" lon="0.27096">
        <ele>195.01</ele>
        <time>2018-09-16T09:41:58.000Z</time>
      </trkpt>
      <trkpt lat="46.52988" lon="0.27086">
        <ele>195.32</ele>
        <time>2018-09-16T09:42:00.000Z</time>
      </trkpt>
      <trkpt lat="46.52979" lon="0.27077">
        <ele>195.29</ele>
        <time>2018-09-16T09:42:02.000Z</time>
      </trkpt>
      <trkpt lat="46.52972" lon="0.27066">
        <ele>195.09</ele>
        <time>2018-09-16T09:42:06.000Z</time>
      </trkpt>
      <trkpt lat="46.52978" lon="0.27056">
        <ele>194.54</ele>
        <time>2018-09-16T09:42:12.000Z</time>
      </trkpt>
      <trkpt lat="46.52988" lon="0.27059">
        <ele>194.17</ele>
        <time>2018-09-16T09:42:16.000Z</time>
      </trkpt>
      <trkpt lat="46.53003" lon="0.27066">
        <ele>193.79</ele>
        <time>2018-09-16T09:42:20.000Z</time>
      </trkpt>
      <trkpt lat="46.53014" lon="0.27073">
        <ele>193.54</ele>
        <time>2018-09-16T09:42:23.000Z</time>
      </trkpt>
      <trkpt lat="46.53024" lon="0.27079">
        <ele>193.27</ele>
        <time>2018-09-16T09:42:26.000Z</time>
      </trkpt>
      <trkpt lat="46.53037" lon="0.27084">
        <ele>193.08</ele>
        <time>2018-09-16T09:42:29.000Z</time>
      </trkpt>
      <trkpt lat="46.53049" lon="0.27092">
        <ele>192.93</ele>
        <time>2018-09-16T09:42:32.000Z</time>
      </trkpt>
      <trkpt lat="46.53058" lon="0.27098">
        <ele>192.85</ele>
        <time>2018-09-16T09:42:34.000Z</time>
      </trkpt>
      <trkpt lat="46.53069" lon="0.27107">
        <ele>192.67</ele>
        <time>2018-09-16T09:42:37.000Z</time>
      </trkpt>
      <trkpt lat="46.5308" lon="0.27114">
        <ele>192.36</ele>
        <time>2018-09-16T09:42:40.000Z</time>
      </trkpt>
      <trkpt lat="46.53089" lon="0.2712">
        <ele>192.1</ele>
        <time>2018-09-16T09:42:42.000Z</time>
      </trkpt>
      <trkpt lat="46.53098" lon="0.27127">
        <ele>191.54</ele>
        <time>2018-09-16T09:42:45.000Z</time>
      </trkpt>
      <trkpt lat="46.53107" lon="0.27136">
        <ele>191.09</ele>
        <time>2018-09-16T09:42:48.000Z</time>
      </trkpt>
      <trkpt lat="46.53116" lon="0.27143">
        <ele>190.76</ele>
        <time>2018-09-16T09:42:51.000Z</time>
      </trkpt>
      <trkpt lat="46.53127" lon="0.27151">
        <ele>190.46</ele>
        <time>2018-09-16T09:42:54.000Z</time>
      </trkpt>
      <trkpt lat="46.53137" lon="0.27156">
        <ele>190.22</ele>
        <time>2018-09-16T09:42:57.000Z</time>
      </trkpt>
      <trkpt lat="46.53146" lon="0.27161">
        <ele>190.1</ele>
        <time>2018-09-16T09:42:59.000Z</time>
      </trkpt>
      <trkpt lat="46.53156" lon="0.27168">
        <ele>189.87</ele>
        <time>2018-09-16T09:43:02.000Z</time>
      </trkpt>
      <trkpt lat="46.53162" lon="0.27181">
        <ele>189.6</ele>
        <time>2018-09-16T09:43:05.000Z</time>
      </trkpt>
      <trkpt lat="46.53171" lon="0.27191">
        <ele>189.35</ele>
        <time>2018-09-16T09:43:08.000Z</time>
      </trkpt>
      <trkpt lat="46.53178" lon="0.27205">
        <ele>189.14</ele>
        <time>2018-09-16T09:43:11.000Z</time>
      </trkpt>
      <trkpt lat="46.53184" lon="0.27215">
        <ele>189.01</ele>
        <time>2018-09-16T09:43:14.000Z</time>
      </trkpt>
      <trkpt lat="46.53191" lon="0.27231">
        <ele>188.99</ele>
        <time>2018-09-16T09:43:17.000Z</time>
      </trkpt>
      <trkpt lat="46.53198" lon="0.27241">
        <ele>188.96</ele>
        <time>2018-09-16T09:43:19.000Z</time>
      </trkpt>
      <trkpt lat="46.53206" lon="0.27252">
        <ele>188.88</ele>
        <time>2018-09-16T09:43:21.000Z</time>
      </trkpt>
      <trkpt lat="46.53215" lon="0.27262">
        <ele>188.79</ele>
        <time>2018-09-16T09:43:23.000Z</time>
      </trkpt>
      <trkpt lat="46.53223" lon="0.27271">
        <ele>188.65</ele>
        <time>2018-09-16T09:43:25.000Z</time>
      </trkpt>
      <trkpt lat="46.53227" lon="0.27284">
        <ele>188.4</ele>
        <time>2018-09-16T09:43:27.000Z</time>
      </trkpt>
      <trkpt lat="46.53227" lon="0.27299">
        <ele>187.73</ele>
        <time>2018-09-16T09:43:30.000Z</time>
      </trkpt>
      <trkpt lat="46.53233" lon="0.27311">
        <ele>186.24</ele>
        <time>2018-09-16T09:43:37.000Z</time>
      </trkpt>
      <trkpt lat="46.53239" lon="0.27322">
        <ele>185.57</ele>
        <time>2018-09-16T09:43:43.000Z</time>
      </trkpt>
      <trkpt lat="46.53244" lon="0.27333">
        <ele>185.39</ele>
        <time>2018-09-16T09:43:48.000Z</time>
      </trkpt>
      <trkpt lat="46.5325" lon="0.27343">
        <ele>185.27</ele>
        <time>2018-09-16T09:43:51.000Z</time>
      </trkpt>
      <trkpt lat="46.5326" lon="0.2735">
        <ele>185.02</ele>
        <time>2018-09-16T09:43:55.000Z</time>
      </trkpt>
      <trkpt lat="46.53269" lon="0.27357">
        <ele>184.93</ele>
        <time>2018-09-16T09:43:59.000Z</time>
      </trkpt>
      <trkpt lat="46.5328" lon="0.27359">
        <ele>184.56</ele>
        <time>2018-09-16T09:44:04.000Z</time>
      </trkpt>
      <trkpt lat="46.53286" lon="0.27349">
        <ele>183.19</ele>
        <time>2018-09-16T09:44:13.000Z</time>
      </trkpt>
      <trkpt lat="46.53281" lon="0.27335">
        <ele>182.5</ele>
        <time>2018-09-16T09:44:23.000Z</time>
      </trkpt>
      <trkpt lat="46.53273" lon="0.27328">
        <ele>182.31</ele>
        <time>2018-09-16T09:44:26.000Z</time>
      </trkpt>
      <trkpt lat="46.53264" lon="0.27318">
        <ele>182.02</ele>
        <time>2018-09-16T09:44:30.000Z</time>
      </trkpt>
      <trkpt lat="46.53256" lon="0.27308">
        <ele>181.57</ele>
        <time>2018-09-16T09:44:35.000Z</time>
      </trkpt>
      <trkpt lat="46.53253" lon="0.27295">
        <ele>181.29</ele>
        <time>2018-09-16T09:44:38.000Z</time>
      </trkpt>
      <trkpt lat="46.53256" lon="0.27281">
        <ele>181.13</ele>
        <time>2018-09-16T09:44:41.000Z</time>
      </trkpt>
      <trkpt lat="46.53263" lon="0.27265">
        <ele>180.42</ele>
        <time>2018-09-16T09:44:43.000Z</time>
      </trkpt>
      <trkpt lat="46.53268" lon="0.27249">
        <ele>180.14</ele>
        <time>2018-09-16T09:44:46.000Z</time>
      </trkpt>
      <trkpt lat="46.53272" lon="0.27233">
        <ele>179.85</ele>
        <time>2018-09-16T09:44:49.000Z</time>
      </trkpt>
      <trkpt lat="46.5327" lon="0.27218">
        <ele>179.66</ele>
        <time>2018-09-16T09:44:52.000Z</time>
      </trkpt>
      <trkpt lat="46.53268" lon="0.27202">
        <ele>179.67</ele>
        <time>2018-09-16T09:44:57.000Z</time>
      </trkpt>
      <trkpt lat="46.53267" lon="0.27188">
        <ele>179.61</ele>
        <time>2018-09-16T09:45:00.000Z</time>
      </trkpt>
      <trkpt lat="46.53268" lon="0.27171">
        <ele>179.39</ele>
        <time>2018-09-16T09:45:04.000Z</time>
      </trkpt>
      <trkpt lat="46.53272" lon="0.27154">
        <ele>179.03</ele>
        <time>2018-09-16T09:45:07.000Z</time>
      </trkpt>
      <trkpt lat="46.53277" lon="0.27143">
        <ele>178.37</ele>
        <time>2018-09-16T09:45:11.000Z</time>
      </trkpt>
      <trkpt lat="46.53282" lon="0.2713">
        <ele>177.63</ele>
        <time>2018-09-16T09:45:16.000Z</time>
      </trkpt>
      <trkpt lat="46.53286" lon="0.27117">
        <ele>177.02</ele>
        <time>2018-09-16T09:45:22.000Z</time>
      </trkpt>
      <trkpt lat="46.5329" lon="0.27105">
        <ele>176.9</ele>
        <time>2018-09-16T09:45:28.000Z</time>
      </trkpt>
      <trkpt lat="46.53296" lon="0.27093">
        <ele>177.05</ele>
        <time>2018-09-16T09:45:33.000Z</time>
      </trkpt>
      <trkpt lat="46.53303" lon="0.2708">
        <ele>177.66</ele>
        <time>2018-09-16T09:45:38.000Z</time>
      </trkpt>
      <trkpt lat="46.53309" lon="0.2707">
        <ele>178.48</ele>
        <time>2018-09-16T09:45:42.000Z</time>
      </trkpt>
      <trkpt lat="46.53318" lon="0.27063">
        <ele>179.63</ele>
        <time>2018-09-16T09:45:47.000Z</time>
      </trkpt>
      <trkpt lat="46.53326" lon="0.27055">
        <ele>180.67</ele>
        <time>2018-09-16T09:45:52.000Z</time>
      </trkpt>
      <trkpt lat="46.53335" lon="0.27049">
        <ele>181.53</ele>
        <time>2018-09-16T09:45:57.000Z</time>
      </trkpt>
      <trkpt lat="46.53344" lon="0.27043">
        <ele>182.13</ele>
        <time>2018-09-16T09:46:01.000Z</time>
      </trkpt>
      <trkpt lat="46.53354" lon="0.27037">
        <ele>182.8</ele>
        <time>2018-09-16T09:46:06.000Z</time>
      </trkpt>
      <trkpt lat="46.53363" lon="0.27031">
        <ele>183.28</ele>
        <time>2018-09-16T09:46:10.000Z</time>
      </trkpt>
      <trkpt lat="46.53371" lon="0.27025">
        <ele>183.82</ele>
        <time>2018-09-16T09:46:15.000Z</time>
      </trkpt>
      <trkpt lat="46.5338" lon="0.27019">
        <ele>184.21</ele>
        <time>2018-09-16T09:46:20.000Z</time>
      </trkpt>
      <trkpt lat="46.53389" lon="0.27013">
        <ele>184.5</ele>
        <time>2018-09-16T09:46:25.000Z</time>
      </trkpt>
      <trkpt lat="46.53397" lon="0.27006">
        <ele>184.67</ele>
        <time>2018-09-16T09:46:29.000Z</time>
      </trkpt>
      <trkpt lat="46.53406" lon="0.27">
        <ele>185.12</ele>
        <time>2018-09-16T09:46:37.000Z</time>
      </trkpt>
      <trkpt lat="46.53399" lon="0.26992">
        <ele>186.01</ele>
        <time>2018-09-16T09:46:46.000Z</time>
      </trkpt>
      <trkpt lat="46.53389" lon="0.26984">
        <ele>186.28</ele>
        <time>2018-09-16T09:46:49.000Z</time>
      </trkpt>
      <trkpt lat="46.53381" lon="0.26976">
        <ele>186.58</ele>
        <time>2018-09-16T09:46:52.000Z</time>
      </trkpt>
      <trkpt lat="46.53373" lon="0.26968">
        <ele>186.96</ele>
        <time>2018-09-16T09:46:56.000Z</time>
      </trkpt>
      <trkpt lat="46.53366" lon="0.2696">
        <ele>187.18</ele>
        <time>2018-09-16T09:46:59.000Z</time>
      </trkpt>
      <trkpt lat="46.53357" lon="0.26953">
        <ele>187.29</ele>
        <time>2018-09-16T09:47:02.000Z</time>
      </trkpt>
      <trkpt lat="46.53346" lon="0.26945">
        <ele>187.32</ele>
        <time>2018-09-16T09:47:05.000Z</time>
      </trkpt>
      <trkpt lat="46.53336" lon="0.26938">
        <ele>187.29</ele>
        <time>2018-09-16T09:47:08.000Z</time>
      </trkpt>
      <trkpt lat="46.53326" lon="0.26932">
        <ele>187.29</ele>
        <time>2018-09-16T09:47:12.000Z</time>
      </trkpt>
      <trkpt lat="46.53316" lon="0.26926">
        <ele>187.43</ele>
        <time>2018-09-16T09:47:16.000Z</time>
      </trkpt>
      <trkpt lat="46.53307" lon="0.26922">
        <ele>187.54</ele>
        <time>2018-09-16T09:47:18.000Z</time>
      </trkpt>
      <trkpt lat="46.53299" lon="0.26917">
        <ele>187.61</ele>
        <time>2018-09-16T09:47:20.000Z</time>
      </trkpt>
      <trkpt lat="46.5329" lon="0.2691">
        <ele>187.67</ele>
        <time>2018-09-16T09:47:22.000Z</time>
      </trkpt>
      <trkpt lat="46.53278" lon="0.26903">
        <ele>187.67</ele>
        <time>2018-09-16T09:47:25.000Z</time>
      </trkpt>
      <trkpt lat="46.53269" lon="0.26896">
        <ele>187.63</ele>
        <time>2018-09-16T09:47:27.000Z</time>
      </trkpt>
      <trkpt lat="46.53261" lon="0.26889">
        <ele>187.63</ele>
        <time>2018-09-16T09:47:29.000Z</time>
      </trkpt>
      <trkpt lat="46.53251" lon="0.26882">
        <ele>188.07</ele>
        <time>2018-09-16T09:47:31.000Z</time>
      </trkpt>
      <trkpt lat="46.53242" lon="0.26877">
        <ele>188.18</ele>
        <time>2018-09-16T09:47:33.000Z</time>
      </trkpt>
      <trkpt lat="46.5323" lon="0.2687">
        <ele>187.91</ele>
        <time>2018-09-16T09:47:36.000Z</time>
      </trkpt>
      <trkpt lat="46.5322" lon="0.26861">
        <ele>187.95</ele>
        <time>2018-09-16T09:47:38.000Z</time>
      </trkpt>
      <trkpt lat="46.5321" lon="0.26853">
        <ele>188.08</ele>
        <time>2018-09-16T09:47:40.000Z</time>
      </trkpt>
      <trkpt lat="46.53199" lon="0.26845">
        <ele>188.23</ele>
        <time>2018-09-16T09:47:42.000Z</time>
      </trkpt>
      <trkpt lat="46.53188" lon="0.26837">
        <ele>188.34</ele>
        <time>2018-09-16T09:47:44.000Z</time>
      </trkpt>
      <trkpt lat="46.53177" lon="0.26828">
        <ele>188.23</ele>
        <time>2018-09-16T09:47:46.000Z</time>
      </trkpt>
      <trkpt lat="46.53166" lon="0.26819">
        <ele>188.73</ele>
        <time>2018-09-16T09:47:48.000Z</time>
      </trkpt>
      <trkpt lat="46.53157" lon="0.26812">
        <ele>189.34</ele>
        <time>2018-09-16T09:47:50.000Z</time>
      </trkpt>
      <trkpt lat="46.53149" lon="0.26807">
        <ele>189.72</ele>
        <time>2018-09-16T09:47:52.000Z</time>
      </trkpt>
      <trkpt lat="46.5314" lon="0.268">
        <ele>189.55</ele>
        <time>2018-09-16T09:47:54.000Z</time>
      </trkpt>
      <trkpt lat="46.53131" lon="0.26795">
        <ele>189.42</ele>
        <time>2018-09-16T09:47:56.000Z</time>
      </trkpt>
      <trkpt lat="46.53119" lon="0.2679">
        <ele>189.79</ele>
        <time>2018-09-16T09:47:58.000Z</time>
      </trkpt>
      <trkpt lat="46.53109" lon="0.26785">
        <ele>189.67</ele>
        <time>2018-09-16T09:48:00.000Z</time>
      </trkpt>
      <trkpt lat="46.53097" lon="0.26779">
        <ele>189.35</ele>
        <time>2018-09-16T09:48:02.000Z</time>
      </trkpt>
      <trkpt lat="46.53087" lon="0.26774">
        <ele>188.98</ele>
        <time>2018-09-16T09:48:04.000Z</time>
      </trkpt>
      <trkpt lat="46.53077" lon="0.26769">
        <ele>188.41</ele>
        <time>2018-09-16T09:48:06.000Z</time>
      </trkpt>
      <trkpt lat="46.53066" lon="0.26763">
        <ele>187.66</ele>
        <time>2018-09-16T09:48:08.000Z</time>
      </trkpt>
      <trkpt lat="46.53055" lon="0.26758">
        <ele>186.79</ele>
        <time>2018-09-16T09:48:09.999Z</time>
      </trkpt>
      <trkpt lat="46.53043" lon="0.26753">
        <ele>185.9</ele>
        <time>2018-09-16T09:48:11.999Z</time>
      </trkpt>
      <trkpt lat="46.53032" lon="0.26747">
        <ele>185.24</ele>
        <time>2018-09-16T09:48:13.999Z</time>
      </trkpt>
      <trkpt lat="46.53022" lon="0.2674">
        <ele>185</ele>
        <time>2018-09-16T09:48:15.999Z</time>
      </trkpt>
      <trkpt lat="46.53013" lon="0.26731">
        <ele>185.44</ele>
        <time>2018-09-16T09:48:17.999Z</time>
      </trkpt>
      <trkpt lat="46.53005" lon="0.26724">
        <ele>185.99</ele>
        <time>2018-09-16T09:48:19.999Z</time>
      </trkpt>
      <trkpt lat="46.52996" lon="0.26714">
        <ele>186.77</ele>
        <time>2018-09-16T09:48:21.999Z</time>
      </trkpt>
      <trkpt lat="46.52987" lon="0.26704">
        <ele>187.06</ele>
        <time>2018-09-16T09:48:23.999Z</time>
      </trkpt>
      <trkpt lat="46.52977" lon="0.26694">
        <ele>187.3</ele>
        <time>2018-09-16T09:48:25.999Z</time>
      </trkpt>
      <trkpt lat="46.52968" lon="0.26682">
        <ele>187.58</ele>
        <time>2018-09-16T09:48:27.999Z</time>
      </trkpt>
      <trkpt lat="46.52958" lon="0.26673">
        <ele>187.6</ele>
        <time>2018-09-16T09:48:29.999Z</time>
      </trkpt>
      <trkpt lat="46.52948" lon="0.26665">
        <ele>188.12</ele>
        <time>2018-09-16T09:48:31.999Z</time>
      </trkpt>
      <trkpt lat="46.5294" lon="0.26659">
        <ele>188.7</ele>
        <time>2018-09-16T09:48:33.999Z</time>
      </trkpt>
      <trkpt lat="46.5293" lon="0.26652">
        <ele>188.87</ele>
        <time>2018-09-16T09:48:35.999Z</time>
      </trkpt>
      <trkpt lat="46.5292" lon="0.26644">
        <ele>188.75</ele>
        <time>2018-09-16T09:48:37.999Z</time>
      </trkpt>
      <trkpt lat="46.52913" lon="0.26633">
        <ele>189.63</ele>
        <time>2018-09-16T09:48:39.999Z</time>
      </trkpt>
      <trkpt lat="46.52905" lon="0.2662">
        <ele>191.01</ele>
        <time>2018-09-16T09:48:42.999Z</time>
      </trkpt>
      <trkpt lat="46.5291" lon="0.26607">
        <ele>191.7</ele>
        <time>2018-09-16T09:48:47.999Z</time>
      </trkpt>
      <trkpt lat="46.52919" lon="0.26599">
        <ele>192.5</ele>
        <time>2018-09-16T09:48:51.999Z</time>
      </trkpt>
      <trkpt lat="46.52931" lon="0.26595">
        <ele>193.49</ele>
        <time>2018-09-16T09:48:55.999Z</time>
      </trkpt>
      <trkpt lat="46.52942" lon="0.2659">
        <ele>194.58</ele>
        <time>2018-09-16T09:48:59.999Z</time>
      </trkpt>
      <trkpt lat="46.52953" lon="0.26585">
        <ele>195.62</ele>
        <time>2018-09-16T09:49:03.999Z</time>
      </trkpt>
      <trkpt lat="46.52964" lon="0.26574">
        <ele>196.18</ele>
        <time>2018-09-16T09:49:07.999Z</time>
      </trkpt>
      <trkpt lat="46.52972" lon="0.26561">
        <ele>196.4</ele>
        <time>2018-09-16T09:49:10.999Z</time>
      </trkpt>
      <trkpt lat="46.52978" lon="0.26549">
        <ele>196.56</ele>
        <time>2018-09-16T09:49:13.999Z</time>
      </trkpt>
      <trkpt lat="46.52986" lon="0.26533">
        <ele>196.69</ele>
        <time>2018-09-16T09:49:17.999Z</time>
      </trkpt>
      <trkpt lat="46.52992" lon="0.26521">
        <ele>196.66</ele>
        <time>2018-09-16T09:49:20.999Z</time>
      </trkpt>
      <trkpt lat="46.52997" lon="0.26507">
        <ele>196.61</ele>
        <time>2018-09-16T09:49:23.999Z</time>
      </trkpt>
      <trkpt lat="46.53003" lon="0.26493">
        <ele>196.66</ele>
        <time>2018-09-16T09:49:26.999Z</time>
      </trkpt>
      <trkpt lat="46.53006" lon="0.26481">
        <ele>196.8</ele>
        <time>2018-09-16T09:49:29.999Z</time>
      </trkpt>
      <trkpt lat="46.52998" lon="0.26474">
        <ele>196.95</ele>
        <time>2018-09-16T09:49:34.999Z</time>
      </trkpt>
      <trkpt lat="46.5299" lon="0.26488">
        <ele>197.56</ele>
        <time>2018-09-16T09:49:38.999Z</time>
      </trkpt>
      <trkpt lat="46.52982" lon="0.26503">
        <ele>198.36</ele>
        <time>2018-09-16T09:49:41.999Z</time>
      </trkpt>
      <trkpt lat="46.52979" lon="0.26515">
        <ele>199.34</ele>
        <time>2018-09-16T09:49:43.999Z</time>
      </trkpt>
      <trkpt lat="46.52975" lon="0.26531">
        <ele>199.65</ele>
        <time>2018-09-16T09:49:45.999Z</time>
      </trkpt>
      <trkpt lat="46.52971" lon="0.26543">
        <ele>200.01</ele>
        <time>2018-09-16T09:49:47.999Z</time>
      </trkpt>
      <trkpt lat="46.52966" lon="0.26555">
        <ele>200</ele>
        <time>2018-09-16T09:49:49.999Z</time>
      </trkpt>
      <trkpt lat="46.52956" lon="0.26554">
        <ele>200.11</ele>
        <time>2018-09-16T09:49:52.999Z</time>
      </trkpt>
      <trkpt lat="46.52947" lon="0.26539">
        <ele>200.95</ele>
        <time>2018-09-16T09:49:55.999Z</time>
      </trkpt>
      <trkpt lat="46.52941" lon="0.26529">
        <ele>201.78</ele>
        <time>2018-09-16T09:49:57.999Z</time>
      </trkpt>
      <trkpt lat="46.52935" lon="0.26513">
        <ele>203.4</ele>
        <time>2018-09-16T09:50:00.999Z</time>
      </trkpt>
      <trkpt lat="46.52928" lon="0.26495">
        <ele>203.74</ele>
        <time>2018-09-16T09:50:03.999Z</time>
      </trkpt>
      <trkpt lat="46.52924" lon="0.26483">
        <ele>204.29</ele>
        <time>2018-09-16T09:50:05.999Z</time>
      </trkpt>
      <trkpt lat="46.52915" lon="0.26476">
        <ele>204.57</ele>
        <time>2018-09-16T09:50:09.999Z</time>
      </trkpt>
      <trkpt lat="46.52906" lon="0.26488">
        <ele>205.22</ele>
        <time>2018-09-16T09:50:12.999Z</time>
      </trkpt>
      <trkpt lat="46.52898" lon="0.26498">
        <ele>204.78</ele>
        <time>2018-09-16T09:50:14.999Z</time>
      </trkpt>
      <trkpt lat="46.52892" lon="0.2651">
        <ele>204.18</ele>
        <time>2018-09-16T09:50:16.999Z</time>
      </trkpt>
      <trkpt lat="46.52881" lon="0.26516">
        <ele>202.56</ele>
        <time>2018-09-16T09:50:20.999Z</time>
      </trkpt>
      <trkpt lat="46.52869" lon="0.26516">
        <ele>199.98</ele>
        <time>2018-09-16T09:50:22.999Z</time>
      </trkpt>
      <trkpt lat="46.52856" lon="0.26517">
        <ele>198.09</ele>
        <time>2018-09-16T09:50:24.999Z</time>
      </trkpt>
      <trkpt lat="46.52844" lon="0.26517">
        <ele>196.6</ele>
        <time>2018-09-16T09:50:26.999Z</time>
      </trkpt>
      <trkpt lat="46.52833" lon="0.26514">
        <ele>195.88</ele>
        <time>2018-09-16T09:50:29.999Z</time>
      </trkpt>
      <trkpt lat="46.52832" lon="0.265">
        <ele>195.72</ele>
        <time>2018-09-16T09:50:33.999Z</time>
      </trkpt>
      <trkpt lat="46.52834" lon="0.26485">
        <ele>195.64</ele>
        <time>2018-09-16T09:50:36.999Z</time>
      </trkpt>
      <trkpt lat="46.52836" lon="0.26471">
        <ele>195.6</ele>
        <time>2018-09-16T09:50:40.999Z</time>
      </trkpt>
      <trkpt lat="46.52838" lon="0.26457">
        <ele>195.67</ele>
        <time>2018-09-16T09:50:44.999Z</time>
      </trkpt>
      <trkpt lat="46.52839" lon="0.26443">
        <ele>195.89</ele>
        <time>2018-09-16T09:50:48.999Z</time>
      </trkpt>
      <trkpt lat="46.52843" lon="0.26431">
        <ele>195.99</ele>
        <time>2018-09-16T09:50:51.999Z</time>
      </trkpt>
      <trkpt lat="46.52845" lon="0.26416">
        <ele>195.71</ele>
        <time>2018-09-16T09:50:57.999Z</time>
      </trkpt>
      <trkpt lat="46.52855" lon="0.26413">
        <ele>195.26</ele>
        <time>2018-09-16T09:51:02.999Z</time>
      </trkpt>
      <trkpt lat="46.52865" lon="0.26415">
        <ele>194.76</ele>
        <time>2018-09-16T09:51:07.999Z</time>
      </trkpt>
      <trkpt lat="46.52863" lon="0.26398">
        <ele>194.53</ele>
        <time>2018-09-16T09:51:14.999Z</time>
      </trkpt>
      <trkpt lat="46.52863" lon="0.26384">
        <ele>194.91</ele>
        <time>2018-09-16T09:51:19.999Z</time>
      </trkpt>
      <trkpt lat="46.52861" lon="0.26371">
        <ele>195.24</ele>
        <time>2018-09-16T09:51:23.999Z</time>
      </trkpt>
      <trkpt lat="46.52861" lon="0.26355">
        <ele>195.67</ele>
        <time>2018-09-16T09:51:28.999Z</time>
      </trkpt>
      <trkpt lat="46.52858" lon="0.26342">
        <ele>196.01</ele>
        <time>2018-09-16T09:51:32.999Z</time>
      </trkpt>
      <trkpt lat="46.52848" lon="0.26347">
        <ele>196.76</ele>
        <time>2018-09-16T09:51:35.999Z</time>
      </trkpt>
      <trkpt lat="46.52844" lon="0.26359">
        <ele>197.11</ele>
        <time>2018-09-16T09:51:37.999Z</time>
      </trkpt>
      <trkpt lat="46.52838" lon="0.26379">
        <ele>195.87</ele>
        <time>2018-09-16T09:51:39.999Z</time>
      </trkpt>
      <trkpt lat="46.52833" lon="0.26403">
        <ele>193.63</ele>
        <time>2018-09-16T09:51:41.999Z</time>
      </trkpt>
      <trkpt lat="46.52831" lon="0.26417">
        <ele>192.22</ele>
        <time>2018-09-16T09:51:42.999Z</time>
      </trkpt>
      <trkpt lat="46.52829" lon="0.26431">
        <ele>190.84</ele>
        <time>2018-09-16T09:51:43.999Z</time>
      </trkpt>
      <trkpt lat="46.52827" lon="0.26445">
        <ele>189.5</ele>
        <time>2018-09-16T09:51:44.999Z</time>
      </trkpt>
      <trkpt lat="46.52824" lon="0.26471">
        <ele>187.16</ele>
        <time>2018-09-16T09:51:46.999Z</time>
      </trkpt>
      <trkpt lat="46.52819" lon="0.26493">
        <ele>184.93</ele>
        <time>2018-09-16T09:51:48.999Z</time>
      </trkpt>
      <trkpt lat="46.52806" lon="0.26509">
        <ele>182.73</ele>
        <time>2018-09-16T09:51:50.999Z</time>
      </trkpt>
      <trkpt lat="46.52798" lon="0.26514">
        <ele>181.57</ele>
        <time>2018-09-16T09:51:51.999Z</time>
      </trkpt>
      <trkpt lat="46.52789" lon="0.2652">
        <ele>180.53</ele>
        <time>2018-09-16T09:51:52.999Z</time>
      </trkpt>
      <trkpt lat="46.5278" lon="0.26527">
        <ele>179.72</ele>
        <time>2018-09-16T09:51:53.999Z</time>
      </trkpt>
      <trkpt lat="46.52772" lon="0.26535">
        <ele>179.13</ele>
        <time>2018-09-16T09:51:54.999Z</time>
      </trkpt>
      <trkpt lat="46.52757" lon="0.26548">
        <ele>177.9</ele>
        <time>2018-09-16T09:51:56.999Z</time>
      </trkpt>
      <trkpt lat="46.52744" lon="0.2655">
        <ele>176.87</ele>
        <time>2018-09-16T09:51:58.999Z</time>
      </trkpt>
      <trkpt lat="46.52734" lon="0.26544">
        <ele>175.63</ele>
        <time>2018-09-16T09:52:00.999Z</time>
      </trkpt>
      <trkpt lat="46.52725" lon="0.26539">
        <ele>174.42</ele>
        <time>2018-09-16T09:52:02.999Z</time>
      </trkpt>
      <trkpt lat="46.52715" lon="0.26532">
        <ele>174.25</ele>
        <time>2018-09-16T09:52:05.999Z</time>
      </trkpt>
      <trkpt lat="46.52705" lon="0.26528">
        <ele>174.07</ele>
        <time>2018-09-16T09:52:08.999Z</time>
      </trkpt>
      <trkpt lat="46.52696" lon="0.26527">
        <ele>173.82</ele>
        <time>2018-09-16T09:52:12.999Z</time>
      </trkpt>
      <trkpt lat="46.52691" lon="0.26542">
        <ele>173.56</ele>
        <time>2018-09-16T09:52:17.999Z</time>
      </trkpt>
      <trkpt lat="46.52689" lon="0.26555">
        <ele>172</ele>
        <time>2018-09-16T09:52:47.999Z</time>
      </trkpt>
      <trkpt lat="46.52685" lon="0.26568">
        <ele>170.98</ele>
        <time>2018-09-16T09:53:00.999Z</time>
      </trkpt>
    </trkseg>
  </trk>
</gpx>